<
# Wetter Temperatur Luftdruck Luftfeuchtigkeit Sichtweite Windgeschwindigkeit Windrichtung Zeit
1 Rain 2 1008 80 10000 2.1 150 09:40 29.01.2020
2 Rain 1 1008 80 10000 2.1 150 09:21 29.01.2020
3 Rain 1 1007 80 10000 4.6 180 08:57 29.01.2020
4 Clouds 1 1007 74 10000 4.1 130 08:39 29.01.2020
5 Clouds 1 1007 74 10000 4.1 130 08:20 29.01.2020
6 Clouds 1 1006 64 10000 2.6 220 07:44 29.01.2020
7 Clouds 1 1006 64 10000 2.6 220 07:24 29.01.2020
8 Clouds 1 1005 64 10000 4.1 260 06:55 29.01.2020
9 Clouds 1 1005 69 10000 2.6 220 06:37 29.01.2020
10 Clouds 1 1005 69 10000 2.6 220 06:18 29.01.2020
11 Clouds 1 1006 74 10000 3.6 220 05:44 29.01.2020
12 Clouds 1 1006 74 10000 3.1 300 05:25 29.01.2020
13 Clear 1 1006 69 10000 6.2 280 04:37 29.01.2020
14 Clouds 2 1006 69 10000 8.2 270 02:50 29.01.2020
15 Clouds 3 1005 69 10000 6.7 270 02:18 29.01.2020
16 Rain 3 1005 65 10000 9.3 290 00:43 29.01.2020
17 Clouds 3 1005 69 10000 3.6 280 00:24 29.01.2020
18 Clouds 3 1005 69 10000 3.1 290 23:56 28.01.2020
19 Clouds 3 1004 69 10000 4.1 290 23:37 28.01.2020
20 Clouds 3 1004 69 10000 4.1 290 23:18 28.01.2020
21 Clouds 3 1004 65 10000 8.7 280 22:40 28.01.2020
22 Clouds 3 1004 65 10000 8.7 280 22:21 28.01.2020
23 Clouds 3 1003 65 10000 10.8 290 21:42 28.01.2020
24 Clouds 3 1003 69 10000 6.7 300 21:23 28.01.2020
25 Clouds 3 1003 69 10000 5.1 280 20:58 28.01.2020
26 Clouds 3 1003 69 10000 7.2 280 20:40 28.01.2020
27 Rain 4 1003 80 10000 3.1 270 20:21 28.01.2020
28 Rain 3 1003 100 10000 1 0 19:39 28.01.2020
29 Rain 3 1003 100 10000 1 0 19:20 28.01.2020
30 Rain 3 1003 100 10000 2.6 180 18:58 28.01.2020
31 Mist 3 1003 93 10000 4.1 190 18:40 28.01.2020
32 Mist 3 1003 93 10000 4.1 190 18:21 28.01.2020
33 Clouds 3 1003 93 7000 0.5 0 17:59 28.01.2020
34 Clouds 3 1003 93 6000 2.6 140 17:38 28.01.2020
35 Rain 3 1003 93 6000 2.6 140 17:19 28.01.2020
36 Rain 2 1005 100 4100 3.1 170 16:55 28.01.2020
37 Rain 2 1005 100 700 4.1 260 16:37 28.01.2020
38 Rain 2 1003 100 450 1 0 16:19 28.01.2020
39 Rain 2 1003 100 450 1 0 15:44 28.01.2020
40 Fog 2 1003 100 350 3.1 110 15:19 28.01.2020
41 Fog 2 1003 100 350 1 0 14:55 28.01.2020
42 Rain 2 1003 100 450 2.6 130 14:36 28.01.2020
43 Fog 2 1003 100 400 3.6 120 14:18 28.01.2020
44 Fog 2 1003 100 550 3.6 130 13:39 28.01.2020
45 Fog 2 1003 100 550 3.6 130 13:21 28.01.2020
46 Fog 2 1003 100 550 3.6 130 13:21 28.01.2020
47 Fog 2 1004 100 750 3.6 140 12:42 28.01.2020
48 Fog 2 1004 100 450 3.6 120 12:24 28.01.2020
49 Fog 2 1004 100 550 4.1 130 11:55 28.01.2020
50 Fog 2 1005 100 450 3.6 130 11:37 28.01.2020
51 Fog 1 1005 100 450 3.6 130 11:18 28.01.2020
52 Fog 1 1006 81 300 2.6 110 10:40 28.01.2020
53 Rain 1 1006 81 300 2.6 110 10:22 28.01.2020
54 Rain 1 1006 81 350 2.1 140 09:55 28.01.2020
55 Rain 1 1006 81 350 2.1 140 09:55 28.01.2020
56 Rain 1 1006 81 350 1.5 130 09:36 28.01.2020
57 Fog 0 1007 81 400 2.6 140 09:18 28.01.2020
58 Fog 0 1006 81 450 4.1 120 08:40 28.01.2020
59 Fog 0 1006 93 450 4.1 120 08:19 28.01.2020
60 Fog 0 1006 93 600 4.1 110 07:38 28.01.2020
61 Fog 0 1006 93 700 4.1 100 06:51 28.01.2020
62 Fog 0 1006 93 700 2.6 100 06:28 28.01.2020
63 Fog 0 1007 93 800 2.6 100 05:55 28.01.2020
64 Fog 0 1007 93 800 4.6 130 05:33 28.01.2020
65 Fog 0 1007 94 800 5.1 130 04:38 28.01.2020
66 Mist -1 1007 100 1100 6.7 130 03:33 28.01.2020
67 Mist -1 1008 100 900 6.7 140 02:25 28.01.2020
68 Mist -1 1008 100 900 6.7 140 02:25 28.01.2020
69 Mist -1 1009 100 1000 6.7 140 01:57 28.01.2020
70 Mist -1 1009 100 1100 7.7 130 01:32 28.01.2020
71 Fog -1 1010 100 900 7.2 130 00:51 28.01.2020
72 Fog -1 1011 100 750 6.7 130 00:29 28.01.2020
73 Fog -1 1011 100 700 7.7 130 23:51 27.01.2020
74 Fog -1 1011 100 700 7.7 130 23:51 27.01.2020
75 Rain -1 1012 92 700 5.7 130 23:30 27.01.2020
76 Rain -1 1012 92 750 6.2 130 22:59 27.01.2020
77 Rain -1 1013 100 800 6.7 130 22:41 27.01.2020
78 Fog -1 1014 100 800 5.1 140 22:20 27.01.2020
79 Fog -1 1014 100 800 5.1 140 21:56 27.01.2020
80 Fog -1 1014 100 700 5.1 140 21:37 27.01.2020
81 Fog -1 1014 92 750 4.6 140 21:18 27.01.2020
82 Fog -1 1014 92 750 4.6 140 20:54 27.01.2020
83 Fog -1 1015 100 700 4.1 140 20:36 27.01.2020
84 Fog -1 1015 100 700 4.1 140 20:18 27.01.2020
85 Fog -1 1015 100 550 2.6 130 19:41 27.01.2020
86 Fog 0 1015 100 550 2.6 130 19:23 27.01.2020
87 Fog 0 1016 100 650 3.6 120 18:56 27.01.2020
88 Fog 0 1016 100 500 2.6 110 18:38 27.01.2020
89 Fog 0 1016 100 500 2.6 110 18:19 27.01.2020
90 Fog 1 1016 100 650 3.6 150 17:39 27.01.2020
91 Fog 1 1016 100 650 3.6 150 17:21 27.01.2020
92 Fog 1 1016 100 650 3.6 150 16:59 27.01.2020
93 Fog 1 1017 74 1000 2.6 140 16:41 27.01.2020
94 Fog 2 1017 74 1000 2.6 140 16:23 27.01.2020
95 Mist 2 1017 74 2400 1 0 15:55 27.01.2020
96 Mist 2 1017 74 3600 1 0 15:37 27.01.2020
97 Mist 2 1017 74 3600 1 0 15:37 27.01.2020
98 Mist 2 1017 74 3600 1 0 15:18 27.01.2020
99 Mist 2 1017 74 2800 2.6 130 14:42 27.01.2020
100 Mist 2 1017 61 2800 2.6 130 14:22 27.01.2020
101 Fog 3 1018 61 1300 3.1 120 13:58 27.01.2020
102 Fog 3 1018 61 1300 3.1 120 13:40 27.01.2020
103 Fog 3 1018 66 1200 1.5 110 13:20 27.01.2020
104 Fog 3 1018 66 900 1.5 100 12:54 27.01.2020
105 Fog 3 1019 100 600 1.5 110 12:36 27.01.2020
106 Fog 2 1019 100 600 1.5 110 12:18 27.01.2020
107 Fog 2 1019 100 550 1.5 110 11:41 27.01.2020
108 Fog 2 1019 100 550 1.5 110 11:41 27.01.2020
109 Fog 1 1019 100 450 1.5 100 11:20 27.01.2020
110 Fog 0 1019 100 400 1 0 10:43 27.01.2020
111 Fog 0 1019 100 400 1 0 10:24 27.01.2020
112 Fog 0 1019 100 400 1 0 09:56 27.01.2020
113 Fog 0 1019 100 350 0.5 0 09:38 27.01.2020
114 Fog 0 1019 100 350 0.5 0 09:18 27.01.2020
115 Fog -1 1019 100 350 1 30 08:42 27.01.2020
116 Fog -1 1019 92 400 1 0 08:20 27.01.2020
117 Fog -1 1019 100 500 1 130 07:54 27.01.2020
118 Fog -1 1019 100 600 0.5 0 07:34 27.01.2020
119 Fog -1 1019 100 550 0.5 0 06:53 27.01.2020
120 Fog -1 1019 100 750 0.5 0 06:25 27.01.2020
121 Clouds -1 1019 100 800 1 0 05:23 27.01.2020
122 Mist -1 1020 100 800 0.5 0 03:49 27.01.2020
123 Fog -1 1020 100 800 1 0 02:38 27.01.2020
124 Mist -1 1020 100 1200 1 0 01:29 27.01.2020
125 Mist -1 1021 100 1900 1.5 110 00:57 27.01.2020
126 Mist -1 1021 100 3500 2.1 130 00:36 27.01.2020
127 Mist -1 1021 100 4100 2.1 130 00:18 27.01.2020
128 Mist -1 1021 100 3500 2.1 130 00:18 27.01.2020
129 Mist -1 1021 100 4100 2.1 130 23:41 26.01.2020
130 Mist -1 1021 100 5000 1.5 120 23:41 26.01.2020
131 Mist -1 1021 100 5000 1.5 120 23:19 26.01.2020
132 Mist -1 1021 100 5000 1.5 130 22:54 26.01.2020
133 Mist -1 1021 100 4800 2.1 140 22:36 26.01.2020
134 Mist -1 1021 100 4800 2.1 140 22:18 26.01.2020
135 Mist -1 1021 100 4200 2.1 150 21:55 26.01.2020
136 Mist -1 1021 100 4200 2.1 170 21:37 26.01.2020
137 Mist -1 1021 100 4200 2.1 170 21:18 26.01.2020
138 Mist -1 1021 100 4200 2.1 170 21:18 26.01.2020
139 Mist -1 1021 100 4700 1 0 20:55 26.01.2020
140 Mist -1 1021 100 5000 2.1 180 20:36 26.01.2020
141 Mist -1 1021 100 5000 2.1 180 20:18 26.01.2020
142 Mist -1 1021 100 4300 1.5 150 19:41 26.01.2020
143 Mist -1 1021 100 4300 2.6 160 19:21 26.01.2020
144 Mist -1 1021 100 4500 1.5 160 18:59 26.01.2020
145 Mist -1 1021 100 3000 1.5 140 18:40 26.01.2020
146 Mist -1 1021 100 3000 1.5 140 18:22 26.01.2020
147 Mist -1 1021 100 1400 1.5 160 17:58 26.01.2020
148 Mist -1 1021 100 2100 2.1 190 17:38 26.01.2020
149 Mist -1 1021 100 2100 2.1 190 17:19 26.01.2020
150 Mist 0 1021 92 2100 2.1 160 16:58 26.01.2020
151 Mist 0 1021 92 1400 1.5 160 16:39 26.01.2020
152 Mist 0 1021 92 1400 1.5 160 16:20 26.01.2020
153 Clear 0 1022 89 0 2.34 113 15:57 26.01.2020
154 Clear 0 1012 88 0 2.34 113 15:39 26.01.2020
155 Clear 0 1022 88 0 2.34 113 15:18 26.01.2020
156 Clear 0 1021 93 0 2.34 113 14:40 26.01.2020
157 Clouds 0 1013 88 0 2.34 133 14:20 26.01.2020
158 Clouds 0 1013 88 0 2.34 133 13:43 26.01.2020
159 Clouds 0 1022 94 0 2.22 124 13:21 26.01.2020
160 Clouds 0 1023 89 0 2.22 124 12:58 26.01.2020
161 Clouds 0 1023 89 0 2.22 124 12:40 26.01.2020
162 Clouds 0 1023 89 0 2.22 124 12:21 26.01.2020
163 Clouds 0 1014 89 0 2.22 124 11:57 26.01.2020
164 Clouds 0 1014 89 0 2.22 124 11:39 26.01.2020
165 Mist -1 1023 92 4700 3.1 150 11:18 26.01.2020
166 Mist -1 1023 92 4700 3.1 150 10:58 26.01.2020
167 Mist -1 1023 92 4700 3.1 150 10:38 26.01.2020
168 Mist -1 1023 92 4700 3.1 150 10:20 26.01.2020
169 Mist -1 1023 92 3800 2.6 150 09:57 26.01.2020
170 Mist -1 1023 92 2200 2.6 150 09:39 26.01.2020
171 Mist -1 1023 92 2200 2.6 150 09:39 26.01.2020
172 Mist -1 1023 92 2200 2.6 150 09:20 26.01.2020
173 Mist -1 1023 92 3300 2.6 160 08:43 26.01.2020
174 Mist -1 1023 92 3300 2.6 160 08:22 26.01.2020
175 Mist -1 1023 92 2800 2.6 160 07:57 26.01.2020
176 Mist -1 1023 92 2400 2.6 150 07:39 26.01.2020
177 Mist -1 1023 92 2400 2.6 150 07:20 26.01.2020
178 Mist -1 1022 100 4200 2.1 180 06:30 26.01.2020
179 Mist -2 1022 100 2000 2.6 160 05:31 26.01.2020
180 Clouds -2 1022 100 1200 2.6 170 04:45 26.01.2020
181 Mist -1 1023 100 1100 3.1 120 02:42 26.01.2020
182 Mist -1 1023 92 2100 2.6 120 01:48 26.01.2020
183 Mist -1 1023 92 3100 2.1 110 01:24 26.01.2020
184 Mist -1 1024 100 4400 2.1 170 00:44 26.01.2020
185 Mist -1 1024 100 4400 2.1 170 00:26 26.01.2020
186 Clouds -1 1023 93 0 1.07 129 23:41 25.01.2020
187 Clouds -1 1024 89 0 1.11 127 23:22 25.01.2020
188 Clouds -1 1024 91 0 0.45 215 22:58 25.01.2020
189 Clouds -1 1022 86 0 1.11 127 22:40 25.01.2020
190 Clouds -1 1022 86 0 1.11 127 22:19 25.01.2020
191 Clouds -1 1023 93 0 1.11 127 21:57 25.01.2020
192 Clouds -1 1024 90 0 1.11 127 21:38 25.01.2020
193 Clouds -1 1024 90 0 1.11 127 21:19 25.01.2020
194 Clouds -1 1024 84 0 1.11 127 20:44 25.01.2020
195 Clouds -1 1014 90 0 1.21 171 20:25 25.01.2020
196 Clouds -1 1024 83 0 1.12 169 19:55 25.01.2020
197 Clouds -1 1015 90 0 1.12 169 19:37 25.01.2020
198 Clouds 0 1023 90 0 1.12 169 19:18 25.01.2020
199 Clouds 0 1024 90 0 1.12 169 18:41 25.01.2020
200 Clouds 0 1023 90 0 1.12 169 18:21 25.01.2020
201 Clouds 0 1014 89 0 1.12 169 17:58 25.01.2020
202 Clouds 0 1024 89 0 1.12 169 17:38 25.01.2020
203 Clouds 0 1023 89 0 1.31 132 17:18 25.01.2020
204 Clouds 0 1023 89 0 1.39 128 16:42 25.01.2020
205 Clouds 0 1023 89 0 1.39 128 16:23 25.01.2020
206 Clouds 0 1024 89 0 1.39 128 15:58 25.01.2020
207 Clouds 0 1021 85 0 1.39 128 15:39 25.01.2020
208 Clouds 0 1021 84 0 1.39 128 15:20 25.01.2020
209 Clouds 0 1024 89 0 1.39 128 15:20 25.01.2020
210 Clouds 0 1024 88 0 1.39 128 14:42 25.01.2020
211 Clouds 0 1023 90 0 1.32 148 14:19 25.01.2020
212 Clouds 1 1024 88 0 1.32 148 13:45 25.01.2020
213 Clouds 0 1024 88 0 1.05 130 13:27 25.01.2020
214 Mist 0 1025 100 1300 1.5 210 12:58 25.01.2020
215 Mist 0 1024 92 2300 2.1 200 12:39 25.01.2020
216 Mist 0 1024 92 2300 2.1 200 12:20 25.01.2020
217 Mist 0 1024 66 1600 1 240 11:40 25.01.2020
218 Snow 0 1024 100 1800 2.6 170 11:20 25.01.2020
219 Mist 0 1024 100 2200 2.1 190 10:56 25.01.2020
220 Mist 0 1024 100 2000 1.5 170 10:38 25.01.2020
221 Mist 0 1024 100 2000 1.5 170 10:18 25.01.2020
222 Mist -1 1024 100 1700 1.5 230 09:40 25.01.2020
223 Mist -1 1024 100 1700 1.5 230 09:19 25.01.2020
224 Clouds -1 1024 100 1100 2.1 240 08:43 25.01.2020
225 Clouds -1 1023 100 1200 3.1 200 07:58 25.01.2020
226 Fog -1 1023 100 900 2.1 220 07:36 25.01.2020
227 Fog -1 1023 100 900 2.1 220 07:36 25.01.2020
228 Fog -1 1023 100 800 2.1 240 06:41 25.01.2020
229 Fog -1 1023 100 900 2.1 240 06:22 25.01.2020
230 Mist -1 1023 100 1100 2.6 220 05:43 25.01.2020
231 Mist -1 1023 100 1300 2.1 220 04:24 25.01.2020
232 Mist -2 1023 100 1500 1.5 220 03:50 25.01.2020
233 Mist -2 1024 100 1400 2.6 170 02:38 25.01.2020
234 Mist -2 1024 100 1300 2.6 170 01:57 25.01.2020
235 Mist -2 1024 92 2200 3.1 170 01:23 25.01.2020
236 Rain -2 1024 92 2800 2.6 160 00:41 25.01.2020
237 Rain -2 1024 92 2800 2.6 160 00:41 25.01.2020
238 Mist -2 1024 92 2800 2.6 160 00:22 25.01.2020
239 Mist -1 1025 92 3500 1.5 160 23:42 24.01.2020
240 Mist -1 1025 92 3500 1.5 160 23:24 24.01.2020
241 Mist -1 1025 92 4300 1.5 140 22:47 24.01.2020
242 Mist -1 1025 92 4300 1.5 140 22:28 24.01.2020
243 Mist -1 1025 92 4700 1.5 110 21:59 24.01.2020
244 Mist -1 1025 92 4700 1.5 110 21:40 24.01.2020
245 Mist -1 1025 92 5000 0.5 0 21:19 24.01.2020
246 Mist -1 1025 92 5000 2.1 220 20:44 24.01.2020
247 Mist -1 1025 92 5000 2.1 210 20:22 24.01.2020
248 Mist -1 1025 92 5000 2.1 200 19:59 24.01.2020
249 Clouds -1 1024 86 6000 1.5 180 19:40 24.01.2020
250 Clouds -1 1024 86 6000 1.5 180 19:22 24.01.2020
251 Clouds -1 1025 86 6000 2.6 170 18:56 24.01.2020
252 Clouds -1 1025 86 7000 2.6 150 18:37 24.01.2020
253 Clouds -1 1025 86 7000 2.6 150 18:19 24.01.2020
254 Clouds -1 1024 86 7000 3.1 160 17:42 24.01.2020
255 Clouds 0 1024 86 7000 2.1 160 17:21 24.01.2020
256 Clouds 0 1024 86 7000 2.1 160 17:21 24.01.2020
257 Clouds 0 1025 86 7000 1.5 180 16:55 24.01.2020
258 Clouds 0 1025 86 7000 3.1 180 16:36 24.01.2020
259 Clouds 0 1025 86 8000 2.6 180 16:18 24.01.2020
260 Clouds 0 1025 86 8000 2.6 180 16:18 24.01.2020
261 Clouds 0 1025 86 8000 2.6 180 15:40 24.01.2020
262 Clouds 0 1025 86 8000 2.6 160 15:20 24.01.2020
263 Clouds 1 1025 86 8000 3.6 150 14:42 24.01.2020
264 Clouds 1 1025 86 8000 3.6 150 14:23 24.01.2020
265 Clouds 0 1026 86 7000 3.1 180 13:57 24.01.2020
266 Clouds 0 1026 86 8000 3.1 180 13:39 24.01.2020
267 Clouds 0 1026 86 8000 3.1 180 13:19 24.01.2020
268 Clouds 0 1027 86 7000 2.6 170 12:42 24.01.2020
269 Clouds 0 1027 86 7000 2.6 170 12:19 24.01.2020
270 Clouds 0 1027 86 7000 2.6 180 11:44 24.01.2020
271 Clouds 0 1027 92 7000 3.6 180 11:19 24.01.2020
272 Clouds 0 1027 92 7000 3.6 170 10:43 24.01.2020
273 Clouds -1 1027 92 8000 3.1 170 10:23 24.01.2020
274 Clouds -1 1027 92 7000 3.1 190 09:59 24.01.2020
275 Clouds -1 1027 92 7000 3.1 190 09:40 24.01.2020
276 Clouds -1 1027 92 6000 3.1 180 09:22 24.01.2020
277 Clouds -1 1027 92 6000 2.6 150 08:41 24.01.2020
278 Clouds -2 1027 92 6000 2.6 150 08:20 24.01.2020
279 Clouds -2 1027 92 6000 3.6 150 07:53 24.01.2020
280 Clouds -1 1027 92 6000 2.6 140 07:34 24.01.2020
281 Clouds -1 1027 92 6000 3.6 140 06:48 24.01.2020
282 Clouds -1 1026 92 6000 3.6 150 06:29 24.01.2020
283 Clouds -2 1026 92 6000 4.6 140 05:59 24.01.2020
284 Clouds -2 1026 92 6000 6.2 130 04:57 24.01.2020
285 Clear -2 1026 92 8000 7.2 130 02:53 24.01.2020
286 Clear -1 1026 86 10000 7.2 140 02:26 24.01.2020
287 Clear -1 1026 86 10000 7.2 140 02:26 24.01.2020
288 Clear -1 1026 86 10000 7.2 140 01:46 24.01.2020
289 Clear -1 1027 86 10000 6.7 130 01:28 24.01.2020
290 Clear -1 1028 80 10000 8.2 130 00:25 24.01.2020
291 Clear -1 1028 80 10000 7.7 130 23:49 23.01.2020
292 Clear -1 1028 80 10000 8.7 140 23:31 23.01.2020
293 Clear -1 1028 80 10000 8.7 130 22:59 23.01.2020
294 Clear -1 1029 80 10000 8.7 140 22:38 23.01.2020
295 Clear -1 1029 80 10000 8.7 140 22:38 23.01.2020
296 Clear -1 1029 80 10000 8.7 140 22:19 23.01.2020
297 Clear -1 1029 80 10000 6.7 130 21:57 23.01.2020
298 Clear 0 1029 80 10000 5.7 130 21:39 23.01.2020
299 Clear 0 1029 80 10000 5.7 130 21:20 23.01.2020
300 Clear 0 1029 80 10000 6.2 130 20:59 23.01.2020
301 Clear 0 1030 80 10000 5.7 130 20:38 23.01.2020
302 Clear 0 1030 80 10000 5.7 130 20:20 23.01.2020
303 Clear 0 1030 80 10000 5.7 140 19:56 23.01.2020
304 Clear 0 1030 80 10000 4.1 130 19:38 23.01.2020
305 Clear 0 1030 80 10000 4.1 130 19:19 23.01.2020
306 Clear 1 1030 80 10000 4.1 130 18:43 23.01.2020
307 Clear 1 1030 80 10000 4.1 130 18:21 23.01.2020
308 Clear 1 1031 74 10000 3.6 130 17:59 23.01.2020
309 Clear 1 1031 74 10000 3.6 120 17:40 23.01.2020
310 Clear 2 1031 69 10000 3.6 120 17:20 23.01.2020
311 Clear 2 1031 69 10000 3.6 120 17:20 23.01.2020
312 Clear 2 1031 69 10000 3.6 120 16:57 23.01.2020
313 Clear 3 1031 64 10000 4.1 120 16:37 23.01.2020
314 Clear 3 1031 64 10000 4.1 120 16:18 23.01.2020
315 Clear 4 1032 60 10000 4.1 130 15:56 23.01.2020
316 Clouds 4 1032 60 10000 3.6 140 15:37 23.01.2020
317 Clouds 5 1032 60 10000 3.6 140 15:18 23.01.2020
318 Clouds 5 1033 60 10000 3.1 120 14:55 23.01.2020
319 Clouds 5 1033 60 10000 3.1 130 14:37 23.01.2020
320 Clouds 5 1033 60 10000 3.1 130 14:19 23.01.2020
321 Rain 5 1034 60 10000 2.6 140 13:43 23.01.2020
322 Rain 5 1035 65 10000 1.5 110 13:20 23.01.2020
323 Rain 5 1035 65 10000 1.5 110 12:54 23.01.2020
324 Rain 4 1035 69 10000 1.5 110 12:36 23.01.2020
325 Rain 4 1035 69 10000 1.5 110 12:18 23.01.2020
326 Rain 4 1036 69 10000 1 0 11:42 23.01.2020
327 Rain 3 1036 69 10000 1 0 11:23 23.01.2020
328 Rain 3 1036 69 10000 0.5 0 10:56 23.01.2020
329 Rain 3 1036 74 10000 1 0 10:38 23.01.2020
330 Clouds 2 1036 74 10000 1 0 10:18 23.01.2020
331 Clouds 1 1036 69 6000 1.5 100 09:40 23.01.2020
332 Clouds 1 1036 69 6000 1.5 100 09:21 23.01.2020
333 Clouds 0 1036 69 7000 1.5 70 08:43 23.01.2020
334 Clouds 0 1036 86 8000 1.5 340 08:25 23.01.2020
335 Clouds 0 1035 80 10000 1 0 07:51 23.01.2020
336 Clouds 0 1035 80 10000 1.5 20 07:27 23.01.2020
337 Clouds 0 1035 80 10000 3.1 10 06:55 23.01.2020
338 Clouds 0 1035 80 10000 2.1 310 06:25 23.01.2020
339 Clouds 0 1035 80 10000 2.1 310 05:59 23.01.2020
340 Clouds 0 1035 80 10000 2.6 320 04:25 23.01.2020
341 Clouds 0 1035 74 10000 4.6 300 02:50 23.01.2020
342 Clouds 0 1035 74 10000 5.7 300 01:53 23.01.2020
343 Clouds 0 1034 74 10000 6.2 300 00:44 23.01.2020
344 Clouds 0 1034 74 10000 6.7 300 00:22 23.01.2020
345 Clouds 0 1034 80 10000 7.7 300 23:46 22.01.2020
346 Clouds 1 1034 74 10000 5.7 290 23:28 22.01.2020
347 Clouds 1 1034 74 10000 6.2 290 22:43 22.01.2020
348 Clouds 1 1033 74 10000 6.2 290 22:25 22.01.2020
349 Clouds 1 1033 74 10000 5.1 300 21:58 22.01.2020
350 Clouds 1 1033 74 10000 5.1 320 21:36 22.01.2020
351 Clouds 1 1033 74 10000 5.1 320 21:18 22.01.2020
352 Clouds 1 1032 69 10000 6.2 320 20:42 22.01.2020
353 Clouds 1 1032 69 10000 6.2 320 20:23 22.01.2020
354 Clouds 1 1032 80 10000 1.5 330 19:59 22.01.2020
355 Clouds 1 1031 80 10000 2.1 340 19:41 22.01.2020
356 Clouds 1 1031 80 10000 2.1 340 19:21 22.01.2020
357 Clouds 0 1031 80 10000 2.6 10 18:59 22.01.2020
358 Clouds 0 1031 80 10000 2.6 10 18:40 22.01.2020
359 Clouds 0 1030 80 10000 1.5 10 18:21 22.01.2020
360 Clouds 0 1030 80 10000 2.6 360 17:57 22.01.2020
361 Clouds 0 1030 80 10000 3.6 30 17:39 22.01.2020
362 Clouds 1 1030 80 10000 3.6 30 17:20 22.01.2020
363 Clouds 1 1029 74 10000 2.1 30 16:55 22.01.2020
364 Clouds 1 1029 74 10000 2.1 30 16:55 22.01.2020
365 Clouds 1 1029 74 10000 2.1 30 16:55 22.01.2020
366 Clouds 1 1030 64 10000 3.6 320 16:37 22.01.2020
367 Clouds 1 1030 64 10000 3.6 320 16:18 22.01.2020
368 Clouds 2 1029 60 10000 5.1 290 15:41 22.01.2020
369 Clouds 2 1030 69 10000 4.6 330 15:23 22.01.2020
370 Clouds 2 1030 64 10000 5.7 330 14:59 22.01.2020
371 Rain 2 1030 74 10000 6.7 350 14:38 22.01.2020
372 Rain 2 1030 74 10000 6.7 350 14:19 22.01.2020
373 Rain 2 1031 74 10000 6.2 10 13:56 22.01.2020
374 Rain 2 1031 74 10000 6.2 10 13:56 22.01.2020
375 Rain 2 1031 74 10000 6.2 10 13:56 22.01.2020
376 Rain 1 1031 80 10000 3.6 20 13:37 22.01.2020
377 Rain 1 1031 80 10000 3.6 20 13:19 22.01.2020
378 Rain 2 1031 74 10000 3.1 340 12:56 22.01.2020
379 Rain 1 1031 80 10000 5.1 310 12:38 22.01.2020
380 Rain 1 1031 80 10000 5.1 310 12:19 22.01.2020
381 Rain 1 1032 54 9000 4.1 320 11:56 22.01.2020
382 Clouds 0 1032 54 10000 3.6 300 11:38 22.01.2020
383 Clouds 0 1032 67 10000 3.6 300 11:19 22.01.2020
384 Clouds -1 1033 86 10000 3.6 320 10:45 22.01.2020
385 Clouds -1 1033 86 9000 4.6 310 10:21 22.01.2020
386 Clouds -1 1034 92 9000 3.1 290 09:57 22.01.2020
387 Clouds -1 1034 92 9000 3.1 290 09:39 22.01.2020
388 Mist -2 1034 92 4900 2.1 340 09:20 22.01.2020
389 Mist -1 1034 100 4200 3.1 350 08:54 22.01.2020
390 Mist -1 1034 92 4900 3.1 350 08:36 22.01.2020
391 Mist -2 1034 92 4900 3.1 350 08:18 22.01.2020
392 Mist -2 1034 100 4600 3.1 340 07:41 22.01.2020
393 Mist -2 1034 92 5000 3.1 350 07:21 22.01.2020
394 Mist -2 1034 92 5000 3.1 350 07:21 22.01.2020
395 Clouds -1 1034 92 7000 1.5 290 06:33 22.01.2020
396 Mist -1 1034 92 5000 1 0 05:45 22.01.2020
397 Clouds -1 1035 92 7000 1.5 140 04:25 22.01.2020
398 Clouds -1 1036 92 7000 1 0 03:26 22.01.2020
399 Clouds -1 1036 92 8000 1.5 160 02:39 22.01.2020
400 Mist -1 1038 100 3800 0.5 0 00:47 22.01.2020
401 Mist -1 1038 100 3800 0.5 0 00:47 22.01.2020
402 Mist -1 1038 100 3400 0.5 0 00:27 22.01.2020
403 Mist -1 1038 100 3200 1 0 23:55 21.01.2020
404 Mist -1 1039 100 4100 1 100 23:37 21.01.2020
405 Mist -1 1039 100 4100 1 100 23:18 21.01.2020
406 Mist -1 1039 100 4100 1 100 23:18 21.01.2020
407 Mist -1 1039 100 3200 1 50 22:40 21.01.2020
408 Mist -1 1039 100 3300 1.5 70 22:21 21.01.2020
409 Mist -1 1039 100 3300 1.5 30 21:57 21.01.2020
410 Mist -1 1039 100 2900 1 0 21:38 21.01.2020
411 Mist -1 1039 100 2900 1 0 21:20 21.01.2020
412 Mist -1 1039 92 3200 1 110 20:56 21.01.2020
413 Mist -1 1040 92 3200 1 150 20:37 21.01.2020
414 Mist -1 1040 92 3200 1 150 20:19 21.01.2020
415 Mist -1 1040 92 4100 1.5 170 19:56 21.01.2020
416 Mist -1 1040 92 4100 1.5 170 19:56 21.01.2020
417 Mist -1 1040 92 4400 0.5 0 19:38 21.01.2020
418 Mist -1 1040 92 4400 0.5 0 19:20 21.01.2020
419 Mist -1 1040 92 5000 0.5 0 18:55 21.01.2020
420 Mist -1 1040 92 5000 0.5 0 18:55 21.01.2020
421 Mist -1 1041 92 5000 1 120 18:37 21.01.2020
422 Mist -1 1041 92 5000 1 120 18:18 21.01.2020
423 Mist -1 1040 92 5000 1 140 17:45 21.01.2020
424 Mist -1 1041 100 5000 1 0 17:20 21.01.2020
425 Mist 0 1041 100 4100 1 0 16:59 21.01.2020
426 Mist 0 1041 100 6000 1 0 16:37 21.01.2020
427 Mist 0 1041 100 6000 1 0 16:19 21.01.2020
428 Mist 0 1041 100 5000 2.1 150 15:54 21.01.2020
429 Mist 0 1041 92 5000 2.1 170 15:36 21.01.2020
430 Mist 0 1041 92 5000 2.1 170 15:18 21.01.2020
431 Mist 0 1042 92 5000 2.1 170 14:38 21.01.2020
432 Mist 0 1042 92 5000 2.1 170 14:20 21.01.2020
433 Fog 0 1042 92 900 2.1 120 13:40 21.01.2020
434 Fog 0 1042 92 900 2.1 120 13:19 21.01.2020
435 Rain 0 1042 69 6000 2.1 30 12:45 21.01.2020
436 Fog 0 1043 100 550 2.1 170 12:27 21.01.2020
437 Fog 0 1043 100 550 1.5 110 11:58 21.01.2020
438 Fog 0 1043 100 550 2.1 170 11:40 21.01.2020
439 Fog 0 1043 100 550 2.1 170 11:21 21.01.2020
440 Fog 0 1043 100 600 2.1 140 10:55 21.01.2020
441 Fog 0 1043 92 450 1.5 110 10:37 21.01.2020
442 Fog -1 1043 92 450 1.5 110 10:18 21.01.2020
443 Fog -1 1044 100 250 1 0 09:41 21.01.2020
444 Fog -2 1044 100 250 1 0 09:22 21.01.2020
445 Fog -2 1043 92 300 1 40 08:50 21.01.2020
446 Clouds -2 1043 92 1000 0.5 0 08:30 21.01.2020
447 Clear -2 1043 92 6000 2.1 30 07:59 21.01.2020
448 Clouds -3 1043 92 450 1.5 160 07:40 21.01.2020
449 Clouds -3 1043 92 450 1.5 160 07:21 21.01.2020
450 Clouds -3 1043 100 3000 1 170 06:49 21.01.2020
451 Clouds -3 1043 100 3000 1 170 06:26 21.01.2020
452 Fog -2 1044 100 450 2.1 150 05:42 21.01.2020
453 Clouds -2 1045 100 350 0.5 0 04:39 21.01.2020
454 Fog -1 1046 92 10000 0.5 0 02:56 21.01.2020
455 Clouds -1 1046 100 450 0.5 0 01:53 21.01.2020
456 Clouds -1 1046 92 5000 0.5 0 01:18 21.01.2020
457 Clouds -1 1046 100 6000 1 0 00:36 21.01.2020
458 Clouds -1 1046 100 6000 1 300 23:58 20.01.2020
459 Fog -1 1046 89 7000 1.5 320 23:38 20.01.2020
460 Fog -1 1046 89 7000 1.5 320 23:19 20.01.2020
461 Clouds -1 1046 89 6000 1.5 310 22:56 20.01.2020
462 Clouds -1 1047 89 7000 1.5 320 22:37 20.01.2020
463 Clouds -1 1047 89 7000 1.5 320 22:19 20.01.2020
464 Clouds -1 1047 89 8000 2.6 310 21:57 20.01.2020
465 Clouds 0 1046 89 8000 2.6 310 21:37 20.01.2020
466 Clouds 0 1046 89 8000 2.6 310 21:37 20.01.2020
467 Clouds 0 1046 89 8000 2.6 310 21:18 20.01.2020
468 Clouds 0 1046 89 9000 2.1 330 20:55 20.01.2020
469 Clouds 0 1046 89 8000 1.5 300 20:36 20.01.2020
470 Clouds 0 1046 90 8000 1.5 300 20:18 20.01.2020
471 Clouds 0 1046 90 8000 1.5 300 20:18 20.01.2020
472 Clouds 0 1046 90 10000 2.1 320 19:56 20.01.2020
473 Clouds 1 1046 90 10000 2.1 300 19:37 20.01.2020
474 Clouds 1 1046 90 10000 2.1 300 19:18 20.01.2020
475 Clouds 1 1046 90 10000 2.1 320 18:42 20.01.2020
476 Clouds 2 1046 90 10000 2.1 330 18:21 20.01.2020
477 Clouds 2 1046 90 10000 3.1 340 17:40 20.01.2020
478 Clouds 2 1046 81 10000 3.1 340 17:19 20.01.2020
479 Rain 3 1045 81 10000 3.1 340 16:58 20.01.2020
480 Rain 3 1045 80 10000 3.6 320 16:37 20.01.2020
481 Rain 3 1045 80 10000 3.6 320 16:18 20.01.2020
482 Rain 3 1045 80 10000 3.6 320 16:18 20.01.2020
483 Rain 3 1045 80 10000 3.1 330 15:54 20.01.2020
484 Rain 3 1045 80 10000 3.6 340 15:36 20.01.2020
485 Rain 3 1045 80 10000 3.6 340 15:18 20.01.2020
486 Rain 4 1045 80 10000 3.1 320 14:41 20.01.2020
487 Rain 4 1045 80 10000 3.6 320 14:22 20.01.2020
488 Rain 4 1045 80 10000 3.6 320 13:57 20.01.2020
489 Rain 4 1045 80 10000 3.6 340 13:39 20.01.2020
490 Rain 4 1045 80 10000 4.1 330 13:20 20.01.2020
491 Rain 4 1045 80 10000 4.1 330 12:45 20.01.2020
492 Rain 4 1045 80 10000 4.1 330 12:27 20.01.2020
493 Rain 3 1045 86 10000 4.1 320 11:57 20.01.2020
494 Rain 3 1045 86 10000 4.1 330 11:38 20.01.2020
495 Rain 2 1045 86 10000 4.1 330 11:19 20.01.2020
496 Rain 2 1045 86 10000 4.1 320 10:47 20.01.2020
497 Rain 2 1045 86 10000 4.1 320 10:21 20.01.2020
498 Rain 2 1044 93 10000 4.6 320 09:54 20.01.2020
499 Rain 2 1044 93 10000 4.1 320 09:36 20.01.2020
500 Rain 2 1044 93 10000 4.1 320 09:18 20.01.2020
501 Clouds 2 1043 93 10000 4.6 320 08:42 20.01.2020
502 Clouds 1 1043 93 10000 4.6 320 08:24 20.01.2020
503 Rain 1 1043 93 10000 4.1 320 07:43 20.01.2020
504 Rain 1 1042 93 10000 4.6 320 07:23 20.01.2020
505 Rain 1 1042 93 10000 4.1 320 06:46 20.01.2020
506 Rain 1 1041 93 10000 4.6 320 06:26 20.01.2020
507 Rain 1 1041 93 10000 4.6 320 05:42 20.01.2020
508 Rain 1 1041 93 10000 4.6 320 05:21 20.01.2020
509 Rain 1 1041 100 10000 4.6 320 04:41 20.01.2020
510 Rain 1 1040 97 10000 5.1 330 02:55 20.01.2020
511 Rain 1 1039 100 10000 5.1 330 01:52 20.01.2020
512 Rain 1 1039 100 10000 6.2 310 01:26 20.01.2020
513 Rain 1 1039 100 10000 5.1 320 00:44 20.01.2020
514 Rain 1 1038 93 10000 5.7 320 00:22 20.01.2020
515 Rain 1 1038 93 9000 6.2 320 23:39 19.01.2020
516 Rain 1 1038 93 9000 6.2 320 23:20 19.01.2020
517 Rain 1 1037 93 8000 6.2 310 22:56 19.01.2020
518 Rain 1 1037 93 9000 6.2 320 22:38 19.01.2020
519 Rain 1 1037 93 9000 6.2 320 22:20 19.01.2020
520 Rain 1 1037 93 9000 6.2 320 21:56 19.01.2020
521 Rain 1 1037 93 9000 6.2 320 21:56 19.01.2020
522 Rain 1 1037 93 7000 5.7 320 21:38 19.01.2020
523 Rain 2 1037 93 7000 5.7 320 21:20 19.01.2020
524 Rain 1 1036 93 10000 6.2 320 20:57 19.01.2020
525 Rain 2 1036 93 10000 5.7 320 20:38 19.01.2020
526 Rain 2 1036 93 10000 5.7 320 20:20 19.01.2020
527 Drizzle 2 1036 93 10000 6.2 320 19:57 19.01.2020
528 Drizzle 2 1035 93 10000 5.1 330 19:39 19.01.2020
529 Drizzle 2 1035 93 10000 5.1 330 19:20 19.01.2020
530 Drizzle 2 1035 93 10000 5.1 330 18:56 19.01.2020
531 Drizzle 2 1034 93 10000 5.7 320 18:38 19.01.2020
532 Rain 2 1034 93 10000 5.7 320 18:20 19.01.2020
533 Rain 2 1034 93 10000 5.7 320 17:58 19.01.2020
534 -273 0 0 0 0 0 17:58 19.01.2020
535 Rain 2 1033 93 10000 5.7 320 17:39 19.01.2020
536 Rain 2 1033 93 10000 5.7 320 17:20 19.01.2020
537 Rain 2 1033 93 10000 5.1 320 16:59 19.01.2020
538 Rain 2 1033 93 10000 6.2 320 16:38 19.01.2020
539 Rain 2 1033 93 10000 6.2 320 16:20 19.01.2020
540 Rain 2 1032 93 10000 5.7 330 15:58 19.01.2020
541 Rain 2 1032 93 10000 5.7 320 15:38 19.01.2020
542 Rain 2 1032 93 10000 5.7 320 15:20 19.01.2020
543 Rain 2 1031 93 9000 6.2 320 14:57 19.01.2020
544 Rain 2 1031 86 10000 5.7 320 14:38 19.01.2020
545 Rain 2 1031 86 10000 5.7 320 14:18 19.01.2020
546 Rain 2 1031 86 10000 5.7 320 13:57 19.01.2020
547 Rain 2 1031 93 10000 4.6 320 13:38 19.01.2020
548 Rain 2 1031 93 10000 4.6 320 13:19 19.01.2020
549 Rain 2 1031 93 10000 5.1 330 12:55 19.01.2020
550 Rain 2 1030 93 8000 4.1 330 12:37 19.01.2020
551 Rain 2 1030 93 8000 4.1 330 12:19 19.01.2020
552 Rain 2 1030 93 9000 4.1 330 11:42 19.01.2020
553 Rain 2 1030 93 9000 4.1 330 11:20 19.01.2020
554 Rain 2 1030 93 8000 4.1 330 10:56 19.01.2020
555 Rain 2 1030 93 8000 4.1 330 10:56 19.01.2020
556 Rain 2 1030 93 8000 4.1 330 10:56 19.01.2020
557 Rain 2 1029 93 8000 5.1 320 10:38 19.01.2020
558 Rain 2 1029 93 8000 5.1 320 10:19 19.01.2020
559 Rain 2 1029 93 8000 4.6 320 09:55 19.01.2020
560 Rain 2 1029 93 8000 4.6 320 09:55 19.01.2020
561 Rain 2 1029 93 8000 4.6 320 09:55 19.01.2020
562 Rain 2 1029 93 8000 4.6 320 09:55 19.01.2020
563 Rain 2 1029 93 6000 4.1 330 09:37 19.01.2020
564 Rain 2 1029 93 6000 4.1 330 09:18 19.01.2020
565 Rain 2 1029 93 6000 4.1 330 08:48 19.01.2020
566 Rain 2 1028 93 7000 3.6 330 08:28 19.01.2020
567 Rain 2 1028 93 7000 4.1 330 07:42 19.01.2020
568 Rain 1 1028 93 7000 4.1 330 07:22 19.01.2020
569 Rain 2 1027 93 8000 3.6 330 06:54 19.01.2020
570 Rain 1 1027 93 10000 4.6 320 06:21 19.01.2020
571 Rain 1 1026 87 6000 2.1 70 02:47 19.01.2020
572 Rain 1 1026 87 6000 1 0 02:24 19.01.2020
573 Rain 1 1026 91 4800 2.1 320 01:28 19.01.2020
574 Rain 1 1026 88 5000 1 340 00:54 19.01.2020
575 Rain 1 1026 100 4600 1 20 00:29 19.01.2020
576 Mist 1 1026 100 4600 1 20 23:59 18.01.2020
577 Rain 1 1026 100 4600 1 20 23:41 18.01.2020
578 Rain 1 1026 100 5000 1.5 30 23:23 18.01.2020
579 Rain 1 1026 100 5000 1 10 22:55 18.01.2020
580 Rain 1 1026 100 6000 1.5 330 22:37 18.01.2020
581 Rain 1 1026 92 6000 1.5 330 22:19 18.01.2020
582 Rain 1 1026 92 6000 1.5 330 21:57 18.01.2020
583 Mist 0 1026 92 5000 2.1 330 21:38 18.01.2020
584 Mist 0 1026 92 5000 2.1 330 21:20 18.01.2020
585 Mist 0 1026 92 5000 1 340 20:44 18.01.2020
586 Mist 0 1026 92 5000 1 340 20:21 18.01.2020
587 Clouds 0 1026 92 6000 1 340 19:59 18.01.2020
588 Snow 0 1026 92 5000 1.5 340 19:41 18.01.2020
589 Snow 0 1026 92 5000 1.5 340 19:22 18.01.2020
590 Snow 0 1026 92 4000 1 10 18:43 18.01.2020
591 Rain 0 1026 92 4000 1 10 18:24 18.01.2020
592 Snow 0 1026 92 3700 1.5 350 17:56 18.01.2020
593 Snow 0 1025 92 3500 1.5 360 17:38 18.01.2020
594 Snow 0 1025 92 3500 1.5 360 17:19 18.01.2020
595 Snow 0 1025 92 2400 1 0 16:55 18.01.2020
596 Snow 0 1025 92 1900 1.5 50 16:37 18.01.2020
597 Snow 0 1025 92 1900 1.5 50 16:19 18.01.2020
598 Snow 0 1025 92 2200 1 0 15:43 18.01.2020
599 Snow 0 1025 92 1500 1.5 60 15:24 18.01.2020
600 Snow 0 1025 92 3300 1.5 50 14:58 18.01.2020
601 Mist 0 1025 92 3600 1.5 40 14:39 18.01.2020
602 Mist 0 1025 100 2400 1.5 50 14:18 18.01.2020
603 Mist 0 1025 100 2400 1.5 50 13:45 18.01.2020
604 Mist 0 1026 100 1400 2.1 60 13:27 18.01.2020
605 Clouds 0 1026 100 1000 1.5 100 12:59 18.01.2020
606 Rain 0 1026 100 1000 1.5 100 12:40 18.01.2020
607 Rain -1 1026 100 900 1.5 50 12:21 18.01.2020
608 Fog 0 1026 100 800 1.5 120 11:44 18.01.2020
609 Mist -1 1026 100 1000 1.5 130 11:24 18.01.2020
610 Mist -1 1026 100 1300 2.1 110 10:57 18.01.2020
611 Mist -1 1026 100 1400 2.6 120 10:38 18.01.2020
612 Mist -1 1026 100 1400 2.6 120 10:20 18.01.2020
613 Mist -1 1026 100 1400 2.6 120 10:20 18.01.2020
614 Mist -1 1026 100 1500 2.6 120 09:48 18.01.2020
615 Mist -1 1026 100 3200 2.6 120 09:30 18.01.2020
616 Mist -1 1026 100 3400 3.1 120 08:57 18.01.2020
617 Mist -1 1026 100 3400 3.1 110 08:39 18.01.2020
618 Mist -1 1026 100 3400 3.1 110 08:19 18.01.2020
619 Mist -1 1026 100 5000 3.1 110 07:50 18.01.2020
620 Mist -1 1026 100 5000 3.1 120 07:31 18.01.2020
621 Mist -1 1026 92 5000 2.6 130 06:48 18.01.2020
622 Mist -1 1025 92 4800 2.6 120 05:59 18.01.2020
623 Mist -1 1025 92 4800 2.1 120 05:24 18.01.2020
624 Mist -1 1025 92 4900 3.6 140 02:56 18.01.2020
625 Mist -1 1024 92 3800 5.1 130 01:56 18.01.2020
626 Mist -1 1024 92 3600 5.1 130 01:35 18.01.2020
627 Mist -1 1024 92 4200 5.1 130 00:37 18.01.2020
628 Mist -1 1024 92 4200 5.1 130 00:18 18.01.2020
629 Mist -1 1024 92 4200 5.1 130 00:18 18.01.2020
630 Mist -1 1024 92 4200 5.1 130 00:18 18.01.2020
631 Mist -1 1024 92 4300 5.1 140 23:44 17.01.2020
632 Mist -1 1024 92 4300 5.1 140 23:20 17.01.2020
633 Mist 0 1024 92 5000 5.7 140 22:59 17.01.2020
634 Clouds 0 1025 100 6000 5.7 140 22:40 17.01.2020
635 Rain 0 1025 100 5000 5.1 140 22:18 17.01.2020
636 Rain 0 1025 100 4800 5.7 140 21:41 17.01.2020
637 Mist 0 1025 100 4800 5.7 140 21:22 17.01.2020
638 Mist 0 1025 100 4100 5.1 140 20:58 17.01.2020
639 Mist 0 1025 100 3400 5.1 130 20:39 17.01.2020
640 Mist 0 1025 100 3400 5.1 130 20:20 17.01.2020
641 Mist 0 1025 100 2200 5.1 140 19:56 17.01.2020
642 Mist 0 1025 100 1800 5.7 140 19:38 17.01.2020
643 Mist -1 1025 100 1800 5.7 140 19:19 17.01.2020
644 Mist 0 1025 100 2600 5.1 140 18:56 17.01.2020
645 Mist -1 1025 100 5000 5.1 140 18:36 17.01.2020
646 Mist -1 1025 100 5000 5.1 140 18:18 17.01.2020
647 Clouds -1 1025 92 8000 5.1 150 17:39 17.01.2020
648 Clouds 0 1025 92 8000 5.1 150 17:21 17.01.2020
649 Clouds 0 1025 92 7000 5.7 140 16:44 17.01.2020
650 Clouds 0 1025 92 7000 6.7 140 16:21 17.01.2020
651 Mist -1 1025 92 5000 6.2 140 15:58 17.01.2020
652 Mist 0 1025 92 3800 5.7 140 15:40 17.01.2020
653 Mist 0 1025 92 5000 6.2 140 15:40 17.01.2020
654 Mist 0 1025 92 3800 5.7 140 15:21 17.01.2020
655 Mist 0 1025 92 3900 7.7 140 14:43 17.01.2020
656 Mist 0 1025 100 5000 7.2 140 14:24 17.01.2020
657 Mist 0 1025 100 2200 6.2 140 13:45 17.01.2020
658 Mist 0 1025 100 5000 6.2 140 13:23 17.01.2020
659 Mist 0 1026 92 5000 6.7 140 12:48 17.01.2020
660 Clouds 0 1026 92 6000 6.7 140 12:23 17.01.2020
661 Mist 0 1026 92 3900 5.1 130 11:44 17.01.2020
662 Mist -1 1027 100 1000 4.6 140 11:20 17.01.2020
663 Mist -1 1027 100 1000 4.6 140 11:20 17.01.2020
664 Mist -1 1027 100 1000 4.6 140 11:20 17.01.2020
665 Mist -1 1027 100 1200 5.1 130 10:58 17.01.2020
666 Mist -1 1027 100 1200 5.1 130 10:40 17.01.2020
667 Fog -1 1027 100 600 4.6 130 10:21 17.01.2020
668 Fog -1 1027 92 600 6.2 130 09:56 17.01.2020
669 Fog -1 1027 92 500 6.7 130 09:37 17.01.2020
670 Fog -1 1027 92 650 4.1 130 09:18 17.01.2020
671 Mist -1 1027 92 1100 4.1 130 08:42 17.01.2020
672 Mist -1 1027 92 1100 4.1 130 08:23 17.01.2020
673 Fog -2 1027 92 900 4.6 120 07:51 17.01.2020
674 Mist -1 1028 92 1500 1.5 110 07:31 17.01.2020
675 Mist -1 1028 92 1600 1.5 110 06:56 17.01.2020
676 Mist -1 1028 100 2500 0.5 0 06:37 17.01.2020
677 Mist -1 1028 100 1100 3.6 110 05:27 17.01.2020
678 Clouds -1 1030 89 0 2.78 134 03:38 17.01.2020
679 Clouds -2 1026 87 0 0.45 110 02:44 17.01.2020
680 Clouds -2 1021 91 0 1.91 134 01:46 17.01.2020
681 Clouds -2 1028 89 0 1.91 134 01:27 17.01.2020
682 Clouds -2 1031 91 0 2.03 135 00:44 17.01.2020
683 Clouds -2 1031 92 5000 2.6 90 00:20 17.01.2020
684 Clouds -2 1031 92 5000 2.6 90 23:42 16.01.2020
685 Clouds -2 1031 92 5000 2.6 90 23:24 16.01.2020
686 Mist -2 1031 92 4800 1 120 22:43 16.01.2020
687 Mist -2 1032 92 4900 0.5 0 22:22 16.01.2020
688 Mist -2 1032 100 4000 1.5 160 21:57 16.01.2020
689 Mist -1 1032 92 5000 1 170 21:39 16.01.2020
690 Mist -1 1032 92 5000 1 180 21:19 16.01.2020
691 Mist -1 1032 92 5000 1 180 20:59 16.01.2020
692 Mist -1 1032 92 5000 1 150 20:40 16.01.2020
693 Mist -1 1032 92 5000 1 150 20:20 16.01.2020
694 Mist -1 1032 73 5000 0.5 0 19:57 16.01.2020
695 Mist -1 1032 73 5000 0.5 0 19:39 16.01.2020
696 Clouds -1 1032 92 6000 1 70 19:20 16.01.2020
697 Clouds 0 1032 73 7000 0.5 0 18:56 16.01.2020
698 Clouds 0 1032 86 7000 1.5 310 18:37 16.01.2020
699 Clouds 0 1032 86 7000 1.5 310 18:18 16.01.2020
700 Clouds 0 1032 86 8000 1.5 330 17:58 16.01.2020
701 Clouds 1 1032 86 8000 1 320 17:39 16.01.2020
702 Clouds 1 1032 86 8000 1 320 17:20 16.01.2020
703 Clouds 2 1032 86 8000 2.1 350 16:41 16.01.2020
704 Clouds 2 1032 86 8000 2.1 350 16:21 16.01.2020
705 Clouds 2 1032 86 8000 2.1 20 15:57 16.01.2020
706 Clouds 2 1031 86 8000 1.5 340 15:38 16.01.2020
707 Clouds 2 1031 86 8000 1.5 340 15:20 16.01.2020
708 Clouds 2 1032 86 8000 2.1 10 14:42 16.01.2020
709 Clouds 2 1032 86 8000 1.5 10 14:24 16.01.2020
710 Clouds 2 1032 86 8000 1.5 330 13:55 16.01.2020
711 Clouds 2 1032 80 8000 1 0 13:37 16.01.2020
712 Clouds 2 1032 80 8000 1 0 13:19 16.01.2020
713 Clouds 1 1032 80 8000 1 0 12:41 16.01.2020
714 Clouds 1 1032 80 7000 1.5 330 12:21 16.01.2020
715 Clouds 1 1033 57 6000 0.5 0 11:43 16.01.2020
716 Clouds 1 1033 57 6000 0.5 0 11:24 16.01.2020
717 Clouds 0 1033 92 6000 1 0 10:59 16.01.2020
718 Mist 0 1033 92 4900 0.5 0 10:38 16.01.2020
719 Mist 0 1033 92 4900 0.5 0 10:20 16.01.2020
720 Mist 0 1032 100 2500 1.5 40 09:56 16.01.2020
721 Mist 0 1032 100 1800 1.5 30 09:37 16.01.2020
722 Mist 0 1032 100 1800 1.5 30 09:18 16.01.2020
723 Mist -1 1031 92 2400 1 0 08:44 16.01.2020
724 Mist -1 1031 92 2400 1 0 08:23 16.01.2020
725 Mist -1 1031 92 2000 0.5 0 07:43 16.01.2020
726 Clouds -1 1031 100 2400 0.5 0 07:25 16.01.2020
727 Fog -1 1031 100 650 0.5 0 06:56 16.01.2020
728 Fog -1 1031 100 300 0.5 0 06:37 16.01.2020
729 Fog -2 1030 100 350 0.5 0 05:56 16.01.2020
730 Fog -2 1031 100 350 0.5 0 05:31 16.01.2020
731 Fog -2 1030 100 300 1 0 04:37 16.01.2020
732 Fog -2 1030 100 300 1 0 04:37 16.01.2020
733 Fog -2 1029 100 450 1.5 160 03:28 16.01.2020
734 Fog -2 1029 100 700 2.6 190 02:29 16.01.2020
735 Mist -1 1028 100 4100 2.1 130 00:45 16.01.2020
736 Mist -1 1028 100 4100 2.1 130 00:24 16.01.2020
737 Mist -1 1028 100 4800 2.1 140 23:48 15.01.2020
738 Mist -1 1028 91 5000 3.1 140 23:22 15.01.2020
739 Clouds 0 1027 91 6000 3.6 150 22:57 15.01.2020
740 Clouds 0 1027 91 7000 2.6 140 22:39 15.01.2020
741 Clouds 0 1027 91 7000 2.6 140 22:19 15.01.2020
742 Clouds 0 1027 92 7000 3.1 130 21:57 15.01.2020
743 Clouds 0 1026 91 7000 2.6 130 21:37 15.01.2020
744 Clouds 0 1026 91 7000 2.6 130 21:19 15.01.2020
745 Clouds 0 1026 91 7000 3.6 120 20:57 15.01.2020
746 Clouds 0 1026 91 6000 3.1 120 20:39 15.01.2020
747 Clouds 0 1026 89 6000 3.1 120 20:20 15.01.2020
748 Mist 0 1025 89 5000 4.1 140 19:55 15.01.2020
749 Mist 0 1025 89 5000 4.6 130 19:37 15.01.2020
750 Mist 0 1025 89 5000 4.6 130 19:19 15.01.2020
751 Mist 0 1025 89 5000 4.1 130 18:56 15.01.2020
752 Mist 0 1025 89 6000 4.6 130 18:38 15.01.2020
753 Mist 0 1025 89 6000 4.6 130 18:19 15.01.2020
754 Clouds 0 1024 89 6000 6.7 140 17:57 15.01.2020
755 Clouds 0 1024 89 9000 5.7 130 17:38 15.01.2020
756 Clouds 0 1024 78 9000 5.7 130 17:19 15.01.2020
757 Clouds 0 1024 78 7000 7.2 140 16:41 15.01.2020
758 Clouds 0 1024 78 7000 7.2 140 16:22 15.01.2020
759 Clouds 0 1024 78 6000 7.7 140 15:58 15.01.2020
760 Mist 0 1024 78 4700 6.7 140 15:39 15.01.2020
761 Mist 0 1024 78 4700 6.7 140 15:20 15.01.2020
762 Clear 0 1024 78 7000 4.1 110 14:43 15.01.2020
763 Mist 0 1024 100 5000 7.2 140 14:20 15.01.2020
764 Mist 0 1025 100 5000 6.7 140 13:55 15.01.2020
765 Mist 0 1025 92 4900 7.2 140 13:37 15.01.2020
766 Mist 0 1025 92 4900 7.2 140 13:18 15.01.2020
767 Mist 0 1026 92 5000 6.7 140 12:41 15.01.2020
768 Mist 0 1026 92 5000 6.7 140 12:20 15.01.2020
769 Mist 0 1026 92 5000 6.7 140 11:59 15.01.2020
770 Mist -1 1026 92 5000 6.2 140 11:38 15.01.2020
771 Mist -1 1026 92 5000 6.2 140 11:19 15.01.2020
772 Mist -1 1026 92 4900 7.2 140 10:46 15.01.2020
773 Mist -1 1026 92 2700 5.7 150 10:28 15.01.2020
774 Mist -1 1026 92 3300 5.7 140 09:55 15.01.2020
775 Mist -1 1026 92 5000 5.7 140 09:37 15.01.2020
776 Mist -1 1026 92 4900 6.2 140 09:19 15.01.2020
777 Mist -1 1026 92 5000 6.7 130 08:41 15.01.2020
778 Mist -1 1026 92 5000 6.7 130 08:23 15.01.2020
779 Snow -1 1026 92 6000 5.7 140 07:54 15.01.2020
780 Clouds -1 1026 92 6000 6.7 130 07:32 15.01.2020
781 Clouds -1 1026 92 6000 6.2 130 06:48 15.01.2020
782 Clouds -1 1026 92 6000 5.1 130 06:23 15.01.2020
783 Mist -1 1026 92 5000 5.7 140 04:46 15.01.2020
784 Clouds -1 1026 92 6000 4.6 140 02:40 15.01.2020
785 Clouds -1 1026 92 6000 4.6 150 01:43 15.01.2020
786 Clouds -1 1026 92 6000 4.6 150 01:20 15.01.2020
787 Mist -1 1026 92 5000 5.7 130 00:37 15.01.2020
788 Mist -1 1026 92 5000 5.7 130 00:19 15.01.2020
789 Mist -1 1026 92 5000 4.6 130 23:46 14.01.2020
790 Mist -1 1026 92 5000 4.6 130 23:24 14.01.2020
791 Mist -1 1026 92 5000 4.6 140 22:54 14.01.2020
792 Clouds -1 1026 92 6000 4.6 130 22:36 14.01.2020
793 Clouds -1 1026 92 6000 4.6 130 22:18 14.01.2020
794 Clouds -1 1026 86 6000 4.6 140 21:55 14.01.2020
795 Clouds -1 1026 86 6000 3.6 130 21:37 14.01.2020
796 Clouds -1 1026 86 6000 3.6 130 21:19 14.01.2020
797 Clouds -1 1026 86 6000 3.6 130 20:42 14.01.2020
798 -273 0 0 0 0 0 20:22 14.01.2020
799 Clouds -1 1026 86 6000 3.6 130 19:57 14.01.2020
800 Clouds -1 1025 92 6000 3.6 130 19:38 14.01.2020
801 Clouds -1 1025 92 6000 3.6 130 19:20 14.01.2020
802 Clouds -1 1025 92 6000 4.6 140 18:58 14.01.2020
803 Clouds -1 1025 92 6000 4.6 140 18:39 14.01.2020
804 Clouds -1 1025 92 8000 4.6 130 18:19 14.01.2020
805 Clouds -1 1025 92 8000 4.1 130 17:39 14.01.2020
806 Clouds -1 1025 92 8000 4.1 130 17:19 14.01.2020
807 Clouds -1 1024 92 7000 4.6 130 16:59 14.01.2020
808 Clouds -1 1024 92 6000 4.1 130 16:40 14.01.2020
809 Clouds -1 1024 92 6000 4.1 130 16:21 14.01.2020
810 Clouds -1 1024 92 6000 4.6 120 15:55 14.01.2020
811 Clouds -1 1023 92 7000 5.1 120 15:37 14.01.2020
812 Clouds -1 1023 92 7000 5.1 120 15:18 14.01.2020
813 Clouds -1 1024 92 8000 4.1 120 14:43 14.01.2020
814 Clouds 0 1023 86 6000 4.1 130 14:20 14.01.2020
815 Clouds 0 1023 86 9000 4.6 140 13:43 14.01.2020
816 Clouds 0 1023 86 9000 4.6 140 13:20 14.01.2020
817 Clouds 0 1023 86 9000 4.6 130 12:59 14.01.2020
818 Clouds 0 1023 86 8000 4.6 130 12:40 14.01.2020
819 Clouds 0 1023 86 8000 4.6 130 12:20 14.01.2020
820 Clouds 0 1023 86 8000 4.6 130 12:20 14.01.2020
821 Clouds 0 1024 92 8000 4.6 130 11:43 14.01.2020
822 Clouds -1 1024 92 10000 4.6 130 11:23 14.01.2020
823 Mist -1 1024 92 8000 5.1 130 10:58 14.01.2020
824 Clouds -1 1023 92 7000 3.6 130 10:39 14.01.2020
825 Clouds -1 1023 92 7000 3.6 130 10:39 14.01.2020
826 Clouds -1 1023 92 7000 3.6 130 10:20 14.01.2020
827 Clouds -1 1023 92 7000 3.6 140 09:57 14.01.2020
828 Clouds -1 1023 92 7000 3.6 140 09:39 14.01.2020
829 Clouds -1 1023 92 7000 3.6 140 09:20 14.01.2020
830 Mist -1 1023 92 5000 3.6 130 08:46 14.01.2020
831 Mist -1 1023 92 4900 3.6 130 08:24 14.01.2020
832 Mist -1 1023 92 5000 3.6 150 07:53 14.01.2020
833 Mist -1 1022 92 5000 4.6 140 07:33 14.01.2020
834 Mist -1 1022 92 5000 3.6 130 06:54 14.01.2020
835 Clouds -1 1023 92 7000 3.6 170 06:27 14.01.2020
836 Mist -1 1023 92 5000 2.6 180 05:27 14.01.2020
837 Mist -1 1023 100 4200 2.6 150 03:52 14.01.2020
838 Mist -1 1023 92 2200 3.6 140 02:43 14.01.2020
839 Mist -1 1022 92 3700 3.6 140 01:53 14.01.2020
840 Mist -1 1023 100 2000 4.1 150 00:51 14.01.2020
841 Mist -1 1023 100 1200 2.6 150 00:32 14.01.2020
842 Mist -1 1023 100 1200 2.6 150 00:32 14.01.2020
843 Mist -1 1023 100 2300 3.6 130 23:55 13.01.2020
844 Mist -1 1023 100 3200 3.1 170 23:37 13.01.2020
845 Mist 0 1023 100 3200 3.1 170 23:18 13.01.2020
846 Mist 0 1023 100 3200 3.1 170 23:18 13.01.2020
847 Mist 0 1023 92 5000 4.6 140 22:42 13.01.2020
848 Mist 0 1023 92 5000 4.6 140 22:21 13.01.2020
849 Mist 0 1023 92 5000 3.6 150 21:57 13.01.2020
850 Mist 0 1023 92 4900 4.6 140 21:38 13.01.2020
851 Mist 0 1023 92 4900 4.6 140 21:38 13.01.2020
852 Mist 0 1023 92 4900 4.6 140 21:38 13.01.2020
853 Mist 0 1023 92 4600 5.1 140 21:19 13.01.2020
854 Mist 0 1023 92 4900 4.6 140 21:19 13.01.2020
855 Mist 0 1023 92 4600 5.1 140 20:58 13.01.2020
856 Mist 0 1023 90 5000 4.6 160 20:40 13.01.2020
857 Mist 0 1023 87 5000 4.6 160 20:22 13.01.2020
858 Mist 0 1023 87 5000 5.1 120 19:59 13.01.2020
859 Mist 0 1023 87 5000 5.7 130 19:39 13.01.2020
860 Mist 1 1023 87 5000 5.7 130 19:20 13.01.2020
861 Mist 1 1023 87 5000 5.7 130 19:20 13.01.2020
862 Mist 1 1023 87 5000 6.7 120 18:56 13.01.2020
863 Mist 1 1023 87 5000 6.7 120 18:37 13.01.2020
864 Mist 1 1023 87 5000 6.7 120 18:19 13.01.2020
865 Mist 1 1023 86 5000 5.1 120 17:43 13.01.2020
866 Mist 1 1023 80 5000 6.2 120 17:25 13.01.2020
867 Mist 2 1023 80 4300 5.7 120 16:58 13.01.2020
868 Clouds 2 1023 83 0 3.78 123 16:38 13.01.2020
869 Clouds 2 1023 87 0 1.34 143 16:20 13.01.2020
870 Clouds 3 1024 81 0 3.78 123 15:54 13.01.2020
871 Clouds 4 1024 80 0 3.78 123 15:36 13.01.2020
872 Clouds 4 1020 66 0 1.34 112 15:18 13.01.2020
873 Clouds 4 1023 77 0 3.78 123 14:40 13.01.2020
874 Clouds 4 1024 80 0 2.34 118 14:22 13.01.2020
875 Clouds 5 1025 80 0 2.34 118 13:56 13.01.2020
876 Clouds 5 1025 80 0 2.34 118 13:56 13.01.2020
877 Clouds 5 1025 79 0 2.34 118 13:37 13.01.2020
878 Clouds 5 1025 80 0 2.34 118 13:19 13.01.2020
879 Clouds 4 1026 66 10000 2.6 100 12:43 13.01.2020
880 Clouds 4 1026 66 10000 2.6 100 12:23 13.01.2020
881 Clouds 4 1026 66 10000 2.6 100 12:23 13.01.2020
882 Clouds 4 1026 66 10000 2.6 100 11:58 13.01.2020
883 Clouds 4 1027 66 9000 1.5 120 11:38 13.01.2020
884 Clouds 4 1027 66 9000 1.5 120 11:38 13.01.2020
885 Clouds 4 1027 73 9000 1.5 120 11:19 13.01.2020
886 Clouds 3 1027 73 8000 1.5 120 10:56 13.01.2020
887 Clouds 3 1027 73 6000 2.1 150 10:38 13.01.2020
888 Clouds 2 1027 73 6000 2.1 150 10:19 13.01.2020
889 Clouds 1 1027 73 6000 2.6 160 09:44 13.01.2020
890 Clouds 1 1027 100 6000 2.1 150 09:26 13.01.2020
891 Mist 1 1027 92 5000 2.1 160 08:59 13.01.2020
892 Mist 1 1027 92 5000 2.6 180 08:38 13.01.2020
893 Mist 0 1027 92 5000 2.6 180 08:19 13.01.2020
894 Clouds 0 1027 92 6000 2.1 170 07:45 13.01.2020
895 Clouds 0 1027 92 6000 1.5 180 07:27 13.01.2020
896 Clouds 0 1027 100 6000 1.5 150 06:39 13.01.2020
897 Clouds 0 1027 92 7000 1 130 05:57 13.01.2020
898 Clouds -1 1027 92 7000 1 0 05:19 13.01.2020
899 Clouds -1 1027 92 10000 3.1 170 03:46 13.01.2020
900 Clouds -1 1027 92 10000 2.6 170 02:51 13.01.2020
901 Clouds -1 1027 92 10000 2.1 160 02:31 13.01.2020
902 Clouds -1 1026 92 10000 1.5 180 01:33 13.01.2020
903 Clouds -1 1026 92 10000 3.6 170 00:59 13.01.2020
904 Clouds -1 1027 92 10000 2.6 160 00:37 13.01.2020
905 Clouds -1 1027 92 10000 2.6 160 00:18 13.01.2020
906 Clouds -1 1027 92 10000 2.1 160 23:41 12.01.2020
907 Clouds -1 1027 92 10000 2.1 160 23:22 12.01.2020
908 Clouds -1 1027 92 10000 3.1 160 22:57 12.01.2020
909 Clouds -1 1027 86 10000 3.1 180 22:39 12.01.2020
910 Clouds -1 1027 86 10000 3.1 180 22:20 12.01.2020
911 Clouds -1 1027 86 10000 3.6 160 21:55 12.01.2020
912 Clouds -1 1027 92 10000 3.6 150 21:37 12.01.2020
913 Clouds -1 1027 92 10000 3.6 150 21:19 12.01.2020
914 Clouds -1 1027 92 10000 4.1 160 20:55 12.01.2020
915 Clouds -1 1027 78 10000 3.6 150 20:37 12.01.2020
916 Clouds -1 1027 84 10000 3.6 150 20:19 12.01.2020
917 Clouds -1 1027 84 10000 4.1 150 19:54 12.01.2020
918 Clouds 0 1027 84 10000 3.6 140 19:36 12.01.2020
919 Clouds 0 1027 84 10000 3.6 140 19:18 12.01.2020
920 Clouds 0 1027 80 10000 4.1 140 18:56 12.01.2020
921 Clouds 0 1027 74 10000 4.6 140 18:38 12.01.2020
922 Clouds 1 1027 74 10000 4.6 140 18:19 12.01.2020
923 Clouds 1 1026 74 10000 5.7 150 17:42 12.01.2020
924 Clear 1 1026 74 10000 5.7 150 17:21 12.01.2020
925 Clear 2 1026 69 10000 5.7 140 16:58 12.01.2020
926 Clear 2 1026 74 0 1 130 16:38 12.01.2020
927 Clear 3 1026 73 10000 5.7 130 16:20 12.01.2020
928 Clear 3 1027 69 0 4.12 159 15:55 12.01.2020
929 Clear 4 1027 69 0 4.12 159 15:37 12.01.2020
930 Clear 5 1027 73 10000 5.7 140 15:19 12.01.2020
931 Clear 5 1027 73 10000 6.2 150 14:42 12.01.2020
932 Clear 5 1027 73 10000 6.2 150 14:23 12.01.2020
933 Clear 5 1027 59 10000 6.7 140 13:57 12.01.2020
934 Clear 5 1027 59 10000 5.7 140 13:39 12.01.2020
935 Clear 4 1027 60 10000 5.7 140 13:20 12.01.2020
936 Clear 4 1028 60 10000 5.1 140 12:55 12.01.2020
937 Clear 4 1028 60 10000 2.1 140 12:37 12.01.2020
938 Clear 4 1028 60 10000 2.1 140 12:37 12.01.2020
939 Clear 4 1028 60 10000 2.1 140 12:18 12.01.2020
940 Clear 3 1029 74 10000 2.1 140 11:41 12.01.2020
941 Clear 2 1029 74 10000 2.1 140 11:22 12.01.2020
942 Clear 2 1029 80 10000 1.5 110 10:56 12.01.2020
943 Clear 1 1029 76 10000 4.22 142 10:37 12.01.2020
944 Clear 0 1029 76 10000 4.22 142 10:19 12.01.2020
945 Clear -1 1029 86 10000 0.5 0 09:42 12.01.2020
946 Clear -2 1029 86 10000 3.1 160 09:23 12.01.2020
947 Clear -3 1029 85 10000 2.6 160 08:48 12.01.2020
948 Clear -4 1030 92 10000 1 0 08:24 12.01.2020
949 Clear -3 1030 86 10000 1.5 130 07:49 12.01.2020
950 Clear -3 1030 86 10000 1.5 130 07:30 12.01.2020
951 Clear -3 1030 86 10000 1 0 06:59 12.01.2020
952 Clear -3 1030 86 10000 1 0 06:59 12.01.2020
953 Clear -3 1030 86 10000 1 0 06:59 12.01.2020
954 Clear -3 1030 86 10000 1 160 06:36 12.01.2020
955 Clear -3 1030 92 10000 2.6 170 05:52 12.01.2020
956 Clear -3 1031 85 10000 2.6 170 04:56 12.01.2020
957 Clear -2 1031 92 10000 2.1 190 03:43 12.01.2020
958 Clouds -2 1032 86 10000 1 270 02:46 12.01.2020
959 Clear -2 1032 86 10000 2.1 200 02:24 12.01.2020
960 Clear -1 1032 84 10000 1.5 240 01:34 12.01.2020
961 Clear -1 1032 83 10000 2.1 260 00:46 12.01.2020
962 Clear -1 1032 83 10000 2.6 250 00:22 12.01.2020
963 Clear -1 1032 74 10000 2.1 300 23:57 11.01.2020
964 Clear 0 1032 74 10000 1.5 340 23:39 11.01.2020
965 Clear 0 1032 69 10000 3.1 330 23:18 11.01.2020
966 Clear 0 1032 69 10000 3.1 330 22:56 11.01.2020
967 Clear 0 1032 69 10000 4.1 330 22:37 11.01.2020
968 Clear 1 1032 69 10000 4.1 330 22:19 11.01.2020
969 Clear 1 1032 74 10000 4.1 320 21:44 11.01.2020
970 Clear 1 1032 74 10000 4.1 320 21:19 11.01.2020
971 Clear 2 1032 69 10000 4.1 320 20:57 11.01.2020
972 Clear 2 1032 69 10000 3.6 320 20:39 11.01.2020
973 Clouds 2 1032 69 10000 3.6 320 20:19 11.01.2020
974 Clouds 2 1032 69 10000 3.6 320 19:57 11.01.2020
975 Clouds 3 1032 69 10000 2.6 320 19:38 11.01.2020
976 Clouds 3 1032 69 10000 2.6 320 19:38 11.01.2020
977 Clouds 3 1032 69 10000 2.6 320 19:20 11.01.2020
978 Clouds 3 1032 64 10000 4.1 330 18:55 11.01.2020
979 Clouds 4 1032 64 10000 4.1 330 18:36 11.01.2020
980 Clouds 4 1032 64 10000 4.1 330 18:18 11.01.2020
981 Clouds 4 1032 64 10000 4.1 330 17:57 11.01.2020
982 Clouds 4 1032 64 10000 4.1 330 17:57 11.01.2020
983 Clouds 4 1032 60 10000 4.1 340 17:39 11.01.2020
984 Clouds 4 1032 60 10000 4.1 340 17:18 11.01.2020
985 Clouds 5 1032 60 10000 5.7 340 16:43 11.01.2020
986 Clouds 5 1032 56 10000 6.7 350 16:24 11.01.2020
987 Clouds 6 1032 56 10000 7.7 330 15:56 11.01.2020
988 Clouds 6 1031 56 10000 7.7 340 15:38 11.01.2020
989 Clouds 6 1031 56 10000 7.7 340 15:19 11.01.2020
990 Clouds 6 1031 56 10000 6.7 330 14:46 11.01.2020
991 Clouds 6 1031 56 10000 6.7 330 14:25 11.01.2020
992 Clouds 6 1031 56 10000 7.7 320 13:57 11.01.2020
993 Clouds 7 1031 58 10000 7.2 330 13:38 11.01.2020
994 Clouds 7 1031 58 10000 7.2 330 13:20 11.01.2020
995 Clouds 7 1031 65 10000 6.2 320 12:55 11.01.2020
996 Clouds 7 1031 65 10000 6.2 320 12:36 11.01.2020
997 Clouds 7 1031 70 10000 6.2 320 12:18 11.01.2020
998 Clouds 7 1031 70 10000 6.2 320 11:42 11.01.2020
999 Clouds 6 1031 75 10000 4.1 330 11:23 11.01.2020
1000 Clouds 6 1031 81 10000 2.6 330 10:46 11.01.2020
1001 Clouds 6 1031 86 10000 3.1 320 10:25 11.01.2020
1002 Clouds 5 1030 86 10000 3.1 350 09:43 11.01.2020
1003 Rain 5 1030 86 10000 3.1 350 09:21 11.01.2020
1004 Rain 5 1030 86 10000 3.1 10 08:57 11.01.2020
1005 Rain 5 1029 81 10000 4.6 350 08:38 11.01.2020
1006 Rain 5 1029 75 10000 5.1 300 08:19 11.01.2020
1007 Clouds 4 1028 75 10000 6.2 300 07:42 11.01.2020
1008 Clouds 5 1028 75 10000 6.2 300 07:24 11.01.2020
1009 Clouds 3 1028 75 10000 5.7 290 06:43 11.01.2020
1010 Rain 4 1027 86 10000 4.6 360 05:29 11.01.2020
1011 Clear 3 1026 86 10000 1 0 04:40 11.01.2020
1012 Clear 3 1026 86 10000 1 0 04:21 11.01.2020
1013 Mist 2 1026 92 3700 2.1 10 02:46 11.01.2020
1014 Fog 1 1025 100 250 1.5 170 01:47 11.01.2020
1015 Fog 1 1025 100 250 1.5 170 01:27 11.01.2020
1016 Fog 2 1025 100 200 1 0 00:52 11.01.2020
1017 Rain 2 1026 100 400 1 0 00:25 11.01.2020
1018 Rain 2 1025 100 300 3.1 160 23:58 10.01.2020
1019 Fog 2 1025 100 150 0.5 0 23:39 10.01.2020
1020 Clouds 1 1025 92 300 0.5 0 23:20 10.01.2020
1021 Mist 1 1025 92 1200 0.5 0 22:41 10.01.2020
1022 Mist 1 1025 92 1200 0.5 0 22:22 10.01.2020
1023 Mist 1 1025 100 2000 0.5 0 21:59 10.01.2020
1024 Mist 1 1024 100 1600 2.1 180 21:41 10.01.2020
1025 Mist 1 1024 100 1600 2.1 180 21:20 10.01.2020
1026 Mist 1 1024 100 1700 1.5 160 20:57 10.01.2020
1027 Mist 1 1024 100 1800 1.5 190 20:38 10.01.2020
1028 Mist 1 1024 100 1800 1.5 190 20:38 10.01.2020
1029 Mist 1 1024 100 1800 1.5 190 20:20 10.01.2020
1030 Mist 1 1024 100 2400 1.5 210 19:41 10.01.2020
1031 Mist 1 1024 100 2400 1.5 210 19:21 10.01.2020
1032 Mist 0 1024 100 2600 1 0 18:56 10.01.2020
1033 Mist 0 1024 92 3500 1 0 18:37 10.01.2020
1034 Mist 0 1024 92 3500 1 0 18:18 10.01.2020
1035 Mist 0 1024 92 3600 2.1 210 17:56 10.01.2020
1036 Mist 0 1023 92 3800 1.5 190 17:38 10.01.2020
1037 Mist 0 1023 92 3800 1.5 190 17:38 10.01.2020
1038 Mist 0 1023 92 2700 2.6 210 17:19 10.01.2020
1039 Mist 0 1023 92 2700 2.6 210 17:19 10.01.2020
1040 Mist 1 1023 80 2500 2.1 210 16:43 10.01.2020
1041 Mist 2 1023 80 2500 2.1 210 16:22 10.01.2020
1042 Mist 1 1023 80 2800 2.1 220 15:58 10.01.2020
1043 Mist 2 1023 80 3100 1 0 15:39 10.01.2020
1044 Mist 2 1023 80 3100 1 0 15:20 10.01.2020
1045 Mist 2 1023 80 3000 1.5 210 14:59 10.01.2020
1046 Mist 3 1022 80 2600 2.6 190 14:40 10.01.2020
1047 Mist 2 1022 71 2800 2.6 180 14:19 10.01.2020
1048 Mist 3 1022 71 2800 2.6 180 13:58 10.01.2020
1049 Mist 3 1022 71 2500 2.1 160 13:39 10.01.2020
1050 Mist 2 1022 70 2500 2.1 160 13:21 10.01.2020
1051 Mist 3 1022 70 3000 2.6 180 12:57 10.01.2020
1052 Mist 3 1022 92 2700 2.1 110 12:38 10.01.2020
1053 Mist 2 1022 92 2700 2.1 110 12:18 10.01.2020
1054 Mist 2 1022 92 2100 2.1 140 11:54 10.01.2020
1055 Mist 2 1022 92 2000 2.1 130 11:36 10.01.2020
1056 Mist 1 1022 92 1700 1.5 160 11:18 10.01.2020
1057 Mist 1 1022 92 1800 2.1 160 10:39 10.01.2020
1058 Mist 1 1022 92 1800 2.1 160 10:21 10.01.2020
1059 Mist 0 1022 92 2200 2.6 150 09:56 10.01.2020
1060 Mist 0 1022 92 2100 2.1 160 09:37 10.01.2020
1061 Mist 0 1022 92 2100 2.1 160 09:19 10.01.2020
1062 Mist 0 1022 92 2200 1.5 170 08:41 10.01.2020
1063 -273 0 0 0 0 0 08:22 10.01.2020
1064 Mist 0 1021 92 3600 2.1 130 07:44 10.01.2020
1065 Mist 0 1021 92 3700 2.6 140 07:24 10.01.2020
1066 Mist -1 1020 92 3600 2.6 130 06:45 10.01.2020
1067 Mist -1 1020 100 3400 2.1 140 06:25 10.01.2020
1068 Mist -1 1020 100 3400 2.6 150 05:46 10.01.2020
1069 Mist -1 1020 92 4300 3.6 120 03:37 10.01.2020
1070 Mist -1 1020 92 4300 3.6 120 03:18 10.01.2020
1071 Mist -1 1020 92 4500 2.1 120 02:39 10.01.2020
1072 Mist -1 1021 92 4900 2.6 130 01:38 10.01.2020
1073 Mist -1 1021 92 5000 2.6 130 01:19 10.01.2020
1074 Mist -1 1021 92 5000 2.1 120 00:39 10.01.2020
1075 Mist 0 1021 92 5000 2.6 130 23:58 09.01.2020
1076 Mist 0 1021 92 5000 2.1 120 23:38 09.01.2020
1077 Mist 0 1021 92 5000 2.1 120 23:20 09.01.2020
1078 Clouds 0 1022 92 6000 1.5 140 22:57 09.01.2020
1079 Clouds 0 1021 83 6000 3.1 130 22:38 09.01.2020
1080 Clouds 0 1021 83 6000 3.1 130 22:19 09.01.2020
1081 Clouds 0 1022 83 6000 2.6 130 21:57 09.01.2020
1082 Clouds 0 1022 86 6000 3.1 140 21:37 09.01.2020
1083 Clouds 0 1022 86 6000 3.1 140 21:37 09.01.2020
1084 Clouds 0 1022 86 6000 3.1 140 21:37 09.01.2020
1085 Clouds 1 1022 86 6000 3.1 140 21:19 09.01.2020
1086 Clouds 1 1022 86 6000 2.1 130 20:57 09.01.2020
1087 Clouds 1 1022 86 6000 2.1 130 20:39 09.01.2020
1088 Clouds 1 1022 86 6000 1.5 140 20:19 09.01.2020
1089 Clouds 1 1022 86 6000 1.5 140 20:19 09.01.2020
1090 Clouds 1 1022 86 6000 2.6 130 19:56 09.01.2020
1091 Clouds 1 1022 86 6000 2.6 130 19:37 09.01.2020
1092 Clouds 1 1022 86 6000 1.5 140 19:19 09.01.2020
1093 Clouds 2 1022 84 6000 1.5 90 18:55 09.01.2020
1094 Clouds 2 1022 84 6000 1.5 90 18:36 09.01.2020
1095 Clouds 2 1023 84 6000 3.1 110 18:18 09.01.2020
1096 Clouds 2 1023 84 10000 3.1 110 17:41 09.01.2020
1097 Clouds 3 1023 80 10000 2.6 150 17:18 09.01.2020
1098 Clouds 3 1023 77 10000 4.1 140 16:48 09.01.2020
1099 Clouds 3 1023 77 10000 4.1 140 16:24 09.01.2020
1100 Clouds 3 1023 77 10000 4.6 140 15:59 09.01.2020
1101 Clouds 3 1023 77 10000 4.6 140 15:40 09.01.2020
1102 Clouds 4 1023 77 10000 4.6 140 15:19 09.01.2020
1103 Clouds 4 1023 77 10000 4.1 120 14:42 09.01.2020
1104 Clouds 4 1024 70 10000 4.6 130 14:22 09.01.2020
1105 Clouds 5 1024 70 7000 3.6 130 13:57 09.01.2020
1106 Clouds 4 1024 70 7000 3.6 130 13:39 09.01.2020
1107 Clouds 4 1025 74 6000 4.1 130 13:20 09.01.2020
1108 Clouds 4 1025 74 6000 4.1 130 12:59 09.01.2020
1109 Clouds 4 1025 74 6000 4.6 130 12:40 09.01.2020
1110 Clouds 4 1025 74 6000 4.1 130 12:20 09.01.2020
1111 Clouds 4 1026 74 6000 4.6 130 11:57 09.01.2020
1112 Clouds 3 1026 74 6000 4.6 130 11:38 09.01.2020
1113 Clouds 3 1026 78 6000 3.6 130 11:20 09.01.2020
1114 Clouds 3 1026 86 6000 3.6 120 10:43 09.01.2020
1115 Clouds 3 1026 86 6000 3.6 120 10:22 09.01.2020
1116 Clouds 3 1026 86 6000 3.6 120 09:58 09.01.2020
1117 Clouds 2 1026 86 6000 3.6 130 09:38 09.01.2020
1118 Mist 2 1026 86 5000 4.1 140 09:19 09.01.2020
1119 Mist 2 1026 86 5000 4.6 130 08:55 09.01.2020
1120 Mist 2 1026 86 5000 4.6 130 08:37 09.01.2020
1121 Clouds 2 1026 86 6000 3.6 120 08:19 09.01.2020
1122 Clouds 2 1026 79 7000 4.1 130 07:42 09.01.2020
1123 Clouds 2 1026 86 7000 1.5 130 07:23 09.01.2020
1124 Clouds 2 1026 86 8000 3.1 120 06:38 09.01.2020
1125 Clouds 2 1027 86 8000 1 0 06:20 09.01.2020
1126 Clouds 3 1026 86 8000 3.1 140 05:48 09.01.2020
1127 Clouds 2 1027 86 8000 2.1 140 04:43 09.01.2020
1128 Clouds 3 1028 86 8000 1 0 03:31 09.01.2020
1129 Clouds 2 1028 86 9000 3.6 150 02:53 09.01.2020
1130 Clouds 2 1028 86 9000 3.1 160 02:24 09.01.2020
1131 Clouds 2 1028 86 9000 0.5 0 01:39 09.01.2020
1132 Rain 2 1029 86 7000 2.6 160 00:43 09.01.2020
1133 Rain 2 1029 83 8000 2.6 160 00:21 09.01.2020
1134 Rain 2 1029 83 8000 2.6 160 00:21 09.01.2020
1135 Rain 2 1029 83 8000 2.6 160 00:21 09.01.2020
1136 Rain 2 1029 83 10000 2.1 140 23:44 08.01.2020
1137 Rain 2 1029 86 10000 1.5 90 23:25 08.01.2020
1138 Rain 2 1029 80 10000 1.5 150 22:59 08.01.2020
1139 Rain 2 1029 80 10000 1.5 150 22:39 08.01.2020
1140 Rain 2 1029 80 10000 3.6 150 22:20 08.01.2020
1141 Rain 3 1029 80 10000 3.6 150 21:57 08.01.2020
1142 Clouds 3 1029 80 10000 3.6 160 21:38 08.01.2020
1143 Clouds 3 1029 80 10000 3.1 130 21:20 08.01.2020
1144 Clouds 3 1029 80 10000 3.6 160 20:58 08.01.2020
1145 Clouds 3 1029 80 10000 3.6 160 20:38 08.01.2020
1146 Clouds 3 1029 80 10000 4.1 160 20:20 08.01.2020
1147 Clouds 3 1030 74 10000 2.6 140 19:56 08.01.2020
1148 Clouds 3 1030 74 10000 2.6 140 19:56 08.01.2020
1149 Clouds 3 1030 74 10000 2.6 140 19:37 08.01.2020
1150 Clouds 3 1030 74 10000 2.6 140 19:37 08.01.2020
1151 Clouds 3 1029 80 10000 4.6 130 19:18 08.01.2020
1152 Clouds 3 1029 80 10000 5.1 140 18:55 08.01.2020
1153 Clouds 3 1029 80 10000 5.1 140 18:37 08.01.2020
1154 Clouds 3 1030 86 10000 5.1 150 18:18 08.01.2020
1155 Clouds 3 1030 86 10000 5.1 150 17:47 08.01.2020
1156 Clouds 3 1030 86 9000 4.1 160 17:24 08.01.2020
1157 Clouds 3 1030 86 9000 4.1 160 17:24 08.01.2020
1158 Clear 3 1029 80 10000 2.1 140 16:57 08.01.2020
1159 Clear 3 1029 80 10000 2.1 140 16:39 08.01.2020
1160 Clear 3 1029 81 10000 3.1 120 16:19 08.01.2020
1161 Clear 3 1029 81 10000 3.1 120 16:19 08.01.2020
1162 Clear 4 1029 81 10000 3.1 120 15:58 08.01.2020
1163 Clear 3 1029 75 10000 4.1 120 15:39 08.01.2020
1164 Clear 5 1029 70 10000 4.6 120 15:19 08.01.2020
1165 Clear 5 1029 81 10000 4.1 140 14:55 08.01.2020
1166 Clear 5 1029 81 10000 4.1 140 14:37 08.01.2020
1167 Clear 6 1029 66 10000 4.6 140 14:19 08.01.2020
1168 Clear 6 1029 61 10000 3.6 140 13:39 08.01.2020
1169 Clear 6 1030 61 10000 4.1 190 13:18 08.01.2020
1170 Clear 6 1030 61 10000 4.1 160 12:41 08.01.2020
1171 Clear 6 1030 65 10000 3.1 160 12:19 08.01.2020
1172 Clear 5 1031 70 10000 2.1 120 11:55 08.01.2020
1173 Clear 5 1031 70 10000 2.1 120 11:55 08.01.2020
1174 Clear 5 1031 70 10000 2.1 120 11:37 08.01.2020
1175 Clear 4 1031 75 10000 2.1 190 11:18 08.01.2020
1176 Clear 3 1031 80 10000 2.6 170 10:42 08.01.2020
1177 Clear 2 1031 86 10000 4.1 170 10:22 08.01.2020
1178 Clear 2 1031 85 10000 3.1 180 09:59 08.01.2020
1179 Clear 1 1031 85 10000 3.1 180 09:41 08.01.2020
1180 Clear 1 1032 85 10000 2.1 180 09:19 08.01.2020
1181 Mist 0 1031 85 10000 3.6 180 08:43 08.01.2020
1182 Mist 0 1031 94 10000 3.1 170 08:24 08.01.2020
1183 Mist 0 1031 94 10000 3.1 170 07:59 08.01.2020
1184 Mist 0 1031 94 10000 3.1 170 07:41 08.01.2020
1185 Clouds 1 1031 94 8000 2.6 160 07:23 08.01.2020
1186 Clouds 1 1031 94 10000 2.6 180 06:44 08.01.2020
1187 Clouds 1 1031 94 9000 2.1 170 05:59 08.01.2020
1188 Clouds 1 1031 94 9000 2.1 170 05:28 08.01.2020
1189 Clouds 1 1031 95 10000 1 90 04:46 08.01.2020
1190 Rain 1 1031 95 10000 0.5 0 03:32 08.01.2020
1191 Clouds 2 1031 95 10000 1 300 02:44 08.01.2020
1192 Clouds 2 1031 92 10000 1 340 02:19 08.01.2020
1193 Clouds 2 1031 92 10000 2.6 330 01:40 08.01.2020
1194 Rain 2 1031 91 10000 3.6 320 00:54 08.01.2020
1195 Clouds 2 1031 91 10000 3.6 320 00:26 08.01.2020
1196 Clouds 2 1031 91 10000 3.1 330 23:47 07.01.2020
1197 Clouds 2 1031 90 10000 2.6 310 23:22 07.01.2020
1198 Clouds 3 1031 90 10000 1 360 22:58 07.01.2020
1199 Clouds 2 1031 90 10000 1 360 22:39 07.01.2020
1200 Clouds 3 1031 90 10000 1.5 10 22:19 07.01.2020
1201 Rain 3 1031 90 10000 1.5 320 21:54 07.01.2020
1202 Rain 3 1031 90 10000 1.5 320 21:36 07.01.2020
1203 Rain 3 1031 90 10000 2.6 330 21:18 07.01.2020
1204 Rain 3 1031 90 10000 2.1 350 20:41 07.01.2020
1205 Clouds 3 1031 85 10000 3.1 350 20:23 07.01.2020
1206 Clouds 3 1031 87 10000 3.1 350 19:59 07.01.2020
1207 Clouds 2 1030 87 10000 3.1 350 19:38 07.01.2020
1208 Clouds 2 1030 80 10000 2.6 350 19:19 07.01.2020
1209 Clouds 2 1030 74 10000 4.1 340 18:57 07.01.2020
1210 Clouds 2 1030 74 10000 4.1 340 18:38 07.01.2020
1211 Clouds 2 1030 69 10000 5.1 310 18:18 07.01.2020
1212 Clouds 2 1030 74 10000 3.6 300 17:58 07.01.2020
1213 Clouds 2 1030 74 10000 3.6 300 17:38 07.01.2020
1214 Clouds 2 1030 80 10000 1.5 300 17:20 07.01.2020
1215 Clouds 2 1030 80 10000 1.5 300 16:55 07.01.2020
1216 Clouds 2 1029 74 10000 0.5 0 16:37 07.01.2020
1217 Clouds 2 1029 75 10000 1 0 16:18 07.01.2020
1218 Clouds 2 1029 74 10000 1.5 20 15:43 07.01.2020
1219 Clouds 2 1028 75 10000 2.6 20 15:24 07.01.2020
1220 Clouds 2 1028 75 10000 2.6 20 15:24 07.01.2020
1221 Clouds 2 1028 75 10000 2.6 20 15:24 07.01.2020
1222 Clouds 2 1028 75 10000 2.6 20 14:59 07.01.2020
1223 Clouds 2 1028 75 10000 2.6 20 14:41 07.01.2020
1224 Clouds 3 1027 57 10000 2.1 30 14:22 07.01.2020
1225 Clouds 3 1027 57 10000 2.1 30 14:22 07.01.2020
1226 Clouds 3 1027 74 10000 2.1 70 13:56 07.01.2020
1227 Clouds 2 1027 74 10000 2.1 70 13:37 07.01.2020
1228 Clouds 2 1027 57 10000 2.1 80 13:18 07.01.2020
1229 Clouds 3 1027 57 10000 2.1 110 12:40 07.01.2020
1230 Clouds 2 1027 80 10000 2.1 160 12:19 07.01.2020
1231 Clouds 2 1027 80 10000 3.1 170 11:43 07.01.2020
1232 Clouds 0 1028 79 10000 2.6 140 11:23 07.01.2020
1233 Clouds 0 1028 79 10000 2.6 140 10:58 07.01.2020
1234 Clouds -1 1028 86 10000 1.5 140 10:40 07.01.2020
1235 Clouds -2 1027 85 10000 2.6 160 10:22 07.01.2020
1236 Clouds -3 1027 85 10000 2.6 160 09:56 07.01.2020
1237 Clouds -4 1027 85 10000 1 150 09:37 07.01.2020
1238 Clouds -4 1027 85 10000 1.5 160 09:19 07.01.2020
1239 Clouds -5 1026 85 10000 2.1 160 08:41 07.01.2020
1240 Clear -6 1026 85 10000 2.6 160 08:20 07.01.2020
1241 Clear -6 1026 85 10000 2.6 140 07:49 07.01.2020
1242 Clear -6 1026 85 10000 2.6 120 07:25 07.01.2020
1243 Clear -6 1026 85 10000 2.1 120 06:52 07.01.2020
1244 Clear -6 1026 85 10000 2.1 120 06:32 07.01.2020
1245 Clear -5 1025 92 10000 1.5 130 05:42 07.01.2020
1246 Clear -5 1026 85 10000 1.5 150 03:52 07.01.2020
1247 Clear -5 1026 85 10000 2.6 140 03:25 07.01.2020
1248 Clear -5 1027 85 10000 3.1 160 02:20 07.01.2020
1249 Clear -5 1026 85 10000 3.1 150 01:40 07.01.2020
1250 Clear -5 1027 85 10000 3.1 150 01:18 07.01.2020
1251 Clear -4 1027 85 10000 2.1 140 00:21 07.01.2020
1252 Clear -4 1027 85 10000 1.5 160 23:58 06.01.2020
1253 Clear -4 1027 85 10000 1.5 160 23:39 06.01.2020
1254 Clear -4 1027 79 10000 2.1 140 23:21 06.01.2020
1255 Clear -4 1028 85 10000 1.5 150 22:56 06.01.2020
1256 Clear -3 1028 85 10000 1.5 150 22:37 06.01.2020
1257 Clear -3 1028 79 10000 0.5 0 22:19 06.01.2020
1258 Clear -3 1028 79 10000 1 150 21:54 06.01.2020
1259 Clear -3 1028 79 10000 1 150 21:36 06.01.2020
1260 Clear -3 1028 79 10000 1 150 21:36 06.01.2020
1261 Clear -3 1028 79 10000 0.5 0 21:18 06.01.2020
1262 Clear -3 1028 79 10000 2.1 110 20:54 06.01.2020
1263 Clear -3 1028 79 10000 2.1 110 20:54 06.01.2020
1264 Clear -2 1028 79 10000 2.1 110 20:36 06.01.2020
1265 Clouds -2 1028 74 10000 3.1 120 20:18 06.01.2020
1266 Clouds -2 1029 74 10000 3.1 100 19:55 06.01.2020
1267 Clouds -2 1029 74 10000 3.1 100 19:36 06.01.2020
1268 Clouds -1 1029 79 10000 2.1 120 19:18 06.01.2020
1269 Clouds -1 1029 79 10000 2.6 110 18:43 06.01.2020
1270 Clouds -1 1029 79 10000 2.1 120 18:20 06.01.2020
1271 Clouds 0 1029 79 10000 2.1 120 17:39 06.01.2020
1272 Clouds 0 1029 69 10000 3.1 130 17:20 06.01.2020
1273 Clouds 0 1029 69 10000 3.1 120 16:57 06.01.2020
1274 Clouds 1 1029 69 10000 3.1 120 16:38 06.01.2020
1275 Clouds 1 1029 64 10000 3.1 130 16:19 06.01.2020
1276 Clouds 2 1029 64 10000 3.1 130 15:43 06.01.2020
1277 Clouds 3 1030 64 10000 3.1 130 15:22 06.01.2020
1278 Clouds 3 1030 64 10000 3.1 130 14:59 06.01.2020
1279 Clouds 3 1030 55 10000 2.6 170 14:41 06.01.2020
1280 Clouds 3 1030 55 10000 3.1 150 14:22 06.01.2020
1281 Clouds 3 1030 59 10000 2.6 170 13:59 06.01.2020
1282 Clouds 3 1030 59 10000 2.6 170 13:39 06.01.2020
1283 Clouds 3 1031 59 10000 2.1 160 13:20 06.01.2020
1284 Clouds 3 1032 59 10000 2.6 150 12:55 06.01.2020
1285 Clouds 3 1032 59 10000 2.6 150 12:37 06.01.2020
1286 Clouds 3 1032 59 10000 2.6 150 12:37 06.01.2020
1287 Clouds 3 1032 59 10000 2.6 130 12:18 06.01.2020
1288 Clouds 2 1033 64 10000 2.6 190 11:41 06.01.2020
1289 Clouds 1 1033 69 10000 2.6 190 11:23 06.01.2020
1290 Clear 1 1033 69 10000 2.6 190 10:59 06.01.2020
1291 Clouds 0 1033 74 10000 2.6 170 10:40 06.01.2020
1292 Clouds 0 1033 70 10000 2.6 170 10:20 06.01.2020
1293 Clouds -2 1034 80 10000 1.5 170 09:39 06.01.2020
1294 Clouds -3 1034 74 10000 2.1 210 09:20 06.01.2020
1295 Clouds -3 1034 79 10000 1.5 220 08:52 06.01.2020
1296 Clouds -4 1034 79 10000 1.5 220 08:34 06.01.2020
1297 Clouds -4 1034 79 10000 1.5 210 07:57 06.01.2020
1298 Clouds -4 1034 79 10000 1.5 210 07:37 06.01.2020
1299 Clouds -4 1034 85 10000 2.6 190 06:49 06.01.2020
1300 Clouds -4 1034 85 10000 2.6 190 06:30 06.01.2020
1301 Clouds -4 1034 85 10000 1 0 05:48 06.01.2020
1302 Clear -4 1033 85 10000 1.5 40 04:55 06.01.2020
1303 Clear -4 1034 79 10000 1 360 04:21 06.01.2020
1304 Clear -3 1034 79 10000 1.5 150 03:25 06.01.2020
1305 Clear -2 1034 79 10000 4.1 310 02:25 06.01.2020
1306 Clear -2 1035 79 10000 3.6 320 01:46 06.01.2020
1307 Clear -2 1035 79 10000 3.1 310 01:28 06.01.2020
1308 Clear -2 1035 74 10000 4.1 300 00:44 06.01.2020
1309 Clear -2 1035 68 10000 2.6 290 00:24 06.01.2020
1310 Clear -2 1035 76 10000 2.1 300 23:43 05.01.2020
1311 Clear -2 1036 68 10000 1 0 23:23 05.01.2020
1312 Clear -2 1035 74 10000 1 0 22:58 05.01.2020
1313 Clear -2 1035 74 10000 1 0 22:39 05.01.2020
1314 Clear -2 1035 74 10000 2.6 310 22:20 05.01.2020
1315 Clear -2 1035 74 10000 2.6 310 21:56 05.01.2020
1316 Clear -1 1035 74 10000 3.6 300 21:38 05.01.2020
1317 Clear -1 1035 74 10000 5.1 310 21:20 05.01.2020
1318 Clear -1 1035 74 10000 5.1 310 21:20 05.01.2020
1319 Clear -1 1035 74 10000 4.1 330 20:56 05.01.2020
1320 Clear -1 1035 74 10000 4.1 330 20:38 05.01.2020
1321 Clear -1 1035 64 10000 3.1 330 20:19 05.01.2020
1322 Clear -1 1035 64 10000 3.1 330 19:58 05.01.2020
1323 Clear 0 1035 64 10000 4.1 310 19:38 05.01.2020
1324 Clear 0 1035 64 10000 4.1 310 19:19 05.01.2020
1325 Clear 0 1035 64 10000 3.1 300 18:55 05.01.2020
1326 Clear 0 1035 64 10000 3.1 300 18:37 05.01.2020
1327 Clear 0 1035 64 10000 3.1 300 18:37 05.01.2020
1328 Clouds 1 1034 59 10000 4.6 320 18:19 05.01.2020
1329 Clouds 1 1034 59 10000 4.6 320 17:57 05.01.2020
1330 Clouds 1 1034 59 10000 4.6 320 17:38 05.01.2020
1331 Clouds 1 1034 55 10000 6.2 320 17:19 05.01.2020
1332 Clouds 2 1033 55 10000 7.2 320 16:55 05.01.2020
1333 Clouds 2 1033 55 10000 7.2 320 16:37 05.01.2020
1334 Clear 2 1033 55 10000 7.7 320 16:19 05.01.2020
1335 Clouds 3 1033 51 10000 8.2 320 15:37 05.01.2020
1336 Clouds 4 1032 51 10000 7.7 320 15:18 05.01.2020
1337 Clouds 4 1032 51 10000 9.3 330 14:55 05.01.2020
1338 Clouds 4 1032 51 10000 9.3 330 14:37 05.01.2020
1339 Clouds 4 1032 51 10000 8.7 330 14:18 05.01.2020
1340 Clouds 4 1032 51 10000 9.8 320 13:54 05.01.2020
1341 Clouds 4 1032 51 10000 9.8 320 13:36 05.01.2020
1342 Clouds 4 1032 51 10000 9.3 320 13:18 05.01.2020
1343 Clouds 4 1032 55 10000 9.8 320 12:54 05.01.2020
1344 Clouds 4 1033 55 10000 8.2 320 12:36 05.01.2020
1345 Clouds 4 1033 55 10000 8.2 320 12:18 05.01.2020
1346 Clouds 4 1033 55 10000 8.7 320 11:43 05.01.2020
1347 Clouds 4 1033 55 10000 8.7 320 11:43 05.01.2020
1348 Clouds 4 1033 55 10000 8.7 320 11:43 05.01.2020
1349 Clouds 4 1033 55 10000 8.7 320 11:42 05.01.2020
1350 Clouds 4 1033 55 10000 8.7 320 11:42 05.01.2020
1351 Clouds 3 1032 59 10000 9.3 310 11:19 05.01.2020
1352 Clouds 3 1032 59 10000 9.3 310 10:57 05.01.2020
1353 Clouds 3 1032 59 10000 9.3 310 10:57 05.01.2020
1354 Clouds 3 1032 59 10000 9.3 310 10:57 05.01.2020
1355 Clouds 3 1032 59 10000 9.8 320 10:57 05.01.2020
1356 Clouds 3 1032 59 10000 9.8 320 10:38 05.01.2020
1357 Clouds 3 1032 59 10000 9.8 320 10:38 05.01.2020
1358 Clouds 3 1032 59 10000 9.8 320 10:38 05.01.2020
1359 Clouds 3 1032 59 10000 9.8 320 10:38 05.01.2020
1360 Clouds 3 1032 59 10000 9.8 320 10:38 05.01.2020
1361 Clouds 3 1032 59 10000 9.3 310 10:18 05.01.2020
1362 Clouds 2 1032 55 10000 9.8 310 09:41 05.01.2020
1363 Clouds 2 1031 59 10000 10.8 320 09:21 05.01.2020
1364 Clouds 2 1030 59 10000 10.3 320 08:49 05.01.2020
1365 Clouds 2 1030 59 10000 10.3 320 08:30 05.01.2020
1366 Clouds 1 1030 59 10000 10.3 320 07:56 05.01.2020
1367 Clouds 2 1030 59 10000 9.8 320 07:37 05.01.2020
1368 Clouds 2 1029 59 10000 8.7 320 07:19 05.01.2020
1369 Clouds 2 1028 64 10000 9.3 320 05:59 05.01.2020
1370 Clouds 2 1028 64 10000 8.2 320 05:32 05.01.2020
1371 Clouds 2 1027 64 10000 7.2 330 04:43 05.01.2020
1372 Clouds 2 1026 64 10000 9.3 320 04:18 05.01.2020
1373 Clouds 2 1026 64 10000 9.3 320 04:18 05.01.2020
1374 Clouds 2 1026 64 10000 9.3 320 04:18 05.01.2020
1375 Clouds 2 1025 64 10000 9.8 320 02:46 05.01.2020
1376 Rain 2 1025 69 10000 7.2 320 02:24 05.01.2020
1377 Rain 3 1024 74 10000 9.3 320 01:48 05.01.2020
1378 Rain 3 1024 86 10000 7.2 310 01:19 05.01.2020
1379 Rain 3 1023 86 10000 7.2 310 00:41 05.01.2020
1380 Rain 3 1023 86 8000 11.3 310 00:23 05.01.2020
1381 Rain 3 1023 86 8000 11.3 310 23:59 04.01.2020
1382 Clouds 4 1022 75 10000 10.8 290 23:40 04.01.2020
1383 Clouds 4 1022 70 10000 9.8 280 23:19 04.01.2020
1384 Clouds 4 1022 70 10000 9.8 280 23:19 04.01.2020
1385 Rain 4 1022 75 10000 9.3 280 22:40 04.01.2020
1386 Rain 4 1022 75 10000 10.8 280 22:22 04.01.2020
1387 Rain 4 1021 70 10000 13.9 280 21:58 04.01.2020
1388 Rain 4 1021 70 10000 13.9 280 21:39 04.01.2020
1389 Rain 4 1021 70 10000 12.3 280 21:20 04.01.2020
1390 Rain 4 1021 70 10000 11.3 280 20:59 04.01.2020
1391 Rain 4 1021 70 10000 11.3 280 20:40 04.01.2020
1392 Rain 4 1021 67 10000 12.3 280 20:21 04.01.2020
1393 Rain 4 1021 68 10000 12.3 280 19:57 04.01.2020
1394 Rain 4 1021 68 10000 12.3 280 19:57 04.01.2020
1395 Rain 4 1021 68 10000 13.4 290 19:38 04.01.2020
1396 Rain 4 1022 68 10000 13.4 280 19:20 04.01.2020
1397 Rain 5 1022 68 10000 13.9 290 18:55 04.01.2020
1398 Rain 5 1022 68 10000 13.9 290 18:36 04.01.2020
1399 Rain 5 1021 65 10000 10.8 280 18:18 04.01.2020
1400 Clouds 5 1022 65 10000 8.7 280 17:41 04.01.2020
1401 Clouds 5 1022 65 10000 8.7 280 17:41 04.01.2020
1402 Clouds 5 1022 65 10000 9.8 280 17:23 04.01.2020
1403 Clouds 5 1022 65 10000 9.8 280 16:58 04.01.2020
1404 Clouds 5 1022 65 10000 8.2 280 16:39 04.01.2020
1405 Clouds 5 1022 57 10000 7.2 280 16:21 04.01.2020
1406 Clouds 5 1022 57 10000 8.7 290 15:54 04.01.2020
1407 Clouds 5 1022 57 10000 8.7 290 15:36 04.01.2020
1408 Clouds 5 1022 57 10000 5.7 290 15:18 04.01.2020
1409 Clouds 5 1022 57 10000 6.7 310 14:42 04.01.2020
1410 Clouds 6 1022 81 10000 7.7 300 14:20 04.01.2020
1411 Clouds 6 1023 75 10000 5.7 310 13:59 04.01.2020
1412 Clouds 6 1023 75 10000 5.7 310 13:38 04.01.2020
1413 Rain 6 1023 75 10000 5.1 320 13:19 04.01.2020
1414 Rain 6 1023 81 10000 4.6 290 12:57 04.01.2020
1415 Rain 6 1023 81 10000 4.6 290 12:39 04.01.2020
1416 Rain 6 1024 81 10000 2.6 310 12:18 04.01.2020
1417 Rain 6 1024 81 10000 3.6 330 11:56 04.01.2020
1418 Rain 5 1024 81 10000 3.6 330 11:37 04.01.2020
1419 Rain 5 1024 80 10000 4.1 330 11:18 04.01.2020
1420 Rain 5 1025 75 10000 6.2 330 10:40 04.01.2020
1421 Rain 5 1024 81 10000 5.7 340 10:21 04.01.2020
1422 Rain 6 1024 87 10000 6.2 340 09:47 04.01.2020
1423 Rain 6 1024 75 10000 6.2 290 09:26 04.01.2020
1424 Clouds 6 1023 75 10000 6.2 290 08:49 04.01.2020
1425 Clouds 6 1023 75 10000 7.7 290 08:29 04.01.2020
1426 Clouds 6 1023 75 10000 7.7 290 07:57 04.01.2020
1427 Clouds 6 1022 81 10000 7.2 290 07:39 04.01.2020
1428 Clouds 6 1022 75 10000 10.3 290 06:44 04.01.2020
1429 Clouds 6 1022 70 10000 8.2 280 05:59 04.01.2020
1430 Rain 6 1022 70 10000 9.3 280 04:53 04.01.2020
1431 Rain 6 1022 75 10000 7.2 280 04:32 04.01.2020
1432 Clouds 6 1022 86 10000 2.6 220 03:37 04.01.2020
1433 Clouds 5 1023 78 10000 1.5 170 03:18 04.01.2020
1434 Clouds 3 1023 92 9000 2.6 130 02:18 04.01.2020
1435 Clouds 2 1023 92 6000 5.1 190 01:51 04.01.2020
1436 Mist 2 1023 100 5000 3.1 180 01:30 04.01.2020
1437 Mist 2 1024 100 4600 4.1 180 00:29 04.01.2020
1438 Mist 2 1024 100 4600 4.1 180 23:59 03.01.2020
1439 Mist 1 1025 100 3800 2.6 140 23:37 03.01.2020
1440 Rain 0 1025 100 2500 3.1 180 23:19 03.01.2020
1441 Mist -1 1025 92 3800 3.6 180 22:41 03.01.2020
1442 Mist -1 1025 92 3800 3.6 180 22:41 03.01.2020
1443 Mist 0 1025 92 3400 2.1 160 22:19 03.01.2020
1444 Mist -1 1025 92 2800 1.5 150 21:58 03.01.2020
1445 Mist 0 1025 92 2800 1.5 150 21:38 03.01.2020
1446 Mist -1 1025 92 2800 1.5 150 21:38 03.01.2020
1447 Mist -1 1025 92 2500 3.6 160 21:19 03.01.2020
1448 Mist -1 1025 92 2000 2.6 170 20:57 03.01.2020
1449 Mist -1 1025 92 2000 2.6 170 20:39 03.01.2020
1450 Mist -1 1025 92 1300 2.1 160 20:18 03.01.2020
1451 Mist -2 1025 92 1600 2.1 140 19:55 03.01.2020
1452 Mist -2 1025 92 1600 2.1 140 19:37 03.01.2020
1453 Mist -2 1025 92 1900 2.6 150 19:18 03.01.2020
1454 Mist -2 1025 92 2300 2.6 160 18:41 03.01.2020
1455 Mist -2 1025 92 2000 3.1 160 18:23 03.01.2020
1456 Mist -2 1026 100 2000 2.1 160 17:55 03.01.2020
1457 Mist -2 1026 100 2000 2.1 160 17:36 03.01.2020
1458 Mist -2 1026 100 2000 2.1 160 17:36 03.01.2020
1459 Mist -2 1025 92 2100 3.1 140 17:18 03.01.2020
1460 Mist -2 1025 92 1600 2.6 140 16:42 03.01.2020
1461 Clouds -2 1025 92 1200 2.6 140 16:22 03.01.2020
1462 Clouds -2 1025 100 750 3.6 140 15:44 03.01.2020
1463 Fog -2 1025 92 550 4.6 140 15:19 03.01.2020
1464 Fog -2 1025 92 550 4.6 140 15:19 03.01.2020
1465 Fog -2 1025 92 550 4.6 140 14:59 03.01.2020
1466 Fog -2 1025 100 550 4.1 130 14:38 03.01.2020
1467 Fog -1 1026 100 900 3.1 140 14:19 03.01.2020
1468 Fog -1 1026 100 550 3.6 140 13:43 03.01.2020
1469 Fog -1 1026 100 500 4.1 140 13:24 03.01.2020
1470 Fog 0 1026 100 500 4.1 140 12:58 03.01.2020
1471 Fog 0 1027 100 600 4.6 150 12:38 03.01.2020
1472 Fog 0 1027 100 500 3.6 140 12:20 03.01.2020
1473 Fog -1 1028 100 450 3.6 140 11:44 03.01.2020
1474 Fog -2 1028 100 350 3.1 130 11:20 03.01.2020
1475 Fog -3 1028 92 300 3.1 150 10:44 03.01.2020
1476 Fog -2 1028 92 350 3.1 160 10:25 03.01.2020
1477 Fog -2 1028 92 350 3.1 160 10:25 03.01.2020
1478 Fog -3 1028 92 350 3.6 160 09:58 03.01.2020
1479 Fog -3 1028 92 350 3.6 160 09:39 03.01.2020
1480 Fog -3 1028 92 400 3.1 150 09:21 03.01.2020
1481 Fog -3 1028 92 400 3.1 150 08:56 03.01.2020
1482 Fog -3 1029 92 400 2.1 150 08:37 03.01.2020
1483 Fog -3 1028 92 500 3.1 140 08:19 03.01.2020
1484 Fog -3 1028 92 500 3.6 140 07:39 03.01.2020
1485 Fog -3 1028 100 550 3.1 160 07:18 03.01.2020
1486 Fog -4 1028 92 550 3.6 160 06:47 03.01.2020
1487 Mist -4 1028 92 2100 3.1 160 06:29 03.01.2020
1488 Mist -4 1027 100 4100 3.1 160 05:39 03.01.2020
1489 Clouds -4 1028 92 4100 1.5 190 04:21 03.01.2020
1490 Mist -4 1028 92 4500 3.6 160 02:56 03.01.2020
1491 Mist -4 1028 92 5000 3.1 170 02:28 03.01.2020
1492 Mist -4 1028 100 4000 3.1 170 01:42 03.01.2020
1493 Mist -4 1028 100 4000 3.1 170 01:42 03.01.2020
1494 Mist -4 1028 92 4200 2.6 170 00:50 03.01.2020
1495 Mist -3 1028 92 4200 2.6 170 00:30 03.01.2020
1496 Mist -3 1028 92 5000 2.1 150 23:55 02.01.2020
1497 Mist -3 1028 92 5000 2.1 150 23:37 02.01.2020
1498 Clouds -3 1028 92 6000 3.1 120 23:19 02.01.2020
1499 Clouds -3 1028 92 6000 3.6 120 22:45 02.01.2020
1500 Clouds -3 1028 92 6000 4.1 110 22:22 02.01.2020
1501 Rain -3 1028 92 6000 4.1 110 22:00 02.01.2020
1502 Rain -2 1028 86 6000 1.5 130 21:41 02.01.2020
1503 Rain -3 1028 92 7000 1.5 110 21:23 02.01.2020
1504 Clouds -3 1028 86 7000 2.1 140 20:59 02.01.2020
1505 Clouds -3 1028 86 7000 2.1 140 20:39 02.01.2020
1506 Clouds -3 1028 86 7000 3.6 120 20:21 02.01.2020
1507 Clouds -2 1028 86 7000 2.6 120 19:56 02.01.2020
1508 Clouds -2 1028 86 7000 2.6 120 19:56 02.01.2020
1509 Clouds -2 1028 86 7000 2.6 120 19:56 02.01.2020
1510 Clouds -2 1028 86 7000 2.6 120 19:37 02.01.2020
1511 Clouds -2 1029 92 7000 2.6 150 19:19 02.01.2020
1512 Clouds -2 1029 92 7000 2.6 140 18:58 02.01.2020
1513 Clouds -2 1029 92 7000 2.6 140 18:39 02.01.2020
1514 Clouds -1 1029 86 8000 3.1 120 18:21 02.01.2020
1515 Clear -1 1029 86 10000 2.6 110 17:56 02.01.2020
1516 Clear -1 1029 86 10000 2.6 110 17:37 02.01.2020
1517 Clear 0 1029 80 10000 2.6 130 17:19 02.01.2020
1518 Clear 0 1029 86 10000 2.6 120 16:56 02.01.2020
1519 Clear 0 1029 86 10000 2.6 120 16:38 02.01.2020
1520 Clear 1 1029 80 10000 3.6 110 16:20 02.01.2020
1521 Clear 2 1029 74 10000 3.1 110 15:45 02.01.2020
1522 Clear 3 1029 74 10000 1.5 30 15:24 02.01.2020
1523 Clear 3 1029 74 10000 2.1 20 14:58 02.01.2020
1524 Clear 3 1029 74 10000 2.1 20 14:39 02.01.2020
1525 Clear 3 1030 74 10000 2.1 40 14:21 02.01.2020
1526 Clear 4 1030 74 10000 1.5 30 13:58 02.01.2020
1527 Clear 4 1030 74 10000 1.5 30 13:40 02.01.2020
1528 Clear 3 1030 80 10000 1.5 20 13:19 02.01.2020
1529 Clear 2 1031 74 10000 1 0 12:43 02.01.2020
1530 Clear 2 1031 80 10000 1 0 12:23 02.01.2020
1531 Clear 1 1031 80 10000 1 0 11:42 02.01.2020
1532 Clear 1 1032 80 10000 0.5 0 11:23 02.01.2020
1533 Clear 1 1032 86 10000 1 0 10:56 02.01.2020
1534 Clear -1 1032 86 10000 1 0 10:36 02.01.2020
1535 Clear -1 1032 86 10000 1.5 70 10:18 02.01.2020
1536 Clear -3 1032 86 10000 1.5 90 09:41 02.01.2020
1537 Clear -4 1032 85 10000 1.5 140 09:21 02.01.2020
1538 Clear -5 1032 92 10000 1.5 180 08:41 02.01.2020
1539 Clear -5 1032 92 10000 1 0 08:22 02.01.2020
1540 Clear -6 1032 92 10000 1 0 07:47 02.01.2020
1541 Clear -5 1032 92 10000 3.1 180 07:27 02.01.2020
1542 Clear -5 1033 85 10000 2.1 210 06:43 02.01.2020
1543 Clear -5 1033 85 10000 1.5 240 05:54 02.01.2020
1544 Clear -4 1033 92 10000 1 0 04:38 02.01.2020
1545 Clear -4 1033 85 10000 2.1 250 04:19 02.01.2020
1546 Clear -3 1033 86 10000 0.5 0 02:21 02.01.2020
1547 Clear -3 1033 86 10000 0.5 0 01:57 02.01.2020
1548 Clear -3 1033 92 10000 1 160 01:30 02.01.2020
1549 Clear -2 1033 92 10000 1.5 160 00:52 02.01.2020
1550 Clear -2 1033 92 10000 1.5 160 00:28 02.01.2020
1551 Clear -1 1033 92 10000 2.6 190 23:47 01.01.2020
1552 Clear -2 1034 92 10000 3.1 180 23:24 01.01.2020
1553 Rain -2 1034 86 10000 3.1 190 22:54 01.01.2020
1554 Clear -2 1034 86 10000 3.1 190 22:36 01.01.2020
1555 Clear -2 1034 80 10000 2.1 230 22:18 01.01.2020
1556 Clear -1 1034 74 10000 3.1 240 21:42 01.01.2020
1557 Clear -1 1034 92 0 0.95 233 21:21 01.01.2020
1558 Clear -1 1034 92 0 0.95 233 20:59 01.01.2020
1559 Clear -1 1034 80 0 2.1 230 20:39 01.01.2020
1560 Clear 0 1034 77 0 2.1 230 20:20 01.01.2020
1561 Clear 0 1034 77 0 2.1 230 19:58 01.01.2020
1562 Clear 0 1034 86 10000 3.1 230 19:39 01.01.2020
1563 Clear 0 1034 74 10000 3.1 260 19:20 01.01.2020
1564 Clear 0 1034 74 10000 3.1 260 18:57 01.01.2020
1565 Clear 0 1034 69 10000 1.5 290 18:39 01.01.2020
1566 Clear 1 1034 69 10000 1.5 330 18:20 01.01.2020
1567 Clear 1 1034 69 10000 1 300 17:59 01.01.2020
1568 Clear 1 1034 69 10000 1 300 17:40 01.01.2020
1569 Clear 1 1034 69 10000 1 300 17:40 01.01.2020
1570 Clear 2 1034 69 0 1 210 17:20 01.01.2020
1571 Clear 2 1034 64 10000 2.6 340 16:59 01.01.2020
1572 Clear 3 1034 64 10000 2.6 340 16:38 01.01.2020
1573 Clear 4 1033 60 10000 3.6 330 16:20 01.01.2020
1574 Clear 4 1033 60 10000 4.6 320 15:57 01.01.2020
1575 Clear 5 1033 60 10000 4.6 320 15:38 01.01.2020
1576 Clear 5 1033 56 10000 5.1 320 15:20 01.01.2020
1577 Clear 6 1033 56 10000 4.6 350 14:56 01.01.2020
1578 Clear 5 1033 56 10000 4.6 350 14:37 01.01.2020
1579 Clear 6 1033 56 10000 4.6 340 14:19 01.01.2020
1580 Clear 6 1034 56 10000 6.2 330 13:55 01.01.2020
1581 Clear 6 1034 56 10000 6.2 330 13:36 01.01.2020
1582 Clear 6 1034 56 10000 5.7 320 13:18 01.01.2020
1583 Clear 6 1034 56 10000 5.7 330 12:40 01.01.2020
1584 Clouds 5 1034 56 10000 5.1 300 12:20 01.01.2020
1585 Clouds 5 1034 56 10000 5.7 310 11:57 01.01.2020
1586 Clouds 5 1034 56 10000 5.7 310 11:57 01.01.2020
1587 Clouds 5 1034 56 10000 5.7 310 11:39 01.01.2020
1588 Clouds 4 1035 60 10000 4.6 310 11:20 01.01.2020
1589 Clouds 4 1035 60 10000 3.6 300 10:55 01.01.2020
1590 Clouds 4 1035 60 10000 3.6 300 10:37 01.01.2020
1591 Clouds 3 1035 64 10000 4.1 300 10:18 01.01.2020
1592 Clouds 3 1035 60 10000 4.6 310 09:40 01.01.2020
1593 Clouds 2 1034 64 10000 5.7 310 09:20 01.01.2020
1594 Clouds 2 1034 60 10000 4.1 310 08:57 01.01.2020
1595 Clouds 2 1034 60 10000 4.1 310 08:57 01.01.2020
1596 Clouds 2 1034 60 10000 4.1 310 08:38 01.01.2020
1597 Clouds 1 1034 60 10000 4.1 310 08:19 01.01.2020
1598 Clouds 1 1034 60 10000 5.1 310 07:57 01.01.2020
1599 Clouds 1 1034 60 10000 5.1 310 07:38 01.01.2020
1600 Clouds 1 1034 64 10000 4.1 320 06:55 01.01.2020
1601 Clouds 1 1034 64 10000 5.7 320 06:36 01.01.2020
1602 Clouds 1 1034 64 10000 5.1 300 05:48 01.01.2020
1603 Clouds 1 1033 64 10000 5.7 300 04:20 01.01.2020
1604 Clouds 1 1033 64 10000 6.7 300 03:39 01.01.2020
1605 Clouds 1 1033 69 10000 6.7 300 03:21 01.01.2020
1606 Clouds 1 1034 64 10000 6.7 300 02:41 01.01.2020
1607 Clouds 1 1034 64 10000 6.2 300 02:22 01.01.2020
1608 Clouds 1 1034 64 10000 5.1 300 01:41 01.01.2020
1609 Clouds 1 1033 64 10000 5.7 300 01:22 01.01.2020
1610 Clouds 1 1033 64 10000 6.2 300 00:45 01.01.2020
1611 Clouds 1 1033 64 10000 6.2 300 00:45 01.01.2020
1612 Clouds 1 1033 64 10000 5.7 300 00:26 01.01.2020
1613 Clouds 2 1033 60 10000 5.1 310 23:56 31.12.2019
1614 Clouds 2 1033 60 10000 5.1 310 23:36 31.12.2019
1615 Clouds 2 1033 65 10000 5.7 310 23:18 31.12.2019
1616 Clouds 2 1033 69 10000 6.7 310 22:55 31.12.2019
1617 Clouds 2 1033 69 10000 6.7 310 22:36 31.12.2019
1618 Clouds 2 1033 64 10000 5.7 310 22:18 31.12.2019
1619 Clouds 2 1032 69 10000 4.1 320 21:42 31.12.2019
1620 Clouds 2 1032 69 10000 4.6 320 21:24 31.12.2019
1621 Clouds 2 1032 69 10000 4.6 330 20:57 31.12.2019
1622 Clouds 2 1032 69 10000 4.6 330 20:38 31.12.2019
1623 Clouds 3 1032 65 10000 4.6 330 20:20 31.12.2019
1624 Clouds 3 1031 65 10000 6.2 340 19:55 31.12.2019
1625 Clouds 3 1031 65 10000 6.2 340 19:37 31.12.2019
1626 Clouds 3 1031 65 10000 5.1 340 19:18 31.12.2019
1627 Clouds 3 1030 65 10000 4.1 360 18:55 31.12.2019
1628 Clouds 3 1030 65 10000 4.1 360 18:37 31.12.2019
1629 Clouds 4 1029 60 10000 6.7 320 18:19 31.12.2019
1630 Clouds 4 1029 56 10000 6.7 310 17:55 31.12.2019
1631 Clouds 4 1029 56 10000 6.7 310 17:36 31.12.2019
1632 Clouds 5 1029 56 10000 5.7 320 17:18 31.12.2019
1633 Clouds 5 1029 52 10000 8.2 310 16:55 31.12.2019
1634 Clouds 6 1029 52 10000 8.2 310 16:36 31.12.2019
1635 Clouds 6 1028 52 10000 8.7 310 16:18 31.12.2019
1636 Clouds 6 1028 49 10000 8.2 310 15:55 31.12.2019
1637 Clouds 7 1028 49 10000 8.2 310 15:37 31.12.2019
1638 Clouds 7 1028 45 10000 7.7 310 15:19 31.12.2019
1639 Clouds 7 1027 45 10000 6.7 310 14:55 31.12.2019
1640 Clouds 7 1027 45 10000 6.7 310 14:37 31.12.2019
1641 Clouds 8 1027 39 10000 6.7 320 14:18 31.12.2019
1642 Clouds 8 1026 39 10000 7.7 300 13:54 31.12.2019
1643 Clouds 8 1027 37 10000 7.7 310 13:36 31.12.2019
1644 Clouds 8 1027 37 10000 7.7 310 13:18 31.12.2019
1645 Clouds 8 1027 40 10000 6.2 300 12:54 31.12.2019
1646 Clouds 8 1027 40 10000 6.2 300 12:36 31.12.2019
1647 Clouds 8 1027 40 10000 6.2 300 12:36 31.12.2019
1648 Clouds 9 1026 40 10000 8.2 290 12:18 31.12.2019
1649 Clouds 8 1026 60 10000 2.1 220 11:54 31.12.2019
1650 Clouds 7 1026 60 10000 2.1 220 11:36 31.12.2019
1651 Clouds 7 1026 60 10000 2.1 220 11:36 31.12.2019
1652 Clouds 7 1027 64 10000 2.6 180 11:18 31.12.2019
1653 Clouds 6 1027 60 0 9.3 230 10:54 31.12.2019
1654 Clouds 6 1027 60 0 9.3 230 10:36 31.12.2019
1655 Clouds 6 1027 60 0 9.3 230 10:36 31.12.2019
1656 Clouds 5 1027 59 10000 4.1 160 10:18 31.12.2019
1657 Rain 4 1027 59 10000 3.6 170 09:54 31.12.2019
1658 Rain 4 1027 59 10000 3.6 170 09:36 31.12.2019
1659 Rain 3 1027 80 10000 4.1 170 09:18 31.12.2019
1660 Clouds 2 1027 86 10000 2.6 170 08:42 31.12.2019
1661 Clouds 1 1027 86 10000 3.6 160 08:21 31.12.2019
1662 Clouds 1 1027 86 10000 3.1 160 07:44 31.12.2019
1663 Clouds 0 1027 86 10000 2.6 160 07:22 31.12.2019
1664 Clouds 1 1028 80 10000 2.1 150 06:51 31.12.2019
1665 Clouds 0 1028 80 10000 2.1 150 06:51 31.12.2019
1666 Clouds 0 1028 80 10000 1.5 140 06:23 31.12.2019
1667 Clouds 0 1028 80 10000 1.5 120 04:54 31.12.2019
1668 Clouds -1 1029 80 10000 2.1 120 04:24 31.12.2019
1669 Clouds -1 1029 86 10000 2.6 170 02:57 31.12.2019
1670 Clear -1 1030 86 10000 2.1 150 02:21 31.12.2019
1671 Clear -1 1030 80 10000 0.5 0 01:50 31.12.2019
1672 Clear -1 1030 80 10000 0.5 0 01:31 31.12.2019
1673 Clear -1 1031 80 10000 2.1 130 00:49 31.12.2019
1674 Clear -1 1031 86 10000 2.1 140 00:25 31.12.2019
1675 Clear -1 1031 80 10000 1 120 23:58 30.12.2019
1676 Clear -1 1031 80 10000 1 120 23:40 30.12.2019
1677 Clear -2 1032 86 10000 1.5 140 23:22 30.12.2019
1678 Clear -2 1032 86 10000 1.5 130 22:59 30.12.2019
1679 Clear -2 1032 86 10000 1.5 130 22:41 30.12.2019
1680 Clear -1 1032 80 10000 1.5 140 22:21 30.12.2019
1681 Clear -1 1032 79 10000 3.6 160 21:57 30.12.2019
1682 Clear -1 1032 79 10000 3.6 160 21:39 30.12.2019
1683 Clear -1 1033 80 10000 3.1 160 21:20 30.12.2019
1684 Clear -1 1033 80 10000 3.1 160 20:59 30.12.2019
1685 Clear -1 1033 80 10000 1.5 140 20:40 30.12.2019
1686 Clouds -1 1034 50 10000 1.5 80 20:20 30.12.2019
1687 Clouds -1 1034 50 10000 1.5 80 19:59 30.12.2019
1688 Clouds -1 1034 50 10000 1 130 19:39 30.12.2019
1689 Clouds 0 1034 50 10000 1.5 150 19:19 30.12.2019
1690 Clouds 0 1034 50 10000 1.5 150 18:59 30.12.2019
1691 Clouds 0 1034 50 10000 3.1 150 18:41 30.12.2019
1692 Clouds 0 1034 50 10000 1.5 150 18:20 30.12.2019
1693 Clouds 0 1034 50 10000 2.6 160 17:57 30.12.2019
1694 Clouds 0 1034 50 10000 2.6 160 17:39 30.12.2019
1695 Clouds 1 1035 52 10000 2.6 160 17:19 30.12.2019
1696 Clouds 1 1035 52 10000 2.6 160 16:58 30.12.2019
1697 Clouds 1 1035 69 10000 1.5 150 16:38 30.12.2019
1698 Clouds 1 1035 69 10000 2.1 140 16:20 30.12.2019
1699 Clouds 1 1035 69 10000 2.1 140 15:56 30.12.2019
1700 Clouds 2 1035 69 10000 2.1 140 15:37 30.12.2019
1701 Clouds 2 1035 69 10000 2.1 130 15:18 30.12.2019
1702 Rain 2 1035 64 10000 1.5 100 14:43 30.12.2019
1703 Rain 2 1035 59 10000 1.5 160 14:20 30.12.2019
1704 Rain 2 1035 59 10000 1.5 160 13:58 30.12.2019
1705 Rain 2 1036 64 10000 1.5 160 13:40 30.12.2019
1706 Rain 2 1036 64 10000 1.5 160 13:40 30.12.2019
1707 Rain 2 1036 64 10000 3.1 190 13:21 30.12.2019
1708 Rain 2 1036 64 10000 2.6 180 12:56 30.12.2019
1709 Rain 2 1036 64 10000 2.6 180 12:37 30.12.2019
1710 Clear 2 1037 64 10000 2.6 180 12:18 30.12.2019
1711 Clear 2 1037 41 10000 1.5 200 11:45 30.12.2019
1712 Rain 1 1037 74 10000 1.5 220 11:20 30.12.2019
1713 Rain 0 1037 74 10000 1.5 170 10:58 30.12.2019
1714 Rain 0 1037 74 10000 1.5 170 10:40 30.12.2019
1715 Clear -1 1038 79 10000 1.5 150 10:19 30.12.2019
1716 Clear -2 1038 86 10000 1 130 09:42 30.12.2019
1717 Clear -2 1038 79 10000 0.5 0 09:20 30.12.2019
1718 Clear -3 1038 79 10000 1 240 08:56 30.12.2019
1719 Clear -3 1038 79 10000 1 240 08:38 30.12.2019
1720 Clouds -3 1038 79 10000 2.1 250 08:18 30.12.2019
1721 Clouds -3 1037 86 10000 1 0 07:42 30.12.2019
1722 Clouds -4 1037 86 10000 1.5 330 07:18 30.12.2019
1723 Clouds -4 1038 85 10000 2.1 340 06:29 30.12.2019
1724 Clear -5 1038 79 10000 1 320 04:29 30.12.2019
1725 Clear -5 1038 73 10000 3.1 320 03:43 30.12.2019
1726 Clear -4 1038 73 10000 2.1 320 02:41 30.12.2019
1727 Clear -4 1038 79 10000 3.6 340 02:21 30.12.2019
1728 Clear -3 1038 74 10000 3.1 330 01:27 30.12.2019
1729 Clear -3 1038 74 10000 3.6 340 00:51 30.12.2019
1730 Clear -3 1038 74 10000 3.6 340 00:28 30.12.2019
1731 Clouds -2 1039 68 10000 4.1 320 23:40 29.12.2019
1732 Clouds -2 1039 68 10000 3.6 320 23:22 29.12.2019
1733 Clouds -2 1039 71 10000 4.6 320 22:57 29.12.2019
1734 Clouds -2 1039 71 10000 4.6 320 22:38 29.12.2019
1735 Clouds -2 1039 71 10000 4.1 320 22:20 29.12.2019
1736 Clouds -2 1039 71 10000 4.6 320 21:55 29.12.2019
1737 Clouds -1 1039 71 10000 4.6 320 21:36 29.12.2019
1738 Clouds -1 1038 71 10000 5.1 310 21:18 29.12.2019
1739 Clouds -1 1039 71 10000 4.6 320 20:55 29.12.2019
1740 Clouds -1 1039 71 10000 4.6 320 20:55 29.12.2019
1741 Clouds -1 1039 71 10000 4.6 320 20:37 29.12.2019
1742 Clouds -1 1039 71 10000 4.6 320 20:37 29.12.2019
1743 Clouds -1 1039 69 10000 3.6 330 20:18 29.12.2019
1744 Clouds 0 1039 64 10000 4.1 330 19:55 29.12.2019
1745 Clouds 0 1039 64 10000 4.1 330 19:37 29.12.2019
1746 Clouds 0 1039 64 10000 4.1 330 19:37 29.12.2019
1747 Clouds 0 1039 64 10000 4.6 320 19:18 29.12.2019
1748 Clouds 0 1039 64 10000 4.1 330 18:54 29.12.2019
1749 Clouds 0 1039 64 10000 4.1 330 18:36 29.12.2019
1750 Clouds 0 1038 64 10000 4.6 320 18:18 29.12.2019
1751 Clouds 0 1038 64 10000 4.6 330 17:54 29.12.2019
1752 Clouds 0 1038 64 10000 4.6 330 17:36 29.12.2019
1753 Clouds 0 1038 64 10000 5.1 330 17:18 29.12.2019
1754 Clouds 0 1038 64 10000 5.7 320 16:54 29.12.2019
1755 Clouds 0 1038 64 10000 5.7 320 16:54 29.12.2019
1756 Clouds 0 1038 64 10000 5.7 320 16:36 29.12.2019
1757 Clouds 0 1038 64 10000 5.7 330 16:18 29.12.2019
1758 Clouds 1 1037 64 10000 6.2 330 15:54 29.12.2019
1759 Clouds 1 1037 64 10000 6.2 330 15:36 29.12.2019
1760 Clouds 1 1038 64 10000 6.7 330 15:18 29.12.2019
1761 Clouds 1 1037 64 10000 6.2 330 14:46 29.12.2019
1762 Clouds 1 1037 59 10000 7.7 320 14:19 29.12.2019
1763 Clouds 1 1037 59 10000 7.7 320 13:59 29.12.2019
1764 Clouds 1 1037 59 10000 6.7 320 13:40 29.12.2019
1765 Clouds 1 1038 59 10000 7.7 320 13:22 29.12.2019
1766 Clouds 1 1038 59 10000 7.7 320 13:22 29.12.2019
1767 Clouds 1 1038 59 10000 7.2 320 12:58 29.12.2019
1768 Clouds 1 1038 59 10000 7.2 320 12:39 29.12.2019
1769 Clouds 1 1038 59 10000 7.7 320 12:21 29.12.2019
1770 Clouds 1 1038 59 10000 7.2 320 11:43 29.12.2019
1771 Clouds 1 1039 63 10000 8.2 320 11:23 29.12.2019
1772 Clouds 1 1039 63 10000 8.2 320 10:59 29.12.2019
1773 Clouds 1 1039 63 10000 9.3 320 10:40 29.12.2019
1774 Clouds 0 1039 63 10000 8.2 320 10:18 29.12.2019
1775 Clouds 0 1038 63 10000 8.2 320 09:47 29.12.2019
1776 Clouds 0 1038 63 10000 8.2 320 09:28 29.12.2019
1777 Clouds 0 1038 63 10000 8.2 320 09:28 29.12.2019
1778 Clouds 0 1038 63 10000 8.2 320 08:59 29.12.2019
1779 Clouds 0 1038 63 10000 9.3 320 08:40 29.12.2019
1780 Clouds 0 1038 63 10000 9.3 320 08:40 29.12.2019
1781 Clouds 0 1038 70 10000 8.2 320 08:21 29.12.2019
1782 Clouds 0 1037 59 10000 9.8 320 07:45 29.12.2019
1783 Clouds 0 1037 59 10000 8.7 320 07:26 29.12.2019
1784 Clouds 0 1037 59 10000 9.3 320 06:42 29.12.2019
1785 Clouds 0 1037 59 10000 8.2 320 06:19 29.12.2019
1786 Clouds 0 1037 59 10000 8.2 320 05:44 29.12.2019
1787 Clouds 0 1037 59 10000 8.7 320 04:33 29.12.2019
1788 Clouds 0 1037 59 10000 9.3 320 03:39 29.12.2019
1789 Clouds 0 1038 59 10000 8.2 320 02:36 29.12.2019
1790 Clouds 1 1037 64 10000 8.2 320 02:18 29.12.2019
1791 Clouds 1 1037 64 10000 8.2 320 01:29 29.12.2019
1792 Clouds 1 1038 64 10000 8.7 320 00:47 29.12.2019
1793 Clouds 1 1038 64 10000 9.3 320 00:25 29.12.2019
1794 Clouds 0 1038 64 10000 8.7 310 23:56 28.12.2019
1795 Clouds 0 1038 64 10000 8.7 310 23:37 28.12.2019
1796 Clouds 1 1038 64 10000 8.7 320 23:18 28.12.2019
1797 Clouds 1 1038 64 10000 8.7 320 23:18 28.12.2019
1798 Clouds 1 1038 64 10000 8.7 320 23:18 28.12.2019
1799 Clouds 1 1038 64 10000 8.7 320 23:18 28.12.2019
1800 Clouds 0 1038 64 10000 8.2 320 22:38 28.12.2019
1801 Clouds 0 1038 64 10000 8.2 320 22:19 28.12.2019
1802 Clouds 1 1038 64 10000 8.2 320 21:57 28.12.2019
1803 Clouds 1 1037 64 10000 9.8 320 21:38 28.12.2019
1804 Clouds 0 1037 64 10000 10.8 320 21:19 28.12.2019
1805 Clouds 1 1038 64 10000 7.7 320 20:55 28.12.2019
1806 Clouds 1 1038 64 10000 7.7 320 20:55 28.12.2019
1807 Clouds 1 1038 64 10000 7.7 320 20:36 28.12.2019
1808 Clouds 1 1037 64 10000 8.2 320 20:18 28.12.2019
1809 Clouds 1 1037 64 10000 8.7 320 19:54 28.12.2019
1810 Clouds 1 1037 64 10000 8.7 320 19:36 28.12.2019
1811 Clouds 1 1037 64 10000 9.8 320 19:18 28.12.2019
1812 Clouds 1 1036 64 10000 10.8 320 18:43 28.12.2019
1813 Clouds 1 1036 59 10000 8.7 320 18:20 28.12.2019
1814 Clouds 1 1036 59 10000 7.7 320 17:59 28.12.2019
1815 Clouds 1 1036 59 10000 7.7 320 17:41 28.12.2019
1816 Clouds 1 1036 59 10000 7.7 320 17:21 28.12.2019
1817 Clouds 1 1035 59 10000 7.7 330 16:54 28.12.2019
1818 Clouds 1 1035 59 10000 7.7 330 16:36 28.12.2019
1819 Clouds 1 1035 59 10000 7.7 330 16:36 28.12.2019
1820 Clouds 1 1036 55 10000 8.7 330 16:18 28.12.2019
1821 Clouds 2 1035 55 10000 8.7 330 15:41 28.12.2019
1822 Clouds 2 1035 55 10000 8.7 330 15:21 28.12.2019
1823 Clouds 2 1035 55 10000 9.8 340 14:48 28.12.2019
1824 Clouds 2 1035 55 10000 10.8 330 14:26 28.12.2019
1825 Rain 2 1034 59 10000 10.3 330 13:58 28.12.2019
1826 Rain 2 1034 59 10000 10.3 330 13:39 28.12.2019
1827 Rain 3 1035 55 10000 10.3 330 13:20 28.12.2019
1828 Rain 3 1034 55 10000 9.3 330 12:57 28.12.2019
1829 Rain 3 1034 55 10000 9.3 330 12:39 28.12.2019
1830 Rain 3 1035 55 10000 8.7 330 12:20 28.12.2019
1831 Clouds 2 1034 59 10000 8.7 330 11:40 28.12.2019
1832 Rain 2 1034 55 10000 8.7 320 11:21 28.12.2019
1833 Rain 2 1034 55 10000 8.7 320 11:21 28.12.2019
1834 Clouds 2 1034 55 10000 8.7 320 10:56 28.12.2019
1835 Clouds 2 1034 59 10000 9.3 330 10:37 28.12.2019
1836 Clouds 2 1034 64 10000 8.2 320 10:18 28.12.2019
1837 Clouds 2 1034 69 10000 7.7 330 09:45 28.12.2019
1838 Clouds 2 1033 69 10000 8.2 330 09:24 28.12.2019
1839 Clouds 1 1033 69 10000 8.2 330 08:58 28.12.2019
1840 Clouds 1 1033 74 10000 6.7 330 08:40 28.12.2019
1841 Clouds 1 1033 74 10000 7.2 330 08:22 28.12.2019
1842 Clouds 1 1032 80 10000 7.2 330 07:43 28.12.2019
1843 Rain 1 1032 80 10000 5.7 330 07:21 28.12.2019
1844 Clouds 2 1031 80 10000 6.7 330 05:46 28.12.2019
1845 Rain 2 1031 74 10000 8.7 320 03:48 28.12.2019
1846 Clouds 3 1031 74 10000 8.2 310 02:51 28.12.2019
1847 Clouds 3 1031 74 10000 7.7 320 02:20 28.12.2019
1848 Clouds 3 1031 74 10000 7.7 320 01:55 28.12.2019
1849 Clouds 3 1030 74 10000 8.7 320 01:23 28.12.2019
1850 Rain 3 1030 69 10000 8.7 320 00:48 28.12.2019
1851 Rain 3 1030 69 10000 8.7 320 00:30 28.12.2019
1852 Clouds 3 1030 64 10000 7.7 310 23:58 27.12.2019
1853 Clouds 3 1030 64 10000 7.7 310 23:39 27.12.2019
1854 Clouds 3 1030 64 10000 7.2 310 23:19 27.12.2019
1855 Clouds 3 1029 64 10000 6.2 310 22:56 27.12.2019
1856 Clouds 3 1029 64 10000 6.2 310 22:37 27.12.2019
1857 Clouds 3 1029 64 10000 7.2 310 22:19 27.12.2019
1858 Clouds 3 1029 64 10000 6.2 320 21:43 27.12.2019
1859 Clouds 3 1029 64 10000 7.2 330 21:25 27.12.2019
1860 Clouds 3 1029 64 10000 7.2 330 20:57 27.12.2019
1861 Clouds 3 1028 64 10000 7.2 330 20:38 27.12.2019
1862 Clouds 3 1028 64 10000 6.7 330 20:20 27.12.2019
1863 Clouds 4 1027 64 10000 7.2 320 19:41 27.12.2019
1864 Clouds 4 1027 60 10000 7.2 330 19:20 27.12.2019
1865 Clouds 4 1027 60 10000 7.2 330 19:20 27.12.2019
1866 Clouds 4 1027 60 10000 7.2 330 18:57 27.12.2019
1867 Clouds 4 1027 60 10000 6.7 320 18:37 27.12.2019
1868 Clouds 4 1026 60 10000 6.2 330 18:19 27.12.2019
1869 Clouds 4 1026 60 10000 6.7 330 17:55 27.12.2019
1870 Clouds 4 1026 60 10000 6.7 330 17:37 27.12.2019
1871 Clear 4 1025 60 10000 6.7 320 17:18 27.12.2019
1872 Clear 4 1025 56 10000 6.2 320 16:44 27.12.2019
1873 Clouds 4 1025 48 10000 5.7 320 16:26 27.12.2019
1874 Clouds 5 1025 48 10000 5.7 330 15:59 27.12.2019
1875 Clouds 5 1025 48 10000 5.7 330 15:40 27.12.2019
1876 Clouds 5 1024 48 10000 5.1 310 15:20 27.12.2019
1877 Clouds 5 1024 48 10000 5.1 310 14:56 27.12.2019
1878 Clouds 5 1024 48 10000 4.6 320 14:38 27.12.2019
1879 Clouds 5 1024 48 10000 6.2 320 14:20 27.12.2019
1880 Clouds 6 1024 52 10000 3.6 340 13:48 27.12.2019
1881 Clouds 6 1023 56 10000 3.6 320 13:25 27.12.2019
1882 Clouds 6 1023 56 10000 3.6 320 13:25 27.12.2019
1883 Clouds 6 1023 56 10000 3.6 320 12:56 27.12.2019
1884 Clouds 6 1023 52 10000 4.1 320 12:38 27.12.2019
1885 Clouds 5 1024 52 10000 5.7 330 12:20 27.12.2019
1886 Clouds 5 1024 52 10000 5.1 330 11:43 27.12.2019
1887 Clouds 5 1024 65 10000 4.1 320 11:23 27.12.2019
1888 Clouds 4 1024 65 10000 3.6 300 10:55 27.12.2019
1889 Clouds 4 1024 65 10000 3.6 300 10:36 27.12.2019
1890 Clouds 4 1023 65 10000 3.6 300 10:18 27.12.2019
1891 Clouds 3 1023 69 10000 3.1 290 09:42 27.12.2019
1892 Clouds 3 1023 69 10000 3.6 290 09:21 27.12.2019
1893 Clouds 3 1023 74 10000 3.1 270 08:56 27.12.2019
1894 Clouds 3 1023 74 10000 3.1 270 08:36 27.12.2019
1895 Clouds 2 1023 74 10000 4.1 270 07:51 27.12.2019
1896 Clouds 2 1023 74 10000 4.1 270 07:31 27.12.2019
1897 Clouds 2 1023 74 10000 3.1 300 06:37 27.12.2019
1898 Clouds 3 1023 69 10000 4.1 300 05:37 27.12.2019
1899 Clouds 3 1023 79 10000 4.1 290 03:40 27.12.2019
1900 Clouds 3 1023 69 10000 3.6 300 02:21 27.12.2019
1901 Clouds 3 1023 78 10000 3.6 270 01:38 27.12.2019
1902 Clouds 3 1024 77 10000 2.6 260 01:19 27.12.2019
1903 Clouds 3 1024 77 10000 2.6 250 00:43 27.12.2019
1904 Clouds 3 1024 77 10000 2.1 290 00:24 27.12.2019
1905 Clouds 3 1024 77 10000 2.1 280 23:42 26.12.2019
1906 Clouds 2 1024 79 10000 3.1 260 23:22 26.12.2019
1907 Clouds 2 1024 79 10000 3.6 250 22:48 26.12.2019
1908 Clouds 2 1023 79 10000 3.6 260 22:23 26.12.2019
1909 Clouds 2 1023 79 10000 3.6 260 21:59 26.12.2019
1910 Clouds 2 1023 79 10000 3.6 260 21:39 26.12.2019
1911 Clouds 3 1023 79 10000 3.1 240 21:20 26.12.2019
1912 Clouds 3 1023 79 10000 2.6 300 20:46 26.12.2019
1913 Clouds 4 1023 74 10000 3.6 310 20:23 26.12.2019
1914 Clouds 4 1023 74 10000 3.6 310 19:59 26.12.2019
1915 Clouds 4 1024 78 10000 3.6 300 19:40 26.12.2019
1916 Clouds 4 1024 78 10000 2.6 290 19:22 26.12.2019
1917 Clouds 4 1024 65 10000 2.6 300 18:58 26.12.2019
1918 Clouds 4 1024 65 10000 2.6 300 18:40 26.12.2019
1919 Clouds 4 1024 65 10000 2.6 310 18:19 26.12.2019
1920 Clouds 4 1024 65 10000 2.6 310 17:57 26.12.2019
1921 Clouds 5 1024 65 10000 1.5 290 17:38 26.12.2019
1922 Clouds 5 1024 65 10000 1.5 290 17:38 26.12.2019
1923 Clouds 5 1024 65 10000 1.5 290 17:38 26.12.2019
1924 Clouds 5 1024 65 10000 0.5 0 17:18 26.12.2019
1925 Clouds 5 1024 70 10000 2.6 360 16:43 26.12.2019
1926 Clouds 5 1023 70 10000 5.1 310 16:23 26.12.2019
1927 Rain 5 1023 60 10000 4.6 320 15:56 26.12.2019
1928 Rain 5 1023 60 10000 4.6 320 15:56 26.12.2019
1929 Rain 6 1023 60 10000 4.6 320 15:38 26.12.2019
1930 Rain 6 1023 70 10000 5.1 310 15:18 26.12.2019
1931 Clouds 6 1023 70 10000 5.7 310 14:40 26.12.2019
1932 Clouds 7 1023 56 10000 5.7 320 14:22 26.12.2019
1933 Clouds 7 1023 63 10000 6.7 330 13:44 26.12.2019
1934 Clouds 7 1023 63 10000 6.7 330 13:44 26.12.2019
1935 Clouds 7 1023 65 10000 6.2 330 13:22 26.12.2019
1936 Clouds 7 1023 70 10000 6.7 320 12:58 26.12.2019
1937 Clouds 7 1023 70 10000 6.7 320 12:58 26.12.2019
1938 Clouds 7 1023 70 10000 6.7 320 12:39 26.12.2019
1939 Clouds 7 1023 65 10000 6.2 320 12:21 26.12.2019
1940 Clouds 7 1023 65 10000 7.2 310 11:58 26.12.2019
1941 Clouds 7 1023 65 10000 7.2 310 11:39 26.12.2019
1942 Clouds 6 1023 70 10000 7.2 310 11:20 26.12.2019
1943 Clouds 6 1023 75 10000 5.7 310 10:49 26.12.2019
1944 Clouds 5 1023 70 10000 6.7 310 10:20 26.12.2019
1945 Clouds 5 1023 75 10000 6.7 310 09:53 26.12.2019
1946 Clouds 5 1023 75 10000 6.7 310 09:32 26.12.2019
1947 Clouds 4 1022 80 10000 5.1 310 08:55 26.12.2019
1948 Clouds 4 1022 80 10000 5.1 310 08:37 26.12.2019
1949 Clouds 4 1022 75 10000 5.1 310 08:18 26.12.2019
1950 Clouds 4 1022 75 10000 5.1 310 07:31 26.12.2019
1951 Clouds 5 1021 75 10000 7.2 320 06:54 26.12.2019
1952 Rain 5 1021 75 10000 7.2 320 06:33 26.12.2019
1953 Rain 5 1021 75 10000 8.7 310 05:46 26.12.2019
1954 Clouds 5 1021 75 10000 5.1 320 04:59 26.12.2019
1955 Clouds 5 1021 75 10000 4.6 320 04:32 26.12.2019
1956 Clouds 5 1020 75 10000 6.7 320 03:19 26.12.2019
1957 Clouds 5 1020 75 10000 5.7 310 02:40 26.12.2019
1958 Clouds 5 1020 70 10000 4.6 320 02:19 26.12.2019
1959 Clouds 5 1020 70 10000 7.2 320 01:41 26.12.2019
1960 Clouds 5 1019 75 10000 8.2 320 01:22 26.12.2019
1961 Clouds 5 1019 75 10000 8.2 320 00:41 26.12.2019
1962 Clouds 5 1019 70 10000 8.7 310 00:22 26.12.2019
1963 Clouds 5 1019 70 10000 7.7 320 23:42 25.12.2019
1964 Rain 5 1018 70 10000 7.7 310 23:21 25.12.2019
1965 Rain 5 1018 70 10000 7.7 310 22:59 25.12.2019
1966 Rain 6 1018 70 10000 8.7 310 22:40 25.12.2019
1967 Rain 5 1017 70 10000 8.7 320 22:22 25.12.2019
1968 Rain 5 1017 70 10000 8.7 320 21:59 25.12.2019
1969 Rain 6 1017 75 10000 8.2 320 21:40 25.12.2019
1970 Rain 6 1016 75 10000 7.2 330 21:22 25.12.2019
1971 Rain 6 1016 81 10000 5.7 310 20:57 25.12.2019
1972 Rain 6 1016 81 10000 5.7 310 20:39 25.12.2019
1973 Rain 6 1015 81 10000 6.7 310 20:18 25.12.2019
1974 Rain 6 1015 81 10000 6.2 310 19:44 25.12.2019
1975 Rain 6 1015 87 10000 5.7 310 19:25 25.12.2019
1976 Rain 6 1015 87 10000 5.7 310 18:59 25.12.2019
1977 Rain 7 1014 87 10000 5.7 300 18:39 25.12.2019
1978 Rain 7 1014 87 10000 7.2 280 18:20 25.12.2019
1979 Rain 7 1014 81 10000 5.7 300 17:43 25.12.2019
1980 Rain 7 1013 75 10000 6.2 280 17:21 25.12.2019
1981 Rain 7 1013 75 10000 5.7 280 16:59 25.12.2019
1982 Rain 7 1013 75 10000 5.7 280 16:39 25.12.2019
1983 Clouds 8 1013 70 10000 6.2 270 16:19 25.12.2019
1984 Clouds 8 1012 70 10000 5.1 280 15:57 25.12.2019
1985 Clouds 8 1012 70 10000 5.1 280 15:57 25.12.2019
1986 Clouds 8 1012 70 10000 5.1 280 15:39 25.12.2019
1987 Clouds 8 1012 70 10000 6.2 270 15:20 25.12.2019
1988 Clouds 8 1012 70 10000 6.2 270 14:58 25.12.2019
1989 Clouds 8 1012 66 10000 7.2 290 14:39 25.12.2019
1990 Clouds 9 1012 61 10000 7.2 280 14:21 25.12.2019
1991 Clouds 9 1012 76 10000 4.6 280 13:55 25.12.2019
1992 Clouds 9 1012 57 10000 7.2 290 13:36 25.12.2019
1993 Clouds 9 1012 61 10000 6.7 290 13:18 25.12.2019
1994 Clouds 9 1012 66 10000 5.7 270 12:39 25.12.2019
1995 Clouds 9 1012 66 10000 8.2 280 12:20 25.12.2019
1996 Clouds 9 1012 70 10000 6.2 280 11:55 25.12.2019
1997 Clouds 8 1012 70 10000 6.2 280 11:37 25.12.2019
1998 Clouds 8 1012 70 10000 7.2 290 11:18 25.12.2019
1999 Clouds 8 1012 70 10000 6.7 290 10:38 25.12.2019
2000 Clouds 8 1012 70 10000 7.7 280 10:19 25.12.2019
2001 Clouds 8 1012 70 10000 7.2 280 09:49 25.12.2019
2002 Clouds 7 1012 70 10000 7.2 280 09:30 25.12.2019
2003 Rain 7 1012 70 10000 6.7 290 08:47 25.12.2019
2004 Rain 7 1012 70 10000 6.7 280 08:29 25.12.2019
2005 Clouds 7 1011 70 10000 7.7 280 07:50 25.12.2019
2006 Clouds 7 1011 70 10000 7.7 280 07:31 25.12.2019
2007 Rain 7 1011 70 10000 7.2 290 06:50 25.12.2019
2008 Clouds 7 1011 75 10000 7.2 290 06:22 25.12.2019
2009 Rain 7 1011 75 10000 7.7 280 05:18 25.12.2019
2010 Clouds 7 1011 70 10000 6.2 280 04:39 25.12.2019
2011 Clouds 7 1010 70 10000 5.1 300 04:20 25.12.2019
2012 Clouds 7 1010 70 10000 6.7 280 03:41 25.12.2019
2013 Clouds 6 1010 70 10000 8.2 290 02:51 25.12.2019
2014 Rain 6 1010 70 10000 5.7 290 02:20 25.12.2019
2015 Rain 6 1010 75 10000 4.6 300 01:25 25.12.2019
2016 Rain 6 1010 70 10000 6.2 290 00:52 25.12.2019
2017 Rain 6 1010 70 10000 6.2 290 00:29 25.12.2019
2018 Rain 6 1011 75 10000 6.2 280 23:56 24.12.2019
2019 Rain 6 1011 75 10000 6.2 280 23:38 24.12.2019
2020 Clouds 5 1011 75 10000 6.2 280 23:20 24.12.2019
2021 Clouds 5 1011 86 10000 3.1 250 22:40 24.12.2019
2022 Rain 5 1011 93 10000 2.1 170 22:21 24.12.2019
2023 Rain 5 1011 86 10000 2.6 230 21:43 24.12.2019
2024 Rain 5 1012 86 10000 1 320 21:23 24.12.2019
2025 Rain 5 1012 86 10000 1 320 21:23 24.12.2019
2026 Rain 5 1012 86 10000 3.1 290 20:55 24.12.2019
2027 Rain 5 1012 86 10000 3.1 290 20:36 24.12.2019
2028 Rain 4 1012 80 10000 4.1 260 20:18 24.12.2019
2029 Rain 5 1012 75 10000 4.1 250 19:43 24.12.2019
2030 Rain 5 1011 75 10000 1.5 300 19:20 24.12.2019
2031 Clouds 4 1012 72 10000 2.1 200 18:44 24.12.2019
2032 Clouds 4 1012 72 10000 1 180 18:24 24.12.2019
2033 Clouds 4 1012 72 10000 1 180 17:59 24.12.2019
2034 Clouds 4 1012 72 10000 0.5 0 17:38 24.12.2019
2035 Clouds 4 1011 80 0 1 130 17:20 24.12.2019
2036 Clouds 5 1012 65 10000 1.5 260 16:55 24.12.2019
2037 Clouds 6 1012 65 10000 1.5 260 16:37 24.12.2019
2038 Clouds 6 1013 61 10000 3.1 270 16:19 24.12.2019
2039 Clouds 7 1013 61 10000 5.1 280 15:55 24.12.2019
2040 Clouds 7 1013 61 10000 5.1 280 15:36 24.12.2019
2041 Clouds 8 1013 57 10000 5.7 280 15:18 24.12.2019
2042 Clouds 8 1013 57 10000 6.7 280 14:55 24.12.2019
2043 Clouds 8 1013 57 10000 6.7 280 14:37 24.12.2019
2044 Clouds 9 1014 54 10000 6.7 310 14:19 24.12.2019
2045 Clouds 9 1014 57 10000 6.2 300 13:55 24.12.2019
2046 Clouds 9 1014 57 10000 6.2 300 13:55 24.12.2019
2047 Clouds 9 1014 57 10000 6.2 300 13:37 24.12.2019
2048 Clouds 9 1014 61 10000 6.2 300 13:19 24.12.2019
2049 Clouds 9 1014 61 10000 7.7 310 12:55 24.12.2019
2050 Clouds 8 1014 61 10000 7.7 310 12:36 24.12.2019
2051 Clouds 8 1015 65 10000 8.2 300 12:18 24.12.2019
2052 Clouds 8 1015 61 10000 6.7 300 11:55 24.12.2019
2053 Clouds 8 1015 61 10000 6.7 300 11:36 24.12.2019
2054 Clouds 8 1015 61 10000 7.7 310 11:18 24.12.2019
2055 Clouds 8 1015 61 10000 8.7 310 10:55 24.12.2019
2056 Clouds 7 1015 61 10000 8.7 310 10:36 24.12.2019
2057 Clouds 7 1015 61 10000 9.3 310 10:18 24.12.2019
2058 Clouds 7 1015 61 10000 8.2 300 09:54 24.12.2019
2059 Clouds 7 1015 61 10000 8.2 300 09:36 24.12.2019
2060 Clouds 7 1015 61 10000 8.7 300 09:18 24.12.2019
2061 Rain 7 1014 65 10000 8.7 300 08:42 24.12.2019
2062 Rain 7 1014 65 10000 9.8 310 08:20 24.12.2019
2063 Clouds 7 1014 70 10000 8.7 310 07:45 24.12.2019
2064 Clouds 7 1014 65 10000 9.8 310 07:25 24.12.2019
2065 Clouds 6 1014 65 10000 9.8 310 06:57 24.12.2019
2066 Clouds 6 1014 70 10000 8.2 310 06:38 24.12.2019
2067 Clouds 6 1013 70 10000 8.2 310 06:18 24.12.2019
2068 Rain 6 1013 70 10000 8.2 310 05:20 24.12.2019
2069 Clouds 6 1012 70 10000 9.8 320 04:44 24.12.2019
2070 Clouds 6 1012 70 10000 7.7 300 03:50 24.12.2019
2071 Clouds 6 1012 65 10000 8.7 310 02:59 24.12.2019
2072 Clouds 6 1011 65 10000 11.3 310 02:21 24.12.2019
2073 Clouds 6 1010 64 10000 11.3 300 01:50 24.12.2019
2074 Clouds 7 1010 61 10000 10.3 310 01:21 24.12.2019
2075 Clouds 7 1010 61 10000 10.8 300 00:45 24.12.2019
2076 Clouds 7 1010 65 10000 12.3 310 00:23 24.12.2019
2077 Clouds 7 1009 65 10000 11.3 310 23:56 23.12.2019
2078 Clouds 7 1009 65 10000 11.3 310 23:37 23.12.2019
2079 Clouds 7 1009 65 10000 10.3 310 23:19 23.12.2019
2080 Clouds 7 1008 65 10000 11.8 310 22:56 23.12.2019
2081 Clouds 7 1008 65 10000 11.8 310 22:36 23.12.2019
2082 Clouds 7 1008 70 10000 9.8 310 22:18 23.12.2019
2083 Clouds 7 1007 70 10000 9.3 310 21:55 23.12.2019
2084 Clouds 7 1007 70 10000 9.3 310 21:36 23.12.2019
2085 Clouds 7 1007 70 10000 9.8 310 21:18 23.12.2019
2086 Clouds 7 1007 70 10000 9.8 310 20:56 23.12.2019
2087 Clouds 7 1007 70 10000 9.8 310 20:38 23.12.2019
2088 Clouds 7 1007 65 10000 9.8 310 20:18 23.12.2019
2089 Clouds 7 1006 65 10000 9.8 310 19:55 23.12.2019
2090 Clouds 7 1006 65 10000 9.8 310 19:37 23.12.2019
2091 Clouds 7 1006 70 10000 9.8 320 19:19 23.12.2019
2092 Clouds 7 1005 65 10000 10.8 310 18:55 23.12.2019
2093 Clouds 7 1005 70 10000 10.3 310 18:37 23.12.2019
2094 Clouds 7 1005 70 10000 10.3 310 18:19 23.12.2019
2095 Clouds 7 1004 70 10000 10.3 300 17:55 23.12.2019
2096 Clouds 7 1004 70 10000 10.3 300 17:37 23.12.2019
2097 Clouds 7 1004 70 10000 10.8 310 17:18 23.12.2019
2098 Clouds 7 1004 70 10000 10.8 310 16:42 23.12.2019
2099 Clouds 7 1003 70 10000 11.3 310 16:19 23.12.2019
2100 Clouds 7 1003 70 10000 11.3 310 15:59 23.12.2019
2101 Rain 7 1003 70 10000 11.8 310 15:38 23.12.2019
2102 Rain 7 1002 70 10000 10.3 310 15:20 23.12.2019
2103 Rain 7 1002 81 10000 10.8 310 14:59 23.12.2019
2104 Rain 7 1002 81 10000 10.8 310 14:41 23.12.2019
2105 Rain 7 1001 81 10000 9.8 300 14:22 23.12.2019
2106 Rain 7 1001 81 10000 10.3 300 13:58 23.12.2019
2107 Rain 7 1001 81 10000 10.3 300 13:40 23.12.2019
2108 Rain 7 1001 81 10000 9.8 300 13:22 23.12.2019
2109 Rain 7 1000 81 10000 9.8 300 12:57 23.12.2019
2110 Rain 7 1000 81 10000 9.8 300 12:39 23.12.2019
2111 Rain 7 1000 81 10000 10.8 300 12:20 23.12.2019
2112 Rain 6 1000 87 10000 11.3 300 11:44 23.12.2019
2113 Rain 6 999 87 10000 10.8 300 11:26 23.12.2019
2114 Rain 6 999 87 10000 10.8 300 10:59 23.12.2019
2115 Rain 6 999 87 10000 10.8 310 10:41 23.12.2019
2116 Rain 6 999 81 10000 11.8 300 10:21 23.12.2019
2117 Rain 6 998 81 10000 11.3 300 09:59 23.12.2019
2118 Rain 6 998 81 10000 11.3 300 09:40 23.12.2019
2119 Rain 6 998 81 10000 10.3 310 09:21 23.12.2019
2120 Rain 6 998 81 10000 10.3 310 08:58 23.12.2019
2121 Rain 6 997 87 10000 9.3 300 08:40 23.12.2019
2122 Rain 6 997 93 10000 8.7 300 08:22 23.12.2019
2123 Rain 6 996 93 10000 8.7 300 07:47 23.12.2019
2124 Rain 6 996 87 10000 10.3 300 07:20 23.12.2019
2125 Rain 6 995 87 10000 10.8 300 06:53 23.12.2019
2126 Rain 6 995 87 10000 10.3 300 06:26 23.12.2019
2127 Rain 6 995 87 10000 8.2 300 05:56 23.12.2019
2128 Rain 6 994 87 10000 9.3 290 05:29 23.12.2019
2129 Rain 6 994 87 10000 8.7 300 04:31 23.12.2019
2130 Rain 6 993 93 10000 5.7 310 03:24 23.12.2019
2131 Rain 6 993 93 10000 6.2 310 02:41 23.12.2019
2132 Rain 6 993 93 10000 5.7 310 02:19 23.12.2019
2133 Rain 5 992 93 10000 6.2 300 01:42 23.12.2019
2134 Rain 5 992 100 7000 3.6 310 01:23 23.12.2019
2135 Rain 5 992 93 7000 3.6 330 00:43 23.12.2019
2136 Rain 5 992 93 7000 4.1 330 00:23 23.12.2019
2137 Rain 5 992 93 7000 4.1 330 23:40 22.12.2019
2138 Rain 5 992 100 6000 3.6 340 23:21 22.12.2019
2139 Rain 4 992 100 6000 3.6 340 22:58 22.12.2019
2140 Rain 4 992 100 6000 3.6 340 22:58 22.12.2019
2141 Rain 4 992 93 7000 4.1 340 22:40 22.12.2019
2142 Rain 4 992 93 8000 4.1 350 22:21 22.12.2019
2143 Rain 4 992 93 8000 4.1 350 21:58 22.12.2019
2144 Rain 4 992 93 10000 3.1 340 21:58 22.12.2019
2145 Rain 4 992 93 10000 3.1 340 21:40 22.12.2019
2146 Rain 4 992 100 10000 2.1 360 21:21 22.12.2019
2147 Rain 4 992 93 10000 3.1 10 20:58 22.12.2019
2148 Rain 4 992 93 10000 3.1 10 20:39 22.12.2019
2149 Rain 4 991 93 10000 2.6 360 20:19 22.12.2019
2150 Rain 4 991 93 8000 2.6 10 19:57 22.12.2019
2151 Rain 4 991 93 8000 2.6 10 19:38 22.12.2019
2152 Rain 4 992 93 10000 3.1 360 19:19 22.12.2019
2153 Rain 4 992 93 10000 3.1 10 18:42 22.12.2019
2154 Rain 4 992 93 10000 2.1 30 18:23 22.12.2019
2155 Clouds 4 992 93 10000 2.1 360 17:56 22.12.2019
2156 Clouds 4 992 93 10000 2.1 360 17:38 22.12.2019
2157 Clouds 4 991 93 10000 2.1 40 17:19 22.12.2019
2158 Clouds 4 991 93 10000 2.1 40 16:57 22.12.2019
2159 Clouds 4 991 93 10000 3.1 330 16:38 22.12.2019
2160 Clouds 4 992 93 10000 2.6 330 16:20 22.12.2019
2161 Clouds 4 991 93 10000 4.1 320 15:56 22.12.2019
2162 Clouds 4 991 93 10000 4.1 320 15:56 22.12.2019
2163 Clouds 4 991 93 10000 4.1 320 15:38 22.12.2019
2164 Clouds 4 992 93 10000 3.1 310 15:19 22.12.2019
2165 Clouds 4 992 93 10000 3.1 310 14:55 22.12.2019
2166 Drizzle 4 991 100 5000 3.1 320 14:36 22.12.2019
2167 Mist 4 991 93 5000 3.1 340 14:18 22.12.2019
2168 Drizzle 4 991 86 8000 3.1 350 13:55 22.12.2019
2169 Drizzle 4 991 86 8000 3.1 350 13:36 22.12.2019
2170 Clouds 4 991 86 10000 3.1 360 13:18 22.12.2019
2171 Clouds 4 991 86 10000 3.1 360 13:18 22.12.2019
2172 Clouds 4 991 86 10000 3.1 360 13:18 22.12.2019
2173 Clouds 4 991 86 10000 2.6 350 12:55 22.12.2019
2174 Clouds 4 991 86 10000 2.6 350 12:37 22.12.2019
2175 Drizzle 4 991 93 10000 3.1 330 12:18 22.12.2019
2176 Drizzle 4 991 93 10000 3.1 330 12:18 22.12.2019
2177 Clouds 4 991 93 10000 3.1 320 11:55 22.12.2019
2178 Clouds 4 991 93 10000 3.1 320 11:36 22.12.2019
2179 Clouds 4 991 93 7000 1.5 340 11:18 22.12.2019
2180 Mist 3 991 100 5000 2.6 10 10:54 22.12.2019
2181 Mist 3 991 100 5000 2.6 10 10:36 22.12.2019
2182 Clouds 3 991 93 6000 2.1 360 10:18 22.12.2019
2183 Rain 3 991 93 10000 1 0 09:56 22.12.2019
2184 Rain 2 991 100 10000 1.5 70 09:37 22.12.2019
2185 Rain 2 991 100 10000 1.5 70 09:19 22.12.2019
2186 Clouds 2 991 93 10000 1.5 70 08:39 22.12.2019
2187 Clouds 1 991 93 10000 1.5 70 08:21 22.12.2019
2188 Clouds 1 990 100 10000 2.6 90 07:40 22.12.2019
2189 Clouds 1 990 93 10000 2.1 30 07:21 22.12.2019
2190 Clouds 1 991 93 10000 1.5 60 06:41 22.12.2019
2191 Clouds 2 992 91 10000 1.5 180 05:56 22.12.2019
2192 Clouds 2 991 93 10000 1.5 30 05:24 22.12.2019
2193 Clouds 3 991 93 10000 1 0 04:31 22.12.2019
2194 Clouds 3 992 93 10000 1 0 03:58 22.12.2019
2195 Clouds 4 992 86 10000 4.1 270 02:43 22.12.2019
2196 Clouds 4 991 86 10000 4.6 290 01:54 22.12.2019
2197 Clouds 5 991 81 10000 4.1 270 01:31 22.12.2019
2198 Clouds 5 991 81 10000 5.7 290 00:48 22.12.2019
2199 Clouds 5 992 81 10000 4.6 300 00:26 22.12.2019
2200 Clouds 5 992 81 10000 6.7 300 23:57 21.12.2019
2201 Clouds 6 992 81 10000 6.7 300 23:38 21.12.2019
2202 Clouds 6 991 81 10000 8.7 290 23:19 21.12.2019
2203 Clouds 6 991 75 10000 10.3 290 22:45 21.12.2019
2204 Clouds 6 991 81 10000 8.2 290 22:20 21.12.2019
2205 Clouds 6 991 81 10000 8.7 280 21:58 21.12.2019
2206 Clouds 6 991 81 10000 8.7 280 21:38 21.12.2019
2207 Clouds 6 991 87 10000 8.2 290 21:20 21.12.2019
2208 Clouds 6 991 87 10000 8.2 290 20:59 21.12.2019
2209 Clouds 6 991 87 10000 9.3 280 20:40 21.12.2019
2210 Rain 7 990 87 10000 8.7 280 20:22 21.12.2019
2211 Rain 7 990 87 10000 7.7 280 19:58 21.12.2019
2212 Rain 7 990 87 10000 7.7 280 19:40 21.12.2019
2213 Rain 8 990 93 6000 8.7 270 19:19 21.12.2019
2214 Rain 7 990 93 6000 8.7 270 19:19 21.12.2019
2215 Rain 8 989 93 6000 4.6 160 18:55 21.12.2019
2216 Rain 8 989 93 6000 4.6 160 18:37 21.12.2019
2217 Rain 8 989 93 9000 5.1 130 18:19 21.12.2019
2218 Rain 9 989 93 7000 6.7 110 17:55 21.12.2019
2219 Rain 9 989 93 7000 6.7 110 17:36 21.12.2019
2220 Rain 9 990 93 7000 6.2 110 17:18 21.12.2019
2221 Rain 9 991 93 9000 6.2 110 16:41 21.12.2019
2222 Rain 9 991 93 10000 6.7 110 16:19 21.12.2019
2223 Rain 9 991 93 10000 6.7 110 15:57 21.12.2019
2224 Rain 8 992 93 10000 6.2 120 15:38 21.12.2019
2225 Rain 8 993 93 10000 5.7 120 15:19 21.12.2019
2226 Rain 8 993 93 10000 5.7 120 14:57 21.12.2019
2227 Rain 8 993 93 10000 4.1 110 14:38 21.12.2019
2228 Rain 8 994 87 10000 4.1 110 14:19 21.12.2019
2229 Rain 8 995 87 10000 3.1 120 13:56 21.12.2019
2230 Rain 9 995 87 10000 3.1 120 13:37 21.12.2019
2231 Rain 9 995 81 9000 3.1 120 13:18 21.12.2019
2232 Rain 9 995 71 10000 3.1 100 12:55 21.12.2019
2233 Rain 9 995 71 10000 3.1 100 12:37 21.12.2019
2234 Clouds 9 996 71 10000 3.1 80 12:18 21.12.2019
2235 Clouds 9 997 71 10000 3.1 80 11:43 21.12.2019
2236 Clouds 9 997 66 10000 3.6 60 11:25 21.12.2019
2237 Clouds 9 998 71 10000 2.6 80 10:56 21.12.2019
2238 Clouds 9 998 71 10000 2.6 80 10:38 21.12.2019
2239 Clouds 9 999 71 10000 2.1 80 10:19 21.12.2019
2240 Clouds 8 999 76 10000 2.1 100 09:43 21.12.2019
2241 Clouds 8 999 81 10000 2.1 90 09:22 21.12.2019
2242 Clouds 7 999 75 10000 3.1 100 08:59 21.12.2019
2243 Clouds 8 999 75 10000 3.1 100 08:39 21.12.2019
2244 Clouds 8 998 70 10000 2.6 100 08:21 21.12.2019
2245 Clouds 8 999 70 10000 1.5 60 07:44 21.12.2019
2246 Clouds 9 999 62 10000 2.6 290 07:22 21.12.2019
2247 Clouds 9 999 66 10000 2.6 310 06:45 21.12.2019
2248 Clouds 10 999 66 10000 4.6 270 06:26 21.12.2019
2249 Clouds 10 999 66 10000 6.2 270 05:55 21.12.2019
2250 Clouds 11 998 58 10000 4.6 290 04:58 21.12.2019
2251 Clouds 11 998 58 10000 4.6 290 04:58 21.12.2019
2252 Clouds 10 997 58 10000 8.7 220 03:59 21.12.2019
2253 Clouds 10 995 71 10000 5.7 170 03:18 21.12.2019
2254 Rain 10 995 66 10000 8.7 170 02:18 21.12.2019
2255 Clouds 10 994 66 10000 9.8 170 01:38 21.12.2019
2256 Clouds 10 995 58 10000 10.3 180 01:20 21.12.2019
2257 Clouds 10 995 58 10000 9.8 170 00:37 21.12.2019
2258 Clouds 10 995 58 10000 8.2 170 00:18 21.12.2019
2259 Clouds 10 995 54 10000 8.2 170 23:38 20.12.2019
2260 Clouds 10 995 58 10000 6.7 160 23:19 20.12.2019
2261 Clouds 10 995 54 10000 7.2 160 22:43 20.12.2019
2262 Clouds 10 995 62 10000 7.2 150 22:22 20.12.2019
2263 Clouds 10 995 62 10000 8.2 150 21:59 20.12.2019
2264 Clouds 10 995 62 10000 8.2 150 21:40 20.12.2019
2265 Clouds 10 995 54 10000 9.8 170 21:20 20.12.2019
2266 Clouds 10 996 54 10000 9.8 170 20:56 20.12.2019
2267 Clouds 10 996 54 10000 9.8 170 20:36 20.12.2019
2268 Clouds 11 996 54 10000 11.3 170 20:18 20.12.2019
2269 Clouds 11 996 54 10000 10.8 160 19:42 20.12.2019
2270 Clouds 11 996 62 10000 8.7 150 19:20 20.12.2019
2271 Clouds 11 996 58 10000 10.3 160 18:58 20.12.2019
2272 Clouds 11 996 58 10000 10.3 160 18:39 20.12.2019
2273 Clouds 11 996 58 10000 10.3 160 18:39 20.12.2019
2274 Clouds 11 997 58 10000 11.3 170 18:21 20.12.2019
2275 Clouds 11 998 62 10000 10.8 160 17:55 20.12.2019
2276 Clouds 11 998 62 10000 10.8 160 17:37 20.12.2019
2277 Clear 11 998 62 10000 10.8 160 17:18 20.12.2019
2278 Clear 11 999 71 10000 9.3 150 16:40 20.12.2019
2279 Clear 12 999 71 10000 9.3 150 16:21 20.12.2019
2280 Clear 12 999 66 10000 9.8 150 15:57 20.12.2019
2281 Clear 12 1000 66 10000 10.3 160 15:39 20.12.2019
2282 Clear 13 1000 66 10000 10.3 160 15:20 20.12.2019
2283 Clouds 13 1000 62 10000 11.3 160 14:59 20.12.2019
2284 Clouds 13 1000 67 10000 12.9 150 14:41 20.12.2019
2285 Clouds 13 1000 67 10000 12.9 150 14:23 20.12.2019
2286 Clouds 13 1001 71 10000 12.3 150 13:56 20.12.2019
2287 Clouds 13 1002 71 10000 12.3 150 13:37 20.12.2019
2288 Clouds 13 1002 71 10000 12.3 150 13:18 20.12.2019
2289 Clouds 13 1003 76 10000 11.3 140 12:55 20.12.2019
2290 Clouds 12 1003 76 10000 11.3 140 12:36 20.12.2019
2291 Clouds 12 1003 76 10000 11.3 140 12:18 20.12.2019
2292 Clouds 11 1004 81 10000 10.8 150 11:56 20.12.2019
2293 Clouds 12 1005 87 10000 12.3 150 11:37 20.12.2019
2294 Clouds 10 1006 87 10000 11.8 150 11:18 20.12.2019
2295 Clouds 10 1006 87 10000 11.8 150 10:54 20.12.2019
2296 Clouds 10 1006 87 9000 11.3 140 10:36 20.12.2019
2297 Clouds 10 1006 87 9000 11.3 140 10:18 20.12.2019
2298 Clouds 9 1008 93 10000 10.3 140 09:41 20.12.2019
2299 Clouds 8 1008 93 10000 10.3 140 09:21 20.12.2019
2300 Clouds 8 1007 93 9000 12.3 140 08:44 20.12.2019
2301 Clouds 7 1008 87 8000 11.8 140 08:26 20.12.2019
2302 Clouds 7 1009 87 8000 9.8 140 07:59 20.12.2019
2303 Clouds 7 1009 87 8000 10.8 140 07:41 20.12.2019
2304 Clouds 7 1009 87 8000 10.8 140 07:20 20.12.2019
2305 Clouds 7 1009 87 9000 9.8 140 06:52 20.12.2019
2306 Clouds 7 1010 87 8000 7.7 140 06:33 20.12.2019
2307 Clouds 7 1011 93 7000 7.2 140 05:56 20.12.2019
2308 Clouds 7 1012 93 7000 5.7 110 05:37 20.12.2019
2309 Clouds 7 1012 93 7000 5.7 110 05:37 20.12.2019
2310 Clouds 7 1013 87 6000 6.7 120 04:34 20.12.2019
2311 Rain 7 1014 87 9000 3.6 110 03:31 20.12.2019
2312 Clouds 8 1014 81 9000 5.1 110 02:45 20.12.2019
2313 Clouds 8 1015 87 10000 5.1 110 01:54 20.12.2019
2314 Clouds 9 1015 87 10000 3.6 90 01:34 20.12.2019
2315 Clouds 9 1016 87 10000 5.7 90 00:49 20.12.2019
2316 Clouds 9 1017 87 10000 3.6 100 00:30 20.12.2019
2317 Clouds 9 1017 81 10000 4.1 110 23:57 19.12.2019
2318 Clouds 9 1018 81 10000 4.6 110 23:38 19.12.2019
2319 Clouds 9 1018 81 10000 4.6 110 23:19 19.12.2019
2320 Clouds 10 1018 81 10000 5.7 130 22:38 19.12.2019
2321 Clouds 10 1018 81 10000 5.7 130 22:20 19.12.2019
2322 Clouds 10 1018 81 10000 6.7 140 21:56 19.12.2019
2323 Clouds 10 1018 81 10000 5.1 140 21:38 19.12.2019
2324 Clouds 10 1018 81 10000 5.1 140 21:19 19.12.2019
2325 Clouds 10 1018 76 10000 8.2 150 20:56 19.12.2019
2326 Clouds 10 1018 76 10000 8.7 150 20:37 19.12.2019
2327 Clouds 10 1018 76 10000 8.7 150 20:37 19.12.2019
2328 Clouds 10 1018 76 10000 8.7 150 20:18 19.12.2019
2329 Clouds 10 1018 76 10000 8.7 150 20:18 19.12.2019
2330 Clouds 10 1018 76 10000 10.3 150 19:57 19.12.2019
2331 Clouds 10 1018 81 10000 8.7 150 19:39 19.12.2019
2332 Clouds 10 1018 81 10000 8.7 150 19:19 19.12.2019
2333 Rain 10 1018 81 10000 7.7 150 18:56 19.12.2019
2334 Rain 10 1018 76 10000 7.7 150 18:38 19.12.2019
2335 Rain 10 1018 76 10000 7.7 150 18:18 19.12.2019
2336 Rain 10 1018 81 10000 8.2 150 17:55 19.12.2019
2337 Clouds 10 1018 76 10000 8.2 140 17:37 19.12.2019
2338 Clouds 10 1018 81 10000 7.2 140 17:18 19.12.2019
2339 Clouds 9 1018 81 10000 7.2 140 16:55 19.12.2019
2340 Clouds 9 1018 81 10000 7.2 130 16:36 19.12.2019
2341 Clouds 9 1018 81 10000 7.2 130 16:18 19.12.2019
2342 Clouds 9 1018 81 10000 6.7 130 15:55 19.12.2019
2343 Clouds 9 1018 81 10000 7.2 130 15:36 19.12.2019
2344 Clouds 9 1018 81 10000 7.2 130 15:18 19.12.2019
2345 Clouds 9 1018 81 10000 10.8 140 14:42 19.12.2019
2346 Clouds 9 1018 81 10000 10.8 140 14:20 19.12.2019
2347 Clouds 9 1019 81 10000 8.2 130 13:58 19.12.2019
2348 Clouds 9 1019 87 10000 8.7 140 13:38 19.12.2019
2349 Clouds 9 1019 87 10000 8.7 140 13:19 19.12.2019
2350 Clouds 9 1019 81 10000 8.2 140 12:57 19.12.2019
2351 Clouds 9 1020 81 10000 7.7 140 12:38 19.12.2019
2352 Clouds 8 1020 81 10000 7.7 140 12:19 19.12.2019
2353 Clouds 8 1020 87 10000 8.2 130 12:19 19.12.2019
2354 Clouds 8 1020 81 10000 7.7 140 12:19 19.12.2019
2355 Clouds 8 1020 87 10000 8.2 130 11:58 19.12.2019
2356 Clouds 8 1020 87 10000 8.7 140 11:39 19.12.2019
2357 Clouds 7 1020 87 10000 8.7 140 11:18 19.12.2019
2358 Clouds 7 1020 87 10000 7.7 140 11:18 19.12.2019
2359 Clouds 7 1020 87 10000 7.7 140 10:56 19.12.2019
2360 Clouds 6 1020 93 10000 7.7 150 10:37 19.12.2019
2361 Clouds 6 1020 93 10000 7.7 150 10:19 19.12.2019
2362 Clouds 6 1020 93 10000 7.7 130 09:40 19.12.2019
2363 Rain 6 1020 93 10000 7.7 130 09:21 19.12.2019
2364 Rain 5 1020 93 8000 7.7 130 08:58 19.12.2019
2365 Rain 5 1020 100 6000 6.2 120 08:40 19.12.2019
2366 Clouds 4 1020 100 6000 6.2 120 08:19 19.12.2019
2367 Mist 4 1020 100 4000 6.7 120 07:57 19.12.2019
2368 Mist 4 1020 100 4800 6.7 120 07:38 19.12.2019
2369 Mist 4 1020 100 4800 6.7 120 07:19 19.12.2019
2370 Mist 4 1021 100 2200 5.7 120 06:50 19.12.2019
2371 Mist 4 1021 100 2200 5.7 120 06:50 19.12.2019
2372 Mist 4 1021 100 2300 4.6 130 06:29 19.12.2019
2373 Mist 4 1022 100 2800 2.6 120 05:55 19.12.2019
2374 Mist 4 1022 100 3800 3.1 140 05:36 19.12.2019
2375 Mist 4 1022 100 3600 1 0 04:52 19.12.2019
2376 Mist 4 1023 100 3000 1 0 03:23 19.12.2019
2377 Rain 3 1023 100 600 1 0 02:23 19.12.2019
2378 Fog 3 1023 100 300 1 280 01:23 19.12.2019
2379 Fog 3 1023 100 350 2.1 210 00:44 19.12.2019
2380 Fog 3 1023 100 350 2.1 210 00:24 19.12.2019
2381 Fog 3 1023 100 350 1 0 23:57 18.12.2019
2382 Fog 3 1023 100 400 0.5 0 23:38 18.12.2019
2383 Rain 3 1023 100 400 0.5 0 23:18 18.12.2019
2384 Fog 3 1023 100 300 1 130 22:55 18.12.2019
2385 Fog 3 1023 93 550 1.5 350 22:37 18.12.2019
2386 Fog 3 1023 93 550 1.5 350 22:19 18.12.2019
2387 Fog 3 1023 100 1200 1 0 21:56 18.12.2019
2388 Mist 3 1023 93 450 2.1 260 21:38 18.12.2019
2389 Mist 3 1023 93 450 2.1 260 21:19 18.12.2019
2390 Mist 4 1023 93 4000 1 0 20:55 18.12.2019
2391 Mist 4 1023 93 4000 1 0 20:55 18.12.2019
2392 Mist 4 1022 93 4400 0.5 0 20:37 18.12.2019
2393 Mist 3 1022 93 4400 0.5 0 20:19 18.12.2019
2394 Mist 4 1022 100 3100 1 0 19:55 18.12.2019
2395 Mist 4 1022 100 4300 2.1 160 19:37 18.12.2019
2396 Mist 4 1022 100 4300 2.1 160 19:18 18.12.2019
2397 Mist 5 1022 100 5000 1.5 140 18:44 18.12.2019
2398 Mist 5 1022 100 5000 1.5 140 18:25 18.12.2019
2399 Mist 5 1022 100 5000 1.5 140 18:25 18.12.2019
2400 Mist 5 1021 100 6000 1.5 80 17:57 18.12.2019
2401 Fog 6 1021 93 7000 1.5 360 17:39 18.12.2019
2402 Fog 6 1021 93 7000 1.5 360 17:19 18.12.2019
2403 Fog 6 1021 93 8000 1 70 16:56 18.12.2019
2404 Fog 6 1021 93 8000 1 70 16:56 18.12.2019
2405 Fog 6 1021 93 8000 1 70 16:38 18.12.2019
2406 Clear 7 1021 87 10000 0.5 0 16:20 18.12.2019
2407 Clear 8 1021 81 10000 1.5 350 15:55 18.12.2019
2408 Clear 8 1021 81 10000 1.5 350 15:37 18.12.2019
2409 Clear 9 1021 87 10000 1 0 15:18 18.12.2019
2410 Clear 10 1020 81 10000 1.5 110 14:42 18.12.2019
2411 Clear 10 1020 87 10000 1 0 14:22 18.12.2019
2412 Clear 10 1020 87 10000 1 0 13:57 18.12.2019
2413 Clouds 10 1020 87 7000 1.5 310 13:39 18.12.2019
2414 Mist 9 1020 93 7000 1.5 140 13:20 18.12.2019
2415 Mist 9 1020 93 10000 1 0 12:58 18.12.2019
2416 Mist 9 1020 93 10000 1 0 12:38 18.12.2019
2417 Mist 9 1020 93 10000 1 0 12:38 18.12.2019
2418 Mist 9 1020 100 7000 1.5 360 12:20 18.12.2019
2419 Fog 8 1020 100 800 0.5 0 11:56 18.12.2019
2420 Fog 7 1020 100 800 0.5 0 11:38 18.12.2019
2421 Fog 6 1020 100 550 1.5 10 11:19 18.12.2019
2422 Fog 6 1020 100 400 1.5 10 10:56 18.12.2019
2423 Fog 6 1020 100 400 1.5 10 10:38 18.12.2019
2424 Fog 4 1020 100 700 1 0 10:20 18.12.2019
2425 Mist 5 1019 100 4500 0.5 0 09:50 18.12.2019
2426 Mist 5 1019 100 4500 0.5 0 09:50 18.12.2019
2427 Mist 3 1019 100 4000 1 0 09:18 18.12.2019
2428 Fog 3 1018 100 4400 1.5 320 08:41 18.12.2019
2429 Fog 2 1018 100 2400 1.5 330 08:23 18.12.2019
2430 Fog 2 1017 100 900 2.1 320 07:55 18.12.2019
2431 Fog 3 1017 100 900 2.1 320 07:36 18.12.2019
2432 Fog 3 1017 100 750 0.5 0 07:18 18.12.2019
2433 Fog 3 1016 88 2000 1 340 06:49 18.12.2019
2434 Fog 3 1016 100 550 0.5 0 06:22 18.12.2019
2435 Rain 3 1016 100 550 0.5 0 05:27 18.12.2019
2436 Mist 3 1015 100 1300 1 0 03:31 18.12.2019
2437 Rain 3 1014 100 1400 1 0 02:41 18.12.2019
2438 Rain 3 1014 86 2200 2.6 160 02:23 18.12.2019
2439 Mist 3 1014 100 3800 1 0 01:42 18.12.2019
2440 Fog 3 1014 100 1000 1.5 290 01:24 18.12.2019
2441 Fog 3 1014 100 650 1 0 00:42 18.12.2019
2442 Fog 3 1014 100 750 1.5 150 00:24 18.12.2019
2443 Fog 3 1014 100 700 0.5 0 23:58 17.12.2019
2444 Fog 3 1014 100 700 0.5 0 23:39 17.12.2019
2445 Fog 3 1014 100 550 1.5 140 23:20 17.12.2019
2446 Fog 3 1014 100 500 0.5 0 22:57 17.12.2019
2447 Fog 3 1014 100 500 0.5 0 22:38 17.12.2019
2448 Fog 3 1014 100 600 1.5 300 22:19 17.12.2019
2449 Fog 3 1014 100 600 1.5 300 21:56 17.12.2019
2450 Fog 4 1014 100 500 0.5 0 21:56 17.12.2019
2451 Fog 4 1014 100 500 0.5 0 21:56 17.12.2019
2452 Fog 3 1014 100 500 0.5 0 21:38 17.12.2019
2453 Fog 4 1014 100 500 0.5 0 21:19 17.12.2019
2454 Fog 4 1014 100 500 0.5 0 20:58 17.12.2019
2455 Fog 4 1014 100 400 1.5 350 20:39 17.12.2019
2456 Fog 3 1014 100 800 1 0 20:18 17.12.2019
2457 Mist 3 1014 100 2000 1 30 19:56 17.12.2019
2458 Mist 4 1014 100 2000 1 30 19:38 17.12.2019
2459 Mist 4 1014 100 5000 1.5 330 19:18 17.12.2019
2460 Mist 4 1014 100 1900 1 190 18:55 17.12.2019
2461 Mist 4 1014 100 1900 1 190 18:37 17.12.2019
2462 Mist 4 1014 93 1800 1.5 170 18:19 17.12.2019
2463 Mist 4 1014 100 1100 1.5 150 17:42 17.12.2019
2464 Mist 4 1014 100 1100 1.5 150 17:42 17.12.2019
2465 Mist 4 1014 100 1100 1.5 150 17:42 17.12.2019
2466 Mist 4 1014 100 1700 1 0 17:21 17.12.2019
2467 Mist 4 1014 100 2000 0.5 0 16:57 17.12.2019
2468 Mist 4 1014 100 2000 0.5 0 16:38 17.12.2019
2469 Fog 4 1014 93 5000 0.5 0 16:19 17.12.2019
2470 Fog 4 1014 93 5000 0.5 0 15:59 17.12.2019
2471 Fog 5 1013 93 10000 1 0 15:38 17.12.2019
2472 Fog 5 1013 93 10000 1 0 15:19 17.12.2019
2473 Mist 5 1013 100 6000 1.5 290 14:56 17.12.2019
2474 Mist 5 1013 100 6000 1.5 290 14:38 17.12.2019
2475 Clouds 5 1013 93 8000 1 0 14:19 17.12.2019
2476 Clouds 5 1013 93 8000 1 0 13:56 17.12.2019
2477 Clouds 5 1012 93 7000 1.5 330 13:38 17.12.2019
2478 Mist 5 1012 100 5000 2.1 320 13:19 17.12.2019
2479 Mist 5 1012 100 5000 2.1 320 13:19 17.12.2019
2480 Mist 5 1012 100 5000 2.1 320 12:58 17.12.2019
2481 Mist 5 1012 100 5000 2.1 330 12:38 17.12.2019
2482 Mist 5 1012 100 5000 2.1 330 12:38 17.12.2019
2483 Mist 5 1012 93 2500 2.6 310 12:18 17.12.2019
2484 Mist 5 1012 100 1300 2.1 340 11:56 17.12.2019
2485 Mist 5 1012 100 1300 2.1 340 11:36 17.12.2019
2486 Mist 4 1012 100 700 1.5 340 11:36 17.12.2019
2487 Mist 4 1012 100 700 1.5 340 11:18 17.12.2019
2488 Fog 4 1012 100 350 2.1 350 10:57 17.12.2019
2489 Fog 4 1012 100 350 2.1 350 10:38 17.12.2019
2490 Fog 4 1012 100 500 2.1 320 10:19 17.12.2019
2491 Fog 3 1012 100 350 1 0 09:43 17.12.2019
2492 Fog 3 1011 100 400 1.5 320 09:22 17.12.2019
2493 Fog 3 1011 100 400 0.5 0 08:59 17.12.2019
2494 Fog 3 1011 100 400 0.5 0 08:40 17.12.2019
2495 Fog 3 1011 100 350 1 0 08:22 17.12.2019
2496 Fog 3 1011 100 350 1 0 08:22 17.12.2019
2497 Fog 3 1011 100 350 0.5 0 07:59 17.12.2019
2498 Fog 3 1011 100 350 0.5 0 07:41 17.12.2019
2499 Fog 3 1011 100 500 0.5 0 07:22 17.12.2019
2500 Fog 3 1011 100 500 0.5 0 06:42 17.12.2019
2501 Fog 3 1011 100 500 1.5 290 06:24 17.12.2019
2502 Fog 3 1011 100 500 1.5 290 06:24 17.12.2019
2503 Fog 3 1011 100 500 1 0 05:41 17.12.2019
2504 Fog 3 1011 100 550 1.5 330 04:58 17.12.2019
2505 Fog 3 1011 100 400 0.5 0 03:55 17.12.2019
2506 Rain 3 1012 100 350 0.5 0 02:26 17.12.2019
2507 Rain 3 1013 100 350 2.1 180 01:22 17.12.2019
2508 Fog 3 1013 100 400 1 0 00:47 17.12.2019
2509 Fog 3 1013 100 450 1.5 210 00:22 17.12.2019
2510 Fog 3 1013 100 450 2.1 170 23:58 16.12.2019
2511 Fog 3 1013 100 450 2.1 170 23:40 16.12.2019
2512 Fog 3 1013 100 450 1 0 23:18 16.12.2019
2513 Fog 3 1013 100 500 1 0 22:54 16.12.2019
2514 Fog 3 1013 100 600 2.6 250 22:36 16.12.2019
2515 Fog 3 1013 100 600 2.6 250 22:18 16.12.2019
2516 Fog 3 1013 100 650 2.1 250 21:54 16.12.2019
2517 Fog 3 1013 100 650 2.1 250 21:36 16.12.2019
2518 Fog 3 1013 100 800 2.1 250 21:18 16.12.2019
2519 Fog 3 1013 100 550 1.5 250 20:55 16.12.2019
2520 Fog 3 1013 100 550 1.5 250 20:37 16.12.2019
2521 Fog 4 1013 100 400 2.1 240 20:18 16.12.2019
2522 Fog 4 1013 100 400 2.1 240 20:18 16.12.2019
2523 Fog 3 1013 100 500 2.1 240 19:54 16.12.2019
2524 Fog 4 1013 100 500 2.1 220 19:36 16.12.2019
2525 Fog 4 1013 100 500 2.1 220 19:18 16.12.2019
2526 Fog 4 1013 100 400 1.5 250 18:54 16.12.2019
2527 Fog 3 1013 100 400 1.5 250 18:36 16.12.2019
2528 Fog 3 1013 100 450 2.6 250 18:18 16.12.2019
2529 Mist 4 1013 93 1000 2.6 260 17:55 16.12.2019
2530 Clouds 4 1013 93 6000 2.6 250 17:37 16.12.2019
2531 Clouds 4 1013 93 6000 2.6 250 17:18 16.12.2019
2532 Clouds 4 1013 93 9000 2.6 260 16:54 16.12.2019
2533 Clouds 4 1013 93 9000 2.6 260 16:36 16.12.2019
2534 Clouds 4 1013 86 10000 2.6 260 16:18 16.12.2019
2535 Clouds 5 1013 86 10000 2.1 290 15:54 16.12.2019
2536 Clouds 5 1013 86 10000 2.1 290 15:36 16.12.2019
2537 Clouds 5 1013 93 8000 2.6 250 15:18 16.12.2019
2538 Clouds 5 1013 93 7000 1.5 160 14:54 16.12.2019
2539 Clouds 5 1013 93 7000 1.5 160 14:36 16.12.2019
2540 Clouds 5 1013 93 7000 2.6 130 14:18 16.12.2019
2541 Clouds 5 1014 100 6000 3.6 130 13:38 16.12.2019
2542 Mist 5 1014 93 5000 4.6 130 13:20 16.12.2019
2543 Mist 5 1014 93 5000 4.6 130 12:58 16.12.2019
2544 Clouds 5 1014 81 0 2.1 200 12:58 16.12.2019
2545 Clouds 5 1014 93 10000 5.1 120 12:40 16.12.2019
2546 Clouds 5 1015 93 7000 3.6 100 12:20 16.12.2019
2547 Mist 5 1015 93 3500 3.6 110 11:59 16.12.2019
2548 Mist 4 1015 93 3500 3.6 110 11:41 16.12.2019
2549 Mist 4 1016 93 1400 5.7 120 11:21 16.12.2019
2550 Fog 4 1016 100 800 5.7 130 10:59 16.12.2019
2551 Fog 4 1016 100 800 5.7 130 10:40 16.12.2019
2552 Fog 4 1016 100 800 5.7 130 10:40 16.12.2019
2553 Mist 3 1016 100 3400 4.1 120 10:20 16.12.2019
2554 Mist 3 1016 100 1800 4.6 130 09:46 16.12.2019
2555 Mist 3 1016 100 1800 4.6 130 09:28 16.12.2019
2556 Mist 3 1017 93 2900 2.1 150 08:58 16.12.2019
2557 Mist 2 1017 100 2000 3.6 150 08:38 16.12.2019
2558 Mist 2 1017 100 2000 3.6 150 08:19 16.12.2019
2559 Mist 2 1017 100 5000 2.6 170 07:49 16.12.2019
2560 Mist 2 1017 100 5000 2.6 170 07:30 16.12.2019
2561 Mist 1 1017 93 5000 2.6 170 06:46 16.12.2019
2562 Clouds 1 1017 93 6000 2.6 190 06:26 16.12.2019
2563 Clouds 1 1017 94 8000 2.1 170 05:58 16.12.2019
2564 Clouds 1 1016 100 6000 1.5 150 05:39 16.12.2019
2565 Clouds 1 1016 100 6000 1.5 150 05:21 16.12.2019
2566 Mist 2 1016 85 5000 1.5 180 02:50 16.12.2019
2567 Clouds 2 1016 100 6000 0.5 0 01:45 16.12.2019
2568 Mist 2 1016 100 4800 1 310 00:56 16.12.2019
2569 Mist 2 1016 100 4800 1 310 00:37 16.12.2019
2570 Clouds 2 1015 93 6000 0.5 0 00:18 16.12.2019
2571 Clouds 3 1015 93 10000 2.1 140 23:40 15.12.2019
2572 Clouds 3 1015 93 8000 1 0 23:40 15.12.2019
2573 Clouds 3 1015 93 10000 2.1 140 23:22 15.12.2019
2574 Clouds 3 1014 93 10000 2.1 150 22:57 15.12.2019
2575 Rain 3 1014 93 10000 2.1 150 22:38 15.12.2019
2576 Rain 3 1014 93 10000 3.6 150 22:19 15.12.2019
2577 Rain 3 1014 93 10000 2.6 150 21:57 15.12.2019
2578 Clouds 3 1014 93 10000 2.6 150 21:38 15.12.2019
2579 Clouds 3 1014 93 10000 2.6 150 21:38 15.12.2019
2580 Clouds 3 1013 93 10000 3.1 160 21:19 15.12.2019
2581 Clouds 3 1013 93 10000 3.1 160 21:19 15.12.2019
2582 Clouds 3 1013 93 10000 4.6 160 20:57 15.12.2019
2583 Clouds 3 1013 93 10000 4.6 160 20:38 15.12.2019
2584 Clouds 3 1013 93 10000 3.6 180 20:20 15.12.2019
2585 Clouds 3 1013 66 10000 3.6 150 19:58 15.12.2019
2586 Clouds 3 1013 66 10000 3.6 150 19:39 15.12.2019
2587 Clouds 3 1013 93 10000 1.5 120 19:19 15.12.2019
2588 Clouds 3 1012 65 10000 3.1 160 18:57 15.12.2019
2589 Clouds 4 1012 65 10000 3.1 160 18:39 15.12.2019
2590 Clouds 4 1012 86 10000 3.1 170 18:19 15.12.2019
2591 Clouds 4 1012 66 10000 2.1 140 17:56 15.12.2019
2592 -273 0 0 0 0 0 17:37 15.12.2019
2593 Clouds 4 1012 66 10000 2.1 140 17:37 15.12.2019
2594 Clouds 4 1011 86 10000 2.1 150 17:19 15.12.2019
2595 Clouds 5 1011 86 10000 3.1 130 16:57 15.12.2019
2596 Clouds 5 1011 86 10000 3.1 130 16:39 15.12.2019
2597 Clouds 5 1011 80 10000 4.1 140 16:20 15.12.2019
2598 Clouds 5 1010 80 10000 3.1 120 15:55 15.12.2019
2599 Clouds 6 1010 80 10000 3.1 120 15:55 15.12.2019
2600 Clouds 5 1010 80 10000 3.1 120 15:55 15.12.2019
2601 Clouds 6 1010 80 10000 3.1 120 15:37 15.12.2019
2602 Clouds 6 1010 80 10000 3.6 130 15:18 15.12.2019
2603 Clouds 6 1010 80 10000 4.1 120 14:55 15.12.2019
2604 Clouds 6 1010 80 10000 4.1 120 14:36 15.12.2019
2605 Clouds 6 1010 80 10000 3.6 130 14:18 15.12.2019
2606 Clouds 6 1010 75 10000 5.1 140 13:55 15.12.2019
2607 Clouds 6 1010 75 10000 5.1 140 13:37 15.12.2019
2608 Clouds 6 1010 75 10000 5.1 140 13:37 15.12.2019
2609 Clouds 6 1010 75 10000 4.6 140 13:19 15.12.2019
2610 Clouds 6 1010 75 10000 4.6 140 13:19 15.12.2019
2611 Clouds 6 1010 80 10000 3.6 120 12:56 15.12.2019
2612 Clouds 6 1010 80 10000 3.6 120 12:38 15.12.2019
2613 Clouds 6 1010 75 10000 3.6 140 12:20 15.12.2019
2614 Clouds 5 1009 80 10000 2.6 110 11:39 15.12.2019
2615 Clouds 5 1009 80 10000 2.6 110 11:20 15.12.2019
2616 Clouds 5 1009 80 10000 2.6 110 11:20 15.12.2019
2617 Clouds 5 1010 61 10000 2.1 70 10:58 15.12.2019
2618 Clouds 5 1010 61 10000 2.1 70 10:40 15.12.2019
2619 Clouds 5 1009 61 10000 2.6 120 10:20 15.12.2019
2620 Clouds 5 1009 61 10000 2.1 80 09:59 15.12.2019
2621 Clouds 5 1009 61 10000 2.1 80 09:38 15.12.2019
2622 Clouds 5 1009 61 10000 2.6 110 09:20 15.12.2019
2623 Clouds 5 1009 61 10000 2.6 110 09:20 15.12.2019
2624 Clouds 4 1009 69 10000 2.1 120 08:55 15.12.2019
2625 Clouds 4 1009 69 10000 2.1 120 08:37 15.12.2019
2626 Clouds 3 1008 62 10000 2.1 340 08:19 15.12.2019
2627 Clouds 3 1008 62 10000 4.6 150 07:53 15.12.2019
2628 Clouds 3 1008 60 10000 4.1 160 07:32 15.12.2019
2629 Clouds 3 1009 60 10000 4.6 180 06:30 15.12.2019
2630 Clouds 3 1009 60 10000 1 0 05:51 15.12.2019
2631 Clouds 2 1010 65 10000 1.5 150 05:25 15.12.2019
2632 Clouds 2 1009 69 10000 1 0 04:24 15.12.2019
2633 Clouds 3 1009 60 10000 4.6 200 03:22 15.12.2019
2634 Clouds 3 1009 69 10000 4.6 180 02:33 15.12.2019
2635 Clear 3 1008 74 10000 3.6 210 01:44 15.12.2019
2636 Clouds 3 1008 74 10000 3.1 130 01:25 15.12.2019
2637 Clouds 3 1008 80 10000 2.6 180 00:54 15.12.2019
2638 Clouds 3 1008 80 10000 4.1 170 00:35 15.12.2019
2639 Clouds 3 1007 74 10000 3.6 160 23:58 14.12.2019
2640 Clouds 4 1007 74 10000 3.6 160 23:38 14.12.2019
2641 Clear 4 1007 65 10000 3.1 180 23:18 14.12.2019
2642 Clear 4 1007 65 10000 1.5 270 22:57 14.12.2019
2643 Clear 4 1007 65 10000 1.5 270 22:39 14.12.2019
2644 Clear 4 1006 65 10000 3.1 290 22:20 14.12.2019
2645 Clear 4 1006 65 10000 2.1 250 21:55 14.12.2019
2646 Clear 5 1006 65 10000 2.1 250 21:37 14.12.2019
2647 Clear 5 1006 61 10000 4.1 300 21:18 14.12.2019
2648 Clear 5 1006 61 10000 6.2 290 20:54 14.12.2019
2649 Clear 5 1006 61 10000 6.2 290 20:36 14.12.2019
2650 Clouds 6 1005 65 10000 5.7 290 20:18 14.12.2019
2651 Rain 7 1003 61 10000 10.8 280 19:40 14.12.2019
2652 Rain 7 1003 61 10000 10.8 280 19:21 14.12.2019
2653 Rain 7 1003 70 10000 5.7 270 18:58 14.12.2019
2654 Clouds 7 1003 70 10000 5.7 270 18:39 14.12.2019
2655 Clouds 7 1002 75 10000 4.1 230 18:21 14.12.2019
2656 Rain 7 1001 70 10000 6.7 270 17:59 14.12.2019
2657 Rain 7 1001 70 10000 6.7 270 17:41 14.12.2019
2658 Rain 7 1000 72 10000 9.8 300 17:22 14.12.2019
2659 Clouds 8 1000 53 10000 7.7 290 16:42 14.12.2019
2660 Clouds 8 1000 57 10000 7.2 280 16:19 14.12.2019
2661 Clouds 8 1000 57 10000 7.2 280 15:57 14.12.2019
2662 Clouds 8 999 57 10000 8.7 280 15:38 14.12.2019
2663 Clouds 8 999 57 10000 8.7 280 15:38 14.12.2019
2664 Clouds 8 999 61 10000 7.2 270 15:19 14.12.2019
2665 Clouds 8 999 66 10000 5.7 240 14:57 14.12.2019
2666 Clouds 8 999 66 10000 5.7 240 14:38 14.12.2019
2667 Rain 7 998 65 10000 7.2 200 14:18 14.12.2019
2668 Rain 7 998 65 10000 7.2 200 14:18 14.12.2019
2669 Clouds 7 997 65 10000 7.7 190 13:44 14.12.2019
2670 Clouds 7 997 66 10000 5.7 190 13:20 14.12.2019
2671 Clouds 6 997 75 10000 6.2 170 12:58 14.12.2019
2672 Clouds 6 997 75 10000 6.2 170 12:40 14.12.2019
2673 Clouds 6 997 80 10000 5.1 160 12:40 14.12.2019
2674 Clouds 6 997 80 10000 5.1 160 12:20 14.12.2019
2675 Clouds 5 997 75 10000 5.7 180 11:58 14.12.2019
2676 Clouds 5 997 75 10000 5.7 180 11:58 14.12.2019
2677 Clouds 5 997 75 10000 5.7 180 11:39 14.12.2019
2678 Clouds 5 996 80 10000 4.1 170 11:19 14.12.2019
2679 Clear 5 996 86 10000 3.6 150 10:57 14.12.2019
2680 Clear 4 996 86 10000 3.6 150 10:38 14.12.2019
2681 Clear 4 997 86 10000 2.1 170 10:20 14.12.2019
2682 Clear 4 997 93 10000 2.1 220 09:43 14.12.2019
2683 Clear 3 997 93 10000 4.6 170 09:23 14.12.2019
2684 Clear 2 996 80 10000 4.1 150 08:59 14.12.2019
2685 Clear 2 996 70 10000 4.1 150 08:59 14.12.2019
2686 Clear 2 996 80 10000 4.1 150 08:40 14.12.2019
2687 Clouds 2 996 77 9000 4.6 170 08:19 14.12.2019
2688 Clouds 2 996 77 10000 3.6 160 07:41 14.12.2019
2689 Clouds 2 996 77 10000 3.1 170 07:22 14.12.2019
2690 Clouds 1 996 77 10000 4.1 170 06:55 14.12.2019
2691 Clouds 2 996 77 9000 2.6 150 06:36 14.12.2019
2692 Clouds 2 995 77 9000 3.6 160 05:56 14.12.2019
2693 Clouds 2 995 77 9000 3.6 160 05:56 14.12.2019
2694 Rain 2 995 80 10000 3.6 160 04:35 14.12.2019
2695 Clouds 1 994 80 10000 3.1 150 02:25 14.12.2019
2696 Clouds 1 994 89 10000 2.6 170 01:46 14.12.2019
2697 Clouds 1 994 87 9000 1.5 190 01:28 14.12.2019
2698 Clouds 1 994 87 10000 3.1 170 00:44 14.12.2019
2699 Clouds 0 994 87 10000 4.1 160 00:26 14.12.2019
2700 Clouds 0 994 87 10000 4.1 160 23:44 13.12.2019
2701 Clouds 0 994 79 10000 3.6 160 23:22 13.12.2019
2702 Clouds 0 993 79 10000 3.6 150 23:00 13.12.2019
2703 Clouds 0 993 79 10000 3.6 150 22:40 13.12.2019
2704 Clouds 0 993 79 10000 3.6 150 22:19 13.12.2019
2705 Clouds 1 993 79 10000 2.6 160 21:55 13.12.2019
2706 Clouds 1 993 79 10000 2.6 160 21:37 13.12.2019
2707 Clouds 1 992 79 10000 3.1 120 21:19 13.12.2019
2708 Clouds 1 992 79 10000 1.5 80 20:41 13.12.2019
2709 Clouds 1 991 86 10000 2.6 150 20:22 13.12.2019
2710 Clouds 1 991 86 10000 2.6 150 19:59 13.12.2019
2711 Clouds 1 991 86 10000 2.6 100 19:40 13.12.2019
2712 Clouds 1 991 86 10000 2.6 100 19:22 13.12.2019
2713 Rain 1 990 74 10000 1 0 18:58 13.12.2019
2714 Rain 1 990 74 10000 2.6 260 18:40 13.12.2019
2715 Rain 1 990 74 10000 2.6 260 18:19 13.12.2019
2716 Rain 1 989 77 10000 4.1 160 17:43 13.12.2019
2717 Clouds 1 989 68 10000 4.1 160 17:20 13.12.2019
2718 Clouds 1 988 80 10000 5.7 160 16:59 13.12.2019
2719 Clouds 1 987 80 10000 7.2 170 16:39 13.12.2019
2720 Clouds 1 987 80 10000 7.2 170 16:20 13.12.2019
2721 Clouds 2 987 80 10000 8.2 160 15:58 13.12.2019
2722 Clouds 2 986 80 10000 9.3 160 15:37 13.12.2019
2723 Clouds 2 986 80 10000 9.3 160 15:18 13.12.2019
2724 Clouds 2 985 80 10000 8.2 150 14:41 13.12.2019
2725 Clouds 2 985 80 10000 8.2 150 14:21 13.12.2019
2726 Clouds 2 985 86 10000 8.2 150 13:57 13.12.2019
2727 Rain 2 985 86 10000 9.3 140 13:38 13.12.2019
2728 Rain 2 985 86 10000 9.3 140 13:19 13.12.2019
2729 Rain 1 986 65 10000 9.3 140 12:42 13.12.2019
2730 Rain 1 986 65 10000 9.3 140 12:20 13.12.2019
2731 Rain 1 987 65 10000 9.8 150 11:57 13.12.2019
2732 Rain 1 988 65 10000 11.3 150 11:39 13.12.2019
2733 Rain 1 988 75 10000 11.3 150 11:21 13.12.2019
2734 Rain 0 989 75 10000 10.3 150 10:43 13.12.2019
2735 Rain 0 989 75 10000 10.3 150 10:23 13.12.2019
2736 Clouds 0 989 75 10000 9.8 150 09:59 13.12.2019
2737 Clouds 0 990 92 10000 8.7 150 09:39 13.12.2019
2738 Clouds 0 990 92 10000 8.7 150 09:19 13.12.2019
2739 Clouds 0 991 92 10000 8.7 140 08:41 13.12.2019
2740 Clouds 0 991 92 10000 8.7 140 08:23 13.12.2019
2741 Clouds -1 991 92 8000 8.2 140 07:46 13.12.2019
2742 Clouds 0 992 92 8000 8.2 140 07:23 13.12.2019
2743 Clouds 0 992 92 10000 8.2 140 06:55 13.12.2019
2744 Clouds 0 993 100 6000 8.7 140 06:29 13.12.2019
2745 Mist 0 994 100 3000 5.7 140 05:46 13.12.2019
2746 Mist 0 994 100 3000 5.7 140 05:27 13.12.2019
2747 Clouds 0 995 94 6000 5.7 150 04:46 13.12.2019
2748 Mist 0 996 100 4800 5.1 140 03:47 13.12.2019
2749 Fog 0 998 100 350 1.5 110 02:34 13.12.2019
2750 Fog 0 999 100 500 1.5 160 01:47 13.12.2019
2751 Mist 0 1000 100 3100 1.5 160 00:57 13.12.2019
2752 Mist 0 1000 100 3000 1.5 140 00:37 13.12.2019
2753 Mist 0 1001 100 2900 1.5 160 23:59 12.12.2019
2754 Mist 0 1001 100 2900 1.5 160 23:59 12.12.2019
2755 Mist 0 1001 100 2800 1.5 140 23:39 12.12.2019
2756 Mist 0 1001 100 2800 1.5 140 23:21 12.12.2019
2757 Snow 0 1002 100 3500 1 0 22:56 12.12.2019
2758 Snow 0 1002 100 3500 1 0 22:56 12.12.2019
2759 Snow 0 1002 100 3500 1.5 190 22:37 12.12.2019
2760 Snow 0 1002 100 3500 1.5 190 22:18 12.12.2019
2761 Snow 0 1003 100 3000 1 150 21:55 12.12.2019
2762 Snow 0 1003 98 2300 1.5 190 21:36 12.12.2019
2763 Snow 0 1003 98 2300 1.5 190 21:36 12.12.2019
2764 Snow 0 1003 98 2300 1.5 190 21:18 12.12.2019
2765 Snow 0 1003 98 2500 1.5 200 20:55 12.12.2019
2766 Snow 0 1004 98 2500 1.5 240 20:37 12.12.2019
2767 Snow 0 1004 98 2500 1.5 240 20:19 12.12.2019
2768 Snow 0 1005 98 2500 1 0 19:42 12.12.2019
2769 Snow 0 1005 98 2500 1 0 19:23 12.12.2019
2770 Snow 0 1005 98 2300 1 0 18:58 12.12.2019
2771 Snow 0 1005 98 2100 1.5 170 18:40 12.12.2019
2772 Snow 0 1005 98 2400 1 160 18:21 12.12.2019
2773 Snow 0 1005 98 2400 1 160 17:58 12.12.2019
2774 Snow 0 1005 98 3400 1 130 17:40 12.12.2019
2775 Snow 0 1005 97 3400 1 130 17:21 12.12.2019
2776 Snow 0 1006 97 3900 0.5 0 16:58 12.12.2019
2777 Mist 0 1006 97 3700 1.5 110 16:40 12.12.2019
2778 Mist 0 1006 97 3700 1.5 110 16:21 12.12.2019
2779 Mist 0 1006 97 4900 2.6 100 15:57 12.12.2019
2780 Mist 0 1006 97 5000 1 120 15:39 12.12.2019
2781 Snow 0 1007 86 5000 1.5 120 15:18 12.12.2019
2782 Clouds 0 1007 97 8000 1 130 14:38 12.12.2019
2783 Clouds 0 1007 97 8000 1 130 14:38 12.12.2019
2784 Clouds 0 1007 87 8000 1 130 14:20 12.12.2019
2785 Clouds 0 1007 87 10000 1 130 13:58 12.12.2019
2786 Clouds 1 1007 87 10000 2.1 160 13:40 12.12.2019
2787 Clouds 0 1007 79 10000 2.1 160 13:21 12.12.2019
2788 Clouds 0 1008 79 10000 1.5 160 12:59 12.12.2019
2789 Clouds 0 1008 79 10000 1.5 160 12:40 12.12.2019
2790 Clouds 0 1008 86 10000 2.1 190 12:22 12.12.2019
2791 Clouds 0 1008 80 10000 1.5 170 11:57 12.12.2019
2792 Clouds 0 1008 86 10000 2.1 180 11:38 12.12.2019
2793 Snow -1 1009 86 10000 2.6 160 11:20 12.12.2019
2794 Snow -1 1009 86 10000 2.6 160 10:56 12.12.2019
2795 Clouds -2 1009 79 10000 2.6 150 10:38 12.12.2019
2796 Clouds -2 1009 79 10000 2.6 150 10:20 12.12.2019
2797 Clouds -2 1009 79 10000 1 150 09:55 12.12.2019
2798 Clouds -2 1009 79 10000 2.1 170 09:37 12.12.2019
2799 Clouds -2 1009 79 10000 2.1 170 09:19 12.12.2019
2800 Clouds -3 1009 74 10000 2.1 210 08:43 12.12.2019
2801 Clouds -4 1009 74 10000 2.1 210 08:25 12.12.2019
2802 Clouds -4 1008 79 10000 2.6 240 07:49 12.12.2019
2803 Clouds -4 1008 79 10000 2.6 240 07:27 12.12.2019
2804 Clouds -5 1008 86 10000 2.1 220 06:56 12.12.2019
2805 Clouds -5 1008 92 10000 2.6 190 06:35 12.12.2019
2806 Clear -5 1008 85 10000 3.1 130 05:42 12.12.2019
2807 Clear -5 1009 86 10000 1.5 210 04:55 12.12.2019
2808 Clear -5 1009 86 10000 1 130 04:23 12.12.2019
2809 Clear -4 1010 74 10000 1.5 110 02:40 12.12.2019
2810 Clear -4 1010 74 10000 1.5 110 02:22 12.12.2019
2811 Clear -4 1010 74 10000 1 0 01:54 12.12.2019
2812 Clear -3 1010 79 10000 3.6 190 01:32 12.12.2019
2813 Clear -3 1010 74 10000 5.7 160 00:47 12.12.2019
2814 Clear -3 1009 74 10000 6.2 150 00:21 12.12.2019
2815 Clear -3 1010 74 10000 7.7 130 23:45 11.12.2019
2816 Clear -3 1010 74 10000 7.7 130 23:21 11.12.2019
2817 Clear -3 1010 74 10000 5.7 140 22:59 11.12.2019
2818 Clear -3 1010 68 10000 6.7 140 22:39 11.12.2019
2819 Clear -3 1010 68 10000 6.7 140 22:20 11.12.2019
2820 Clear -2 1010 68 10000 6.2 130 21:59 11.12.2019
2821 Clear -2 1010 68 10000 8.7 130 21:39 11.12.2019
2822 Clear -2 1010 68 10000 8.7 130 21:20 11.12.2019
2823 Clear -2 1011 74 10000 7.7 130 20:58 11.12.2019
2824 Clear -2 1011 74 10000 7.7 130 20:39 11.12.2019
2825 Clear -2 1011 74 10000 7.7 130 20:19 11.12.2019
2826 Clear -2 1011 63 10000 7.2 130 19:59 11.12.2019
2827 Clear -2 1012 63 10000 6.7 130 19:40 11.12.2019
2828 Clear -2 1012 63 10000 7.2 140 19:20 11.12.2019
2829 Clear -1 1012 63 10000 7.2 140 18:57 11.12.2019
2830 Clear -1 1013 63 10000 5.1 120 18:38 11.12.2019
2831 Clear -1 1013 63 10000 5.1 120 18:18 11.12.2019
2832 Clear -1 1013 63 10000 4.1 120 17:55 11.12.2019
2833 Clear -1 1013 63 10000 3.1 120 17:36 11.12.2019
2834 Clear -1 1013 65 10000 3.1 120 17:18 11.12.2019
2835 Clear 0 1014 65 10000 5.1 120 16:55 11.12.2019
2836 Clear 0 1014 65 10000 5.1 120 16:55 11.12.2019
2837 Clear 0 1014 65 10000 4.1 120 16:36 11.12.2019
2838 Clear 1 1015 69 10000 4.1 130 16:18 11.12.2019
2839 Clear 0 1014 65 10000 4.1 120 16:18 11.12.2019
2840 Clear 1 1015 69 10000 4.1 130 15:54 11.12.2019
2841 Clear 1 1015 59 10000 5.1 140 15:36 11.12.2019
2842 Clear 2 1015 59 10000 5.1 140 15:18 11.12.2019
2843 Clear 2 1016 64 10000 4.6 120 14:54 11.12.2019
2844 Clear 3 1016 64 10000 4.6 110 14:36 11.12.2019
2845 Clear 3 1016 64 10000 4.6 110 14:18 11.12.2019
2846 Clear 3 1017 59 10000 2.6 120 13:41 11.12.2019
2847 Clear 3 1017 59 10000 2.6 120 13:21 11.12.2019
2848 Clear 3 1017 55 10000 3.6 110 12:57 11.12.2019
2849 Clear 3 1018 64 10000 3.1 100 12:38 11.12.2019
2850 Clear 2 1019 74 10000 2.1 130 12:20 11.12.2019
2851 Clear 2 1019 74 10000 2.1 130 11:58 11.12.2019
2852 Clear 2 1019 80 10000 2.1 160 11:38 11.12.2019
2853 Clear 1 1020 67 10000 1 0 11:19 11.12.2019
2854 Clear 0 1020 67 10000 1 0 10:57 11.12.2019
2855 Clear 0 1020 86 10000 2.1 160 10:38 11.12.2019
2856 Rain -1 1020 86 10000 2.1 160 10:19 11.12.2019
2857 Rain -2 1021 92 10000 1.5 240 09:44 11.12.2019
2858 Clear -2 1021 92 10000 1.5 240 09:21 11.12.2019
2859 Clear -3 1021 86 10000 2.6 250 08:58 11.12.2019
2860 Clear -3 1021 86 10000 2.6 250 08:58 11.12.2019
2861 Clear -4 1021 92 10000 1.5 190 08:39 11.12.2019
2862 Clear -4 1021 92 10000 1.5 190 08:20 11.12.2019
2863 Clear -4 1021 92 10000 1.5 190 08:20 11.12.2019
2864 Clear -5 1021 100 10000 1 150 07:59 11.12.2019
2865 Fog -4 1022 100 7000 1.5 340 07:41 11.12.2019
2866 Fog -4 1022 100 7000 1.5 340 07:22 11.12.2019
2867 Clear -4 1022 92 10000 1 320 06:44 11.12.2019
2868 Clear -4 1022 92 10000 1 320 06:23 11.12.2019
2869 Clear -3 1022 92 10000 1.5 310 05:46 11.12.2019
2870 Clear -3 1023 92 10000 1 0 05:27 11.12.2019
2871 Clear -3 1023 92 10000 1.5 10 04:47 11.12.2019
2872 Clear -2 1024 86 10000 2.6 330 02:50 11.12.2019
2873 Clear -1 1024 86 10000 3.1 320 01:30 11.12.2019
2874 Clear -1 1025 82 10000 2.6 340 00:56 11.12.2019
2875 Clear -1 1025 82 10000 2.1 350 00:36 11.12.2019
2876 Clear -1 1025 82 10000 2.1 350 00:18 11.12.2019
2877 Clear -1 1025 74 10000 2.6 320 23:41 10.12.2019
2878 Clear 0 1025 74 10000 3.6 310 23:21 10.12.2019
2879 Clear 0 1025 74 10000 3.6 310 22:41 10.12.2019
2880 Clear 0 1025 69 10000 5.7 310 22:22 10.12.2019
2881 Clear 0 1025 69 10000 6.2 300 21:58 10.12.2019
2882 Clear 1 1025 69 10000 6.2 300 21:39 10.12.2019
2883 Clear 1 1025 69 10000 7.2 310 21:21 10.12.2019
2884 Clear 1 1025 69 10000 7.2 310 20:58 10.12.2019
2885 Clear 1 1025 64 10000 4.6 310 20:38 10.12.2019
2886 Clear 1 1025 64 10000 4.6 310 20:19 10.12.2019
2887 Clear 1 1025 64 10000 4.6 310 20:19 10.12.2019
2888 Clear 1 1025 64 10000 4.6 310 20:19 10.12.2019
2889 Clear 1 1025 64 10000 4.6 310 20:19 10.12.2019
2890 Clear 1 1025 69 10000 4.1 310 19:56 10.12.2019
2891 Clear 1 1025 60 10000 5.7 320 19:38 10.12.2019
2892 Clear 2 1025 60 10000 5.7 320 19:20 10.12.2019
2893 Clear 2 1025 60 10000 6.2 320 18:55 10.12.2019
2894 Clear 2 1024 60 10000 7.2 320 18:36 10.12.2019
2895 Clear 3 1024 60 10000 7.2 320 18:36 10.12.2019
2896 Clear 3 1024 60 10000 7.2 320 18:18 10.12.2019
2897 Clear 3 1024 56 10000 7.2 320 17:41 10.12.2019
2898 Clear 3 1024 52 10000 6.2 310 17:22 10.12.2019
2899 Clear 4 1024 52 10000 7.7 320 16:58 10.12.2019
2900 Clouds 4 1023 48 10000 8.2 320 16:39 10.12.2019
2901 Clouds 4 1023 48 10000 8.2 320 16:19 10.12.2019
2902 Clouds 5 1023 45 10000 10.8 320 15:39 10.12.2019
2903 Clouds 5 1023 45 10000 10.8 320 15:18 10.12.2019
2904 Clouds 6 1023 45 10000 9.8 320 14:56 10.12.2019
2905 Clouds 6 1022 48 10000 11.3 310 14:38 10.12.2019
2906 Clouds 6 1022 48 10000 11.3 310 14:38 10.12.2019
2907 Clouds 6 1022 48 10000 11.3 310 14:20 10.12.2019
2908 Clouds 6 1022 48 10000 8.7 330 13:58 10.12.2019
2909 Clouds 6 1022 52 10000 9.3 320 13:40 10.12.2019
2910 Clouds 6 1022 52 10000 9.3 320 13:20 10.12.2019
2911 Clouds 6 1022 52 10000 9.3 320 13:20 10.12.2019
2912 Clouds 7 1022 52 10000 10.3 320 12:49 10.12.2019
2913 Clouds 6 1021 56 10000 9.8 320 12:28 10.12.2019
2914 Clouds 6 1021 56 10000 8.2 320 11:58 10.12.2019
2915 Clouds 6 1021 60 10000 10.3 310 11:40 10.12.2019
2916 Clouds 6 1021 60 10000 10.3 310 11:21 10.12.2019
2917 Clouds 6 1020 60 10000 9.3 320 10:43 10.12.2019
2918 Clouds 6 1020 60 10000 9.3 320 10:24 10.12.2019
2919 Clouds 5 1020 63 10000 6.7 330 09:57 10.12.2019
2920 Clouds 5 1019 63 10000 7.2 330 09:39 10.12.2019
2921 Clouds 5 1019 63 10000 7.2 330 09:20 10.12.2019
2922 Clouds 5 1019 63 10000 7.2 330 09:20 10.12.2019
2923 Clouds 5 1018 75 10000 6.2 330 08:58 10.12.2019
2924 Clouds 4 1018 75 10000 7.7 320 08:39 10.12.2019
2925 Clouds 4 1018 75 10000 7.7 320 08:21 10.12.2019
2926 Clouds 4 1017 75 10000 7.7 320 07:45 10.12.2019
2927 Clouds 4 1016 75 10000 6.7 320 07:27 10.12.2019
2928 Clouds 5 1015 75 10000 5.7 320 06:56 10.12.2019
2929 Clouds 4 1015 75 10000 7.7 310 06:38 10.12.2019
2930 Clouds 5 1015 75 10000 7.7 310 06:19 10.12.2019
2931 Clouds 4 1014 75 10000 6.2 310 05:51 10.12.2019
2932 Clouds 4 1012 81 10000 6.2 300 04:23 10.12.2019
2933 Clouds 4 1012 93 10000 2.1 330 03:27 10.12.2019
2934 Fog 4 1011 93 8000 2.6 190 02:36 10.12.2019
2935 Clouds 4 1010 93 6000 3.1 180 01:40 10.12.2019
2936 Clouds 4 1010 93 6000 3.1 180 01:19 10.12.2019
2937 Clouds 3 1010 93 7000 2.1 250 00:31 10.12.2019
2938 Clouds 4 1010 93 9000 2.1 180 23:59 09.12.2019
2939 Clouds 4 1010 93 9000 2.1 180 23:59 09.12.2019
2940 Clouds 4 1009 93 7000 2.1 170 23:39 09.12.2019
2941 Clouds 4 1009 93 7000 2.1 170 23:21 09.12.2019
2942 Clouds 4 1009 93 7000 2.6 170 22:57 09.12.2019
2943 Clouds 4 1009 93 6000 2.6 160 22:38 09.12.2019
2944 Clouds 4 1009 93 6000 2.6 160 22:18 09.12.2019
2945 Clouds 4 1009 93 6000 2.6 160 22:18 09.12.2019
2946 Clouds 4 1008 93 9000 3.1 150 21:56 09.12.2019
2947 Clouds 4 1008 93 10000 1.5 110 21:38 09.12.2019
2948 Clouds 4 1008 93 10000 1.5 100 21:18 09.12.2019
2949 Clouds 4 1008 93 10000 1.5 100 20:55 09.12.2019
2950 Clouds 4 1008 93 10000 3.1 130 20:37 09.12.2019
2951 Clouds 4 1008 93 10000 3.1 130 20:19 09.12.2019
2952 Clouds 4 1008 81 10000 2.1 180 19:55 09.12.2019
2953 Clouds 4 1008 81 10000 3.1 210 19:37 09.12.2019
2954 Clouds 4 1008 81 10000 3.1 210 19:18 09.12.2019
2955 Clouds 4 1008 81 10000 3.1 230 18:55 09.12.2019
2956 Clouds 4 1007 86 10000 3.1 160 18:36 09.12.2019
2957 Clouds 4 1007 86 10000 3.1 160 18:18 09.12.2019
2958 -273 0 0 0 0 0 17:56 09.12.2019
2959 Clouds 4 1007 86 10000 2.6 230 17:37 09.12.2019
2960 Clouds 5 1007 86 10000 2.6 230 17:19 09.12.2019
2961 Clouds 5 1007 93 9000 3.6 150 16:54 09.12.2019
2962 Clouds 5 1008 93 10000 2.1 0 16:36 09.12.2019
2963 Clouds 5 1008 93 10000 2.1 0 16:18 09.12.2019
2964 Mist 4 1008 100 8000 4.1 180 15:55 09.12.2019
2965 Rain 4 1008 93 8000 6.2 170 15:36 09.12.2019
2966 Rain 4 1008 93 8000 6.2 170 15:36 09.12.2019
2967 Rain 4 1008 93 4500 4.1 150 15:18 09.12.2019
2968 Rain 4 1008 93 4500 3.6 180 14:42 09.12.2019
2969 Rain 5 1008 93 4600 3.6 180 14:19 09.12.2019
2970 Rain 5 1008 93 4600 3.6 180 13:57 09.12.2019
2971 Rain 5 1008 100 3000 2.6 170 13:38 09.12.2019
2972 Rain 5 1008 100 3000 2.6 170 13:19 09.12.2019
2973 Rain 5 1008 100 2800 2.1 200 12:56 09.12.2019
2974 Rain 5 1008 100 2800 2.1 200 12:56 09.12.2019
2975 Rain 5 1009 100 2600 2.6 220 12:37 09.12.2019
2976 Rain 5 1009 100 2600 2.6 220 12:19 09.12.2019
2977 Mist 5 1009 93 3100 2.6 150 11:56 09.12.2019
2978 Mist 5 1009 100 4500 2.6 140 11:37 09.12.2019
2979 Fog 4 1009 100 2200 2.6 170 11:18 09.12.2019
2980 Fog 3 1009 100 2400 2.6 180 10:41 09.12.2019
2981 Fog 3 1009 100 1200 4.1 170 10:20 09.12.2019
2982 Fog 3 1009 100 1200 4.1 170 09:59 09.12.2019
2983 Fog 3 1009 100 1200 4.1 170 09:40 09.12.2019
2984 Fog 3 1008 100 2200 4.1 150 09:21 09.12.2019
2985 Fog 3 1009 100 750 3.6 150 08:44 09.12.2019
2986 Rain 2 1009 100 700 3.1 160 08:26 09.12.2019
2987 Rain 2 1009 100 700 3.1 160 08:26 09.12.2019
2988 Rain 2 1008 100 1000 3.6 140 07:57 09.12.2019
2989 Fog 2 1009 100 900 4.1 170 07:38 09.12.2019
2990 Fog 2 1009 100 900 4.1 170 07:20 09.12.2019
2991 Fog 2 1008 100 900 4.1 150 06:43 09.12.2019
2992 Fog 2 1008 93 700 3.1 170 06:24 09.12.2019
2993 Rain 1 1008 100 650 2.6 210 05:26 09.12.2019
2994 Rain 1 1008 93 750 3.1 180 04:46 09.12.2019
2995 Fog 1 1008 90 700 1.5 230 03:20 09.12.2019
2996 Fog 1 1008 90 750 2.6 230 02:24 09.12.2019
2997 Mist 1 1008 92 750 2.1 200 01:42 09.12.2019
2998 Mist 1 1009 93 1000 2.6 230 00:46 09.12.2019
2999 Mist 1 1009 100 1100 3.1 190 00:27 09.12.2019
3000 Mist 1 1009 100 2000 4.1 130 23:43 08.12.2019
3001 Mist 1 1009 100 2000 4.1 130 23:24 08.12.2019
3002 Fog 1 1010 100 900 4.1 140 22:57 08.12.2019
3003 Fog 1 1010 100 800 2.6 120 22:39 08.12.2019
3004 Fog 1 1010 100 800 2.6 120 22:39 08.12.2019
3005 Fog 2 1010 100 800 2.6 120 22:19 08.12.2019
3006 Fog 2 1010 100 800 2.1 120 21:58 08.12.2019
3007 Fog 2 1010 100 800 2.1 120 21:40 08.12.2019
3008 Mist 2 1010 100 1300 3.1 130 21:21 08.12.2019
3009 Mist 2 1010 100 2700 3.6 110 20:57 08.12.2019
3010 Mist 2 1010 91 4600 1.5 0 20:38 08.12.2019
3011 Mist 2 1010 85 4600 1.5 0 20:20 08.12.2019
3012 Mist 2 1010 85 4600 1.5 0 20:20 08.12.2019
3013 Mist 2 1010 85 4400 2.6 150 19:59 08.12.2019
3014 Mist 2 1010 85 4400 2.6 150 19:41 08.12.2019
3015 Mist 2 1010 85 5000 3.1 150 19:22 08.12.2019
3016 Mist 2 1010 85 5000 3.6 150 18:55 08.12.2019
3017 Clouds 3 1011 85 7000 4.6 140 18:37 08.12.2019
3018 Clouds 3 1011 85 10000 3.6 130 18:19 08.12.2019
3019 Clouds 3 1011 85 10000 3.6 130 18:19 08.12.2019
3020 Clouds 3 1011 85 10000 3.6 130 17:56 08.12.2019
3021 Clouds 4 1011 85 10000 3.1 130 17:38 08.12.2019
3022 Clouds 4 1011 85 10000 3.1 130 17:38 08.12.2019
3023 Clouds 5 1011 81 10000 3.1 130 17:20 08.12.2019
3024 Clouds 5 1011 81 10000 5.7 130 16:57 08.12.2019
3025 Clouds 6 1011 86 10000 4.6 130 16:39 08.12.2019
3026 Clouds 6 1011 86 10000 4.6 130 16:20 08.12.2019
3027 Clouds 6 1012 80 10000 4.6 130 15:55 08.12.2019
3028 Clouds 6 1012 75 10000 3.6 130 15:36 08.12.2019
3029 Clouds 7 1012 75 10000 3.6 130 15:36 08.12.2019
3030 Clouds 7 1012 75 10000 3.6 130 15:18 08.12.2019
3031 Clouds 7 1013 75 10000 4.1 140 14:43 08.12.2019
3032 Clouds 9 1013 75 10000 4.1 140 14:24 08.12.2019
3033 Clouds 10 1013 70 10000 3.6 120 13:58 08.12.2019
3034 Clouds 10 1013 65 10000 2.6 120 13:40 08.12.2019
3035 Clouds 10 1013 65 10000 2.6 120 13:21 08.12.2019
3036 Clouds 10 1014 65 10000 2.6 140 12:56 08.12.2019
3037 Clouds 11 1014 65 10000 3.1 140 12:38 08.12.2019
3038 Clouds 10 1014 65 10000 3.1 140 12:18 08.12.2019
3039 Clouds 10 1015 61 10000 3.1 130 11:55 08.12.2019
3040 Clouds 10 1016 57 10000 3.1 150 11:37 08.12.2019
3041 Clouds 8 1016 70 10000 1 0 11:19 08.12.2019
3042 Clouds 8 1016 57 10000 3.1 150 11:19 08.12.2019
3043 Clouds 7 1016 75 10000 1.5 160 10:39 08.12.2019
3044 Clouds 6 1016 75 10000 1.5 160 10:21 08.12.2019
3045 Clouds 7 1017 80 10000 1.5 150 09:58 08.12.2019
3046 Clouds 6 1017 80 10000 1 0 09:39 08.12.2019
3047 Clouds 5 1017 80 10000 1 0 09:20 08.12.2019
3048 Clouds 5 1017 80 10000 1 0 09:20 08.12.2019
3049 Clouds 4 1018 80 10000 1.5 200 08:59 08.12.2019
3050 Clouds 4 1017 86 10000 3.1 230 08:39 08.12.2019
3051 Clouds 3 1017 86 10000 3.1 230 08:21 08.12.2019
3052 Clouds 3 1017 86 10000 3.1 230 08:21 08.12.2019
3053 Clouds 3 1017 86 10000 1.5 330 07:45 08.12.2019
3054 Clouds 3 1017 93 10000 2.1 170 07:20 08.12.2019
3055 Clouds 3 1017 86 10000 1.5 210 06:52 08.12.2019
3056 Clouds 3 1017 93 10000 2.6 200 06:23 08.12.2019
3057 Clouds 3 1017 80 10000 1.5 190 05:58 08.12.2019
3058 Clouds 4 1018 75 10000 1.5 270 05:20 08.12.2019
3059 Clouds 4 1018 81 10000 3.1 250 03:55 08.12.2019
3060 Clouds 4 1018 81 10000 4.1 240 03:37 08.12.2019
3061 Clouds 4 1018 75 10000 3.6 260 02:40 08.12.2019
3062 Clouds 5 1018 81 10000 4.1 280 01:57 08.12.2019
3063 Clouds 5 1018 81 10000 3.1 250 01:33 08.12.2019
3064 Clouds 5 1019 86 10000 1.5 230 00:45 08.12.2019
3065 Clouds 5 1018 81 10000 2.1 250 00:21 08.12.2019
3066 Clouds 5 1019 75 10000 1.5 220 23:55 07.12.2019
3067 Clouds 5 1019 75 10000 1 210 23:36 07.12.2019
3068 Clouds 5 1019 75 10000 1 210 23:18 07.12.2019
3069 Clouds 5 1018 75 10000 2.6 250 22:54 07.12.2019
3070 Clouds 5 1018 70 10000 3.1 250 22:36 07.12.2019
3071 Clouds 5 1018 70 10000 3.1 250 22:18 07.12.2019
3072 Clouds 5 1019 75 10000 1.5 240 21:54 07.12.2019
3073 Clouds 5 1018 75 10000 3.6 260 21:36 07.12.2019
3074 Clouds 5 1018 75 10000 3.6 260 21:18 07.12.2019
3075 Clouds 5 1018 75 10000 3.1 250 20:38 07.12.2019
3076 Clouds 5 1018 75 10000 3.6 260 20:20 07.12.2019
3077 Clouds 5 1018 75 10000 3.6 260 19:57 07.12.2019
3078 Clouds 5 1017 75 10000 4.6 270 19:39 07.12.2019
3079 Clouds 5 1017 75 10000 4.6 270 19:21 07.12.2019
3080 Clouds 5 1017 75 10000 4.6 270 19:21 07.12.2019
3081 Clouds 5 1017 75 10000 4.6 290 18:58 07.12.2019
3082 Clouds 5 1017 70 10000 5.7 270 18:39 07.12.2019
3083 Clouds 6 1017 70 10000 5.7 270 18:18 07.12.2019
3084 Clouds 5 1017 70 10000 7.2 280 17:55 07.12.2019
3085 Clouds 6 1017 70 10000 4.1 270 17:37 07.12.2019
3086 Clouds 6 1017 70 10000 4.1 270 17:18 07.12.2019
3087 Clouds 7 1016 70 10000 5.1 280 16:55 07.12.2019
3088 Clouds 7 1016 70 10000 5.7 270 16:36 07.12.2019
3089 Clouds 7 1016 70 10000 5.7 270 16:18 07.12.2019
3090 Clouds 6 1016 70 10000 4.1 260 15:40 07.12.2019
3091 Clouds 6 1016 70 10000 4.1 260 15:40 07.12.2019
3092 Clouds 6 1016 80 10000 3.6 230 15:22 07.12.2019
3093 Clouds 5 1016 86 10000 5.1 180 14:43 07.12.2019
3094 Clouds 7 1016 86 10000 5.1 180 14:20 07.12.2019
3095 Clouds 7 1015 86 10000 4.1 160 13:59 07.12.2019
3096 Clouds 7 1016 86 10000 2.1 110 13:39 07.12.2019
3097 Clouds 7 1016 86 10000 2.1 110 13:20 07.12.2019
3098 Clouds 7 1016 72 10000 2.1 140 12:55 07.12.2019
3099 Clouds 7 1016 72 8000 2.1 0 12:36 07.12.2019
3100 Clouds 7 1016 72 8000 2.1 0 12:18 07.12.2019
3101 Clouds 6 1017 72 8000 3.6 210 11:41 07.12.2019
3102 Clouds 4 1017 70 8000 3.6 210 11:23 07.12.2019
3103 Clouds 4 1017 70 7000 4.1 190 10:56 07.12.2019
3104 Mist 3 1017 100 4400 3.6 180 10:36 07.12.2019
3105 Mist 2 1017 100 4000 2.6 190 10:18 07.12.2019
3106 Mist 1 1017 100 3400 3.6 180 09:39 07.12.2019
3107 Mist 2 1017 100 3400 3.6 180 09:21 07.12.2019
3108 Mist 1 1016 92 2500 3.6 200 08:46 07.12.2019
3109 Mist 2 1017 100 3200 3.1 170 08:46 07.12.2019
3110 Mist 0 1016 92 2500 3.6 200 08:25 07.12.2019
3111 Mist 0 1016 92 2500 3.6 200 08:25 07.12.2019
3112 Mist 0 1016 100 2500 5.1 160 07:53 07.12.2019
3113 Mist -1 1016 100 1500 3.6 160 07:30 07.12.2019
3114 Mist -1 1016 92 4800 3.6 160 06:53 07.12.2019
3115 Mist -1 1017 92 4500 3.1 200 06:28 07.12.2019
3116 Mist -1 1016 92 4600 3.1 170 05:50 07.12.2019
3117 Mist -2 1016 92 4500 3.1 190 04:48 07.12.2019
3118 Clouds -2 1017 92 6000 4.1 170 03:52 07.12.2019
3119 Clouds -2 1018 92 6000 3.6 160 02:47 07.12.2019
3120 Clouds -2 1018 92 6000 4.6 150 02:18 07.12.2019
3121 Clouds -2 1018 92 6000 4.1 150 01:30 07.12.2019
3122 Mist -2 1018 92 5000 4.6 150 00:43 07.12.2019
3123 Clouds -2 1018 92 6000 4.1 140 00:19 07.12.2019
3124 Clouds -1 1019 92 6000 4.1 150 23:45 06.12.2019
3125 Clouds -2 1019 92 6000 3.6 160 23:23 06.12.2019
3126 -273 0 0 0 0 0 22:58 06.12.2019
3127 Clouds -2 1019 92 6000 4.1 160 22:37 06.12.2019
3128 Clouds -1 1019 92 6000 4.1 160 22:18 06.12.2019
3129 Clouds -1 1019 92 6000 5.1 150 21:56 06.12.2019
3130 Clouds -1 1019 92 6000 5.7 160 21:37 06.12.2019
3131 Clouds -1 1019 92 6000 5.7 160 21:19 06.12.2019
3132 Clouds -1 1020 92 6000 4.6 160 20:42 06.12.2019
3133 Clouds -2 1020 92 6000 4.6 160 20:21 06.12.2019
3134 Clouds -1 1020 92 6000 4.6 160 19:57 06.12.2019
3135 Clouds -1 1020 92 6000 4.6 150 19:38 06.12.2019
3136 Clouds -1 1020 92 6000 4.6 150 19:20 06.12.2019
3137 Clouds -1 1020 92 6000 4.1 150 18:44 06.12.2019
3138 Clouds -1 1020 92 6000 4.1 150 18:23 06.12.2019
3139 Clouds -1 1020 92 6000 4.1 150 18:23 06.12.2019
3140 Clouds -1 1020 92 7000 4.1 150 17:58 06.12.2019
3141 Clouds -1 1021 83 7000 5.1 160 17:40 06.12.2019
3142 Clouds -1 1021 82 7000 5.1 160 17:22 06.12.2019
3143 Clouds -1 1021 82 7000 4.1 150 16:59 06.12.2019
3144 Clouds -1 1021 82 7000 4.1 140 16:40 06.12.2019
3145 Clouds -1 1021 82 7000 4.1 140 16:21 06.12.2019
3146 Clouds -1 1021 82 8000 4.1 150 15:42 06.12.2019
3147 Clouds 0 1021 82 8000 4.1 150 15:24 06.12.2019
3148 Clouds 0 1021 82 8000 4.1 140 14:59 06.12.2019
3149 Clouds 0 1021 82 8000 3.6 150 14:41 06.12.2019
3150 Clouds 1 1021 69 8000 3.6 150 14:20 06.12.2019
3151 Clouds 1 1022 69 8000 4.1 160 13:58 06.12.2019
3152 Clouds 1 1022 68 8000 4.6 150 13:40 06.12.2019
3153 Clouds 1 1022 68 8000 4.6 150 13:21 06.12.2019
3154 Clouds 1 1022 68 8000 4.6 150 13:21 06.12.2019
3155 Clouds 1 1023 68 8000 4.1 160 12:40 06.12.2019
3156 Clouds 1 1023 68 8000 4.1 160 12:21 06.12.2019
3157 Clouds 1 1023 68 8000 3.6 150 11:43 06.12.2019
3158 Clouds 1 1023 78 8000 3.6 150 11:23 06.12.2019
3159 Clouds 1 1024 78 8000 4.1 160 10:59 06.12.2019
3160 Clouds 0 1024 86 8000 4.1 160 10:40 06.12.2019
3161 Clouds 0 1024 86 8000 4.1 160 10:21 06.12.2019
3162 Clouds 0 1023 86 8000 4.1 160 09:56 06.12.2019
3163 Clouds 0 1024 86 9000 3.6 170 09:37 06.12.2019
3164 Clouds 0 1024 86 9000 3.6 170 09:19 06.12.2019
3165 Clouds 0 1024 86 9000 3.6 170 09:19 06.12.2019
3166 Clouds -1 1024 86 9000 3.6 170 08:44 06.12.2019
3167 Clouds -1 1024 86 9000 3.6 170 08:44 06.12.2019
3168 Clouds -1 1024 86 9000 3.1 170 08:25 06.12.2019
3169 Clouds -1 1024 80 9000 3.1 170 07:44 06.12.2019
3170 Clouds -1 1024 80 9000 3.1 170 07:23 06.12.2019
3171 Clouds -1 1024 80 9000 3.1 170 07:23 06.12.2019
3172 Clouds -1 1024 80 9000 3.1 170 07:23 06.12.2019
3173 Clouds -1 1024 80 9000 3.1 170 07:23 06.12.2019
3174 Clouds -1 1023 80 9000 3.6 160 07:23 06.12.2019
3175 Clouds -1 1023 80 9000 3.6 160 06:55 06.12.2019
3176 Clouds -1 1023 86 9000 3.1 150 06:26 06.12.2019
3177 Clouds -1 1024 86 8000 3.6 160 05:52 06.12.2019
3178 Clouds -1 1024 80 9000 4.1 150 04:34 06.12.2019
3179 Clouds -1 1024 86 8000 4.1 140 01:48 06.12.2019
3180 Clouds -1 1025 86 7000 3.6 140 00:57 06.12.2019
3181 Clouds -1 1025 86 7000 4.6 140 00:37 06.12.2019
3182 Clouds -1 1025 86 7000 4.6 140 00:19 06.12.2019
3183 Clouds -1 1025 86 8000 5.1 140 23:37 05.12.2019
3184 Clouds -1 1025 86 8000 5.1 140 23:18 05.12.2019
3185 Clouds -1 1025 86 8000 5.7 140 22:55 05.12.2019
3186 Clouds -1 1025 80 8000 5.1 140 22:36 05.12.2019
3187 Clouds -1 1025 86 9000 3.6 140 22:18 05.12.2019
3188 Clouds -1 1025 80 9000 5.1 140 21:42 05.12.2019
3189 Clouds -1 1025 80 9000 5.1 140 21:23 05.12.2019
3190 Clouds -1 1026 86 8000 5.1 140 20:58 05.12.2019
3191 Clouds -1 1027 92 8000 4.1 130 20:40 05.12.2019
3192 Clouds -1 1025 86 8000 5.7 140 20:19 05.12.2019
3193 Clouds -1 1025 86 7000 6.2 140 19:44 05.12.2019
3194 Clouds -1 1026 86 8000 6.2 140 19:26 05.12.2019
3195 Clouds -1 1026 86 8000 6.2 140 18:59 05.12.2019
3196 Clouds -1 1026 86 8000 6.7 140 18:39 05.12.2019
3197 Clouds -1 1026 80 9000 6.7 140 18:21 05.12.2019
3198 Clouds -1 1026 80 9000 6.7 140 17:59 05.12.2019
3199 Clouds -1 1026 80 9000 6.7 140 17:38 05.12.2019
3200 Clouds -1 1025 80 10000 7.2 140 17:19 05.12.2019
3201 Clouds -1 1025 86 9000 6.7 140 16:55 05.12.2019
3202 Clouds 0 1025 86 9000 6.7 140 16:37 05.12.2019
3203 Clouds 0 1025 86 10000 6.7 140 16:18 05.12.2019
3204 Clouds 0 1025 86 10000 6.7 140 15:55 05.12.2019
3205 Clouds 0 1025 77 10000 6.7 140 15:37 05.12.2019
3206 Clouds 0 1025 77 10000 7.2 140 15:18 05.12.2019
3207 Clouds 0 1026 77 10000 6.7 140 14:54 05.12.2019
3208 Clouds 0 1026 77 10000 6.7 140 14:36 05.12.2019
3209 Clouds 1 1026 65 10000 7.2 140 14:18 05.12.2019
3210 Clouds 1 1026 65 10000 7.7 150 13:55 05.12.2019
3211 Clouds 1 1026 65 10000 7.7 150 13:36 05.12.2019
3212 Clouds 1 1026 65 10000 6.7 150 13:18 05.12.2019
3213 Clouds 1 1026 65 10000 6.2 150 12:43 05.12.2019
3214 Clouds 1 1026 65 10000 7.2 150 12:23 05.12.2019
3215 Clouds 1 1027 65 10000 8.2 150 11:56 05.12.2019
3216 Clouds 0 1027 65 10000 8.2 150 11:38 05.12.2019
3217 Clouds 0 1027 70 10000 6.7 150 11:20 05.12.2019
3218 Clouds 0 1027 80 10000 7.7 150 10:56 05.12.2019
3219 Clouds 0 1027 80 10000 7.7 150 10:38 05.12.2019
3220 Clouds 0 1027 80 10000 7.2 150 10:18 05.12.2019
3221 Clouds -1 1026 86 10000 8.2 140 09:45 05.12.2019
3222 Clouds -1 1026 80 10000 8.2 140 09:21 05.12.2019
3223 Clouds -1 1026 80 10000 8.2 140 08:58 05.12.2019
3224 Clouds -1 1026 80 10000 8.2 140 08:38 05.12.2019
3225 Clouds -1 1026 80 10000 8.2 140 08:19 05.12.2019
3226 Clouds -1 1026 80 10000 8.2 140 08:19 05.12.2019
3227 Clouds -1 1026 80 10000 9.3 140 07:50 05.12.2019
3228 Clouds -1 1026 80 10000 9.3 140 07:32 05.12.2019
3229 Clouds -1 1025 80 10000 9.8 140 06:57 05.12.2019
3230 Clouds -1 1025 80 10000 9.8 140 06:38 05.12.2019
3231 Clouds -1 1025 80 10000 9.8 140 06:19 05.12.2019
3232 Clouds -1 1025 80 10000 10.3 140 05:47 05.12.2019
3233 Clouds -2 1025 86 10000 12.3 130 05:22 05.12.2019
3234 Clouds -2 1025 92 8000 11.3 130 03:59 05.12.2019
3235 Clouds -2 1025 92 8000 11.3 130 03:59 05.12.2019
3236 Clouds -2 1026 92 8000 10.3 130 02:43 05.12.2019
3237 Clouds -1 1026 92 8000 10.3 130 02:24 05.12.2019
3238 Clouds -1 1026 92 7000 9.8 130 01:52 05.12.2019
3239 Clouds -1 1026 92 7000 10.3 130 01:24 05.12.2019
3240 Clouds -1 1026 92 7000 9.8 130 00:50 05.12.2019
3241 Clouds -1 1026 92 7000 10.8 130 00:31 05.12.2019
3242 Clouds -1 1026 92 7000 10.8 130 23:57 04.12.2019
3243 Clouds -1 1026 92 7000 10.3 130 23:39 04.12.2019
3244 Clouds -1 1027 92 7000 10.3 130 23:20 04.12.2019
3245 Clouds -1 1027 92 8000 9.3 130 22:55 04.12.2019
3246 Clouds -1 1027 92 8000 9.3 130 22:36 04.12.2019
3247 Clouds -1 1027 92 6000 9.8 130 22:18 04.12.2019
3248 Clouds -2 1027 92 8000 9.8 130 21:54 04.12.2019
3249 Clouds -1 1027 92 8000 9.8 130 21:36 04.12.2019
3250 Clouds -1 1027 92 7000 9.3 130 21:18 04.12.2019
3251 Clouds -1 1027 92 7000 9.3 130 20:54 04.12.2019
3252 Clouds -1 1027 92 7000 9.3 130 20:36 04.12.2019
3253 Rain -1 1027 92 6000 8.7 130 20:18 04.12.2019
3254 Clouds -1 1027 92 6000 8.7 130 20:18 04.12.2019
3255 Rain -1 1027 92 7000 8.2 130 19:39 04.12.2019
3256 Rain -1 1027 86 8000 7.7 130 19:21 04.12.2019
3257 Clouds -1 1027 86 9000 7.7 130 18:57 04.12.2019
3258 Clouds -1 1027 86 9000 7.7 130 18:39 04.12.2019
3259 Clouds -1 1027 86 10000 9.3 120 18:20 04.12.2019
3260 Clouds -1 1026 86 10000 8.7 120 17:40 04.12.2019
3261 Clouds 0 1026 86 10000 7.2 120 17:22 04.12.2019
3262 Clouds 0 1026 70 10000 6.7 120 16:59 04.12.2019
3263 Clouds 0 1026 70 10000 6.7 120 16:59 04.12.2019
3264 Clouds 0 1026 70 10000 6.7 120 16:40 04.12.2019
3265 Clouds 0 1026 70 10000 6.7 120 16:40 04.12.2019
3266 Clouds 0 1026 70 10000 6.7 120 16:40 04.12.2019
3267 Clear 0 1026 74 10000 7.7 120 16:20 04.12.2019
3268 Clear 0 1026 69 10000 6.7 120 15:56 04.12.2019
3269 Clear 1 1026 69 10000 6.7 120 15:38 04.12.2019
3270 Clear 0 1026 64 10000 8.2 120 15:19 04.12.2019
3271 Clear 1 1026 64 10000 7.7 130 14:54 04.12.2019
3272 Clear 1 1026 64 10000 7.7 130 14:36 04.12.2019
3273 Clear 3 1026 69 10000 7.7 120 14:18 04.12.2019
3274 Rain 3 1026 69 10000 8.7 120 13:38 04.12.2019
3275 Rain 3 1027 69 10000 7.2 130 13:20 04.12.2019
3276 Rain 3 1027 69 10000 7.2 130 13:20 04.12.2019
3277 Rain 3 1027 74 10000 6.2 130 12:45 04.12.2019
3278 Rain 3 1027 74 10000 5.7 120 12:25 04.12.2019
3279 Clear 3 1027 74 10000 5.7 120 11:59 04.12.2019
3280 Clear 3 1028 80 10000 6.2 120 11:41 04.12.2019
3281 Clear 1 1028 69 10000 5.1 120 11:22 04.12.2019
3282 Clear 1 1029 86 10000 6.2 120 10:44 04.12.2019
3283 Clear 0 1028 86 10000 5.1 120 10:24 04.12.2019
3284 Clear 0 1028 86 10000 5.1 120 10:24 04.12.2019
3285 Clear 0 1028 80 10000 4.1 110 09:58 04.12.2019
3286 Clear 0 1028 80 10000 4.1 110 09:39 04.12.2019
3287 Clear 0 1028 86 10000 3.6 120 09:21 04.12.2019
3288 Clear -1 1028 79 10000 3.6 110 08:43 04.12.2019
3289 Clear -3 1028 86 10000 4.1 130 08:25 04.12.2019
3290 Clear -3 1028 86 10000 2.6 130 07:51 04.12.2019
3291 Clear -3 1028 86 10000 4.1 150 07:31 04.12.2019
3292 Clear -3 1028 92 10000 2.6 120 06:57 04.12.2019
3293 Clouds -3 1028 92 9000 2.6 140 06:31 04.12.2019
3294 Clouds -3 1028 92 8000 2.6 150 05:46 04.12.2019
3295 Clouds -3 1028 85 8000 1.5 180 04:34 04.12.2019
3296 Clouds -2 1028 92 10000 2.1 160 03:51 04.12.2019
3297 Clouds -2 1029 92 10000 2.6 180 01:49 04.12.2019
3298 Clouds -1 1029 92 10000 3.6 170 00:48 04.12.2019
3299 Clouds -1 1029 92 10000 2.6 160 00:22 04.12.2019
3300 Clouds -1 1029 92 10000 3.1 170 23:45 03.12.2019
3301 Clouds -1 1029 92 10000 1.5 170 23:20 03.12.2019
3302 Clouds -1 1029 92 10000 1.5 170 22:59 03.12.2019
3303 Clouds -1 1029 86 10000 1 200 22:39 03.12.2019
3304 Clouds -1 1029 84 10000 1 0 22:18 03.12.2019
3305 Clouds -1 1029 84 10000 1 0 21:57 03.12.2019
3306 Clouds -1 1029 86 10000 1.5 150 21:37 03.12.2019
3307 Clouds -1 1029 84 10000 0.5 0 21:18 03.12.2019
3308 Clouds -1 1029 80 10000 1.5 310 20:54 03.12.2019
3309 Clouds -1 1029 83 10000 1.5 300 20:36 03.12.2019
3310 Clouds -1 1029 81 10000 1.5 300 20:18 03.12.2019
3311 Clouds -1 1028 74 10000 2.1 320 19:54 03.12.2019
3312 Clouds 0 1028 74 10000 2.1 320 19:36 03.12.2019
3313 Clouds 0 1028 74 10000 1.5 340 19:18 03.12.2019
3314 Clouds 0 1028 69 10000 2.1 310 18:54 03.12.2019
3315 Clouds 0 1028 69 10000 2.1 310 18:36 03.12.2019
3316 Clouds 0 1028 64 10000 2.6 310 18:18 03.12.2019
3317 Clouds 0 1028 64 10000 2.6 310 17:39 03.12.2019
3318 Clouds 1 1028 59 10000 2.6 320 17:18 03.12.2019
3319 Clouds 1 1028 59 10000 2.6 320 16:58 03.12.2019
3320 Clouds 2 1028 59 10000 2.6 320 16:39 03.12.2019
3321 Clouds 2 1027 59 10000 3.1 330 16:21 03.12.2019
3322 Clouds 1 1027 59 10000 3.6 320 15:58 03.12.2019
3323 Clouds 2 1027 59 10000 3.6 320 15:38 03.12.2019
3324 Clouds 4 1027 55 10000 4.1 320 15:19 03.12.2019
3325 Clouds 4 1027 52 10000 5.7 330 14:44 03.12.2019
3326 Clouds 4 1027 52 10000 6.2 340 14:21 03.12.2019
3327 Clouds 4 1027 52 10000 6.2 340 13:59 03.12.2019
3328 Clouds 4 1027 55 10000 5.7 340 13:38 03.12.2019
3329 Rain 4 1027 55 10000 7.2 330 13:19 03.12.2019
3330 Rain 4 1027 55 10000 7.2 330 12:57 03.12.2019
3331 Rain 4 1027 60 10000 7.2 310 12:37 03.12.2019
3332 Rain 4 1027 68 10000 6.2 300 12:18 03.12.2019
3333 Rain 4 1027 68 10000 6.2 300 11:55 03.12.2019
3334 Clouds 4 1027 68 10000 5.7 300 11:37 03.12.2019
3335 Clouds 3 1028 67 10000 5.7 290 11:18 03.12.2019
3336 Clouds 3 1028 86 10000 4.1 300 10:43 03.12.2019
3337 Snow 3 1028 67 10000 4.1 310 10:21 03.12.2019
3338 Snow 3 1027 74 7000 6.7 310 09:59 03.12.2019
3339 Snow 3 1027 74 7000 6.7 310 09:40 03.12.2019
3340 Clouds 2 1026 69 10000 5.7 290 09:22 03.12.2019
3341 Clouds 2 1026 69 10000 6.2 270 08:56 03.12.2019
3342 Clouds 3 1026 69 10000 6.2 270 08:38 03.12.2019
3343 Clouds 1 1026 69 10000 6.2 280 08:19 03.12.2019
3344 Clouds 1 1026 69 10000 7.7 290 07:50 03.12.2019
3345 Clouds 1 1025 64 10000 6.2 290 07:24 03.12.2019
3346 Clouds 1 1025 64 10000 7.2 300 06:24 03.12.2019
3347 Clouds 1 1025 64 10000 7.2 300 06:24 03.12.2019
3348 Clouds 1 1025 64 10000 5.1 290 05:59 03.12.2019
3349 Clouds 2 1024 64 10000 6.7 280 04:55 03.12.2019
3350 Clouds 2 1025 64 10000 6.7 290 03:41 03.12.2019
3351 Clouds 2 1024 64 10000 7.2 290 03:20 03.12.2019
3352 Clouds 2 1024 64 10000 6.2 270 02:50 03.12.2019
3353 Clouds 2 1024 69 10000 6.2 260 02:31 03.12.2019
3354 Clouds 2 1024 64 10000 6.2 270 01:53 03.12.2019
3355 Clouds 2 1024 64 10000 6.2 270 01:34 03.12.2019
3356 Clouds 1 1024 64 10000 7.2 270 00:57 03.12.2019
3357 Clouds 1 1025 69 10000 5.7 260 00:39 03.12.2019
3358 Clouds 1 1025 69 10000 5.7 270 00:20 03.12.2019
3359 Clouds 1 1025 69 10000 5.1 270 23:43 02.12.2019
3360 Clouds 1 1025 69 10000 4.6 270 23:20 02.12.2019
3361 Clouds 1 1025 69 10000 4.6 270 23:20 02.12.2019
3362 Clouds 1 1024 69 10000 5.1 280 22:43 02.12.2019
3363 Clouds 1 1024 69 10000 6.2 280 22:23 02.12.2019
3364 Clouds 2 1024 69 10000 6.2 280 21:59 02.12.2019
3365 Clouds 2 1024 69 10000 6.2 280 21:59 02.12.2019
3366 Clouds 2 1024 69 10000 7.2 280 21:39 02.12.2019
3367 Clouds 2 1024 69 10000 8.2 280 21:19 02.12.2019
3368 Clouds 2 1024 60 10000 7.2 280 20:57 02.12.2019
3369 Clouds 2 1024 60 10000 7.2 280 20:38 02.12.2019
3370 Clouds 2 1023 64 10000 6.2 280 20:20 02.12.2019
3371 Clouds 2 1023 60 10000 6.7 290 19:56 02.12.2019
3372 Clouds 2 1023 60 10000 6.7 290 19:38 02.12.2019
3373 Clouds 2 1023 60 10000 7.7 300 19:19 02.12.2019
3374 Clouds 3 1023 60 10000 8.2 300 18:46 02.12.2019
3375 Clouds 3 1023 64 10000 6.7 300 18:21 02.12.2019
3376 Clouds 3 1022 64 10000 7.7 300 17:59 02.12.2019
3377 Clouds 2 1022 64 10000 7.7 300 17:40 02.12.2019
3378 Clouds 2 1022 64 10000 7.7 310 17:20 02.12.2019
3379 Clouds 2 1022 69 10000 7.2 310 16:55 02.12.2019
3380 Clouds 2 1022 69 10000 7.2 310 16:36 02.12.2019
3381 Clouds 2 1022 69 10000 6.7 310 16:18 02.12.2019
3382 Clouds 2 1022 74 10000 5.7 310 15:55 02.12.2019
3383 Clouds 2 1022 74 10000 5.7 310 15:37 02.12.2019
3384 Rain 2 1021 69 10000 5.7 320 15:18 02.12.2019
3385 Clouds 3 1021 74 10000 7.7 320 14:39 02.12.2019
3386 Clouds 3 1021 65 10000 6.7 320 14:20 02.12.2019
3387 Clouds 3 1021 65 10000 6.7 320 13:58 02.12.2019
3388 Clouds 3 1021 65 10000 8.7 320 13:40 02.12.2019
3389 Clouds 2 1020 65 10000 7.2 320 13:20 02.12.2019
3390 Clouds 2 1020 65 10000 7.2 320 13:20 02.12.2019
3391 Clouds 2 1020 65 10000 7.2 320 12:59 02.12.2019
3392 Clouds 2 1020 65 10000 8.7 320 12:40 02.12.2019
3393 Clouds 2 1020 86 10000 7.2 320 12:20 02.12.2019
3394 Clouds 2 1020 93 10000 5.1 320 11:56 02.12.2019
3395 Clouds 2 1020 93 10000 5.1 320 11:37 02.12.2019
3396 Clouds 1 1019 93 10000 4.1 330 11:18 02.12.2019
3397 Drizzle 1 1019 93 10000 4.6 320 10:55 02.12.2019
3398 Drizzle 1 1019 93 10000 4.6 320 10:37 02.12.2019
3399 Rain 1 1019 95 10000 2.6 330 10:19 02.12.2019
3400 Mist 1 1019 95 8000 2.1 320 09:41 02.12.2019
3401 Snow 1 1018 95 4000 1.5 360 09:19 02.12.2019
3402 Snow 1 1018 95 3600 1.5 340 08:57 02.12.2019
3403 Rain 0 1018 95 3600 1.5 340 08:39 02.12.2019
3404 Rain 0 1018 96 2700 1.5 320 08:21 02.12.2019
3405 Rain 0 1017 96 2500 1 0 07:44 02.12.2019
3406 Rain 0 1017 96 2800 1 360 07:21 02.12.2019
3407 Rain 0 1017 96 2800 1 360 07:21 02.12.2019
3408 Rain 0 1017 96 2800 1 360 06:57 02.12.2019
3409 Rain 0 1017 96 4500 1 0 06:38 02.12.2019
3410 Rain 1 1017 96 4600 2.1 110 05:36 02.12.2019
3411 Clouds 1 1017 87 8000 3.6 120 04:40 02.12.2019
3412 Clouds 1 1017 87 10000 6.2 130 02:54 02.12.2019
3413 Clouds 1 1017 87 10000 6.2 130 02:31 02.12.2019
3414 Rain 2 1017 73 10000 6.7 140 01:27 02.12.2019
3415 Clouds 2 1017 80 10000 7.2 140 00:58 02.12.2019
3416 Rain 2 1017 80 10000 7.7 140 00:25 02.12.2019
3417 Rain 2 1017 80 10000 7.7 140 23:56 01.12.2019
3418 Clouds 2 1017 74 10000 8.2 140 23:38 01.12.2019
3419 Clouds 2 1017 69 10000 6.7 140 23:19 01.12.2019
3420 Clouds 2 1017 69 10000 8.2 140 22:55 01.12.2019
3421 Clouds 2 1017 69 10000 8.2 140 22:37 01.12.2019
3422 Clouds 2 1018 69 10000 8.2 140 22:18 01.12.2019
3423 Clouds 2 1018 69 10000 7.7 140 21:55 01.12.2019
3424 Clouds 2 1018 69 10000 7.7 140 21:37 01.12.2019
3425 Clouds 2 1018 69 10000 7.7 130 21:18 01.12.2019
3426 Clouds 2 1018 69 10000 7.2 140 20:55 01.12.2019
3427 Clouds 2 1018 69 10000 7.2 140 20:37 01.12.2019
3428 Clouds 2 1019 74 10000 6.2 130 20:19 01.12.2019
3429 Clouds 2 1019 74 10000 6.2 120 19:54 01.12.2019
3430 Clouds 2 1019 69 10000 6.7 130 19:36 01.12.2019
3431 Clouds 3 1019 69 10000 6.7 130 19:18 01.12.2019
3432 Clouds 3 1019 64 10000 7.7 130 18:54 01.12.2019
3433 Clouds 3 1019 64 10000 7.7 130 18:36 01.12.2019
3434 Clouds 3 1019 69 10000 7.7 140 18:18 01.12.2019
3435 Clouds 3 1019 69 10000 7.7 140 17:55 01.12.2019
3436 Clouds 3 1019 69 10000 7.7 140 17:37 01.12.2019
3437 Clouds 3 1019 64 10000 8.2 140 17:19 01.12.2019
3438 Clouds 3 1019 64 10000 8.7 140 16:42 01.12.2019
3439 Clouds 3 1019 69 10000 8.2 130 16:23 01.12.2019
3440 Clouds 3 1019 69 10000 8.2 130 15:51 01.12.2019
3441 Clouds 3 1019 69 10000 8.7 130 15:33 01.12.2019
3442 Clouds 3 1019 69 10000 8.2 130 15:33 01.12.2019
3443 Clouds 3 1019 69 10000 8.2 130 15:32 01.12.2019
3444 Clouds 3 1020 69 10000 9.3 130 14:56 01.12.2019
3445 Clouds 3 1020 69 10000 9.3 130 14:37 01.12.2019
3446 Clouds 4 1020 65 10000 9.3 130 14:18 01.12.2019
3447 Clouds 4 1020 65 10000 9.8 130 13:40 01.12.2019
3448 Clouds 4 1021 64 10000 8.7 130 13:20 01.12.2019
3449 Clouds 3 1021 64 10000 6.7 120 12:46 01.12.2019
3450 Clouds 3 1021 80 10000 7.7 120 12:18 01.12.2019
3451 Clouds 3 1021 80 10000 7.7 120 12:18 01.12.2019
3452 Clouds 3 1021 80 10000 7.7 120 12:18 01.12.2019
3453 Clouds 3 1021 80 10000 7.7 120 12:18 01.12.2019
3454 Clouds 3 1021 80 10000 7.7 120 12:18 01.12.2019
3455 Rain 2 1022 86 10000 7.7 120 11:43 01.12.2019
3456 Rain 2 1022 86 10000 7.7 120 11:43 01.12.2019
3457 Clouds 2 1022 86 10000 7.7 120 11:43 01.12.2019
3458 Rain 2 1022 86 10000 7.7 120 11:43 01.12.2019
3459 Rain 2 1022 86 10000 7.2 120 11:24 01.12.2019
3460 Rain 1 1023 75 10000 4.6 120 10:45 01.12.2019
3461 Rain 1 1023 92 10000 5.7 120 10:22 01.12.2019
3462 Clouds 0 1023 92 10000 5.7 120 09:59 01.12.2019
3463 Clouds 0 1024 92 10000 5.1 110 09:40 01.12.2019
3464 Clouds -1 1024 92 10000 5.1 110 09:21 01.12.2019
3465 Clouds -1 1024 92 10000 4.6 110 08:48 01.12.2019
3466 Clouds -2 1024 92 10000 4.6 120 08:21 01.12.2019
3467 Clouds -2 1024 88 10000 3.1 110 07:52 01.12.2019
3468 Clouds -2 1024 88 10000 2.6 120 07:31 01.12.2019
3469 Clouds -3 1024 86 10000 3.1 160 06:57 01.12.2019
3470 Clouds -3 1024 86 10000 2.6 110 06:35 01.12.2019
3471 Clouds -3 1024 92 10000 1.5 100 05:49 01.12.2019
3472 Clear -3 1024 92 10000 2.1 140 04:53 01.12.2019
3473 Clear -3 1025 92 10000 2.1 180 03:39 01.12.2019
3474 Clear -2 1025 92 10000 2.1 150 02:38 01.12.2019
3475 Clear -2 1025 86 10000 2.6 190 02:19 01.12.2019
3476 Clear -2 1025 86 10000 3.1 170 01:52 01.12.2019
3477 Clear -2 1025 86 10000 2.6 190 01:26 01.12.2019
3478 Clear -2 1025 92 10000 2.6 170 00:43 01.12.2019
3479 Clear -2 1025 92 10000 3.6 180 00:24 01.12.2019
3480 Clear -1 1025 86 10000 2.6 190 23:44 30.11.2019
3481 Clear -1 1025 86 10000 2.1 170 23:24 30.11.2019
3482 Clear -1 1025 74 10000 1.5 290 22:57 30.11.2019
3483 Clear -1 1025 74 10000 1.5 290 22:38 30.11.2019
3484 Clear -1 1025 80 10000 2.1 300 22:19 30.11.2019
3485 Clear 0 1025 80 10000 2.1 300 21:44 30.11.2019
3486 Clear 0 1025 80 10000 2.1 330 21:25 30.11.2019
3487 Clear 0 1025 80 10000 2.1 330 20:57 30.11.2019
3488 Clear 0 1025 80 10000 1.5 330 20:38 30.11.2019
3489 Clouds 1 1024 86 10000 1 350 20:19 30.11.2019
3490 Clouds 1 1024 80 10000 1 340 19:56 30.11.2019
3491 Clouds 1 1024 80 10000 1 340 19:38 30.11.2019
3492 Clouds 1 1024 80 10000 2.6 340 19:19 30.11.2019
3493 Clouds 1 1024 74 10000 3.6 320 18:57 30.11.2019
3494 Clouds 1 1024 74 10000 3.6 320 18:38 30.11.2019
3495 Clouds 1 1024 70 10000 3.6 320 18:19 30.11.2019
3496 Clouds 1 1024 70 10000 3.6 320 17:57 30.11.2019
3497 Clouds 2 1024 74 10000 3.1 340 17:38 30.11.2019
3498 Clouds 3 1023 69 10000 3.6 340 17:19 30.11.2019
3499 Clouds 3 1023 66 10000 4.1 320 16:56 30.11.2019
3500 Clouds 3 1023 66 10000 4.1 320 16:56 30.11.2019
3501 Clouds 3 1023 66 10000 4.1 320 16:56 30.11.2019
3502 Rain 3 1023 66 10000 4.1 320 16:38 30.11.2019
3503 Rain 3 1023 65 10000 4.6 320 16:19 30.11.2019
3504 Rain 4 1023 65 10000 6.2 330 15:42 30.11.2019
3505 Rain 4 1023 65 10000 6.2 330 15:42 30.11.2019
3506 Clouds 4 1022 66 10000 5.7 350 15:19 30.11.2019
3507 Clouds 5 1022 60 10000 4.6 360 14:57 30.11.2019
3508 Clouds 5 1022 60 10000 4.6 360 14:38 30.11.2019
3509 Clouds 5 1022 52 10000 5.1 310 14:19 30.11.2019
3510 Clouds 5 1022 56 10000 5.1 330 13:57 30.11.2019
3511 Clouds 6 1022 56 10000 5.1 330 13:38 30.11.2019
3512 Clouds 5 1022 56 10000 5.7 330 13:19 30.11.2019
3513 Clouds 5 1022 56 10000 6.7 320 12:47 30.11.2019
3514 Clouds 5 1022 52 10000 6.7 330 12:28 30.11.2019
3515 Clouds 5 1022 56 10000 8.2 330 11:57 30.11.2019
3516 Clouds 5 1022 52 10000 6.7 330 11:57 30.11.2019
3517 Clouds 5 1022 56 10000 8.2 330 11:38 30.11.2019
3518 Clouds 5 1022 65 10000 6.7 330 11:18 30.11.2019
3519 Clouds 5 1022 69 10000 6.2 330 10:44 30.11.2019
3520 Clouds 5 1022 64 10000 6.2 330 10:21 30.11.2019
3521 Clouds 4 1021 69 10000 5.1 350 09:50 30.11.2019
3522 Clouds 4 1021 69 10000 5.1 350 09:30 30.11.2019
3523 Clouds 3 1020 69 10000 5.1 320 08:56 30.11.2019
3524 Clouds 3 1020 69 10000 5.1 320 08:56 30.11.2019
3525 Clouds 3 1020 69 10000 5.1 320 08:38 30.11.2019
3526 Clouds 2 1020 64 10000 5.1 330 08:18 30.11.2019
3527 Clouds 2 1020 64 10000 6.2 330 07:42 30.11.2019
3528 Clouds 3 1019 69 10000 6.7 330 07:23 30.11.2019
3529 Clouds 3 1019 69 10000 5.1 340 06:45 30.11.2019
3530 Clouds 3 1018 69 10000 7.7 320 06:27 30.11.2019
3531 Clouds 4 1017 65 10000 7.7 300 04:59 30.11.2019
3532 Clouds 4 1016 65 10000 7.7 290 03:38 30.11.2019
3533 Rain 4 1015 60 10000 7.2 300 02:25 30.11.2019
3534 Rain 4 1015 65 10000 6.7 290 01:50 30.11.2019
3535 Rain 4 1014 65 10000 7.2 300 01:24 30.11.2019
3536 Clouds 4 1014 65 10000 7.2 300 00:45 30.11.2019
3537 Clouds 4 1014 65 10000 6.7 300 00:21 30.11.2019
3538 Clouds 5 1013 60 10000 7.2 300 23:44 29.11.2019
3539 Clouds 5 1013 58 10000 6.7 310 23:25 29.11.2019
3540 Clouds 5 1013 64 10000 6.7 310 23:25 29.11.2019
3541 Clouds 5 1013 70 10000 6.7 310 22:49 29.11.2019
3542 Clouds 5 1013 70 10000 6.7 310 22:27 29.11.2019
3543 Rain 6 1012 75 10000 7.7 310 21:58 29.11.2019
3544 Rain 6 1012 81 10000 8.2 320 21:40 29.11.2019
3545 Rain 6 1011 87 10000 8.7 310 21:22 29.11.2019
3546 Rain 6 1010 87 10000 8.7 300 20:56 29.11.2019
3547 Rain 7 1010 87 10000 8.7 300 20:36 29.11.2019
3548 Rain 7 1009 76 10000 9.3 280 20:18 29.11.2019
3549 Rain 8 1009 71 10000 8.7 280 19:54 29.11.2019
3550 Rain 8 1009 71 10000 8.7 280 19:36 29.11.2019
3551 Rain 9 1008 71 10000 9.3 280 19:18 29.11.2019
3552 Rain 9 1008 87 10000 4.1 300 18:41 29.11.2019
3553 Rain 9 1008 87 10000 4.1 300 18:41 29.11.2019
3554 Rain 9 1008 62 10000 7.7 270 18:23 29.11.2019
3555 Rain 9 1008 62 10000 4.6 270 17:56 29.11.2019
3556 Rain 9 1008 62 10000 4.6 270 17:38 29.11.2019
3557 Clouds 10 1007 66 10000 5.7 270 17:19 29.11.2019
3558 Clouds 10 1007 62 10000 6.7 270 16:42 29.11.2019
3559 Clouds 10 1006 58 10000 7.7 280 16:21 29.11.2019
3560 Clouds 11 1006 62 10000 5.1 270 15:56 29.11.2019
3561 Clouds 11 1006 62 10000 5.1 270 15:37 29.11.2019
3562 Clouds 11 1006 62 10000 8.2 270 15:19 29.11.2019
3563 Clouds 11 1006 58 10000 7.7 270 14:40 29.11.2019
3564 Clouds 11 1005 62 10000 6.2 270 14:21 29.11.2019
3565 Rain 11 1005 58 10000 9.3 260 13:56 29.11.2019
3566 Rain 11 1005 58 10000 9.3 260 13:37 29.11.2019
3567 Rain 11 1005 54 10000 9.8 280 13:19 29.11.2019
3568 Clouds 11 1005 54 10000 8.2 280 12:42 29.11.2019
3569 Clouds 11 1005 54 10000 5.1 270 12:24 29.11.2019
3570 Clouds 11 1006 62 10000 5.1 230 11:56 29.11.2019
3571 Clouds 11 1006 62 10000 5.1 230 11:38 29.11.2019
3572 Clouds 11 1006 62 10000 6.2 250 11:18 29.11.2019
3573 Clouds 11 1006 66 10000 5.7 240 10:57 29.11.2019
3574 Clouds 11 1006 66 10000 5.7 240 10:38 29.11.2019
3575 Clouds 10 1006 66 10000 5.1 250 10:20 29.11.2019
3576 Clouds 10 1005 62 10000 7.7 260 09:57 29.11.2019
3577 Clouds 10 1005 62 10000 7.7 260 09:38 29.11.2019
3578 Clouds 10 1005 66 10000 4.6 230 09:20 29.11.2019
3579 Clouds 9 1005 70 10000 5.1 200 08:54 29.11.2019
3580 Clouds 9 1005 70 10000 5.1 200 08:36 29.11.2019
3581 Clouds 8 1005 66 10000 4.6 210 08:18 29.11.2019
3582 Clouds 8 1004 61 10000 4.6 220 07:41 29.11.2019
3583 Clouds 8 1004 66 10000 4.1 230 07:22 29.11.2019
3584 Clouds 8 1004 70 10000 5.1 230 06:46 29.11.2019
3585 Clouds 8 1004 66 10000 6.2 240 06:23 29.11.2019
3586 Clouds 8 1004 61 10000 5.7 240 05:32 29.11.2019
3587 Clouds 8 1004 61 10000 5.7 240 05:32 29.11.2019
3588 Clouds 8 1004 61 10000 4.6 240 04:49 29.11.2019
3589 Clouds 8 1003 61 10000 5.7 260 03:23 29.11.2019
3590 Clouds 8 1003 61 10000 5.1 270 02:53 29.11.2019
3591 Clouds 9 1003 57 10000 6.2 280 02:21 29.11.2019
3592 Clouds 9 1003 66 10000 5.1 270 01:27 29.11.2019
3593 Clouds 8 1003 66 10000 2.6 270 00:51 29.11.2019
3594 Clouds 8 1003 76 10000 4.1 190 00:22 29.11.2019
3595 Clouds 8 1003 71 10000 3.1 230 23:58 28.11.2019
3596 Clouds 8 1003 71 10000 3.1 230 23:39 28.11.2019
3597 Clouds 9 1003 71 10000 5.7 210 23:20 28.11.2019
3598 Clouds 9 1003 71 10000 5.7 210 23:20 28.11.2019
3599 Clouds 9 1003 71 10000 5.7 210 23:20 28.11.2019
3600 Clouds 9 1003 76 10000 5.1 210 22:56 28.11.2019
3601 Clouds 9 1003 76 10000 5.1 210 22:36 28.11.2019
3602 Clouds 9 1003 76 10000 5.7 210 22:18 28.11.2019
3603 Clouds 8 1003 81 10000 6.2 210 21:42 28.11.2019
3604 Clouds 8 1003 87 10000 5.7 200 21:21 28.11.2019
3605 Clouds 8 1002 93 10000 4.1 170 20:59 28.11.2019
3606 Clouds 8 1002 93 10000 4.1 170 20:40 28.11.2019
3607 Rain 8 1002 87 10000 4.6 190 20:21 28.11.2019
3608 Rain 8 1002 87 10000 4.6 190 20:21 28.11.2019
3609 Clouds 8 1002 87 10000 4.1 180 19:57 28.11.2019
3610 Clouds 8 1002 87 10000 4.1 180 19:38 28.11.2019
3611 Clouds 9 1002 87 10000 4.6 180 19:19 28.11.2019
3612 Clouds 9 1002 87 10000 4.6 180 19:19 28.11.2019
3613 Clouds 9 1002 93 10000 4.6 180 18:57 28.11.2019
3614 Clouds 9 1002 93 10000 4.6 180 18:39 28.11.2019
3615 Clouds 9 1002 93 10000 4.1 170 18:18 28.11.2019
3616 Clouds 9 1002 93 10000 4.1 170 17:56 28.11.2019
3617 Clouds 9 1002 93 10000 4.1 170 17:38 28.11.2019
3618 Rain 9 1002 87 10000 3.6 170 17:20 28.11.2019
3619 Rain 9 1002 87 10000 3.6 170 16:40 28.11.2019
3620 Mist 9 1002 100 2400 0.5 0 16:19 28.11.2019
3621 Rain 9 1001 93 0 2.38 257 15:58 28.11.2019
3622 Clouds 10 1001 87 10000 3.1 160 15:39 28.11.2019
3623 Clouds 10 1001 87 10000 1 0 15:20 28.11.2019
3624 Rain 10 1001 87 10000 0.5 0 14:58 28.11.2019
3625 Rain 10 1001 87 10000 0.5 0 14:39 28.11.2019
3626 Rain 10 1001 87 10000 0.5 0 14:19 28.11.2019
3627 Rain 10 1001 87 10000 1.5 140 13:43 28.11.2019
3628 Clouds 10 1001 93 10000 3.1 150 13:24 28.11.2019
3629 Clouds 10 1001 93 10000 3.1 150 12:57 28.11.2019
3630 Clouds 9 1002 87 9000 3.1 150 12:38 28.11.2019
3631 Clouds 9 1002 87 8000 3.1 140 12:20 28.11.2019
3632 Clouds 9 1002 87 7000 2.6 140 11:56 28.11.2019
3633 Clouds 9 1002 87 7000 2.6 140 11:37 28.11.2019
3634 Clouds 9 1002 93 8000 2.6 150 11:19 28.11.2019
3635 Clouds 9 1002 93 8000 2.6 150 11:19 28.11.2019
3636 Clouds 8 1002 93 7000 2.6 150 10:42 28.11.2019
3637 Mist 8 1002 93 5000 1.5 120 10:22 28.11.2019
3638 Mist 8 1002 93 5000 1.5 200 09:56 28.11.2019
3639 Mist 7 1002 93 5000 1.5 200 09:38 28.11.2019
3640 Mist 7 1002 93 4500 2.1 200 09:20 28.11.2019
3641 Rain 6 1002 93 4500 1.5 0 08:44 28.11.2019
3642 Rain 6 1002 93 5000 2.6 0 08:22 28.11.2019
3643 Rain 6 1002 93 3500 4.1 140 07:58 28.11.2019
3644 Rain 6 1002 93 3500 4.1 140 07:39 28.11.2019
3645 Rain 6 1002 100 3400 3.6 150 07:21 28.11.2019
3646 Rain 6 1002 100 5000 3.6 160 06:41 28.11.2019
3647 Clouds 6 1002 93 9000 1 150 05:56 28.11.2019
3648 Clouds 6 1002 93 9000 1 150 05:38 28.11.2019
3649 Rain 6 1003 93 9000 3.6 170 04:51 28.11.2019
3650 Rain 6 1003 93 10000 1 0 02:32 28.11.2019
3651 Rain 6 1003 93 10000 1.5 160 01:25 28.11.2019
3652 Rain 6 1003 93 10000 2.1 160 00:42 28.11.2019
3653 Rain 6 1003 93 10000 2.1 180 00:19 28.11.2019
3654 Rain 6 1003 93 10000 2.1 160 23:39 27.11.2019
3655 Rain 6 1003 93 10000 1 140 23:21 27.11.2019
3656 Rain 6 1003 93 10000 0.5 0 22:56 27.11.2019
3657 Rain 6 1003 93 10000 0.5 0 22:38 27.11.2019
3658 Rain 6 1003 93 10000 1 0 22:19 27.11.2019
3659 Rain 6 1003 93 10000 1.5 140 21:56 27.11.2019
3660 Rain 6 1003 93 10000 1.5 140 21:56 27.11.2019
3661 Rain 6 1003 93 10000 1.5 140 21:37 27.11.2019
3662 Rain 6 1003 93 10000 1 0 21:19 27.11.2019
3663 Rain 6 1003 93 10000 2.1 120 20:57 27.11.2019
3664 Rain 6 1003 93 10000 2.1 120 20:37 27.11.2019
3665 Rain 6 1003 93 10000 1 150 20:19 27.11.2019
3666 Rain 6 1003 93 10000 1 160 19:56 27.11.2019
3667 Rain 6 1003 93 10000 1 160 19:37 27.11.2019
3668 Rain 6 1003 93 10000 1 180 19:18 27.11.2019
3669 Rain 6 1002 81 10000 1.5 190 18:56 27.11.2019
3670 Rain 6 1002 81 10000 1.5 190 18:36 27.11.2019
3671 Rain 6 1003 81 10000 2.1 210 18:18 27.11.2019
3672 -273 0 0 0 0 0 17:55 27.11.2019
3673 Rain 7 1002 81 10000 1.5 250 17:36 27.11.2019
3674 Rain 7 1002 81 10000 1.5 220 17:18 27.11.2019
3675 Clouds 7 1002 81 10000 2.6 230 16:55 27.11.2019
3676 Clouds 7 1002 81 10000 2.6 230 16:36 27.11.2019
3677 Clouds 7 1002 81 10000 2.6 260 16:18 27.11.2019
3678 Clouds 7 1002 81 10000 2.1 0 15:55 27.11.2019
3679 Clouds 7 1002 81 10000 2.1 0 15:37 27.11.2019
3680 Clouds 7 1001 81 10000 1.5 170 15:19 27.11.2019
3681 Clouds 7 1001 81 10000 3.1 180 14:55 27.11.2019
3682 Clouds 7 1001 81 10000 3.1 180 14:36 27.11.2019
3683 Clouds 7 1001 87 10000 4.6 150 14:18 27.11.2019
3684 Clouds 7 1001 87 10000 5.1 150 13:55 27.11.2019
3685 Clouds 7 1001 87 10000 5.1 150 13:36 27.11.2019
3686 Clouds 7 1000 93 10000 8.2 130 13:18 27.11.2019
3687 Clouds 7 1001 93 10000 9.3 140 12:41 27.11.2019
3688 Clouds 7 1001 93 9000 9.8 130 12:21 27.11.2019
3689 Clouds 7 1001 87 8000 9.3 140 11:55 27.11.2019
3690 Clouds 7 1002 87 8000 9.3 140 11:36 27.11.2019
3691 Clouds 6 1002 87 8000 9.3 140 11:18 27.11.2019
3692 Clouds 6 1002 87 10000 8.7 140 10:42 27.11.2019
3693 Clouds 6 1002 87 10000 8.7 140 10:42 27.11.2019
3694 Clouds 6 1003 87 10000 9.3 140 10:24 27.11.2019
3695 Clouds 6 1003 87 10000 8.7 140 09:50 27.11.2019
3696 Clouds 6 1003 81 10000 8.2 140 09:27 27.11.2019
3697 Clouds 6 1004 81 10000 8.7 140 08:59 27.11.2019
3698 Clouds 6 1004 81 10000 8.7 140 08:41 27.11.2019
3699 Clouds 6 1004 87 10000 8.7 140 08:22 27.11.2019
3700 Clouds 6 1004 87 10000 9.3 150 07:47 27.11.2019
3701 Clouds 6 1004 87 10000 7.7 140 07:29 27.11.2019
3702 Clouds 6 1005 87 10000 9.3 150 06:54 27.11.2019
3703 Clouds 6 1005 87 10000 6.2 150 06:35 27.11.2019
3704 Clouds 6 1005 87 10000 8.2 140 05:46 27.11.2019
3705 Clouds 6 1006 87 10000 8.2 150 05:21 27.11.2019
3706 Clouds 6 1006 81 10000 7.7 150 04:48 27.11.2019
3707 Clouds 6 1006 81 10000 7.7 150 04:29 27.11.2019
3708 Clouds 6 1007 81 10000 6.2 140 03:40 27.11.2019
3709 Clouds 6 1007 81 10000 8.2 150 03:19 27.11.2019
3710 Clouds 5 1008 87 10000 4.6 140 02:21 27.11.2019
3711 Clouds 5 1009 93 10000 2.6 130 00:50 27.11.2019
3712 Clouds 5 1009 93 10000 3.6 140 00:30 27.11.2019
3713 Clouds 5 1009 93 10000 3.1 140 23:54 26.11.2019
3714 Clouds 5 1009 93 10000 3.1 140 23:36 26.11.2019
3715 Clouds 5 1009 93 10000 3.6 130 23:18 26.11.2019
3716 Clouds 5 1010 93 10000 3.1 130 22:39 26.11.2019
3717 Clouds 5 1010 86 10000 1.5 140 22:19 26.11.2019
3718 Clouds 5 1010 86 10000 2.6 130 21:59 26.11.2019
3719 Clouds 4 1010 86 10000 2.6 130 21:38 26.11.2019
3720 Clouds 5 1010 86 10000 2.6 140 21:20 26.11.2019
3721 Clouds 5 1010 86 10000 2.6 130 20:57 26.11.2019
3722 Clouds 5 1010 86 10000 2.6 130 20:37 26.11.2019
3723 Clouds 5 1010 93 10000 2.6 140 20:19 26.11.2019
3724 Clouds 5 1010 93 10000 2.1 150 19:55 26.11.2019
3725 Clouds 5 1010 93 10000 2.1 150 19:55 26.11.2019
3726 Clouds 5 1010 93 10000 2.1 150 19:37 26.11.2019
3727 Clouds 5 1011 93 10000 2.6 140 19:19 26.11.2019
3728 Clouds 5 1011 93 10000 2.1 150 18:57 26.11.2019
3729 Clouds 5 1011 93 10000 2.1 150 18:39 26.11.2019
3730 Clouds 5 1011 93 10000 2.1 140 18:20 26.11.2019
3731 Clouds 6 1011 93 10000 1.5 110 17:57 26.11.2019
3732 Clouds 6 1011 93 10000 1.5 110 17:39 26.11.2019
3733 Clouds 6 1011 86 10000 0.5 0 17:20 26.11.2019
3734 Clouds 6 1011 87 10000 0.5 0 16:56 26.11.2019
3735 Clouds 6 1011 87 10000 0.5 0 16:37 26.11.2019
3736 Clouds 6 1011 81 10000 1.5 250 16:18 26.11.2019
3737 Clouds 6 1011 81 10000 1.5 250 16:18 26.11.2019
3738 Clouds 7 1011 87 10000 2.1 250 15:58 26.11.2019
3739 Clouds 7 1011 87 10000 2.1 250 15:37 26.11.2019
3740 Clouds 7 1011 81 10000 2.6 0 15:19 26.11.2019
3741 Clouds 7 1011 81 10000 2.6 250 14:47 26.11.2019
3742 Clouds 7 1011 76 10000 2.1 240 14:25 26.11.2019
3743 Clouds 7 1011 81 10000 2.6 250 13:56 26.11.2019
3744 Clouds 7 1011 81 10000 2.6 250 13:38 26.11.2019
3745 Clouds 7 1011 81 10000 2.6 220 13:18 26.11.2019
3746 Clouds 7 1011 75 10000 3.6 200 12:38 26.11.2019
3747 Clouds 7 1012 81 10000 4.6 190 12:20 26.11.2019
3748 Clouds 7 1012 87 10000 2.6 200 11:58 26.11.2019
3749 Clouds 7 1012 87 10000 2.6 200 11:38 26.11.2019
3750 Clouds 7 1012 81 10000 3.6 200 11:19 26.11.2019
3751 Clouds 6 1012 87 10000 2.6 190 10:57 26.11.2019
3752 Clouds 6 1012 87 10000 2.6 190 10:39 26.11.2019
3753 Clouds 6 1012 87 10000 2.1 190 10:20 26.11.2019
3754 Clouds 6 1012 87 10000 2.1 170 09:55 26.11.2019
3755 Clouds 6 1012 87 10000 2.1 170 09:37 26.11.2019
3756 Clouds 6 1012 93 9000 2.1 160 09:18 26.11.2019
3757 Clouds 5 1012 93 9000 2.1 190 08:43 26.11.2019
3758 Clouds 5 1012 93 7000 2.1 180 08:22 26.11.2019
3759 Clouds 5 1012 93 8000 2.1 160 07:44 26.11.2019
3760 Clouds 5 1012 93 10000 1.5 170 07:25 26.11.2019
3761 Clouds 5 1012 93 10000 1 160 06:55 26.11.2019
3762 Clouds 5 1012 93 10000 1.5 190 06:30 26.11.2019
3763 Rain 5 1012 93 10000 1 0 05:41 26.11.2019
3764 Clouds 5 1012 93 10000 1.5 220 03:59 26.11.2019
3765 Clouds 5 1012 87 10000 6.2 170 02:26 26.11.2019
3766 Clouds 5 1012 93 8000 3.1 150 01:32 26.11.2019
3767 Clouds 5 1012 93 8000 2.6 140 00:50 26.11.2019
3768 Clouds 5 1012 93 8000 3.6 130 00:26 26.11.2019
3769 Clouds 5 1012 93 8000 3.6 130 23:41 25.11.2019
3770 Clouds 5 1012 93 8000 3.6 130 23:21 25.11.2019
3771 Clouds 5 1012 93 8000 4.1 120 22:58 25.11.2019
3772 Clouds 5 1012 93 8000 4.1 120 22:38 25.11.2019
3773 Clouds 5 1012 93 8000 4.1 120 22:38 25.11.2019
3774 Clouds 5 1012 93 9000 3.6 120 22:18 25.11.2019
3775 Clouds 5 1012 93 9000 3.6 120 22:18 25.11.2019
3776 Clouds 5 1012 93 10000 3.6 140 21:58 25.11.2019
3777 Clouds 5 1012 93 10000 3.6 140 21:39 25.11.2019
3778 Clouds 6 1012 93 9000 3.1 140 21:21 25.11.2019
3779 Clouds 5 1012 93 10000 3.1 130 20:57 25.11.2019
3780 Clouds 5 1012 93 10000 3.1 130 20:39 25.11.2019
3781 Clouds 6 1012 93 9000 2.6 120 20:19 25.11.2019
3782 Clouds 6 1012 93 10000 1.5 150 19:56 25.11.2019
3783 Clouds 6 1012 93 10000 1.5 150 19:37 25.11.2019
3784 Clouds 6 1012 93 10000 3.1 180 19:18 25.11.2019
3785 Clouds 6 1012 93 10000 4.1 160 18:57 25.11.2019
3786 Clouds 6 1012 93 10000 2.6 160 18:38 25.11.2019
3787 Clouds 6 1012 93 10000 4.1 160 18:38 25.11.2019
3788 Clouds 6 1012 93 10000 2.6 160 18:20 25.11.2019
3789 Clouds 6 1012 93 10000 2.1 180 17:57 25.11.2019
3790 Clouds 6 1012 93 10000 2.1 180 17:38 25.11.2019
3791 Clouds 6 1012 93 10000 3.6 170 17:19 25.11.2019
3792 Clouds 6 1012 93 10000 4.1 170 16:57 25.11.2019
3793 Clouds 6 1012 93 10000 4.1 170 16:38 25.11.2019
3794 Clouds 6 1012 93 10000 4.6 150 16:20 25.11.2019
3795 Clouds 6 1012 87 10000 5.1 150 15:54 25.11.2019
3796 Clouds 6 1012 87 10000 5.1 150 15:36 25.11.2019
3797 Clouds 6 1011 87 10000 4.1 160 15:18 25.11.2019
3798 Clouds 6 1011 87 10000 5.1 140 14:41 25.11.2019
3799 Clouds 6 1012 87 10000 4.6 140 14:22 25.11.2019
3800 Clouds 7 1012 87 10000 5.7 140 13:55 25.11.2019
3801 Clouds 7 1012 87 10000 5.7 140 13:36 25.11.2019
3802 Clouds 7 1012 93 10000 5.7 140 13:18 25.11.2019
3803 Clouds 7 1012 93 10000 5.1 130 12:41 25.11.2019
3804 Clouds 7 1012 93 10000 5.1 140 12:22 25.11.2019
3805 Clouds 7 1012 93 10000 5.1 150 11:59 25.11.2019
3806 Clouds 7 1012 93 10000 5.1 150 11:40 25.11.2019
3807 Clouds 6 1013 93 10000 5.7 150 11:20 25.11.2019
3808 Clouds 6 1013 86 10000 5.7 140 10:54 25.11.2019
3809 Clouds 6 1013 86 10000 5.7 140 10:36 25.11.2019
3810 Clouds 6 1013 86 10000 6.7 140 10:18 25.11.2019
3811 Clouds 6 1013 93 10000 4.6 130 09:41 25.11.2019
3812 Clouds 6 1013 93 7000 3.6 120 09:23 25.11.2019
3813 Clouds 5 1013 93 9000 4.1 130 08:42 25.11.2019
3814 Clouds 5 1012 93 10000 4.6 140 08:23 25.11.2019
3815 Clouds 5 1012 93 10000 4.1 130 07:47 25.11.2019
3816 Clouds 4 1012 93 10000 4.6 120 07:28 25.11.2019
3817 Clouds 4 1012 93 10000 5.1 110 06:58 25.11.2019
3818 Clouds 4 1012 93 8000 4.1 110 06:24 25.11.2019
3819 Clouds 5 1011 93 9000 5.1 120 05:51 25.11.2019
3820 Clouds 5 1011 93 10000 5.1 110 05:31 25.11.2019
3821 Clouds 5 1011 93 10000 4.6 110 04:48 25.11.2019
3822 Clouds 5 1012 86 10000 5.1 120 02:36 25.11.2019
3823 Clouds 4 1012 86 10000 5.7 100 01:43 25.11.2019
3824 Clouds 5 1012 86 10000 5.7 110 01:24 25.11.2019
3825 Clouds 5 1012 86 10000 5.7 100 00:45 25.11.2019
3826 Clouds 5 1012 93 10000 5.1 110 00:20 25.11.2019
3827 Clouds 5 1012 93 10000 4.6 110 23:44 24.11.2019
3828 Clouds 5 1012 93 10000 4.6 110 23:20 24.11.2019
3829 Clouds 5 1012 87 10000 5.7 130 22:57 24.11.2019
3830 Clouds 5 1012 87 10000 5.7 130 22:39 24.11.2019
3831 Clouds 6 1012 87 10000 6.7 130 22:19 24.11.2019
3832 Clouds 5 1012 87 10000 6.2 130 21:57 24.11.2019
3833 Clouds 5 1012 87 10000 6.2 130 21:38 24.11.2019
3834 Clouds 6 1012 87 10000 6.7 130 21:20 24.11.2019
3835 Clouds 6 1012 87 10000 6.7 130 20:56 24.11.2019
3836 Clouds 6 1012 87 10000 6.2 140 20:37 24.11.2019
3837 Clouds 6 1012 87 10000 6.7 140 20:18 24.11.2019
3838 Clear 6 1012 87 10000 6.2 140 19:56 24.11.2019
3839 Clear 6 1012 87 10000 6.2 140 19:56 24.11.2019
3840 Clear 6 1012 87 10000 6.2 140 19:38 24.11.2019
3841 Clear 6 1012 87 10000 7.7 140 19:19 24.11.2019
3842 Clear 6 1012 81 10000 6.7 140 18:56 24.11.2019
3843 Clear 6 1012 81 10000 6.7 140 18:36 24.11.2019
3844 Clear 6 1012 81 10000 5.1 130 18:18 24.11.2019
3845 Clear 7 1012 81 10000 6.7 120 17:55 24.11.2019
3846 Clear 7 1012 81 10000 6.7 120 17:37 24.11.2019
3847 Clear 7 1012 81 10000 6.2 120 17:19 24.11.2019
3848 Clouds 7 1012 81 10000 6.2 120 16:56 24.11.2019
3849 Clouds 7 1012 81 10000 6.2 120 16:38 24.11.2019
3850 Clouds 8 1011 81 10000 7.2 120 16:19 24.11.2019
3851 Clouds 8 1012 75 10000 7.2 130 15:43 24.11.2019
3852 Clouds 8 1011 75 10000 8.7 140 15:25 24.11.2019
3853 Clouds 8 1011 75 10000 7.2 130 14:57 24.11.2019
3854 Clouds 8 1011 75 10000 7.2 130 14:57 24.11.2019
3855 Clouds 9 1011 75 10000 7.2 130 14:38 24.11.2019
3856 Clouds 9 1011 75 10000 8.7 120 14:18 24.11.2019
3857 Clouds 9 1012 75 10000 8.2 130 13:41 24.11.2019
3858 Clouds 9 1012 81 10000 7.7 130 13:22 24.11.2019
3859 Clouds 9 1012 81 10000 8.7 130 12:59 24.11.2019
3860 Clouds 8 1012 81 10000 8.7 130 12:40 24.11.2019
3861 Clouds 8 1012 75 10000 8.7 130 12:18 24.11.2019
3862 Clouds 7 1012 81 10000 8.7 130 11:56 24.11.2019
3863 Clouds 7 1012 81 10000 7.7 130 11:37 24.11.2019
3864 Clouds 7 1012 81 10000 7.7 130 11:18 24.11.2019
3865 Clouds 6 1012 86 10000 7.7 130 10:46 24.11.2019
3866 Clouds 6 1012 86 10000 7.7 130 10:28 24.11.2019
3867 Clouds 6 1015 81 10000 6.2 100 10:28 24.11.2019
3868 Clouds 6 1015 80 10000 4.6 80 09:56 24.11.2019
3869 Clouds 6 1012 86 10000 8.2 130 09:37 24.11.2019
3870 Clouds 5 1012 86 10000 8.7 130 09:18 24.11.2019
3871 Clouds 5 1012 86 10000 10.3 140 08:44 24.11.2019
3872 Clouds 4 1012 86 10000 9.3 130 08:22 24.11.2019
3873 Clouds 4 1011 86 10000 8.2 130 07:58 24.11.2019
3874 Clouds 4 1011 86 10000 8.2 130 07:37 24.11.2019
3875 Clouds 4 1011 86 10000 8.2 120 07:19 24.11.2019
3876 Clouds 4 1011 86 10000 9.3 130 06:20 24.11.2019
3877 Clouds 4 1011 86 10000 9.3 130 06:20 24.11.2019
3878 Clouds 5 1011 86 10000 7.2 120 04:48 24.11.2019
3879 Clouds 5 1011 86 10000 5.1 120 03:37 24.11.2019
3880 Clear 6 1011 81 10000 7.7 130 02:22 24.11.2019
3881 Clouds 6 1011 81 10000 6.7 120 01:40 24.11.2019
3882 Clear 6 1011 81 10000 6.7 110 01:21 24.11.2019
3883 Clear 6 1011 81 10000 6.7 120 00:47 24.11.2019
3884 Clear 6 1011 81 10000 8.2 120 00:24 24.11.2019
3885 Clear 6 1011 81 10000 9.8 120 23:46 23.11.2019
3886 Clear 6 1011 87 10000 9.8 130 23:23 23.11.2019
3887 Clear 6 1011 81 10000 8.7 130 22:59 23.11.2019
3888 Clear 6 1011 81 10000 8.7 130 22:40 23.11.2019
3889 Clear 6 1011 81 10000 9.3 130 22:22 23.11.2019
3890 Clear 6 1011 81 10000 9.3 130 21:59 23.11.2019
3891 Clear 6 1011 81 10000 9.3 130 21:41 23.11.2019
3892 Clear 6 1011 81 10000 6.7 130 21:22 23.11.2019
3893 Clear 6 1011 81 10000 6.7 130 21:22 23.11.2019
3894 Clear 6 1011 81 10000 6.7 130 20:58 23.11.2019
3895 Clear 6 1011 81 10000 6.2 130 20:37 23.11.2019
3896 Clear 6 1011 81 10000 6.2 130 20:37 23.11.2019
3897 Clear 6 1011 81 10000 8.2 140 20:18 23.11.2019
3898 Clear 6 1011 81 10000 8.2 140 19:55 23.11.2019
3899 Clear 7 1011 81 10000 8.2 140 19:37 23.11.2019
3900 Clear 7 1011 81 10000 8.7 140 19:18 23.11.2019
3901 Clouds 7 1011 81 10000 9.8 140 18:40 23.11.2019
3902 Clouds 7 1011 81 10000 9.8 140 18:40 23.11.2019
3903 Clouds 7 1010 81 10000 9.3 140 18:21 23.11.2019
3904 Clouds 7 1010 81 10000 10.3 140 17:58 23.11.2019
3905 Clouds 7 1010 81 10000 10.8 140 17:40 23.11.2019
3906 Clouds 7 1010 81 10000 10.8 140 17:20 23.11.2019
3907 Clouds 7 1010 81 10000 9.8 140 16:56 23.11.2019
3908 Clouds 7 1010 81 10000 9.8 140 16:38 23.11.2019
3909 Clouds 8 1010 81 10000 9.3 140 16:20 23.11.2019
3910 Clouds 8 1010 81 10000 11.3 140 15:57 23.11.2019
3911 Clouds 8 1010 81 10000 11.3 140 15:38 23.11.2019
3912 Clouds 8 1010 75 10000 10.8 140 15:18 23.11.2019
3913 Clouds 8 1010 75 10000 10.8 140 14:46 23.11.2019
3914 Clouds 8 1010 81 10000 12.3 140 14:23 23.11.2019
3915 Clouds 8 1010 81 10000 12.3 140 14:23 23.11.2019
3916 Clouds 8 1010 81 10000 12.3 140 13:59 23.11.2019
3917 Clouds 8 1010 81 10000 10.3 140 13:41 23.11.2019
3918 Clouds 8 1010 87 10000 9.8 130 13:19 23.11.2019
3919 Clouds 8 1011 81 10000 10.8 140 12:55 23.11.2019
3920 Clouds 8 1011 81 10000 10.8 140 12:37 23.11.2019
3921 Clouds 7 1011 81 10000 11.8 130 12:18 23.11.2019
3922 Clouds 7 1012 81 10000 9.8 130 11:41 23.11.2019
3923 Clouds 7 1012 86 10000 11.8 140 11:18 23.11.2019
3924 Clouds 6 1012 86 10000 10.8 130 10:43 23.11.2019
3925 Clouds 6 1012 86 10000 9.8 130 10:21 23.11.2019
3926 Clouds 6 1012 86 10000 8.7 130 09:41 23.11.2019
3927 Clouds 6 1012 86 10000 8.2 120 09:20 23.11.2019
3928 Clouds 5 1012 86 10000 8.2 120 08:42 23.11.2019
3929 Clouds 5 1012 86 10000 7.7 130 08:19 23.11.2019
3930 Clouds 6 1012 86 10000 7.2 110 07:52 23.11.2019
3931 Clouds 5 1012 86 10000 7.2 110 07:34 23.11.2019
3932 Clouds 6 1012 86 10000 7.2 130 06:45 23.11.2019
3933 Clouds 6 1012 86 10000 8.2 130 06:19 23.11.2019
3934 Clouds 6 1012 86 10000 7.7 130 05:48 23.11.2019
3935 Clouds 6 1012 86 10000 7.2 120 05:28 23.11.2019
3936 Clouds 6 1012 87 10000 7.7 120 04:47 23.11.2019
3937 Clouds 7 1012 87 10000 7.7 120 04:27 23.11.2019
3938 Clouds 7 1013 87 10000 7.7 130 02:45 23.11.2019
3939 Clouds 8 1013 87 10000 7.7 130 01:42 23.11.2019
3940 Clouds 8 1013 87 10000 8.7 130 01:21 23.11.2019
3941 Clouds 8 1013 87 10000 7.7 130 00:40 23.11.2019
3942 Clouds 8 1014 87 10000 9.3 140 00:18 23.11.2019
3943 Clouds 8 1013 87 10000 8.7 140 23:42 22.11.2019
3944 Clouds 8 1013 87 10000 8.7 140 23:20 22.11.2019
3945 Clouds 8 1013 93 10000 10.3 140 22:57 22.11.2019
3946 Clouds 8 1013 93 10000 10.3 140 22:38 22.11.2019
3947 Clouds 8 1014 93 10000 8.2 140 22:20 22.11.2019
3948 Clouds 8 1014 93 10000 8.2 140 22:20 22.11.2019
3949 Clouds 9 1014 93 10000 8.2 140 21:58 22.11.2019
3950 Clouds 9 1014 87 10000 8.2 140 21:39 22.11.2019
3951 Clouds 9 1014 93 10000 7.7 140 21:19 22.11.2019
3952 Clouds 9 1014 87 10000 9.3 140 20:43 22.11.2019
3953 Clouds 9 1014 93 10000 9.3 140 20:22 22.11.2019
3954 Clouds 9 1013 87 10000 8.7 130 19:56 22.11.2019
3955 Clouds 9 1013 87 10000 8.7 130 19:37 22.11.2019
3956 Clouds 9 1013 87 10000 9.8 140 19:19 22.11.2019
3957 Clouds 9 1013 87 10000 8.7 140 18:39 22.11.2019
3958 Clouds 9 1013 81 10000 7.7 150 18:21 22.11.2019
3959 Clouds 9 1013 81 10000 7.7 150 18:21 22.11.2019
3960 Clouds 9 1013 81 10000 7.7 150 17:57 22.11.2019
3961 Clouds 9 1013 87 10000 7.2 140 17:39 22.11.2019
3962 Clouds 9 1013 87 10000 8.2 140 17:20 22.11.2019
3963 Clouds 9 1013 87 10000 8.7 140 16:42 22.11.2019
3964 Clouds 10 1013 81 10000 9.3 140 16:23 22.11.2019
3965 Clouds 10 1013 81 10000 8.7 140 15:44 22.11.2019
3966 Clouds 10 1012 81 10000 8.7 140 15:24 22.11.2019
3967 Clear 10 1010 81 0 11.8 120 14:56 22.11.2019
3968 Clouds 10 1012 87 10000 8.2 140 14:38 22.11.2019
3969 Clouds 11 1012 87 10000 9.3 140 14:19 22.11.2019
3970 Clouds 11 1012 87 10000 8.7 140 13:57 22.11.2019
3971 Clouds 11 1012 87 10000 8.7 140 13:57 22.11.2019
3972 Clouds 11 1012 87 10000 8.7 140 13:37 22.11.2019
3973 Clouds 11 1012 87 10000 9.3 140 13:18 22.11.2019
3974 Clouds 11 1013 87 10000 8.7 140 12:55 22.11.2019
3975 Clouds 11 1013 87 10000 8.7 140 12:55 22.11.2019
3976 Clouds 11 1013 87 10000 8.7 140 12:36 22.11.2019
3977 Clouds 11 1013 93 10000 8.2 130 12:18 22.11.2019
3978 Clouds 10 1013 87 10000 9.3 130 11:40 22.11.2019
3979 Clouds 10 1013 87 9000 8.7 130 11:22 22.11.2019
3980 Clouds 10 1014 87 8000 7.2 130 10:59 22.11.2019
3981 Clouds 10 1014 87 8000 7.2 130 10:40 22.11.2019
3982 Mist 9 1014 100 5000 6.7 140 10:22 22.11.2019
3983 Mist 9 1013 93 4200 8.2 140 09:57 22.11.2019
3984 Mist 9 1013 93 4200 8.2 140 09:39 22.11.2019
3985 Mist 9 1013 93 4800 8.7 140 09:21 22.11.2019
3986 Mist 9 1013 93 4500 7.7 130 08:47 22.11.2019
3987 Clouds 8 1013 93 6000 7.7 140 08:27 22.11.2019
3988 Clouds 8 1013 93 6000 6.2 140 07:55 22.11.2019
3989 Clouds 8 1013 93 6000 6.2 140 07:37 22.11.2019
3990 Mist 8 1013 93 5000 5.7 150 07:18 22.11.2019
3991 Clouds 8 1012 93 6000 7.2 150 06:40 22.11.2019
3992 Clouds 8 1012 93 7000 6.2 140 05:54 22.11.2019
3993 Clouds 8 1012 93 10000 7.2 140 04:51 22.11.2019
3994 Clouds 8 1012 87 10000 5.7 140 02:55 22.11.2019
3995 Clouds 8 1012 87 10000 5.7 140 02:32 22.11.2019
3996 Clouds 9 1012 87 10000 6.7 140 01:45 22.11.2019
3997 Clouds 9 1012 87 10000 6.7 140 01:20 22.11.2019
3998 Clouds 9 1012 87 10000 7.2 140 00:53 22.11.2019
3999 Clouds 9 1012 87 10000 6.7 150 00:24 22.11.2019
4000 Clouds 9 1012 87 10000 6.7 150 23:49 21.11.2019
4001 Clouds 9 1012 87 10000 6.7 150 23:31 21.11.2019
4002 Clouds 8 1012 81 10000 7.2 140 22:59 21.11.2019
4003 Clouds 8 1012 81 10000 7.2 140 22:40 21.11.2019
4004 Clouds 8 1012 81 10000 7.7 150 22:22 21.11.2019
4005 Clouds 8 1012 81 10000 7.7 150 21:57 21.11.2019
4006 Clouds 8 1012 81 10000 7.7 150 21:38 21.11.2019
4007 Clouds 8 1012 81 10000 9.3 140 21:19 21.11.2019
4008 Clouds 8 1012 81 10000 9.3 140 20:58 21.11.2019
4009 Clouds 8 1011 87 10000 8.7 140 20:39 21.11.2019
4010 Clouds 8 1011 87 10000 9.8 140 20:19 21.11.2019
4011 Clouds 8 1011 87 10000 9.8 140 20:19 21.11.2019
4012 Clouds 8 1011 87 10000 6.7 140 19:59 21.11.2019
4013 Clouds 8 1011 87 10000 6.7 140 19:41 21.11.2019
4014 Clouds 8 1011 87 10000 6.7 140 19:41 21.11.2019
4015 Clouds 8 1011 81 10000 8.2 140 19:22 21.11.2019
4016 Clouds 8 1011 87 10000 8.7 150 18:57 21.11.2019
4017 Clouds 8 1011 87 10000 8.7 150 18:38 21.11.2019
4018 Clouds 8 1011 87 10000 7.7 140 18:19 21.11.2019
4019 Clouds 8 1010 87 10000 7.2 150 17:57 21.11.2019
4020 Clouds 8 1010 87 10000 7.2 150 17:57 21.11.2019
4021 Clouds 8 1010 87 10000 7.2 150 17:38 21.11.2019
4022 Clouds 8 1010 93 10000 7.2 140 17:19 21.11.2019
4023 Clouds 8 1010 93 10000 7.2 140 17:19 21.11.2019
4024 Clouds 9 1011 87 10000 5.1 150 16:42 21.11.2019
4025 Clouds 9 1010 87 10000 6.2 150 16:22 21.11.2019
4026 Clouds 9 1010 87 10000 6.2 150 15:58 21.11.2019
4027 Clouds 9 1010 81 10000 6.2 140 15:40 21.11.2019
4028 Rain 9 1010 81 10000 5.7 140 15:20 21.11.2019
4029 Rain 10 1010 81 10000 6.7 140 14:56 21.11.2019
4030 Rain 9 1010 81 10000 6.7 140 14:37 21.11.2019
4031 Clouds 10 1010 81 10000 6.2 140 14:18 21.11.2019
4032 Clouds 9 1010 87 10000 6.7 140 13:40 21.11.2019
4033 Clouds 9 1010 93 10000 6.7 130 13:20 21.11.2019
4034 Rain 9 1010 87 10000 6.2 140 12:59 21.11.2019
4035 Rain 9 1010 87 10000 6.2 140 12:39 21.11.2019
4036 Clouds 9 1010 87 10000 6.2 150 12:20 21.11.2019
4037 Clouds 9 1010 93 10000 4.1 150 11:43 21.11.2019
4038 Clouds 9 1010 93 10000 5.1 150 11:23 21.11.2019
4039 Clouds 9 1011 93 10000 6.2 140 10:59 21.11.2019
4040 Clouds 9 1011 93 10000 6.2 140 10:41 21.11.2019
4041 Clouds 9 1011 93 10000 5.7 140 10:23 21.11.2019
4042 Clouds 9 1011 93 10000 5.7 140 10:23 21.11.2019
4043 Clouds 9 1011 93 8000 5.1 140 09:57 21.11.2019
4044 Clouds 9 1011 93 8000 5.1 140 09:57 21.11.2019
4045 Clouds 9 1011 93 8000 5.1 140 09:39 21.11.2019
4046 Clouds 9 1011 93 6000 3.6 130 09:20 21.11.2019
4047 Clouds 9 1011 93 6000 3.6 140 08:42 21.11.2019
4048 Rain 8 1011 93 7000 4.1 140 08:21 21.11.2019
4049 Rain 8 1010 93 7000 4.6 130 07:43 21.11.2019
4050 Rain 8 1010 93 7000 4.6 130 07:19 21.11.2019
4051 Rain 8 1010 93 8000 5.7 130 06:58 21.11.2019
4052 Drizzle 8 1010 93 7000 5.7 130 06:34 21.11.2019
4053 Rain 8 1010 93 3900 4.1 110 05:39 21.11.2019
4054 Rain 8 1011 93 4900 2.6 60 03:35 21.11.2019
4055 Rain 8 1011 93 6000 3.1 80 02:42 21.11.2019
4056 Rain 8 1011 93 7000 2.6 80 02:23 21.11.2019
4057 Rain 8 1011 93 8000 2.1 100 01:45 21.11.2019
4058 Rain 8 1011 93 8000 3.1 100 01:19 21.11.2019
4059 Rain 8 1012 93 9000 3.1 80 00:38 21.11.2019
4060 Rain 8 1012 93 9000 2.6 90 00:18 21.11.2019
4061 Clouds 8 1012 93 9000 3.6 90 23:42 20.11.2019
4062 Rain 8 1012 93 6000 3.1 100 23:21 20.11.2019
4063 Rain 8 1012 93 10000 3.1 90 22:57 20.11.2019
4064 Rain 8 1012 93 10000 3.1 90 22:37 20.11.2019
4065 Clouds 8 1012 93 10000 3.6 90 22:19 20.11.2019
4066 Rain 8 1012 93 10000 3.1 80 21:57 20.11.2019
4067 Rain 8 1012 93 10000 3.1 80 21:38 20.11.2019
4068 Rain 8 1012 93 10000 3.1 80 21:19 20.11.2019
4069 Rain 8 1012 93 10000 3.1 80 21:19 20.11.2019
4070 Rain 8 1012 93 7000 3.6 80 20:56 20.11.2019
4071 Rain 8 1012 93 7000 3.6 80 20:56 20.11.2019
4072 Rain 8 1012 93 7000 3.6 80 20:38 20.11.2019
4073 Rain 8 1012 93 7000 4.1 80 20:19 20.11.2019
4074 Rain 8 1012 93 7000 4.1 80 19:56 20.11.2019
4075 Rain 8 1012 93 5000 2.6 70 19:36 20.11.2019
4076 Rain 8 1012 100 4900 3.6 60 19:18 20.11.2019
4077 Rain 8 1012 93 4000 3.6 30 18:58 20.11.2019
4078 Rain 8 1012 93 4000 3.6 30 18:38 20.11.2019
4079 Rain 8 1013 100 3900 3.1 20 18:20 20.11.2019
4080 Rain 7 1013 100 3400 3.6 360 17:55 20.11.2019
4081 Rain 7 1013 100 3400 3.6 360 17:37 20.11.2019
4082 Rain 7 1013 100 3400 2.6 360 17:19 20.11.2019
4083 Rain 7 1013 93 3700 3.1 340 16:43 20.11.2019
4084 Rain 7 1013 93 2600 2.6 350 16:20 20.11.2019
4085 Rain 7 1013 93 2600 2.6 350 15:58 20.11.2019
4086 Rain 7 1014 93 3000 2.6 350 15:40 20.11.2019
4087 Rain 7 1014 93 3900 2.6 360 15:20 20.11.2019
4088 Rain 7 1014 93 3900 2.6 360 14:58 20.11.2019
4089 Rain 7 1014 93 4500 1.5 20 14:39 20.11.2019
4090 Rain 7 1014 93 7000 2.6 10 14:21 20.11.2019
4091 Rain 7 1014 87 8000 3.6 360 13:57 20.11.2019
4092 Rain 8 1014 87 8000 3.6 360 13:38 20.11.2019
4093 Rain 7 1015 87 10000 3.1 10 13:19 20.11.2019
4094 Rain 7 1015 87 10000 3.1 10 13:19 20.11.2019
4095 Clouds 8 1015 87 10000 2.6 360 12:43 20.11.2019
4096 Clouds 8 1015 87 10000 2.6 360 12:43 20.11.2019
4097 Clouds 8 1015 87 10000 2.1 20 12:24 20.11.2019
4098 Clouds 8 1015 87 10000 2.1 350 11:58 20.11.2019
4099 Clouds 7 1015 87 10000 2.1 350 11:38 20.11.2019
4100 Clouds 7 1016 87 9000 1.5 10 11:20 20.11.2019
4101 Clouds 7 1016 87 9000 1.5 360 10:55 20.11.2019
4102 Clouds 7 1016 87 9000 1.5 360 10:37 20.11.2019
4103 Clouds 7 1017 93 7000 0.5 0 10:19 20.11.2019
4104 Clouds 6 1016 93 6000 1 360 09:43 20.11.2019
4105 Mist 7 1017 93 5000 1.5 360 09:21 20.11.2019
4106 Mist 6 1017 100 5000 1 20 08:56 20.11.2019
4107 Mist 6 1017 100 5000 1 20 08:37 20.11.2019
4108 Mist 6 1017 93 4500 1.06 76 08:19 20.11.2019
4109 Mist 6 1016 100 3800 0.5 0 07:45 20.11.2019
4110 Mist 5 1016 93 5000 0.5 0 07:25 20.11.2019
4111 Mist 6 1016 93 4700 1 0 06:48 20.11.2019
4112 Mist 6 1016 100 4800 1 0 06:21 20.11.2019
4113 Mist 6 1017 93 3700 1 0 05:26 20.11.2019
4114 Mist 6 1017 93 4800 4.1 130 03:30 20.11.2019
4115 Clouds 5 1017 93 6000 5.1 120 02:21 20.11.2019
4116 Clouds 6 1017 93 7000 6.7 120 01:33 20.11.2019
4117 Clouds 6 1017 93 8000 5.1 120 00:41 20.11.2019
4118 Clouds 7 1018 87 10000 4.6 130 23:55 19.11.2019
4119 Clouds 8 1018 87 10000 4.1 120 23:26 19.11.2019
4120 Clouds 8 1018 87 10000 4.1 120 22:58 19.11.2019
4121 Clouds 8 1018 87 10000 6.2 140 22:40 19.11.2019
4122 Clouds 8 1018 87 10000 5.7 130 22:19 19.11.2019
4123 Clouds 8 1018 87 10000 4.1 120 21:56 19.11.2019
4124 Clouds 9 1018 87 10000 4.1 120 21:37 19.11.2019
4125 Clouds 9 1018 87 10000 5.1 130 21:19 19.11.2019
4126 Clouds 9 1018 87 10000 5.7 140 20:56 19.11.2019
4127 Clouds 9 1018 87 10000 5.7 140 20:38 19.11.2019
4128 Clouds 9 1018 87 10000 5.1 140 20:19 19.11.2019
4129 Clouds 9 1018 87 10000 5.1 120 19:56 19.11.2019
4130 Clouds 9 1018 87 10000 5.1 120 19:38 19.11.2019
4131 Clouds 10 1018 81 10000 5.1 130 19:19 19.11.2019
4132 Clouds 9 1018 87 10000 6.2 140 18:55 19.11.2019
4133 Clouds 10 1018 87 10000 6.2 140 18:36 19.11.2019
4134 Clouds 9 1018 81 10000 4.6 140 18:18 19.11.2019
4135 Clouds 10 1018 81 10000 5.7 150 17:55 19.11.2019
4136 Clouds 10 1018 81 10000 5.7 150 17:36 19.11.2019
4137 Clouds 10 1018 76 10000 6.2 140 17:18 19.11.2019
4138 Clouds 10 1018 76 10000 6.2 140 16:42 19.11.2019
4139 Clouds 11 1017 76 10000 7.7 140 16:23 19.11.2019
4140 Clouds 11 1017 76 10000 6.7 140 15:57 19.11.2019
4141 Clouds 11 1017 76 10000 6.7 140 15:39 19.11.2019
4142 Clouds 11 1017 71 10000 6.7 150 15:20 19.11.2019
4143 Clouds 11 1017 71 10000 6.2 130 14:55 19.11.2019
4144 Clouds 11 1017 71 10000 6.2 130 14:37 19.11.2019
4145 Clouds 11 1017 71 10000 6.2 130 14:37 19.11.2019
4146 Clouds 12 1017 71 10000 7.7 130 14:19 19.11.2019
4147 Clouds 12 1018 71 10000 7.2 130 13:40 19.11.2019
4148 Clouds 12 1018 71 10000 6.7 130 13:19 19.11.2019
4149 Clouds 12 1018 71 10000 6.7 140 12:41 19.11.2019
4150 Clouds 12 1018 66 10000 7.7 140 12:22 19.11.2019
4151 Clouds 11 1019 66 10000 8.2 140 11:58 19.11.2019
4152 Clouds 11 1019 66 10000 8.2 140 11:38 19.11.2019
4153 Clouds 11 1019 71 10000 8.2 150 11:19 19.11.2019
4154 Clouds 10 1019 71 10000 8.7 150 10:48 19.11.2019
4155 Clouds 10 1019 71 10000 7.7 150 10:23 19.11.2019
4156 Clouds 10 1019 71 10000 7.7 150 10:23 19.11.2019
4157 Clouds 9 1019 71 10000 7.2 150 09:58 19.11.2019
4158 Clouds 9 1019 71 10000 7.2 150 09:40 19.11.2019
4159 Clouds 9 1019 71 10000 5.7 150 09:19 19.11.2019
4160 Clouds 8 1019 76 10000 4.1 140 08:41 19.11.2019
4161 Clouds 8 1019 76 10000 4.6 140 08:23 19.11.2019
4162 Clouds 7 1019 70 10000 4.6 130 07:58 19.11.2019
4163 Clouds 7 1019 70 10000 4.6 130 07:39 19.11.2019
4164 Clouds 7 1019 76 10000 3.1 120 07:20 19.11.2019
4165 Clouds 7 1019 75 10000 2.1 120 06:50 19.11.2019
4166 Clouds 7 1019 75 10000 2.1 120 06:50 19.11.2019
4167 Clouds 7 1018 81 10000 4.6 130 06:30 19.11.2019
4168 Clouds 7 1018 81 10000 5.7 140 05:39 19.11.2019
4169 Clouds 6 1018 81 10000 4.6 170 04:22 19.11.2019
4170 Clouds 6 1018 75 10000 4.1 140 03:32 19.11.2019
4171 Clouds 6 1018 81 10000 5.1 150 02:56 19.11.2019
4172 Clouds 5 1018 81 10000 5.1 150 02:31 19.11.2019
4173 Clouds 5 1018 87 10000 3.6 150 01:40 19.11.2019
4174 Clouds 4 1017 93 10000 3.6 160 00:22 19.11.2019
4175 Clouds 4 1017 86 10000 2.1 170 23:57 18.11.2019
4176 Clouds 4 1017 86 10000 2.1 170 23:37 18.11.2019
4177 Clouds 3 1017 86 10000 3.1 150 23:18 18.11.2019
4178 Clouds 3 1017 86 10000 2.6 160 22:42 18.11.2019
4179 Clouds 3 1017 80 10000 2.1 140 22:23 18.11.2019
4180 Clouds 3 1017 80 10000 2.1 140 22:23 18.11.2019
4181 Clouds 3 1016 86 10000 1.5 80 21:56 18.11.2019
4182 Clouds 3 1016 86 10000 1.5 80 21:37 18.11.2019
4183 Clouds 3 1016 86 10000 1 100 21:19 18.11.2019
4184 Clouds 3 1016 80 10000 1 0 20:56 18.11.2019
4185 Clouds 3 1016 80 10000 1 0 20:38 18.11.2019
4186 Clouds 4 1016 75 10000 1.5 350 20:18 18.11.2019
4187 Clouds 4 1015 70 10000 2.1 310 19:55 18.11.2019
4188 Clouds 4 1015 70 10000 2.1 310 19:55 18.11.2019
4189 Clouds 4 1015 70 10000 2.1 310 19:37 18.11.2019
4190 Clouds 4 1015 70 10000 2.1 280 19:18 18.11.2019
4191 Clouds 4 1015 70 10000 2.1 280 19:18 18.11.2019
4192 Clouds 5 1015 75 10000 1 0 18:54 18.11.2019
4193 Clouds 5 1015 75 10000 1 0 18:54 18.11.2019
4194 Clouds 5 1015 75 10000 1 0 18:36 18.11.2019
4195 Clouds 6 1015 75 10000 1 0 18:18 18.11.2019
4196 Clouds 6 1014 70 10000 2.1 320 17:39 18.11.2019
4197 Clouds 7 1014 70 10000 2.1 310 17:20 18.11.2019
4198 Clouds 8 1013 70 10000 2.6 310 16:55 18.11.2019
4199 Clouds 8 1013 70 10000 2.6 310 16:36 18.11.2019
4200 Clouds 8 1013 66 10000 3.1 310 16:18 18.11.2019
4201 Clouds 9 1012 71 10000 4.1 310 15:55 18.11.2019
4202 Clouds 9 1012 71 10000 4.1 310 15:36 18.11.2019
4203 Rain 10 1012 71 10000 5.1 310 15:18 18.11.2019
4204 Rain 10 1012 71 10000 5.1 310 15:18 18.11.2019
4205 Rain 10 1011 66 10000 4.6 310 14:41 18.11.2019
4206 Rain 10 1010 71 10000 6.2 310 14:23 18.11.2019
4207 Clouds 10 1009 62 10000 4.6 180 13:55 18.11.2019
4208 Clouds 10 1009 62 10000 4.6 180 13:54 18.11.2019
4209 Clouds 10 1009 62 10000 4.6 180 13:36 18.11.2019
4210 Clouds 10 1009 76 10000 5.1 160 13:18 18.11.2019
4211 Clouds 10 1009 76 10000 5.1 150 12:38 18.11.2019
4212 Clouds 10 1009 81 10000 6.7 160 12:19 18.11.2019
4213 Clouds 10 1008 87 10000 7.2 140 11:45 18.11.2019
4214 Clouds 10 1008 87 10000 6.2 130 11:26 18.11.2019
4215 Clouds 10 1008 87 10000 6.2 130 10:58 18.11.2019
4216 Clouds 10 1008 87 10000 6.2 140 10:39 18.11.2019
4217 Clouds 10 1008 87 10000 6.2 150 10:20 18.11.2019
4218 Rain 10 1007 87 10000 7.7 140 09:55 18.11.2019
4219 Rain 10 1007 87 10000 7.7 140 09:37 18.11.2019
4220 Rain 10 1007 87 10000 8.2 140 09:18 18.11.2019
4221 Rain 10 1007 93 10000 8.7 140 08:44 18.11.2019
4222 Rain 10 1007 93 9000 6.7 140 08:21 18.11.2019
4223 Rain 10 1007 93 10000 7.7 140 07:48 18.11.2019
4224 Clouds 11 1007 93 10000 5.1 130 07:29 18.11.2019
4225 Clouds 10 1007 93 10000 5.1 130 06:56 18.11.2019
4226 Clouds 10 1007 87 10000 4.6 110 06:37 18.11.2019
4227 Clouds 10 1007 87 10000 2.6 90 06:18 18.11.2019
4228 Clouds 10 1007 87 10000 3.6 80 04:58 18.11.2019
4229 Clouds 11 1007 87 10000 5.1 110 02:59 18.11.2019
4230 Clouds 11 1007 81 10000 4.6 100 01:31 18.11.2019
4231 Clouds 11 1008 81 10000 4.1 100 00:39 18.11.2019
4232 Clouds 11 1008 81 10000 5.7 120 23:45 17.11.2019
4233 Clouds 11 1008 81 10000 4.6 110 23:25 17.11.2019
4234 Clouds 11 1009 81 10000 4.6 120 22:59 17.11.2019
4235 Clouds 11 1009 81 10000 4.6 120 22:41 17.11.2019
4236 Clouds 11 1008 81 10000 6.7 120 22:23 17.11.2019
4237 Clouds 12 1008 81 10000 6.7 120 21:59 17.11.2019
4238 Clouds 12 1009 81 10000 5.1 120 21:41 17.11.2019
4239 Clouds 12 1009 81 10000 6.2 120 21:19 17.11.2019
4240 Clouds 12 1009 81 10000 6.2 130 20:57 17.11.2019
4241 Clouds 12 1009 81 10000 6.2 130 20:38 17.11.2019
4242 Clear 12 1009 76 10000 7.2 130 20:19 17.11.2019
4243 Clear 12 1009 76 10000 7.2 130 20:19 17.11.2019
4244 Clear 12 1009 76 10000 5.7 120 19:56 17.11.2019
4245 Clear 12 1009 76 10000 5.7 120 19:38 17.11.2019
4246 Clear 12 1009 76 10000 6.2 120 19:20 17.11.2019
4247 Clear 12 1009 76 10000 6.2 120 18:56 17.11.2019
4248 Clouds 12 1009 76 10000 7.7 120 18:38 17.11.2019
4249 Clouds 12 1009 82 10000 6.7 130 18:19 17.11.2019
4250 Clouds 12 1009 82 10000 6.7 130 17:57 17.11.2019
4251 Clouds 12 1009 82 10000 8.2 120 17:39 17.11.2019
4252 Clouds 13 1009 82 10000 6.7 120 17:20 17.11.2019
4253 Clouds 13 1009 82 10000 6.7 120 17:20 17.11.2019
4254 Clouds 13 1009 82 10000 7.7 120 16:58 17.11.2019
4255 Clouds 13 1009 82 10000 7.7 120 16:40 17.11.2019
4256 Clouds 13 1009 76 10000 6.7 110 16:21 17.11.2019
4257 Clouds 13 1009 76 10000 5.1 100 15:55 17.11.2019
4258 Clouds 13 1009 76 10000 5.1 100 15:37 17.11.2019
4259 Clouds 13 1010 76 10000 4.1 100 15:18 17.11.2019
4260 Clouds 14 1010 76 10000 4.6 110 14:56 17.11.2019
4261 Clouds 14 1010 76 10000 4.6 110 14:37 17.11.2019
4262 Clouds 14 1010 76 10000 4.1 110 14:19 17.11.2019
4263 Clouds 14 1010 76 10000 4.1 110 13:55 17.11.2019
4264 Clouds 14 1010 76 10000 4.1 110 13:55 17.11.2019
4265 Clouds 14 1010 76 10000 4.1 110 13:37 17.11.2019
4266 Clouds 14 1011 82 10000 4.6 110 13:18 17.11.2019
4267 Clouds 14 1011 82 10000 4.6 110 13:18 17.11.2019
4268 Clouds 14 1011 76 10000 5.1 110 12:42 17.11.2019
4269 Clouds 13 1011 81 10000 3.1 120 12:22 17.11.2019
4270 Clouds 13 1012 81 10000 4.1 110 11:57 17.11.2019
4271 Clouds 12 1012 81 10000 4.1 110 11:38 17.11.2019
4272 Clouds 12 1012 87 10000 4.1 100 11:20 17.11.2019
4273 Clouds 12 1012 87 10000 4.1 100 11:20 17.11.2019
4274 Clouds 12 1012 87 10000 4.1 120 10:44 17.11.2019
4275 Clouds 12 1012 87 10000 6.2 120 10:23 17.11.2019
4276 Clouds 11 1012 87 10000 7.2 120 09:57 17.11.2019
4277 Clouds 11 1012 87 10000 7.2 120 09:39 17.11.2019
4278 Clouds 11 1012 87 10000 7.2 120 09:20 17.11.2019
4279 Clouds 11 1012 93 10000 8.2 120 08:40 17.11.2019
4280 Clouds 11 1012 93 8000 7.2 130 08:20 17.11.2019
4281 Clouds 10 1012 93 8000 7.2 120 07:47 17.11.2019
4282 Clouds 11 1012 87 9000 6.7 130 07:24 17.11.2019
4283 Clouds 11 1012 87 9000 6.2 120 06:57 17.11.2019
4284 Clouds 11 1012 87 9000 6.2 120 06:33 17.11.2019
4285 Clouds 11 1013 93 8000 6.7 110 05:54 17.11.2019
4286 Clouds 11 1013 93 6000 4.1 110 04:24 17.11.2019
4287 Clouds 11 1014 93 6000 3.6 130 03:47 17.11.2019
4288 Clouds 10 1014 93 6000 3.1 130 03:29 17.11.2019
4289 Clouds 10 1014 93 8000 3.1 100 02:28 17.11.2019
4290 Clouds 10 1014 93 10000 2.6 110 01:37 17.11.2019
4291 Clouds 10 1015 100 10000 3.1 120 00:54 17.11.2019
4292 Clouds 10 1015 93 10000 4.1 120 00:22 17.11.2019
4293 Rain 10 1015 87 10000 5.1 140 23:47 16.11.2019
4294 Rain 10 1015 87 10000 5.7 140 23:20 16.11.2019
4295 Rain 10 1015 87 10000 5.7 140 23:20 16.11.2019
4296 Clouds 10 1015 87 10000 7.7 150 22:59 16.11.2019
4297 Clouds 10 1015 87 10000 7.7 150 22:59 16.11.2019
4298 Clouds 11 1015 87 10000 7.7 150 22:40 16.11.2019
4299 Rain 11 1015 87 10000 7.2 140 22:19 16.11.2019
4300 Rain 10 1015 87 10000 8.2 140 21:56 16.11.2019
4301 Rain 11 1015 87 10000 8.2 140 21:37 16.11.2019
4302 Rain 11 1015 87 10000 6.7 140 21:19 16.11.2019
4303 Clouds 11 1015 87 10000 1.5 110 20:42 16.11.2019
4304 Clouds 11 1015 81 10000 5.1 140 20:21 16.11.2019
4305 Clouds 11 1014 81 10000 6.7 150 19:58 16.11.2019
4306 Clouds 11 1014 81 10000 6.7 150 19:58 16.11.2019
4307 Clouds 11 1014 81 10000 6.7 150 19:40 16.11.2019
4308 Clouds 11 1014 76 10000 7.7 150 19:21 16.11.2019
4309 Rain 11 1014 81 10000 7.2 150 18:47 16.11.2019
4310 Rain 11 1013 76 10000 9.8 150 18:29 16.11.2019
4311 Rain 11 1013 76 10000 6.2 150 17:57 16.11.2019
4312 Clouds 12 1013 76 10000 6.2 150 17:38 16.11.2019
4313 Clouds 12 1013 76 10000 6.7 160 17:19 16.11.2019
4314 Clouds 12 1012 76 10000 9.8 150 16:48 16.11.2019
4315 Clouds 12 1012 76 10000 9.8 150 16:30 16.11.2019
4316 Clouds 13 1013 71 10000 6.7 160 15:59 16.11.2019
4317 Clouds 13 1013 71 10000 6.7 160 15:39 16.11.2019
4318 Clouds 13 1012 76 10000 5.1 160 15:20 16.11.2019
4319 Clouds 13 1012 76 10000 6.2 160 14:57 16.11.2019
4320 Clouds 13 1012 76 10000 6.2 160 14:57 16.11.2019
4321 Clouds 13 1012 76 10000 6.2 160 14:39 16.11.2019
4322 Clouds 13 1012 76 10000 5.7 130 14:20 16.11.2019
4323 Clouds 14 1012 76 10000 4.6 140 13:55 16.11.2019
4324 Clouds 13 1012 76 10000 4.6 140 13:37 16.11.2019
4325 Clouds 13 1012 76 10000 6.2 160 13:18 16.11.2019
4326 Clouds 13 1011 76 10000 6.2 160 12:43 16.11.2019
4327 Clouds 13 1011 76 10000 7.2 160 12:23 16.11.2019
4328 Clouds 12 1011 81 10000 7.2 140 11:57 16.11.2019
4329 Clouds 12 1011 81 10000 7.2 140 11:38 16.11.2019
4330 Clouds 12 1011 81 10000 7.2 140 11:38 16.11.2019
4331 Clouds 12 1011 87 10000 6.2 150 11:20 16.11.2019
4332 Clouds 12 1011 81 10000 7.2 150 10:55 16.11.2019
4333 Clouds 12 1011 81 10000 7.2 150 10:37 16.11.2019
4334 Clouds 12 1011 87 10000 7.2 150 10:18 16.11.2019
4335 Clouds 12 1011 81 10000 5.7 140 09:40 16.11.2019
4336 Clouds 12 1011 81 10000 7.2 160 09:20 16.11.2019
4337 Clouds 11 1010 81 10000 6.2 150 08:56 16.11.2019
4338 Clouds 11 1010 81 10000 6.2 150 08:36 16.11.2019
4339 Clouds 11 1010 87 10000 6.7 160 08:18 16.11.2019
4340 Clouds 11 1010 81 10000 8.2 140 07:40 16.11.2019
4341 Clouds 11 1009 81 10000 8.2 140 07:18 16.11.2019
4342 Clouds 10 1009 87 10000 7.2 140 06:43 16.11.2019
4343 Clouds 10 1009 87 10000 4.6 150 06:20 16.11.2019
4344 Clouds 10 1008 87 9000 6.7 120 04:47 16.11.2019
4345 Clouds 10 1008 93 7000 4.6 130 03:26 16.11.2019
4346 Clouds 10 1008 93 7000 2.6 130 02:37 16.11.2019
4347 Mist 10 1008 93 5000 4.6 110 01:41 16.11.2019
4348 Mist 10 1008 93 5000 4.6 110 01:41 16.11.2019
4349 Mist 10 1008 93 5000 5.7 110 00:56 16.11.2019
4350 Mist 10 1008 93 5000 5.7 110 00:36 16.11.2019
4351 Clouds 10 1008 93 6000 5.7 110 00:18 16.11.2019
4352 Clouds 10 1008 93 6000 5.7 110 23:39 15.11.2019
4353 Clouds 9 1009 93 6000 5.7 110 23:20 15.11.2019
4354 Clouds 9 1009 93 7000 5.1 100 22:42 15.11.2019
4355 Clouds 9 1009 93 7000 5.7 100 22:20 15.11.2019
4356 Clouds 9 1009 93 7000 5.7 100 21:59 15.11.2019
4357 Clouds 9 1009 93 7000 5.7 110 21:40 15.11.2019
4358 Clouds 9 1010 93 7000 5.1 100 21:20 15.11.2019
4359 Clouds 9 1010 93 6000 6.7 110 20:57 15.11.2019
4360 Clouds 9 1010 93 6000 6.7 110 20:39 15.11.2019
4361 Clouds 9 1010 93 6000 6.7 110 20:39 15.11.2019
4362 Clouds 10 1009 87 7000 6.2 120 20:21 15.11.2019
4363 Clouds 9 1009 87 7000 6.2 120 19:58 15.11.2019
4364 Clouds 9 1010 87 7000 5.1 130 19:39 15.11.2019
4365 Clouds 9 1009 87 7000 6.2 130 19:20 15.11.2019
4366 Clouds 9 1009 87 7000 6.2 130 18:58 15.11.2019
4367 Clouds 9 1009 87 8000 6.2 130 18:39 15.11.2019
4368 Clouds 10 1009 93 10000 5.1 110 18:21 15.11.2019
4369 Clouds 10 1009 87 10000 2.1 110 17:42 15.11.2019
4370 Clouds 10 1009 87 10000 5.1 140 17:24 15.11.2019
4371 Clouds 10 1010 87 10000 3.1 140 16:57 15.11.2019
4372 Clouds 10 1010 87 10000 3.1 140 16:38 15.11.2019
4373 Clouds 10 1010 87 10000 4.1 150 16:19 15.11.2019
4374 Clouds 10 1009 87 10000 3.6 140 15:39 15.11.2019
4375 Clouds 10 1009 81 10000 8.2 160 15:20 15.11.2019
4376 Clouds 10 1009 81 10000 8.2 160 15:20 15.11.2019
4377 Clouds 10 1009 81 10000 9.3 150 14:57 15.11.2019
4378 Clouds 10 1009 81 10000 9.3 150 14:38 15.11.2019
4379 Clouds 10 1009 87 10000 10.3 150 14:19 15.11.2019
4380 Clouds 10 1008 81 10000 10.8 150 13:58 15.11.2019
4381 Clouds 10 1008 81 10000 11.3 160 13:39 15.11.2019
4382 Clouds 10 1008 81 10000 11.3 160 13:21 15.11.2019
4383 Clouds 10 1008 87 10000 8.7 150 12:59 15.11.2019
4384 Clouds 10 1008 87 10000 8.7 150 12:40 15.11.2019
4385 Clouds 10 1009 81 10000 10.8 150 12:20 15.11.2019
4386 Clouds 9 1009 81 10000 10.3 150 11:58 15.11.2019
4387 Clouds 9 1009 81 10000 10.3 150 11:39 15.11.2019
4388 Clouds 9 1009 81 10000 10.3 150 11:20 15.11.2019
4389 Rain 9 1009 87 10000 10.8 150 10:56 15.11.2019
4390 Rain 9 1009 87 10000 10.8 150 10:38 15.11.2019
4391 Rain 9 1009 87 10000 11.3 150 10:18 15.11.2019
4392 Clouds 8 1008 87 10000 9.8 150 09:41 15.11.2019
4393 Clouds 8 1008 87 10000 9.8 150 09:41 15.11.2019
4394 Clouds 8 1009 87 10000 8.7 140 09:20 15.11.2019
4395 Clouds 8 1009 93 10000 7.7 150 08:44 15.11.2019
4396 Clouds 7 1009 93 10000 6.7 130 08:23 15.11.2019
4397 Clouds 7 1009 93 10000 7.2 140 07:49 15.11.2019
4398 Clouds 7 1009 93 10000 7.2 140 07:28 15.11.2019
4399 Clouds 7 1009 87 10000 7.7 140 06:59 15.11.2019
4400 Clouds 7 1009 87 10000 7.7 140 06:34 15.11.2019
4401 Clouds 7 1009 87 10000 6.2 140 05:49 15.11.2019
4402 Clouds 7 1009 81 10000 5.1 130 05:27 15.11.2019
4403 Clouds 7 1009 87 10000 5.1 140 04:40 15.11.2019
4404 Clouds 7 1009 81 10000 6.7 140 03:32 15.11.2019
4405 Clouds 6 1010 81 10000 6.7 130 02:23 15.11.2019
4406 Clouds 6 1010 81 10000 6.2 140 01:46 15.11.2019
4407 Clouds 6 1010 87 10000 4.1 140 01:24 15.11.2019
4408 Clouds 6 1010 87 10000 5.1 130 00:35 15.11.2019
4409 Clouds 5 1010 81 10000 6.7 140 23:57 14.11.2019
4410 Clouds 5 1010 81 10000 6.7 140 23:38 14.11.2019
4411 Clouds 5 1010 81 10000 6.7 140 23:19 14.11.2019
4412 Clouds 5 1010 86 10000 4.6 150 22:40 14.11.2019
4413 Clouds 5 1010 86 10000 5.1 150 22:22 14.11.2019
4414 Clouds 5 1010 81 10000 7.2 140 21:57 14.11.2019
4415 Clouds 5 1010 81 10000 7.2 140 21:39 14.11.2019
4416 Clear 5 1010 81 10000 7.2 140 21:21 14.11.2019
4417 Clear 5 1009 81 10000 7.7 140 20:43 14.11.2019
4418 Clouds 5 1010 81 10000 5.7 120 20:24 14.11.2019
4419 Clouds 5 1009 87 10000 6.2 120 20:00 14.11.2019
4420 Clouds 5 1009 87 10000 6.2 120 19:41 14.11.2019
4421 Clouds 5 1009 87 10000 6.7 140 19:19 14.11.2019
4422 Clouds 6 1009 81 10000 6.7 140 18:59 14.11.2019
4423 Clouds 6 1009 81 10000 7.7 130 18:41 14.11.2019
4424 Clouds 6 1009 81 10000 7.7 130 18:21 14.11.2019
4425 Clouds 6 1009 81 10000 7.7 130 17:57 14.11.2019
4426 Clouds 6 1009 81 10000 7.2 130 17:37 14.11.2019
4427 Clouds 6 1009 81 10000 7.2 130 17:19 14.11.2019
4428 Clouds 6 1009 81 10000 8.2 130 16:57 14.11.2019
4429 Clouds 7 1009 81 10000 8.2 130 16:37 14.11.2019
4430 Clouds 7 1009 81 10000 6.7 130 16:19 14.11.2019
4431 Clouds 7 1009 81 10000 6.7 130 15:56 14.11.2019
4432 Clouds 8 1009 81 10000 6.7 130 15:38 14.11.2019
4433 Clouds 8 1009 75 10000 7.7 140 15:19 14.11.2019
4434 Clouds 8 1010 75 10000 8.2 130 14:45 14.11.2019
4435 Clouds 9 1009 75 10000 7.7 130 14:22 14.11.2019
4436 Clouds 9 1009 75 10000 7.7 130 13:57 14.11.2019
4437 Clouds 8 1010 75 10000 8.2 140 13:38 14.11.2019
4438 Clouds 8 1010 70 10000 7.7 140 13:19 14.11.2019
4439 Clouds 8 1010 65 10000 8.7 140 12:56 14.11.2019
4440 Clouds 8 1010 65 10000 8.7 140 12:37 14.11.2019
4441 Clouds 8 1010 70 10000 7.2 140 12:19 14.11.2019
4442 Clouds 6 1010 75 10000 7.7 130 11:39 14.11.2019
4443 Clouds 6 1010 75 10000 6.7 130 11:20 14.11.2019
4444 Clouds 6 1010 75 10000 6.7 130 11:20 14.11.2019
4445 Clouds 5 1011 81 10000 6.2 110 10:59 14.11.2019
4446 Clouds 5 1011 81 10000 6.2 110 10:41 14.11.2019
4447 Clouds 5 1011 86 10000 6.2 120 10:20 14.11.2019
4448 Clouds 4 1011 80 10000 5.7 120 09:57 14.11.2019
4449 Clouds 4 1011 86 10000 3.1 120 09:39 14.11.2019
4450 Clouds 2 1011 86 10000 3.1 120 09:21 14.11.2019
4451 Clouds 2 1011 86 10000 3.1 120 08:47 14.11.2019
4452 Clouds 2 1011 93 10000 1 100 08:26 14.11.2019
4453 Clouds 2 1011 93 10000 1 100 07:57 14.11.2019
4454 Clouds 0 1010 86 10000 3.1 160 07:38 14.11.2019
4455 Clouds 0 1010 86 10000 3.1 150 07:19 14.11.2019
4456 Clouds 0 1010 86 10000 1.5 150 06:43 14.11.2019
4457 Clouds 1 1010 86 10000 2.1 120 06:19 14.11.2019
4458 Clouds 2 1010 93 10000 1 0 04:42 14.11.2019
4459 Clouds 3 1010 86 10000 1 0 04:23 14.11.2019
4460 Clouds 3 1010 86 10000 2.6 300 02:47 14.11.2019
4461 Clouds 4 1010 86 10000 3.1 300 02:25 14.11.2019
4462 Clouds 4 1009 86 10000 2.6 280 01:33 14.11.2019
4463 Clouds 4 1009 86 10000 3.6 300 00:53 14.11.2019
4464 Clouds 4 1009 86 10000 3.6 300 00:30 14.11.2019
4465 Clouds 5 1008 80 10000 4.1 290 23:44 13.11.2019
4466 Clouds 5 1008 80 10000 4.1 300 23:25 13.11.2019
4467 Clouds 4 1008 86 10000 4.1 300 22:59 13.11.2019
4468 Clouds 4 1008 86 10000 4.1 300 22:41 13.11.2019
4469 Rain 3 1008 86 10000 5.7 290 22:22 13.11.2019
4470 Rain 3 1008 86 10000 4.6 290 21:56 13.11.2019
4471 Rain 3 1008 86 10000 4.6 290 21:38 13.11.2019
4472 Clouds 3 1007 86 10000 4.1 320 21:20 13.11.2019
4473 Clouds 4 1007 86 10000 4.1 320 20:57 13.11.2019
4474 Clouds 4 1007 86 10000 4.1 320 20:57 13.11.2019
4475 -273 0 0 0 0 0 20:37 13.11.2019
4476 Clouds 4 1007 86 10000 4.6 300 20:37 13.11.2019
4477 Clouds 4 1007 86 10000 4.6 300 20:37 13.11.2019
4478 Clouds 3 1006 86 10000 6.7 300 20:19 13.11.2019
4479 Rain 3 1006 86 10000 6.2 290 19:44 13.11.2019
4480 Rain 3 1005 86 10000 5.1 300 19:21 13.11.2019
4481 Rain 3 1005 86 10000 5.7 300 18:58 13.11.2019
4482 Rain 3 1005 86 10000 5.7 300 18:58 13.11.2019
4483 Rain 3 1005 86 10000 5.7 300 18:39 13.11.2019
4484 Rain 3 1004 86 10000 4.1 300 18:21 13.11.2019
4485 Rain 3 1004 86 10000 4.1 300 17:59 13.11.2019
4486 Rain 4 1004 86 10000 5.1 300 17:40 13.11.2019
4487 Rain 3 1003 86 10000 6.2 300 17:22 13.11.2019
4488 Rain 3 1003 86 10000 6.2 300 16:59 13.11.2019
4489 Rain 3 1003 93 9000 6.2 300 16:59 13.11.2019
4490 Rain 3 1003 93 9000 6.2 300 16:59 13.11.2019
4491 Rain 3 1003 93 9000 6.2 300 16:40 13.11.2019
4492 Rain 3 1003 93 9000 6.2 300 16:40 13.11.2019
4493 Rain 3 1003 93 9000 6.2 300 16:40 13.11.2019
4494 Rain 3 1003 86 10000 5.7 300 16:21 13.11.2019
4495 Rain 3 1003 86 10000 5.7 300 15:58 13.11.2019
4496 Rain 3 1003 86 10000 5.7 300 15:40 13.11.2019
4497 Rain 3 1003 86 10000 5.7 300 15:40 13.11.2019
4498 Rain 3 1003 93 10000 6.7 300 15:21 13.11.2019
4499 Rain 3 1002 86 10000 6.7 300 14:57 13.11.2019
4500 Rain 3 1002 86 10000 6.7 300 14:37 13.11.2019
4501 Rain 3 1002 93 10000 7.2 300 14:19 13.11.2019
4502 Rain 3 1002 93 10000 6.7 290 13:37 13.11.2019
4503 Rain 3 1002 93 10000 6.7 290 13:19 13.11.2019
4504 Rain 3 1002 93 10000 5.7 300 12:57 13.11.2019
4505 Rain 4 1002 93 10000 5.7 300 12:38 13.11.2019
4506 Rain 4 1002 93 10000 5.7 300 12:38 13.11.2019
4507 Rain 4 1002 86 10000 6.2 290 12:19 13.11.2019
4508 Clouds 4 1002 80 10000 5.1 300 11:41 13.11.2019
4509 Clouds 4 1002 80 10000 6.2 310 11:21 13.11.2019
4510 Clouds 4 1002 86 10000 5.7 320 10:59 13.11.2019
4511 Clouds 4 1002 86 10000 5.7 320 10:41 13.11.2019
4512 Clouds 4 1002 86 10000 5.1 320 10:21 13.11.2019
4513 Clouds 4 1002 86 10000 4.1 310 09:59 13.11.2019
4514 Clouds 4 1002 86 10000 4.1 310 09:39 13.11.2019
4515 Drizzle 4 1002 86 10000 4.1 310 09:20 13.11.2019
4516 Clouds 4 1002 86 10000 2.6 310 08:40 13.11.2019
4517 Clouds 4 1002 93 10000 3.1 330 08:21 13.11.2019
4518 Clouds 4 1001 93 10000 4.1 340 07:43 13.11.2019
4519 Clouds 4 1002 93 10000 3.1 320 07:22 13.11.2019
4520 Clouds 4 1001 93 10000 3.6 330 06:58 13.11.2019
4521 Clouds 4 1001 93 10000 3.6 330 06:36 13.11.2019
4522 Rain 4 1002 93 10000 2.6 350 06:18 13.11.2019
4523 Rain 4 1002 93 10000 3.6 320 05:45 13.11.2019
4524 Clouds 4 1003 93 10000 2.1 330 04:56 13.11.2019
4525 Rain 4 1003 86 10000 2.1 320 03:36 13.11.2019
4526 Rain 4 1004 86 10000 3.6 320 01:48 13.11.2019
4527 Rain 4 1004 86 10000 3.1 330 01:23 13.11.2019
4528 Rain 4 1005 86 10000 2.6 330 00:37 13.11.2019
4529 Clouds 4 1005 86 10000 4.6 320 23:56 12.11.2019
4530 Clouds 5 1005 86 10000 4.6 320 23:37 12.11.2019
4531 Clouds 5 1005 93 10000 4.6 300 23:18 12.11.2019
4532 Rain 5 1005 93 10000 6.2 300 22:40 12.11.2019
4533 Rain 5 1005 93 10000 4.6 300 22:18 12.11.2019
4534 Rain 5 1005 93 10000 4.1 290 21:54 12.11.2019
4535 Rain 5 1005 93 10000 4.1 290 21:36 12.11.2019
4536 Rain 5 1005 93 10000 4.1 290 21:36 12.11.2019
4537 Rain 5 1005 93 10000 3.1 280 21:18 12.11.2019
4538 Rain 5 1005 93 5000 4.1 290 20:54 12.11.2019
4539 Rain 5 1005 93 5000 4.1 290 20:36 12.11.2019
4540 Rain 5 1005 93 5000 2.6 300 20:18 12.11.2019
4541 Rain 5 1005 93 4500 1.5 350 19:54 12.11.2019
4542 Rain 5 1005 93 4500 1.5 350 19:36 12.11.2019
4543 Rain 5 1006 93 4800 2.1 330 19:18 12.11.2019
4544 Rain 5 1006 93 4700 2.1 350 18:54 12.11.2019
4545 Rain 5 1006 93 4700 2.1 350 18:36 12.11.2019
4546 Rain 5 1006 93 5000 2.6 340 18:18 12.11.2019
4547 Rain 5 1007 93 5000 1.5 360 17:55 12.11.2019
4548 Rain 5 1007 93 5000 1.5 360 17:36 12.11.2019
4549 Rain 5 1007 93 5000 1.5 10 17:18 12.11.2019
4550 Rain 5 1007 93 4500 1.5 340 16:42 12.11.2019
4551 Rain 5 1007 100 4000 1.5 330 16:24 12.11.2019
4552 Rain 5 1007 100 4000 1.5 360 15:55 12.11.2019
4553 Rain 5 1007 100 4000 1.5 360 15:37 12.11.2019
4554 Rain 5 1007 93 7000 3.1 340 15:18 12.11.2019
4555 Rain 5 1008 87 7000 2.6 330 14:41 12.11.2019
4556 Rain 6 1008 87 5000 1.5 350 14:20 12.11.2019
4557 Rain 6 1008 87 10000 2.1 340 13:58 12.11.2019
4558 Rain 6 1008 87 10000 2.1 340 13:39 12.11.2019
4559 Rain 6 1008 87 10000 2.6 340 13:19 12.11.2019
4560 Drizzle 6 1009 87 10000 1.5 330 12:58 12.11.2019
4561 Drizzle 6 1009 87 10000 1.5 330 12:39 12.11.2019
4562 Rain 6 1009 87 10000 2.1 340 12:18 12.11.2019
4563 Rain 6 1010 93 9000 2.1 340 11:43 12.11.2019
4564 Drizzle 6 1010 100 2100 3.1 330 11:22 12.11.2019
4565 Mist 6 1010 100 2300 3.1 340 10:57 12.11.2019
4566 Mist 6 1010 100 2300 3.1 340 10:57 12.11.2019
4567 Mist 6 1010 100 2300 3.1 340 10:39 12.11.2019
4568 Mist 6 1011 93 3800 3.1 340 10:21 12.11.2019
4569 Clouds 5 1011 93 6000 3.1 10 09:58 12.11.2019
4570 Clouds 5 1011 93 6000 2.1 60 09:38 12.11.2019
4571 Clouds 5 1011 93 6000 2.1 60 09:18 12.11.2019
4572 Clouds 5 1010 93 6000 2.6 90 08:47 12.11.2019
4573 Drizzle 5 1011 93 4100 3.1 100 08:28 12.11.2019
4574 Drizzle 5 1011 93 4100 3.1 100 07:42 12.11.2019
4575 Drizzle 5 1010 100 4600 4.1 120 07:24 12.11.2019
4576 Rain 5 1010 93 2900 2.6 120 06:51 12.11.2019
4577 Mist 5 1010 93 4000 4.6 130 06:24 12.11.2019
4578 Mist 5 1010 93 5000 4.1 130 05:52 12.11.2019
4579 Clouds 6 1010 93 10000 5.1 140 04:51 12.11.2019
4580 Clouds 6 1010 93 10000 5.7 140 04:20 12.11.2019
4581 Clouds 7 1010 87 10000 6.2 140 01:58 12.11.2019
4582 Clouds 7 1010 87 10000 8.2 150 01:27 12.11.2019
4583 Clouds 7 1011 87 9000 8.7 140 00:53 12.11.2019
4584 Clouds 7 1011 93 10000 6.2 130 00:33 12.11.2019
4585 Clouds 7 1011 93 10000 6.7 130 23:55 11.11.2019
4586 Clouds 7 1011 93 10000 6.7 130 23:37 11.11.2019
4587 Clouds 7 1011 93 10000 8.2 140 23:18 11.11.2019
4588 Clouds 7 1011 87 10000 8.2 140 22:38 11.11.2019
4589 Clouds 7 1011 87 10000 8.7 150 22:20 11.11.2019
4590 Clouds 7 1011 87 10000 8.7 150 21:58 11.11.2019
4591 Clouds 7 1011 87 10000 8.7 150 21:39 11.11.2019
4592 Clouds 7 1011 87 10000 8.7 150 21:20 11.11.2019
4593 Clouds 7 1011 87 10000 8.7 150 21:20 11.11.2019
4594 Clouds 7 1011 87 10000 8.7 150 21:20 11.11.2019
4595 Clouds 7 1011 87 10000 9.8 150 20:56 11.11.2019
4596 Clouds 7 1011 87 10000 9.8 150 20:37 11.11.2019
4597 Clouds 7 1011 87 10000 9.8 150 20:19 11.11.2019
4598 Clouds 7 1011 87 10000 9.8 150 19:42 11.11.2019
4599 Clouds 7 1012 87 10000 9.8 150 19:20 11.11.2019
4600 Clouds 7 1012 87 10000 9.8 150 18:59 11.11.2019
4601 Clouds 7 1011 87 10000 9.8 150 18:40 11.11.2019
4602 Clouds 7 1011 87 10000 8.2 150 18:21 11.11.2019
4603 Clouds 6 1011 81 10000 9.3 150 17:45 11.11.2019
4604 Clouds 6 1011 81 10000 10.3 150 17:27 11.11.2019
4605 Clouds 6 1011 81 10000 10.3 150 17:27 11.11.2019
4606 Clouds 7 1011 81 10000 10.3 150 16:58 11.11.2019
4607 Clouds 6 1011 81 10000 9.3 150 16:38 11.11.2019
4608 Clouds 7 1011 75 10000 11.3 150 16:20 11.11.2019
4609 Clouds 7 1012 75 10000 10.8 150 15:41 11.11.2019
4610 Clouds 7 1012 75 10000 9.3 150 15:20 11.11.2019
4611 Clouds 7 1012 75 10000 9.3 150 14:56 11.11.2019
4612 Clouds 7 1013 75 10000 10.3 150 14:38 11.11.2019
4613 Clouds 7 1013 75 10000 10.8 150 14:20 11.11.2019
4614 Clouds 7 1013 70 10000 10.8 150 13:56 11.11.2019
4615 Clouds 7 1013 70 10000 10.8 150 13:36 11.11.2019
4616 Clouds 7 1013 75 10000 9.8 150 13:18 11.11.2019
4617 Clouds 7 1014 75 10000 7.7 140 12:55 11.11.2019
4618 Clouds 7 1014 75 10000 7.7 140 12:37 11.11.2019
4619 Clouds 6 1014 81 10000 6.7 130 12:19 11.11.2019
4620 Clouds 5 1015 87 10000 6.7 130 11:41 11.11.2019
4621 Clouds 4 1015 87 10000 5.7 130 11:21 11.11.2019
4622 Clouds 3 1016 86 10000 5.7 120 10:44 11.11.2019
4623 Clouds 2 1016 80 10000 4.6 110 10:20 11.11.2019
4624 Clouds 2 1016 93 10000 2.6 80 09:59 11.11.2019
4625 Clouds 2 1016 93 10000 2.6 80 09:59 11.11.2019
4626 Clouds 2 1016 93 10000 2.6 80 09:41 11.11.2019
4627 Clouds 2 1017 75 10000 2.6 60 09:20 11.11.2019
4628 Mist 1 1017 75 5000 1.5 60 08:43 11.11.2019
4629 Clouds 0 1017 100 9000 1.5 40 08:23 11.11.2019
4630 Clouds 0 1017 100 9000 1.5 40 07:57 11.11.2019
4631 Fog 0 1017 92 7000 1 0 07:38 11.11.2019
4632 Fog 0 1017 92 10000 1 0 07:19 11.11.2019
4633 Fog -1 1017 92 10000 1.5 40 06:56 11.11.2019
4634 Fog 0 1017 92 10000 1.5 40 06:37 11.11.2019
4635 Clouds 0 1017 82 10000 1.5 170 06:19 11.11.2019
4636 Clear 0 1017 82 10000 1.5 150 05:43 11.11.2019
4637 Clouds 1 1017 86 10000 1.5 230 03:27 11.11.2019
4638 Clouds 1 1017 86 10000 1.5 200 02:33 11.11.2019
4639 Clouds 2 1017 77 10000 3.6 260 01:58 11.11.2019
4640 Clouds 2 1017 78 10000 3.6 260 01:36 11.11.2019
4641 Clouds 2 1017 80 10000 3.1 280 00:54 11.11.2019
4642 Clouds 3 1016 80 10000 3.6 280 00:33 11.11.2019
4643 Clouds 3 1016 75 10000 4.6 280 23:58 10.11.2019
4644 Clouds 3 1016 75 10000 4.6 280 23:37 10.11.2019
4645 Clouds 3 1016 70 10000 5.1 290 23:19 10.11.2019
4646 Clouds 4 1016 70 10000 6.2 300 22:55 10.11.2019
4647 Clouds 4 1016 70 10000 6.2 300 22:37 10.11.2019
4648 Clouds 4 1016 70 10000 5.1 300 22:19 10.11.2019
4649 Clouds 5 1016 75 10000 5.7 300 21:55 10.11.2019
4650 Clouds 5 1016 75 10000 5.7 300 21:36 10.11.2019
4651 Clouds 5 1015 70 10000 5.7 300 21:18 10.11.2019
4652 Clouds 5 1015 70 10000 5.7 300 20:41 10.11.2019
4653 Clouds 6 1014 75 10000 5.7 300 20:22 10.11.2019
4654 Clouds 6 1014 75 10000 5.7 300 20:22 10.11.2019
4655 Clouds 6 1014 70 10000 5.7 300 19:56 10.11.2019
4656 Clouds 6 1014 70 10000 5.7 300 19:37 10.11.2019
4657 Clouds 6 1014 70 10000 5.7 300 19:37 10.11.2019
4658 Clouds 6 1014 70 10000 5.7 300 19:18 10.11.2019
4659 Clouds 6 1013 70 10000 4.6 320 18:58 10.11.2019
4660 Clouds 6 1013 70 10000 4.6 320 18:58 10.11.2019
4661 Clouds 6 1013 70 10000 4.6 320 18:39 10.11.2019
4662 Clouds 7 1013 70 10000 4.1 320 18:19 10.11.2019
4663 Clouds 7 1013 70 10000 4.1 320 17:56 10.11.2019
4664 Clouds 7 1013 70 10000 4.1 320 17:38 10.11.2019
4665 Clouds 7 1012 70 10000 4.1 320 17:19 10.11.2019
4666 Clouds 7 1012 70 10000 4.1 320 16:57 10.11.2019
4667 Clouds 7 1012 70 10000 5.7 320 16:38 10.11.2019
4668 Clouds 8 1012 75 10000 5.1 320 16:19 10.11.2019
4669 Clouds 8 1011 75 10000 5.7 310 15:55 10.11.2019
4670 Clouds 8 1011 75 10000 5.7 310 15:36 10.11.2019
4671 Clouds 8 1011 75 10000 5.1 320 15:18 10.11.2019
4672 Clouds 8 1011 75 10000 4.6 320 14:41 10.11.2019
4673 Clouds 8 1011 75 10000 5.1 310 14:22 10.11.2019
4674 Clouds 7 1011 81 10000 4.6 320 13:58 10.11.2019
4675 Clouds 7 1011 81 10000 4.6 320 13:40 10.11.2019
4676 Clouds 7 1011 75 10000 4.6 320 13:20 10.11.2019
4677 Clouds 6 1011 81 10000 5.1 320 12:43 10.11.2019
4678 Clouds 6 1011 86 10000 5.1 310 12:21 10.11.2019
4679 Clouds 6 1011 80 10000 4.1 320 11:57 10.11.2019
4680 Clouds 5 1011 80 10000 4.1 320 11:39 10.11.2019
4681 Clouds 5 1011 80 10000 4.6 310 11:20 10.11.2019
4682 Clouds 5 1011 80 10000 4.6 310 11:20 10.11.2019
4683 Clouds 4 1011 80 10000 4.6 310 10:59 10.11.2019
4684 Clouds 4 1011 86 10000 4.1 320 10:40 10.11.2019
4685 Clouds 3 1011 86 10000 3.6 320 10:20 10.11.2019
4686 Clouds 3 1011 86 10000 3.1 320 09:43 10.11.2019
4687 Clouds 3 1011 86 10000 3.1 320 09:43 10.11.2019
4688 Clouds 3 1010 93 10000 2.6 320 09:23 10.11.2019
4689 Clouds 3 1010 93 10000 2.6 320 08:43 10.11.2019
4690 Clouds 1 1010 93 10000 2.1 320 08:21 10.11.2019
4691 Clouds 1 1010 93 10000 2.1 340 07:59 10.11.2019
4692 Clouds 1 1010 93 10000 2.1 340 07:40 10.11.2019
4693 Clouds 1 1010 93 10000 2.1 340 07:21 10.11.2019
4694 Clouds 1 1010 93 10000 2.1 340 07:21 10.11.2019
4695 Clouds 1 1010 93 10000 1.5 20 06:31 10.11.2019
4696 Clouds 1 1011 93 10000 1.5 350 05:32 10.11.2019
4697 Clouds 2 1011 93 10000 1 280 03:22 10.11.2019
4698 Clouds 2 1011 86 10000 1 340 01:45 10.11.2019
4699 Clouds 2 1012 93 10000 0.5 0 01:19 10.11.2019
4700 Clouds 2 1012 93 10000 0.5 0 00:40 10.11.2019
4701 Clouds 3 1012 86 10000 2.6 360 23:46 09.11.2019
4702 Clouds 3 1012 86 10000 1.5 40 23:21 09.11.2019
4703 Clouds 3 1012 86 10000 1.5 40 22:59 09.11.2019
4704 Clouds 4 1012 86 10000 2.1 50 22:40 09.11.2019
4705 Clouds 4 1012 75 10000 2.6 330 22:20 09.11.2019
4706 Clouds 5 1012 70 10000 4.1 310 21:55 09.11.2019
4707 Clouds 5 1012 70 10000 4.1 310 21:37 09.11.2019
4708 Clouds 5 1013 70 10000 4.6 290 21:19 09.11.2019
4709 Clouds 5 1013 75 10000 5.7 300 20:41 09.11.2019
4710 Clouds 5 1013 75 10000 5.7 300 20:41 09.11.2019
4711 Rain 5 1013 70 10000 3.1 330 20:22 09.11.2019
4712 Rain 6 1013 70 10000 3.1 330 19:57 09.11.2019
4713 Rain 6 1012 75 10000 4.1 320 19:38 09.11.2019
4714 Rain 6 1012 75 10000 4.1 320 19:20 09.11.2019
4715 Clouds 6 1012 75 10000 6.7 310 18:41 09.11.2019
4716 Clouds 6 1012 75 10000 7.2 310 18:19 09.11.2019
4717 Clouds 6 1012 75 10000 7.2 310 17:59 09.11.2019
4718 Clouds 7 1012 75 10000 6.2 300 17:40 09.11.2019
4719 Clouds 7 1011 75 10000 5.1 300 17:22 09.11.2019
4720 Clouds 7 1011 70 10000 5.7 300 16:43 09.11.2019
4721 Clouds 7 1011 70 10000 4.1 300 16:22 09.11.2019
4722 Clouds 7 1011 70 10000 6.7 290 15:59 09.11.2019
4723 Clouds 7 1011 70 10000 6.7 290 15:41 09.11.2019
4724 Clouds 8 1011 70 10000 7.2 290 15:23 09.11.2019
4725 Clouds 8 1010 75 10000 4.1 280 14:43 09.11.2019
4726 Rain 8 1010 75 10000 5.1 290 14:22 09.11.2019
4727 Rain 8 1010 75 10000 6.2 300 13:57 09.11.2019
4728 Rain 8 1010 75 10000 6.2 300 13:39 09.11.2019
4729 Rain 7 1010 81 10000 4.6 280 13:19 09.11.2019
4730 Rain 7 1010 81 10000 3.6 290 12:55 09.11.2019
4731 Rain 7 1010 81 10000 3.6 290 12:37 09.11.2019
4732 Rain 7 1010 81 10000 3.6 290 12:37 09.11.2019
4733 Rain 7 1010 81 10000 4.1 280 12:18 09.11.2019
4734 Rain 7 1010 81 10000 4.6 290 11:47 09.11.2019
4735 Rain 7 1010 81 10000 4.6 290 11:20 09.11.2019
4736 Rain 6 1010 81 10000 6.2 290 10:56 09.11.2019
4737 Rain 6 1010 81 10000 6.2 290 10:37 09.11.2019
4738 Rain 7 1009 87 10000 3.1 310 10:18 09.11.2019
4739 Rain 6 1009 87 7000 5.1 280 09:42 09.11.2019
4740 Rain 6 1009 87 10000 6.2 290 09:20 09.11.2019
4741 Rain 7 1008 81 10000 3.1 300 08:45 09.11.2019
4742 Rain 7 1008 81 10000 3.6 300 08:25 09.11.2019
4743 Rain 7 1008 87 10000 3.1 300 07:57 09.11.2019
4744 Rain 7 1008 87 10000 3.1 300 07:38 09.11.2019
4745 Rain 7 1007 87 10000 2.6 300 07:19 09.11.2019
4746 Rain 8 1007 93 10000 2.6 330 06:45 09.11.2019
4747 Rain 8 1007 93 7000 3.1 320 06:27 09.11.2019
4748 Rain 8 1007 93 6000 2.1 310 05:40 09.11.2019
4749 Rain 9 1007 93 6000 3.1 150 04:30 09.11.2019
4750 Clouds 9 1006 93 10000 5.1 150 02:55 09.11.2019
4751 Clouds 9 1006 93 10000 5.1 150 02:36 09.11.2019
4752 Rain 9 1006 93 10000 6.2 150 01:18 09.11.2019
4753 Rain 9 1006 93 10000 7.2 140 00:43 09.11.2019
4754 Rain 9 1006 93 10000 6.7 150 00:25 09.11.2019
4755 Rain 9 1006 93 10000 6.2 140 23:41 08.11.2019
4756 Rain 10 1006 93 10000 5.1 140 23:22 08.11.2019
4757 Rain 10 1006 93 10000 4.1 120 22:59 08.11.2019
4758 Rain 10 1006 93 10000 4.1 120 22:40 08.11.2019
4759 Clouds 10 1006 87 10000 7.2 130 22:21 08.11.2019
4760 Rain 10 1006 87 10000 7.7 140 21:42 08.11.2019
4761 Rain 10 1006 87 10000 5.1 130 21:24 08.11.2019
4762 Rain 10 1006 87 10000 5.1 130 20:59 08.11.2019
4763 Clouds 10 1007 87 10000 5.7 130 20:40 08.11.2019
4764 Clouds 10 1006 81 10000 3.6 120 20:20 08.11.2019
4765 Clouds 10 1006 81 10000 3.1 140 19:55 08.11.2019
4766 Clouds 10 1006 81 10000 3.1 140 19:37 08.11.2019
4767 Clouds 11 1006 81 10000 3.1 140 19:18 08.11.2019
4768 Clouds 11 1006 81 10000 5.7 140 18:54 08.11.2019
4769 Clouds 11 1006 81 10000 5.7 140 18:36 08.11.2019
4770 Clouds 11 1006 81 10000 6.2 150 18:18 08.11.2019
4771 Clouds 11 1005 81 10000 6.7 150 17:54 08.11.2019
4772 Clouds 11 1005 81 10000 6.7 150 17:36 08.11.2019
4773 Clouds 11 1005 81 10000 6.7 150 17:18 08.11.2019
4774 Clouds 11 1005 87 10000 6.2 160 16:57 08.11.2019
4775 Clouds 11 1005 87 10000 6.2 160 16:38 08.11.2019
4776 Clouds 11 1005 93 10000 5.7 150 16:18 08.11.2019
4777 Clouds 11 1005 87 10000 6.7 150 15:42 08.11.2019
4778 Clouds 12 1005 87 10000 6.7 140 15:23 08.11.2019
4779 Clouds 12 1005 87 10000 6.2 130 14:58 08.11.2019
4780 Clouds 12 1005 87 10000 6.7 140 14:58 08.11.2019
4781 Clouds 12 1005 87 10000 6.2 130 14:39 08.11.2019
4782 Clouds 12 1005 87 10000 6.2 130 14:39 08.11.2019
4783 Clouds 12 1006 87 10000 6.2 140 14:20 08.11.2019
4784 Clouds 12 1006 93 8000 5.7 130 13:59 08.11.2019
4785 Clouds 11 1006 93 8000 5.7 130 13:41 08.11.2019
4786 Mist 11 1006 100 3600 5.1 130 13:22 08.11.2019
4787 Clouds 11 1007 81 10000 5.7 140 12:49 08.11.2019
4788 Drizzle 11 1007 93 3200 4.6 140 12:29 08.11.2019
4789 Mist 11 1007 93 4200 5.1 140 11:59 08.11.2019
4790 Mist 11 1007 93 4200 5.1 140 11:59 08.11.2019
4791 Mist 10 1007 93 4200 5.1 140 11:41 08.11.2019
4792 Clouds 10 1007 93 6000 7.7 140 11:21 08.11.2019
4793 Clouds 10 1007 93 9000 8.7 140 10:59 08.11.2019
4794 Clouds 10 1007 93 9000 8.7 140 10:41 08.11.2019
4795 Clouds 9 1007 93 10000 9.8 140 10:22 08.11.2019
4796 Clouds 9 1007 93 10000 9.8 140 09:58 08.11.2019
4797 Clouds 9 1007 93 10000 8.2 150 09:38 08.11.2019
4798 Clouds 9 1007 93 10000 8.2 140 09:19 08.11.2019
4799 Clouds 9 1008 93 10000 6.7 140 08:45 08.11.2019
4800 Clouds 8 1008 93 10000 6.2 140 08:23 08.11.2019
4801 Clouds 8 1007 93 10000 6.7 140 07:45 08.11.2019
4802 Clouds 8 1007 93 10000 7.2 130 07:24 08.11.2019
4803 Clouds 8 1007 93 10000 7.2 130 07:24 08.11.2019
4804 Clouds 8 1007 93 10000 6.2 140 06:58 08.11.2019
4805 Clouds 8 1007 93 10000 6.2 140 06:38 08.11.2019
4806 Clouds 8 1007 87 10000 7.2 140 06:19 08.11.2019
4807 Clouds 7 1008 93 10000 6.2 150 05:36 08.11.2019
4808 Clouds 7 1008 93 9000 6.2 130 04:30 08.11.2019
4809 Clouds 7 1008 93 9000 4.6 130 03:43 08.11.2019
4810 Clouds 8 1007 93 8000 4.1 140 03:19 08.11.2019
4811 Clouds 7 1008 93 7000 4.1 120 01:57 08.11.2019
4812 Clouds 7 1008 93 7000 4.1 120 01:37 08.11.2019
4813 Clouds 6 1008 93 7000 3.1 130 00:59 08.11.2019
4814 Clouds 6 1008 93 7000 3.1 130 00:24 08.11.2019
4815 Clouds 6 1008 93 7000 3.6 120 23:55 07.11.2019
4816 Clouds 6 1008 93 7000 3.6 120 23:33 07.11.2019
4817 Clouds 6 1008 93 7000 3.6 120 22:59 07.11.2019
4818 Clouds 6 1008 100 9000 3.1 130 22:41 07.11.2019
4819 Clouds 6 1008 93 10000 4.1 130 22:21 07.11.2019
4820 Clouds 6 1008 93 10000 4.6 130 21:55 07.11.2019
4821 Clouds 6 1008 93 10000 4.6 130 21:36 07.11.2019
4822 Clouds 6 1008 93 10000 4.1 120 21:18 07.11.2019
4823 Clouds 6 1007 93 10000 3.1 100 20:55 07.11.2019
4824 Clouds 6 1007 93 10000 3.1 100 20:36 07.11.2019
4825 Clouds 7 1007 93 10000 2.6 120 20:18 07.11.2019
4826 Clouds 7 1007 87 10000 3.1 120 19:40 07.11.2019
4827 Clouds 7 1007 87 10000 3.1 120 19:21 07.11.2019
4828 Clouds 8 1007 87 10000 3.1 120 18:58 07.11.2019
4829 Clouds 8 1007 87 10000 3.1 120 18:39 07.11.2019
4830 Clouds 8 1007 87 10000 3.1 120 18:39 07.11.2019
4831 Clouds 8 1007 87 10000 3.1 120 18:39 07.11.2019
4832 Clouds 8 1007 81 10000 3.6 120 18:19 07.11.2019
4833 Clouds 8 1006 76 10000 4.6 130 17:59 07.11.2019
4834 Clouds 9 1006 76 10000 4.6 130 17:38 07.11.2019
4835 Clouds 9 1006 81 10000 5.1 130 17:20 07.11.2019
4836 Clouds 10 1006 81 10000 5.1 130 16:56 07.11.2019
4837 Clouds 10 1006 76 10000 4.6 130 16:37 07.11.2019
4838 Clouds 10 1006 76 10000 4.6 130 16:19 07.11.2019
4839 Clouds 11 1006 71 10000 6.2 130 15:54 07.11.2019
4840 Clouds 11 1006 66 10000 5.7 130 15:36 07.11.2019
4841 Clouds 12 1006 66 10000 5.7 130 15:18 07.11.2019
4842 Clouds 12 1006 71 10000 5.1 140 14:41 07.11.2019
4843 Clouds 12 1006 71 10000 5.1 140 14:23 07.11.2019
4844 Clouds 12 1006 71 10000 3.1 120 13:56 07.11.2019
4845 Clouds 12 1006 66 10000 2.1 140 13:37 07.11.2019
4846 Clouds 12 1006 66 10000 2.1 140 13:19 07.11.2019
4847 Clouds 12 1006 66 10000 1 0 12:57 07.11.2019
4848 Clouds 12 1007 71 10000 1.5 110 12:39 07.11.2019
4849 Clouds 12 1007 71 10000 1.5 110 12:20 07.11.2019
4850 Clouds 11 1007 76 10000 2.6 130 11:43 07.11.2019
4851 Clouds 11 1007 76 10000 2.6 130 11:23 07.11.2019
4852 Clouds 10 1007 81 10000 2.1 140 10:57 07.11.2019
4853 Clouds 10 1007 81 10000 2.1 140 10:55 07.11.2019
4854 Clouds 10 1007 81 10000 2.1 140 10:37 07.11.2019
4855 Clouds 10 1007 87 10000 2.1 170 10:18 07.11.2019
4856 Clouds 9 1007 87 10000 2.1 140 09:42 07.11.2019
4857 Clouds 9 1007 87 10000 2.1 140 09:42 07.11.2019
4858 Clouds 9 1007 87 10000 2.1 140 09:21 07.11.2019
4859 -273 0 0 0 0 0 09:21 07.11.2019
4860 -273 0 0 0 0 0 08:48 07.11.2019
4861 -273 0 0 0 0 0 08:47 07.11.2019
4862 -273 0 0 0 0 0 08:46 07.11.2019
4863 Fog 7 1007 93 10000 1.5 170 08:25 07.11.2019
4864 Fog 7 1007 93 10000 1.5 170 08:25 07.11.2019
4865 Fog 7 1007 93 10000 1.5 170 08:25 07.11.2019
4866 Fog 7 1007 100 8000 2.1 150 07:59 07.11.2019
4867 Clouds 7 1006 100 8000 1.5 160 07:41 07.11.2019
4868 Clouds 7 1006 100 8000 1.5 160 07:21 07.11.2019
4869 Clouds 7 1006 93 10000 1 150 06:48 07.11.2019
4870 Clouds 7 1006 93 8000 1 170 06:28 07.11.2019
4871 Rain 7 1006 93 8000 0.5 0 05:53 07.11.2019
4872 Rain 7 1007 93 9000 1.5 110 05:34 07.11.2019
4873 Clouds 7 1006 93 10000 1 0 04:57 07.11.2019
4874 -273 0 0 0 0 0 04:39 07.11.2019
4875 Rain 7 1007 93 10000 1.5 310 02:57 07.11.2019
4876 -273 0 0 0 0 0 00:47 07.11.2019
4877 Rain 8 1006 93 10000 2.1 330 00:20 07.11.2019
4878 Rain 8 1006 93 10000 2.1 330 23:47 06.11.2019
4879 Rain 8 1007 93 10000 1.5 350 23:22 06.11.2019
4880 Rain 8 1007 93 10000 1.5 350 22:56 06.11.2019
4881 Rain 8 1007 93 0 2.1 210 22:37 06.11.2019
4882 Rain 8 1007 93 0 2.1 210 22:18 06.11.2019
4883 Rain 8 1006 87 10000 3.1 150 21:42 06.11.2019
4884 Rain 8 1006 87 10000 3.1 150 21:21 06.11.2019
4885 Rain 8 1007 93 10000 2.1 10 20:59 06.11.2019
4886 Rain 8 1006 93 0 1.75 162 20:40 06.11.2019
4887 Clouds 8 1006 81 10000 2.1 120 20:22 06.11.2019
4888 Clouds 8 1006 87 10000 2.6 120 19:59 06.11.2019
4889 Clouds 8 1006 81 10000 3.1 130 19:40 06.11.2019
4890 Clouds 8 1006 81 10000 3.1 130 19:21 06.11.2019
4891 Clouds 8 1006 81 10000 3.1 140 18:58 06.11.2019
4892 Clouds 8 1006 81 10000 3.1 140 18:39 06.11.2019
4893 Clouds 9 1006 81 10000 3.6 160 18:19 06.11.2019
4894 Clouds 9 1005 76 10000 3.1 140 17:57 06.11.2019
4895 Clouds 9 1005 76 10000 3.1 140 17:39 06.11.2019
4896 Clouds 9 1005 81 10000 3.1 150 17:21 06.11.2019
4897 Clouds 10 1005 71 10000 3.1 140 16:55 06.11.2019
4898 Clouds 10 1005 71 10000 3.1 140 16:37 06.11.2019
4899 Clouds 11 1005 71 10000 3.6 130 16:18 06.11.2019
4900 Clouds 11 1005 66 10000 3.6 130 15:54 06.11.2019
4901 Clouds 12 1005 66 10000 3.6 130 15:36 06.11.2019
4902 Clouds 13 1005 62 10000 3.6 130 15:18 06.11.2019
4903 Clouds 13 1005 50 10000 2.6 160 14:55 06.11.2019
4904 Clouds 13 1005 50 10000 2.6 160 14:37 06.11.2019
4905 Clouds 13 1005 47 10000 2.6 160 14:19 06.11.2019
4906 Clouds 13 1005 54 10000 2.6 190 13:40 06.11.2019
4907 Clouds 13 1005 54 10000 3.1 180 13:22 06.11.2019
4908 Clouds 13 1005 58 10000 3.1 200 12:58 06.11.2019
4909 Clouds 13 1005 58 10000 3.1 200 12:39 06.11.2019
4910 Clouds 13 1005 58 10000 3.1 200 12:39 06.11.2019
4911 Clouds 13 1005 58 10000 2.1 170 12:21 06.11.2019
4912 Clouds 13 1005 66 10000 2.1 210 11:58 06.11.2019
4913 Clouds 12 1005 66 10000 2.1 210 11:38 06.11.2019
4914 Clouds 12 1005 76 10000 1.5 0 11:18 06.11.2019
4915 Rain 11 1005 71 10000 2.1 200 10:56 06.11.2019
4916 Rain 11 1005 71 10000 2.1 200 10:38 06.11.2019
4917 Rain 10 1005 76 10000 2.1 200 10:20 06.11.2019
4918 Clear 10 1005 81 10000 2.1 210 09:56 06.11.2019
4919 Clear 10 1005 81 10000 2.1 210 09:36 06.11.2019
4920 Clear 9 1004 87 10000 2.1 190 09:18 06.11.2019
4921 Clear 8 1004 87 10000 2.1 200 08:54 06.11.2019
4922 Clear 8 1004 87 10000 2.1 200 08:36 06.11.2019
4923 Rain 7 1004 81 10000 2.1 240 08:18 06.11.2019
4924 Rain 7 1004 81 10000 2.1 240 08:18 06.11.2019
4925 Rain 6 1003 81 10000 3.1 250 07:40 06.11.2019
4926 Rain 6 1003 87 10000 2.6 240 07:21 06.11.2019
4927 Rain 6 1003 87 10000 2.6 240 07:21 06.11.2019
4928 Rain 7 1002 87 10000 3.1 250 06:47 06.11.2019
4929 Clouds 7 1002 87 10000 2.6 250 06:26 06.11.2019
4930 Rain 7 1001 87 10000 4.1 280 04:52 06.11.2019
4931 Rain 7 1001 87 10000 4.6 270 02:28 06.11.2019
4932 Rain 7 1001 87 10000 5.1 280 01:38 06.11.2019
4933 Rain 8 1000 87 10000 4.1 290 00:39 06.11.2019
4934 Rain 8 999 87 10000 4.1 300 23:58 05.11.2019
4935 Rain 8 999 87 10000 4.1 300 23:39 05.11.2019
4936 Rain 8 999 87 10000 4.1 300 23:39 05.11.2019
4937 Rain 8 1000 87 10000 5.1 280 23:21 05.11.2019
4938 Rain 8 1000 87 10000 5.1 280 23:21 05.11.2019
4939 Rain 8 1000 87 10000 5.1 270 22:46 05.11.2019
4940 Rain 8 999 93 10000 3.6 310 22:20 05.11.2019
4941 Rain 8 999 93 10000 3.6 310 21:59 05.11.2019
4942 Rain 8 999 93 10000 3.6 310 21:59 05.11.2019
4943 Rain 8 1000 93 10000 6.2 300 21:41 05.11.2019
4944 Rain 8 999 87 10000 4.6 300 21:21 05.11.2019
4945 Rain 8 1000 87 10000 5.7 290 20:58 05.11.2019
4946 Rain 8 1000 87 10000 5.7 290 20:38 05.11.2019
4947 Rain 8 999 87 10000 5.7 300 20:20 05.11.2019
4948 Rain 8 999 87 10000 4.1 300 19:57 05.11.2019
4949 Rain 8 999 87 10000 4.1 300 19:38 05.11.2019
4950 Rain 8 999 87 10000 4.1 300 19:38 05.11.2019
4951 Rain 8 999 87 10000 4.1 300 19:38 05.11.2019
4952 Rain 9 999 87 10000 4.6 290 19:20 05.11.2019
4953 Rain 9 999 87 10000 3.6 300 18:57 05.11.2019
4954 Rain 9 999 87 10000 3.6 300 18:39 05.11.2019
4955 Rain 9 1000 87 10000 3.6 300 18:20 05.11.2019
4956 Rain 9 1000 87 10000 3.6 300 18:20 05.11.2019
4957 Rain 9 999 81 10000 4.1 290 17:57 05.11.2019
4958 Rain 9 999 81 10000 4.1 290 17:38 05.11.2019
4959 Clouds 9 999 87 10000 4.1 310 17:18 05.11.2019
4960 Clouds 9 1000 87 10000 4.6 300 16:54 05.11.2019
4961 Clouds 9 1000 87 10000 4.6 300 16:36 05.11.2019
4962 Clouds 10 999 87 10000 5.1 300 16:18 05.11.2019
4963 Rain 10 999 87 10000 4.1 310 15:37 05.11.2019
4964 Rain 10 999 87 10000 4.1 310 15:19 05.11.2019
4965 Rain 10 999 87 10000 4.1 310 15:19 05.11.2019
4966 Rain 10 999 93 10000 4.1 310 14:57 05.11.2019
4967 Rain 10 999 93 10000 4.1 310 14:38 05.11.2019
4968 Rain 10 999 93 10000 4.1 310 14:38 05.11.2019
4969 Rain 10 998 93 10000 4.6 310 14:20 05.11.2019
4970 Rain 10 998 93 10000 3.6 310 13:43 05.11.2019
4971 Rain 10 999 93 10000 3.6 310 13:24 05.11.2019
4972 Rain 10 999 93 10000 3.1 330 12:59 05.11.2019
4973 Rain 9 999 93 10000 3.1 330 12:39 05.11.2019
4974 Rain 9 1000 93 7000 4.1 300 12:19 05.11.2019
4975 Rain 9 1000 93 10000 3.6 320 11:55 05.11.2019
4976 Rain 9 1000 93 10000 3.6 320 11:36 05.11.2019
4977 Rain 8 1000 100 4200 4.6 310 11:18 05.11.2019
4978 Rain 8 999 100 3500 2.6 360 10:42 05.11.2019
4979 Rain 8 999 100 4300 2.6 340 10:23 05.11.2019
4980 Rain 8 1000 100 4200 2.1 60 09:57 05.11.2019
4981 Rain 8 1000 100 4200 2.1 60 09:57 05.11.2019
4982 Rain 8 1000 100 4200 2.1 60 09:38 05.11.2019
4983 Rain 8 1000 100 4500 1 0 09:19 05.11.2019
4984 Rain 8 1000 93 5000 1 0 08:54 05.11.2019
4985 Rain 8 1000 93 5000 1 0 08:36 05.11.2019
4986 Rain 8 1000 93 7000 1.5 120 08:18 05.11.2019
4987 Rain 7 1000 93 2600 1 0 07:42 05.11.2019
4988 Rain 7 1000 93 2900 2.6 110 07:23 05.11.2019
4989 Rain 7 1000 93 3600 2.1 70 06:51 05.11.2019
4990 Fog 7 1001 100 650 3.6 140 05:52 05.11.2019
4991 Rain 7 1001 100 650 3.6 140 05:34 05.11.2019
4992 Fog 6 1000 100 800 4.1 140 04:47 05.11.2019
4993 Fog 6 1000 100 500 4.6 170 04:18 05.11.2019
4994 Clouds 6 1000 100 10000 2.1 170 03:23 05.11.2019
4995 Mist 6 1000 100 10000 1.5 180 02:41 05.11.2019
4996 Mist 6 1000 100 600 3.1 130 01:48 05.11.2019
4997 Mist 6 1000 100 500 3.1 190 00:39 05.11.2019
4998 Clouds 7 1000 100 10000 1.5 220 00:18 05.11.2019
4999 Clouds 7 999 100 10000 1 0 23:41 04.11.2019
5000 Clear 7 999 93 10000 1.5 110 23:19 04.11.2019
5001 Clear 7 999 93 10000 1.5 120 22:55 04.11.2019
5002 Clear 7 999 93 10000 1.5 120 22:37 04.11.2019
5003 Clear 7 999 87 10000 1 0 22:19 04.11.2019
5004 Clear 8 998 87 10000 2.6 180 21:54 04.11.2019
5005 Clear 8 998 87 10000 2.6 180 21:36 04.11.2019
5006 Clear 8 998 93 10000 3.6 180 21:18 04.11.2019
5007 Clear 8 997 87 10000 2.6 160 20:54 04.11.2019
5008 Clouds 9 997 87 10000 2.6 160 20:36 04.11.2019
5009 Clouds 9 997 87 10000 2.6 140 20:18 04.11.2019
5010 Clouds 9 997 81 10000 2.6 150 19:42 04.11.2019
5011 Clouds 9 997 87 10000 4.1 150 19:23 04.11.2019
5012 Clouds 10 996 81 10000 4.6 150 18:58 04.11.2019
5013 Clouds 10 996 81 10000 4.6 150 18:39 04.11.2019
5014 Clouds 10 996 81 10000 4.6 150 18:39 04.11.2019
5015 Clouds 10 996 81 10000 3.6 140 18:21 04.11.2019
5016 Clouds 11 996 81 10000 4.6 140 17:56 04.11.2019
5017 Clouds 11 997 81 10000 4.6 160 17:36 04.11.2019
5018 Clouds 12 997 81 10000 4.6 160 17:18 04.11.2019
5019 Clouds 13 996 76 10000 4.6 140 16:43 04.11.2019
5020 Clouds 13 996 71 10000 4.6 150 16:24 04.11.2019
5021 Clouds 15 996 58 10000 3.6 150 15:58 04.11.2019
5022 Clouds 15 996 58 10000 3.6 150 15:40 04.11.2019
5023 Clouds 16 996 55 10000 4.6 180 15:21 04.11.2019
5024 Clouds 16 996 55 10000 4.1 190 14:58 04.11.2019
5025 Clouds 16 996 55 10000 4.1 190 14:39 04.11.2019
5026 Clouds 16 996 48 10000 4.6 280 14:20 04.11.2019
5027 Clouds 15 996 51 10000 3.6 300 13:57 04.11.2019
5028 Clouds 15 996 51 10000 3.6 300 13:39 04.11.2019
5029 Clouds 16 996 51 10000 5.1 300 13:20 04.11.2019
5030 Clouds 15 996 58 10000 4.1 290 12:55 04.11.2019
5031 Clouds 15 996 58 10000 4.1 290 12:55 04.11.2019
5032 Clouds 15 996 58 10000 4.1 290 12:36 04.11.2019
5033 Clouds 15 996 67 10000 2.1 290 12:18 04.11.2019
5034 Clouds 14 997 71 10000 2.6 300 11:42 04.11.2019
5035 Clouds 13 997 76 10000 2.6 300 11:23 04.11.2019
5036 Rain 12 997 81 10000 3.6 300 10:56 04.11.2019
5037 Rain 12 997 81 10000 3.6 300 10:38 04.11.2019
5038 Rain 12 997 81 10000 5.1 290 10:18 04.11.2019
5039 Rain 12 997 71 10000 7.2 280 09:44 04.11.2019
5040 Rain 12 996 62 10000 7.2 280 09:26 04.11.2019
5041 Rain 12 996 62 10000 8.7 290 08:56 04.11.2019
5042 Rain 12 996 62 10000 8.7 290 08:37 04.11.2019
5043 Rain 12 996 62 10000 7.7 290 08:18 04.11.2019
5044 Rain 12 996 62 10000 10.3 290 07:42 04.11.2019
5045 Rain 12 995 62 10000 8.7 290 07:20 04.11.2019
5046 Clouds 12 995 58 10000 7.7 290 06:49 04.11.2019
5047 Clouds 12 995 58 10000 7.7 290 06:49 04.11.2019
5048 Rain 12 995 58 10000 8.7 290 06:18 04.11.2019
5049 Clouds 12 994 58 10000 7.2 290 05:37 04.11.2019
5050 Clouds 13 994 58 10000 7.7 270 04:41 04.11.2019
5051 Clouds 13 994 58 10000 6.7 280 03:48 04.11.2019
5052 Clouds 13 992 67 10000 10.3 270 01:45 04.11.2019
5053 Clouds 14 990 77 10000 8.2 160 01:19 04.11.2019
5054 Clouds 15 990 72 10000 9.8 160 00:39 04.11.2019
5055 Clouds 15 990 72 10000 8.7 150 00:19 04.11.2019
5056 Clouds 16 990 72 10000 8.2 150 23:40 03.11.2019
5057 Clouds 16 990 67 10000 10.3 140 23:21 03.11.2019
5058 Clouds 16 991 67 10000 10.8 150 22:57 03.11.2019
5059 Clouds 16 991 67 10000 10.8 150 22:39 03.11.2019
5060 Clouds 16 991 67 10000 11.8 160 22:19 03.11.2019
5061 Clouds 16 991 67 10000 11.3 150 21:46 03.11.2019
5062 Clouds 17 991 67 10000 11.3 160 21:22 03.11.2019
5063 Clouds 17 991 67 10000 10.8 160 20:59 03.11.2019
5064 Clouds 17 991 67 10000 10.8 160 20:38 03.11.2019
5065 Clouds 17 991 67 10000 10.8 160 20:38 03.11.2019
5066 Clouds 17 991 63 10000 11.3 160 20:20 03.11.2019
5067 Clouds 17 992 63 10000 11.3 160 19:58 03.11.2019
5068 Clouds 17 992 63 10000 11.3 160 19:39 03.11.2019
5069 Clouds 17 992 68 10000 10.8 150 19:21 03.11.2019
5070 Rain 17 992 72 10000 6.7 150 18:59 03.11.2019
5071 Rain 17 992 72 10000 6.7 150 18:38 03.11.2019
5072 Clouds 17 992 68 10000 9.3 140 18:18 03.11.2019
5073 Clouds 17 992 68 10000 7.2 140 17:56 03.11.2019
5074 Clouds 17 992 68 10000 7.2 140 17:37 03.11.2019
5075 Clouds 17 992 63 10000 9.8 160 17:18 03.11.2019
5076 Clouds 17 992 68 10000 10.8 150 16:54 03.11.2019
5077 Clouds 17 992 68 10000 10.8 150 16:36 03.11.2019
5078 Clouds 17 992 68 10000 7.7 150 16:18 03.11.2019
5079 Clouds 17 992 68 10000 7.7 150 15:43 03.11.2019
5080 Clouds 17 992 63 10000 9.8 160 15:24 03.11.2019
5081 Clouds 17 992 63 10000 9.8 160 14:56 03.11.2019
5082 Clouds 17 992 63 10000 9.8 160 14:38 03.11.2019
5083 Clouds 17 992 68 10000 9.8 160 14:18 03.11.2019
5084 Clouds 17 993 68 10000 9.8 160 13:43 03.11.2019
5085 Clouds 17 993 68 10000 9.3 160 13:20 03.11.2019
5086 Clouds 17 994 68 10000 9.8 170 12:58 03.11.2019
5087 Clouds 17 994 68 10000 9.8 170 12:37 03.11.2019
5088 Clouds 17 994 63 10000 10.8 170 12:19 03.11.2019
5089 Clouds 17 994 59 10000 11.3 170 11:44 03.11.2019
5090 Clear 15 994 59 10000 10.8 160 11:22 03.11.2019
5091 Clear 14 994 72 10000 11.8 150 10:58 03.11.2019
5092 Clear 14 994 72 10000 11.8 150 10:40 03.11.2019
5093 Clear 13 994 77 10000 9.3 150 10:22 03.11.2019
5094 Clear 13 994 82 10000 11.3 150 09:56 03.11.2019
5095 Clear 12 994 82 10000 11.3 150 09:38 03.11.2019
5096 Clear 11 994 82 10000 11.8 150 09:20 03.11.2019
5097 Clouds 10 994 76 10000 11.3 150 08:39 03.11.2019
5098 Clouds 10 995 82 10000 10.3 150 08:20 03.11.2019
5099 Clouds 9 995 93 10000 7.7 140 07:45 03.11.2019
5100 Clouds 8 995 87 10000 6.2 140 07:25 03.11.2019
5101 Clear 8 995 87 10000 8.2 150 06:49 03.11.2019
5102 Clear 9 995 87 10000 8.2 150 06:30 03.11.2019
5103 Clouds 9 995 93 10000 8.2 140 05:39 03.11.2019
5104 Clouds 8 996 93 10000 6.2 130 04:56 03.11.2019
5105 Clouds 8 996 93 10000 6.2 130 04:36 03.11.2019
5106 Clouds 8 997 93 10000 5.7 130 03:31 03.11.2019
5107 Clouds 8 998 93 10000 7.7 130 02:42 03.11.2019
5108 Clouds 9 998 93 10000 6.7 130 02:19 03.11.2019
5109 Clouds 8 999 93 10000 7.2 130 01:38 03.11.2019
5110 Clouds 8 999 93 9000 6.7 120 01:20 03.11.2019
5111 Clouds 8 1000 87 8000 5.7 120 00:43 03.11.2019
5112 Clouds 8 1000 93 8000 5.1 120 00:25 03.11.2019
5113 Clouds 8 1001 93 8000 5.7 110 23:58 02.11.2019
5114 Clouds 7 1001 93 8000 5.7 110 23:38 02.11.2019
5115 Clouds 7 1001 87 8000 5.7 110 23:19 02.11.2019
5116 Clouds 7 1001 87 8000 5.7 110 23:19 02.11.2019
5117 Clouds 7 1002 93 7000 3.1 120 22:55 02.11.2019
5118 Clouds 7 1002 93 7000 3.1 120 22:37 02.11.2019
5119 Clouds 7 1002 93 7000 2.1 130 22:18 02.11.2019
5120 Clouds 6 1002 93 7000 3.1 130 21:56 02.11.2019
5121 Clouds 6 1002 93 7000 3.1 130 21:38 02.11.2019
5122 Clouds 6 1003 87 7000 3.1 140 21:18 02.11.2019
5123 Clouds 7 1003 87 7000 3.1 140 21:18 02.11.2019
5124 Clouds 6 1003 87 7000 3.1 140 20:58 02.11.2019
5125 Clouds 7 1003 87 8000 2.6 160 20:39 02.11.2019
5126 Clouds 7 1003 87 9000 2.1 130 20:19 02.11.2019
5127 Clouds 7 1003 87 9000 3.6 130 19:41 02.11.2019
5128 Clouds 8 1003 87 10000 2.6 130 19:23 02.11.2019
5129 Clouds 8 1003 87 10000 3.1 130 18:57 02.11.2019
5130 Clouds 8 1003 87 10000 3.1 130 18:38 02.11.2019
5131 Clouds 8 1003 81 10000 4.1 130 18:20 02.11.2019
5132 Clouds 9 1004 81 10000 2.1 100 17:58 02.11.2019
5133 Clouds 9 1003 76 10000 3.6 100 17:39 02.11.2019
5134 Clouds 9 1003 76 10000 3.6 100 17:21 02.11.2019
5135 Clouds 9 1003 81 10000 3.1 100 16:57 02.11.2019
5136 Clouds 10 1003 81 10000 3.1 100 16:37 02.11.2019
5137 Clouds 10 1003 76 10000 3.6 110 16:18 02.11.2019
5138 Clouds 10 1003 76 10000 4.1 130 15:42 02.11.2019
5139 Clouds 10 1003 76 10000 5.1 120 15:20 02.11.2019
5140 Clouds 10 1003 71 10000 5.1 120 14:43 02.11.2019
5141 Clouds 10 1004 71 10000 5.1 130 14:24 02.11.2019
5142 Clouds 10 1004 71 10000 5.1 130 14:24 02.11.2019
5143 Clouds 10 1004 71 10000 5.1 130 13:58 02.11.2019
5144 Clouds 10 1004 76 10000 6.2 120 13:39 02.11.2019
5145 Clouds 10 1004 76 10000 7.2 120 13:19 02.11.2019
5146 Clouds 10 1004 71 10000 6.7 130 12:56 02.11.2019
5147 Clouds 10 1004 71 10000 6.7 130 12:37 02.11.2019
5148 Clouds 10 1004 71 10000 6.2 120 12:18 02.11.2019
5149 Clouds 9 1005 76 10000 6.7 130 11:41 02.11.2019
5150 Clouds 9 1005 76 10000 6.7 130 11:23 02.11.2019
5151 Clouds 8 1005 70 10000 6.7 140 10:56 02.11.2019
5152 Clouds 8 1005 70 10000 6.7 140 10:38 02.11.2019
5153 Clouds 8 1005 75 10000 7.2 130 10:18 02.11.2019
5154 Clouds 7 1005 81 10000 6.7 140 09:40 02.11.2019
5155 Clouds 7 1005 81 10000 6.7 140 09:21 02.11.2019
5156 Clouds 7 1005 87 10000 6.7 140 08:50 02.11.2019
5157 Clouds 6 1006 81 10000 6.7 140 08:24 02.11.2019
5158 Clouds 6 1006 81 10000 6.2 140 07:57 02.11.2019
5159 Clouds 6 1006 81 10000 6.2 140 07:39 02.11.2019
5160 Clouds 6 1006 81 10000 5.1 140 07:20 02.11.2019
5161 Clouds 6 1006 81 10000 5.7 140 06:46 02.11.2019
5162 Clouds 6 1006 81 10000 5.1 150 06:21 02.11.2019
5163 Clouds 6 1006 81 10000 5.1 140 05:38 02.11.2019
5164 Clouds 6 1007 81 10000 5.7 140 04:24 02.11.2019
5165 Clouds 6 1008 81 10000 6.7 150 03:51 02.11.2019
5166 Clouds 6 1008 81 10000 7.2 150 03:28 02.11.2019
5167 Clouds 6 1009 81 10000 7.2 150 02:19 02.11.2019
5168 Clouds 6 1010 75 10000 8.7 150 01:29 02.11.2019
5169 Clouds 6 1010 75 10000 9.3 150 00:56 02.11.2019
5170 Clouds 6 1010 75 10000 9.3 150 00:30 02.11.2019
5171 Clouds 6 1011 75 10000 10.8 150 23:56 01.11.2019
5172 Clouds 6 1011 75 10000 10.8 150 23:37 01.11.2019
5173 Clouds 6 1011 75 10000 9.3 150 23:19 01.11.2019
5174 Clouds 6 1011 75 10000 10.3 150 22:42 01.11.2019
5175 Clouds 6 1012 75 10000 11.8 150 22:20 01.11.2019
5176 Clouds 6 1012 75 10000 10.3 150 21:43 01.11.2019
5177 Clouds 6 1012 75 10000 10.3 150 21:43 01.11.2019
5178 Clouds 6 1013 75 10000 10.3 150 21:24 01.11.2019
5179 Clouds 6 1013 75 10000 10.3 150 20:59 01.11.2019
5180 Clouds 6 1013 75 10000 10.3 150 20:41 01.11.2019
5181 Clouds 6 1013 75 10000 9.8 140 20:22 01.11.2019
5182 Clouds 6 1014 70 10000 9.8 140 19:59 01.11.2019
5183 Clouds 6 1014 70 10000 9.8 140 19:40 01.11.2019
5184 Clouds 6 1014 65 10000 9.8 150 19:21 01.11.2019
5185 Clouds 6 1015 65 10000 8.7 150 18:41 01.11.2019
5186 Clouds 6 1015 65 10000 8.2 140 18:21 01.11.2019
5187 Clouds 6 1015 65 10000 8.7 150 17:58 01.11.2019
5188 Clouds 7 1015 65 10000 8.7 150 17:40 01.11.2019
5189 Clouds 7 1015 65 10000 7.7 140 17:22 01.11.2019
5190 Clouds 7 1016 61 10000 7.7 150 16:40 01.11.2019
5191 Clouds 8 1016 57 10000 9.3 150 16:20 01.11.2019
5192 Clouds 9 1017 57 10000 9.3 140 15:58 01.11.2019
5193 Clouds 9 1017 57 10000 9.3 140 15:40 01.11.2019
5194 Clouds 9 1017 53 10000 10.3 140 15:21 01.11.2019
5195 Clouds 9 1017 53 10000 10.8 140 14:44 01.11.2019
5196 Clouds 10 1018 50 10000 9.3 140 14:25 01.11.2019
5197 Clouds 9 1018 57 10000 9.8 140 13:59 01.11.2019
5198 Clouds 10 1018 57 10000 9.8 140 13:40 01.11.2019
5199 Clouds 10 1018 57 10000 9.8 140 13:40 01.11.2019
5200 Clouds 10 1019 50 10000 10.3 140 13:21 01.11.2019
5201 Clouds 10 1019 57 10000 8.7 150 12:55 01.11.2019
5202 Clouds 10 1019 57 10000 8.7 150 12:37 01.11.2019
5203 Clouds 9 1020 50 10000 9.8 150 12:18 01.11.2019
5204 Clouds 9 1020 50 10000 9.8 150 11:41 01.11.2019
5205 Clouds 8 1020 54 10000 10.3 140 11:23 01.11.2019
5206 Clouds 8 1021 61 10000 9.3 140 10:44 01.11.2019
5207 Clouds 7 1021 70 10000 7.2 130 10:25 01.11.2019
5208 Clouds 7 1021 70 10000 7.2 130 09:59 01.11.2019
5209 Clouds 7 1021 70 10000 7.2 130 09:59 01.11.2019
5210 Clouds 6 1021 75 10000 6.2 120 09:41 01.11.2019
5211 Clear 6 1021 80 10000 5.1 120 09:21 01.11.2019
5212 Clouds 4 1022 86 10000 5.7 120 08:46 01.11.2019
5213 Clouds 3 1022 79 10000 4.1 120 08:23 01.11.2019
5214 Clouds 2 1022 86 9000 4.1 110 07:58 01.11.2019
5215 Clouds 2 1022 86 9000 4.1 110 07:40 01.11.2019
5216 Clouds 1 1022 86 9000 4.6 110 07:21 01.11.2019
5217 Clouds 1 1022 79 9000 4.1 110 06:53 01.11.2019
5218 Clouds 1 1022 79 9000 3.1 120 06:22 01.11.2019
5219 Clouds 1 1022 79 9000 3.1 120 06:22 01.11.2019
5220 Clouds 2 1022 93 7000 3.1 130 05:44 01.11.2019
5221 Clouds 2 1023 86 7000 4.6 120 04:39 01.11.2019
5222 Clouds 3 1023 93 7000 4.6 120 03:32 01.11.2019
5223 Clouds 4 1024 93 7000 3.6 130 01:46 01.11.2019
5224 Clouds 4 1024 86 8000 3.6 130 00:58 01.11.2019
5225 Rain 3 1024 86 8000 4.1 120 00:20 01.11.2019
5226 Clouds 4 1024 86 8000 3.6 120 23:44 31.10.2019
5227 Clouds 4 1024 86 7000 4.1 120 23:23 31.10.2019
5228 Clouds 4 1024 86 7000 4.1 120 22:58 31.10.2019
5229 Clouds 4 1025 86 7000 3.6 110 22:40 31.10.2019
5230 Clouds 4 1025 86 7000 3.6 110 22:40 31.10.2019
5231 Clouds 5 1025 86 8000 3.6 120 22:21 31.10.2019
5232 Clouds 4 1025 86 9000 3.1 120 21:45 31.10.2019
5233 Clouds 4 1025 86 9000 4.1 120 21:23 31.10.2019
5234 Clouds 4 1025 93 8000 3.6 120 20:59 31.10.2019
5235 Clouds 5 1025 93 8000 3.6 120 20:40 31.10.2019
5236 Clouds 5 1025 87 9000 2.6 120 20:22 31.10.2019
5237 Clouds 5 1025 86 10000 2.6 130 19:45 31.10.2019
5238 Clouds 5 1025 86 10000 2.6 130 19:27 31.10.2019
5239 Clouds 5 1025 81 8000 3.1 120 18:59 31.10.2019
5240 Clouds 5 1025 81 8000 3.1 120 18:39 31.10.2019
5241 Clouds 5 1025 87 9000 2.6 120 18:21 31.10.2019
5242 Clouds 5 1025 87 9000 2.6 120 18:21 31.10.2019
5243 Clouds 5 1025 87 8000 2.6 120 17:55 31.10.2019
5244 Clouds 6 1025 81 10000 2.6 120 17:36 31.10.2019
5245 Clouds 6 1025 81 10000 2.6 120 17:18 31.10.2019
5246 Clouds 6 1024 81 9000 3.1 120 16:41 31.10.2019
5247 Clouds 6 1025 81 10000 3.6 130 16:20 31.10.2019
5248 Clouds 6 1025 81 10000 3.6 130 16:20 31.10.2019
5249 Clouds 6 1025 81 10000 4.1 140 15:59 31.10.2019
5250 Clouds 6 1025 81 10000 4.1 140 15:40 31.10.2019
5251 Clouds 6 1025 81 10000 4.1 130 15:20 31.10.2019
5252 Clouds 6 1025 81 10000 3.6 130 14:57 31.10.2019
5253 Clouds 6 1025 81 10000 3.6 130 14:39 31.10.2019
5254 Clouds 6 1025 81 10000 3.6 130 14:39 31.10.2019
5255 Clouds 6 1025 81 10000 3.6 120 14:21 31.10.2019
5256 Clouds 6 1025 86 7000 4.1 120 13:57 31.10.2019
5257 Clouds 6 1025 86 7000 4.1 120 13:38 31.10.2019
5258 Clouds 6 1025 86 7000 4.1 130 13:19 31.10.2019
5259 Clouds 5 1026 93 7000 3.6 110 12:55 31.10.2019
5260 Clouds 6 1026 93 7000 3.6 110 12:37 31.10.2019
5261 Clouds 5 1026 93 7000 3.6 100 12:18 31.10.2019
5262 Clouds 5 1026 93 6000 3.1 120 11:44 31.10.2019
5263 Mist 4 1027 93 4800 3.1 140 11:20 31.10.2019
5264 Mist 4 1027 93 3300 0.5 0 10:57 31.10.2019
5265 Mist 3 1027 93 3300 0.5 0 10:38 31.10.2019
5266 Mist 3 1027 100 2000 0.5 0 10:20 31.10.2019
5267 Mist 2 1026 93 1800 0.5 0 09:45 31.10.2019
5268 Mist 2 1026 100 1800 1.5 360 09:20 31.10.2019
5269 Fog 1 1026 69 1800 2.1 10 08:57 31.10.2019
5270 Fog 1 1026 69 1800 2.1 10 08:39 31.10.2019
5271 Mist 1 1026 95 1400 1 30 08:20 31.10.2019
5272 Fog 0 1026 95 1500 1.5 40 07:45 31.10.2019
5273 Mist -1 1026 95 2000 1.5 40 07:24 31.10.2019
5274 Mist -1 1026 95 4700 0.5 0 06:52 31.10.2019
5275 Mist -1 1026 95 5000 2.1 50 06:30 31.10.2019
5276 Clouds -1 1026 82 6000 1.5 60 05:19 31.10.2019
5277 Clouds -1 1026 92 10000 1.5 150 02:49 31.10.2019
5278 Clouds 0 1027 92 10000 1 140 02:25 31.10.2019
5279 Clouds 0 1027 92 10000 1 140 02:25 31.10.2019
5280 Clouds 0 1027 68 10000 1 320 01:20 31.10.2019
5281 Clouds 0 1027 68 10000 1 0 00:26 31.10.2019
5282 Clouds 0 1027 86 10000 2.1 30 23:42 30.10.2019
5283 Clouds 0 1027 80 10000 2.1 320 23:23 30.10.2019
5284 Clouds 1 1027 80 10000 2.1 320 22:42 30.10.2019
5285 Clouds 1 1028 74 10000 1.5 300 22:19 30.10.2019
5286 Clouds 1 1028 80 10000 1 330 21:55 30.10.2019
5287 Clouds 1 1028 80 10000 1 330 21:37 30.10.2019
5288 Clouds 1 1028 80 10000 1 330 21:37 30.10.2019
5289 Clouds 1 1027 59 10000 2.1 320 21:18 30.10.2019
5290 Clouds 1 1027 59 10000 2.1 320 20:58 30.10.2019
5291 Clouds 2 1027 59 10000 2.1 320 20:39 30.10.2019
5292 Clouds 2 1027 93 10000 1 350 20:20 30.10.2019
5293 Clouds 2 1027 80 10000 1.5 340 19:54 30.10.2019
5294 Clouds 2 1027 80 10000 1.5 340 19:36 30.10.2019
5295 Clouds 3 1027 86 10000 0.5 0 19:18 30.10.2019
5296 Clouds 3 1027 75 10000 1.5 250 18:39 30.10.2019
5297 Clouds 4 1027 80 10000 1 0 18:19 30.10.2019
5298 Clouds 4 1027 75 10000 0.5 0 17:56 30.10.2019
5299 Clouds 4 1027 75 10000 0.5 0 17:38 30.10.2019
5300 Clouds 4 1027 75 10000 0.5 0 17:38 30.10.2019
5301 Clouds 5 1027 70 10000 1.5 310 17:18 30.10.2019
5302 Clouds 6 1026 65 10000 1 360 16:55 30.10.2019
5303 Clouds 6 1026 65 10000 1 360 16:36 30.10.2019
5304 Clouds 7 1026 65 10000 2.1 20 16:18 30.10.2019
5305 Clouds 8 1027 70 10000 3.6 350 15:41 30.10.2019
5306 Clouds 8 1027 70 10000 3.6 350 15:41 30.10.2019
5307 Clouds 8 1027 65 10000 3.1 320 15:21 30.10.2019
5308 Clouds 8 1027 65 10000 3.1 320 15:21 30.10.2019
5309 Clouds 8 1027 65 10000 3.1 320 14:59 30.10.2019
5310 Clouds 8 1027 65 10000 3.6 330 14:41 30.10.2019
5311 Clouds 8 1027 70 10000 3.6 360 14:22 30.10.2019
5312 Clouds 8 1027 70 10000 3.1 10 13:58 30.10.2019
5313 Clouds 8 1027 70 10000 3.1 10 13:39 30.10.2019
5314 Clouds 7 1027 70 10000 3.1 360 13:19 30.10.2019
5315 Clouds 7 1027 70 10000 3.6 350 12:56 30.10.2019
5316 Clouds 7 1027 70 10000 3.6 350 12:37 30.10.2019
5317 Rain 7 1027 75 10000 3.1 340 12:19 30.10.2019
5318 Rain 6 1027 81 10000 3.1 330 11:41 30.10.2019
5319 Rain 6 1028 81 10000 4.1 340 11:22 30.10.2019
5320 Rain 6 1027 81 10000 4.1 340 10:45 30.10.2019
5321 Rain 6 1027 86 10000 3.6 350 10:26 30.10.2019
5322 Rain 5 1027 86 10000 3.6 340 09:58 30.10.2019
5323 Rain 5 1027 86 10000 3.6 340 09:39 30.10.2019
5324 Rain 5 1027 86 10000 3.6 340 09:19 30.10.2019
5325 Rain 5 1027 86 10000 3.6 340 08:41 30.10.2019
5326 Rain 5 1027 86 10000 3.1 350 08:22 30.10.2019
5327 Rain 5 1026 86 10000 3.1 350 07:51 30.10.2019
5328 Clouds 5 1026 86 10000 3.1 350 07:33 30.10.2019
5329 Rain 5 1026 80 10000 4.1 340 06:43 30.10.2019
5330 Rain 5 1026 80 10000 4.1 340 06:43 30.10.2019
5331 Rain 5 1026 80 10000 3.6 340 06:23 30.10.2019
5332 Clouds 5 1026 80 10000 3.1 340 05:51 30.10.2019
5333 Clouds 5 1026 80 10000 3.1 340 05:32 30.10.2019
5334 Rain 6 1026 75 10000 3.6 360 03:47 30.10.2019
5335 Rain 6 1026 75 10000 4.1 350 03:20 30.10.2019
5336 Clouds 6 1025 70 10000 3.6 360 02:32 30.10.2019
5337 Clouds 7 1025 70 10000 3.6 360 01:34 30.10.2019
5338 Clouds 7 1025 70 10000 4.1 10 00:31 30.10.2019
5339 Clouds 7 1025 75 10000 3.6 360 23:47 29.10.2019
5340 Clouds 8 1025 75 10000 3.1 340 23:28 29.10.2019
5341 Clouds 8 1025 70 10000 3.6 340 22:57 29.10.2019
5342 Clouds 8 1025 70 10000 3.6 340 22:38 29.10.2019
5343 Clouds 8 1024 70 10000 4.1 340 22:18 29.10.2019
5344 Clouds 8 1024 70 10000 3.6 330 21:54 29.10.2019
5345 Clouds 8 1024 70 10000 3.6 330 21:36 29.10.2019
5346 Clouds 8 1024 70 10000 3.6 320 21:18 29.10.2019
5347 Clouds 8 1024 75 10000 2.6 330 20:41 29.10.2019
5348 Clouds 8 1024 66 10000 3.1 330 20:22 29.10.2019
5349 Clouds 8 1023 66 10000 4.6 320 19:58 29.10.2019
5350 Clouds 8 1023 66 10000 4.6 320 19:39 29.10.2019
5351 Clouds 8 1023 66 10000 3.6 320 19:20 29.10.2019
5352 Clouds 8 1023 66 10000 4.1 320 18:57 29.10.2019
5353 Clouds 8 1023 66 10000 4.1 320 18:38 29.10.2019
5354 Clouds 8 1022 66 10000 3.6 320 18:19 29.10.2019
5355 Clouds 8 1022 70 10000 3.6 320 17:56 29.10.2019
5356 Clouds 8 1022 70 10000 3.6 320 17:37 29.10.2019
5357 Clouds 9 1022 66 10000 3.1 320 17:18 29.10.2019
5358 Clouds 9 1021 66 10000 3.6 350 16:40 29.10.2019
5359 Clouds 9 1021 61 10000 4.6 340 16:21 29.10.2019
5360 Clouds 10 1021 61 10000 4.6 340 15:58 29.10.2019
5361 Clouds 10 1021 61 10000 4.6 350 15:39 29.10.2019
5362 Clouds 10 1021 61 10000 4.1 340 15:20 29.10.2019
5363 Clouds 10 1021 66 10000 5.1 330 14:56 29.10.2019
5364 Clouds 10 1021 66 10000 5.1 330 14:38 29.10.2019
5365 Clouds 10 1021 66 10000 4.6 330 14:19 29.10.2019
5366 Clouds 9 1021 70 10000 3.6 330 13:40 29.10.2019
5367 Clouds 9 1021 70 10000 3.6 330 13:40 29.10.2019
5368 Clouds 9 1021 70 10000 3.1 320 13:22 29.10.2019
5369 Clouds 9 1021 70 10000 3.1 320 13:22 29.10.2019
5370 Clouds 9 1021 75 10000 3.6 310 12:55 29.10.2019
5371 Clouds 9 1021 75 10000 3.6 310 12:37 29.10.2019
5372 Clouds 9 1021 75 10000 3.6 330 12:19 29.10.2019
5373 Clouds 8 1021 75 10000 3.1 340 11:42 29.10.2019
5374 Clouds 8 1021 75 10000 3.1 340 11:42 29.10.2019
5375 Clouds 8 1021 81 10000 2.6 330 11:22 29.10.2019
5376 Rain 8 1021 81 10000 2.1 340 10:58 29.10.2019
5377 Rain 8 1021 81 10000 2.1 340 10:39 29.10.2019
5378 Rain 7 1021 81 10000 2.1 340 10:20 29.10.2019
5379 Rain 7 1021 81 10000 2.1 340 09:58 29.10.2019
5380 Rain 7 1020 87 10000 1.5 350 09:40 29.10.2019
5381 Rain 7 1020 87 10000 2.1 10 09:21 29.10.2019
5382 Rain 6 1020 87 10000 2.6 350 08:45 29.10.2019
5383 Rain 6 1020 87 10000 2.6 350 08:26 29.10.2019
5384 Rain 6 1020 87 10000 1.5 330 07:55 29.10.2019
5385 Rain 6 1020 87 10000 1.5 330 07:37 29.10.2019
5386 Rain 6 1019 87 10000 2.1 340 07:18 29.10.2019
5387 Rain 6 1019 87 10000 1.5 360 06:45 29.10.2019
5388 Clouds 6 1019 81 10000 2.1 340 06:25 29.10.2019
5389 Rain 6 1019 87 10000 2.1 350 05:50 29.10.2019
5390 Rain 6 1019 87 10000 2.1 350 05:30 29.10.2019
5391 Clouds 6 1019 81 10000 2.6 350 04:32 29.10.2019
5392 Clouds 6 1020 81 10000 2.6 340 02:33 29.10.2019
5393 Clouds 6 1020 81 10000 1.5 330 01:47 29.10.2019
5394 Rain 6 1020 75 10000 2.1 340 01:21 29.10.2019
5395 Rain 6 1020 87 10000 2.1 340 00:48 29.10.2019
5396 Clouds 6 1020 81 10000 2.1 320 23:44 28.10.2019
5397 Clouds 7 1020 87 10000 2.1 320 23:21 28.10.2019
5398 Clouds 7 1020 81 10000 3.1 350 22:59 28.10.2019
5399 Clouds 7 1020 81 10000 3.1 350 22:38 28.10.2019
5400 Clouds 7 1020 87 10000 2.1 350 22:18 28.10.2019
5401 Clouds 7 1020 81 10000 3.1 320 21:56 28.10.2019
5402 Clouds 7 1020 81 10000 3.1 320 21:56 28.10.2019
5403 Clouds 7 1020 81 10000 3.1 320 21:38 28.10.2019
5404 Clouds 7 1020 81 10000 2.6 320 21:20 28.10.2019
5405 Clouds 7 1020 81 10000 2.6 310 20:54 28.10.2019
5406 Clouds 7 1020 81 10000 2.6 310 20:36 28.10.2019
5407 Clouds 7 1020 81 10000 2.6 330 20:18 28.10.2019
5408 Clouds 8 1020 76 10000 3.1 330 19:40 28.10.2019
5409 Clouds 8 1020 71 10000 3.1 320 19:21 28.10.2019
5410 Clouds 8 1020 71 10000 3.1 320 18:59 28.10.2019
5411 Clouds 8 1020 71 10000 3.1 320 18:41 28.10.2019
5412 Clouds 8 1020 71 10000 3.1 320 18:22 28.10.2019
5413 Clouds 9 1020 71 10000 3.1 330 17:57 28.10.2019
5414 Clouds 9 1020 71 10000 3.1 330 17:39 28.10.2019
5415 Clouds 9 1020 71 10000 3.6 320 17:20 28.10.2019
5416 Clouds 9 1020 71 10000 3.6 320 16:58 28.10.2019
5417 Clouds 10 1020 71 10000 3.6 320 16:39 28.10.2019
5418 Clouds 10 1020 71 10000 3.6 320 16:21 28.10.2019
5419 Clouds 10 1020 71 10000 4.1 330 15:58 28.10.2019
5420 Clouds 10 1020 71 10000 4.1 330 15:40 28.10.2019
5421 Clouds 10 1020 71 10000 5.1 330 15:21 28.10.2019
5422 Clouds 10 1020 76 10000 5.1 320 14:57 28.10.2019
5423 Clouds 10 1020 76 10000 5.1 320 14:57 28.10.2019
5424 Clouds 10 1020 76 10000 5.1 320 14:39 28.10.2019
5425 Clouds 10 1020 71 10000 5.1 330 14:19 28.10.2019
5426 Rain 10 1020 76 10000 4.6 330 13:57 28.10.2019
5427 Rain 10 1020 76 10000 4.6 330 13:38 28.10.2019
5428 Rain 10 1020 87 10000 4.6 320 13:18 28.10.2019
5429 Rain 9 1021 76 10000 5.1 320 12:42 28.10.2019
5430 Clouds 9 1021 76 10000 5.1 320 12:21 28.10.2019
5431 Clouds 9 1021 76 10000 5.7 330 11:54 28.10.2019
5432 Clouds 9 1021 76 10000 5.7 330 11:36 28.10.2019
5433 Rain 9 1021 81 10000 5.7 320 11:18 28.10.2019
5434 Rain 9 1021 81 10000 6.2 330 10:40 28.10.2019
5435 Rain 9 1021 87 10000 5.7 330 10:21 28.10.2019
5436 Rain 8 1021 87 10000 5.7 330 09:57 28.10.2019
5437 Clouds 8 1021 87 10000 7.2 340 09:39 28.10.2019
5438 Rain 8 1021 87 10000 5.7 330 09:19 28.10.2019
5439 Rain 8 1021 87 10000 5.7 330 08:57 28.10.2019
5440 Rain 9 1020 93 10000 5.1 350 08:38 28.10.2019
5441 Rain 9 1020 93 10000 5.1 350 08:19 28.10.2019
5442 Rain 9 1019 93 10000 4.6 350 07:56 28.10.2019
5443 Rain 9 1019 93 10000 4.6 350 07:36 28.10.2019
5444 Rain 10 1019 93 10000 3.1 350 07:18 28.10.2019
5445 Rain 11 1019 82 10000 2.6 330 06:39 28.10.2019
5446 Clouds 11 1018 76 10000 2.6 350 05:41 28.10.2019
5447 Clouds 11 1017 87 10000 1 0 03:48 28.10.2019
5448 Clouds 11 1017 82 10000 1.5 250 02:46 28.10.2019
5449 Clouds 11 1017 81 10000 1.5 220 02:27 28.10.2019
5450 Clouds 11 1017 76 10000 4.1 240 00:57 28.10.2019
5451 Clouds 12 1017 76 10000 4.1 240 00:33 28.10.2019
5452 Clouds 12 1018 72 10000 4.6 280 23:47 27.10.2019
5453 Fog 12 1018 93 10000 0.5 0 23:24 27.10.2019
5454 Fog 13 1018 93 9000 2.13 332 22:58 27.10.2019
5455 Fog 12 1018 93 9000 2.13 332 22:40 27.10.2019
5456 Clouds 12 1018 76 0 1 230 22:21 27.10.2019
5457 Fog 13 1018 100 9000 1 350 21:57 27.10.2019
5458 Clouds 13 1018 76 0 1 200 21:39 27.10.2019
5459 Clouds 13 1018 76 0 1 200 21:21 27.10.2019
5460 Fog 13 1018 93 10000 0.5 0 20:56 27.10.2019
5461 Fog 13 1018 93 10000 0.5 0 20:38 27.10.2019
5462 Clear 14 1018 63 10000 3.1 240 20:20 27.10.2019
5463 Clear 14 1018 63 10000 3.6 220 19:55 27.10.2019
5464 Clear 14 1018 63 10000 3.6 220 19:36 27.10.2019
5465 Clear 15 1018 59 10000 3.6 230 19:18 27.10.2019
5466 Clear 15 1018 63 10000 4.6 200 18:55 27.10.2019
5467 Clear 15 1018 63 10000 4.6 200 18:36 27.10.2019
5468 Clear 16 1018 63 10000 2.6 240 18:18 27.10.2019
5469 Clear 17 1017 72 10000 3.1 180 17:40 27.10.2019
5470 Clear 17 1017 67 10000 2.6 170 17:19 27.10.2019
5471 Clear 17 1017 67 10000 2.6 170 17:19 27.10.2019
5472 Clear 18 1017 63 10000 2.6 150 16:58 27.10.2019
5473 Clear 19 1017 63 10000 2.6 150 16:39 27.10.2019
5474 Clear 19 1017 59 10000 3.1 150 16:21 27.10.2019
5475 Clear 20 1017 60 10000 3.1 140 15:56 27.10.2019
5476 Clear 20 1017 60 10000 3.1 140 15:38 27.10.2019
5477 Clear 21 1018 53 10000 3.1 150 15:19 27.10.2019
5478 Clear 22 1018 49 10000 2.1 120 14:43 27.10.2019
5479 Clear 22 1018 46 10000 1 0 14:21 27.10.2019
5480 Clear 22 1018 46 10000 1 0 13:58 27.10.2019
5481 Clear 21 1018 52 10000 1.5 60 13:39 27.10.2019
5482 Clear 21 1019 56 10000 1.5 0 13:20 27.10.2019
5483 Clear 21 1019 63 10000 1.5 130 12:57 27.10.2019
5484 Clear 20 1019 63 10000 1.5 130 12:38 27.10.2019
5485 Clear 20 1020 63 10000 1 0 12:19 27.10.2019
5486 Clear 19 1020 67 10000 1 0 11:41 27.10.2019
5487 Clear 18 1020 72 10000 1.5 130 11:21 27.10.2019
5488 Clear 16 1020 77 10000 2.6 130 10:45 27.10.2019
5489 Clear 15 1021 76 10000 2.1 140 10:26 27.10.2019
5490 Clear 15 1020 81 10000 2.1 150 09:58 27.10.2019
5491 Clear 14 1021 87 10000 2.1 150 09:39 27.10.2019
5492 Clear 13 1021 87 10000 2.1 150 09:19 27.10.2019
5493 Clear 13 1021 87 10000 2.1 150 08:56 27.10.2019
5494 Clear 10 1020 93 10000 1.5 170 08:37 27.10.2019
5495 Clear 10 1020 93 10000 1.5 170 08:37 27.10.2019
5496 Clear 10 1020 93 10000 1.5 170 08:37 27.10.2019
5497 Mist 9 1020 93 5000 2.1 160 08:18 27.10.2019
5498 Rain 7 1020 100 2500 2.6 150 07:45 27.10.2019
5499 Rain 6 1020 100 2800 0.5 0 07:25 27.10.2019
5500 Rain 6 1020 100 2800 0.5 0 07:25 27.10.2019
5501 Fog 6 1020 100 4100 1.5 160 06:52 27.10.2019
5502 Fog 6 1020 100 6000 1.5 200 06:29 27.10.2019
5503 Mist 6 1020 93 10000 1 260 05:46 27.10.2019
5504 Fog 7 1020 93 7000 1.5 170 04:56 27.10.2019
5505 Fog 7 1020 93 6000 2.1 160 03:34 27.10.2019
5506 Fog 8 1020 93 5000 0.5 0 02:25 27.10.2019
5507 Mist 9 1020 100 5000 2.6 180 01:24 27.10.2019
5508 Mist 9 1020 100 5000 2.1 170 00:52 27.10.2019
5509 Mist 9 1020 100 5000 2.1 170 00:52 27.10.2019
5510 Mist 9 1021 93 5000 2.6 180 00:32 27.10.2019
5511 Mist 9 1021 93 5000 2.6 180 23:57 26.10.2019
5512 Mist 9 1021 93 5000 2.6 180 23:57 26.10.2019
5513 Mist 10 1021 93 5000 1.5 170 23:39 26.10.2019
5514 Clear 10 1021 93 6000 1 0 23:21 26.10.2019
5515 Clear 9 1021 81 8000 1.5 190 22:57 26.10.2019
5516 Clear 10 1021 81 8000 1.5 190 22:38 26.10.2019
5517 Clear 10 1021 87 10000 2.1 190 22:19 26.10.2019
5518 Clear 10 1021 76 10000 1.5 160 21:44 26.10.2019
5519 Clear 11 1021 76 10000 1.5 190 21:23 26.10.2019
5520 Clear 11 1021 76 10000 2.6 160 20:59 26.10.2019
5521 Clear 11 1021 76 10000 2.6 160 20:40 26.10.2019
5522 Clear 11 1021 76 10000 1 0 20:19 26.10.2019
5523 Clear 12 1021 82 10000 1.5 110 19:42 26.10.2019
5524 Clear 13 1020 82 10000 1.5 80 19:21 26.10.2019
5525 Clear 13 1020 77 10000 2.1 70 18:58 26.10.2019
5526 Clear 14 1020 77 10000 2.1 70 18:39 26.10.2019
5527 Clear 15 1020 72 10000 2.1 60 18:20 26.10.2019
5528 Clear 15 1020 67 10000 2.6 50 17:58 26.10.2019
5529 Clear 16 1020 67 10000 2.6 50 17:39 26.10.2019
5530 Clear 17 1020 63 10000 2.6 40 17:20 26.10.2019
5531 Clear 17 1020 59 10000 2.1 50 16:46 26.10.2019
5532 Clear 18 1020 59 10000 2.1 100 16:25 26.10.2019
5533 Clear 18 1020 59 10000 2.1 100 15:59 26.10.2019
5534 Clear 18 1021 59 10000 1.5 100 15:40 26.10.2019
5535 Clear 18 1021 59 10000 1 0 15:18 26.10.2019
5536 Clear 17 1021 63 10000 2.1 110 14:40 26.10.2019
5537 Clear 17 1021 59 10000 2.1 110 14:20 26.10.2019
5538 Clear 22 1022 43 0 3.97 157 13:58 26.10.2019
5539 Clear 22 1022 43 0 3.97 157 13:37 26.10.2019
5540 Clear 22 1022 43 0 3.97 157 13:19 26.10.2019
5541 Clear 16 1022 82 9000 1.5 30 12:44 26.10.2019
5542 Clear 16 1022 82 9000 1.5 30 12:44 26.10.2019
5543 Mist 12 1023 93 3600 1.5 60 12:21 26.10.2019
5544 Mist 12 1023 93 3600 1.5 60 11:48 26.10.2019
5545 Mist 12 1023 93 3600 1.5 60 11:25 26.10.2019
5546 Mist 9 1023 100 800 1.5 110 10:47 26.10.2019
5547 Mist 9 1023 93 600 0.5 0 10:27 26.10.2019
5548 Mist 9 1023 93 600 0.5 0 10:27 26.10.2019
5549 Mist 8 1023 100 650 1.5 20 09:50 26.10.2019
5550 Mist 8 1023 100 650 1.5 20 09:30 26.10.2019
5551 Fog 7 1022 93 500 2.1 350 08:57 26.10.2019
5552 Fog 7 1022 93 500 2.1 350 08:39 26.10.2019
5553 Mist 7 1022 100 1500 1 0 08:21 26.10.2019
5554 Fog 6 1022 100 3900 1.5 80 07:43 26.10.2019
5555 Mist 7 1022 93 4800 1.5 120 07:23 26.10.2019
5556 Mist 6 1023 93 10000 1 0 06:41 26.10.2019
5557 Clouds 6 1023 93 10000 2.1 140 05:59 26.10.2019
5558 Clear 8 1023 93 10000 2.1 150 05:19 26.10.2019
5559 Clouds 8 1023 93 10000 0.5 0 03:56 26.10.2019
5560 Clear 9 1023 93 10000 1.5 160 02:35 26.10.2019
5561 Clear 9 1024 93 10000 1 180 01:48 26.10.2019
5562 Clear 10 1024 87 10000 1.5 100 00:58 26.10.2019
5563 Clear 10 1024 81 10000 0.5 0 00:18 26.10.2019
5564 Clear 10 1024 87 10000 0.5 0 23:40 25.10.2019
5565 Clear 11 1024 81 10000 0.5 0 23:19 25.10.2019
5566 Clear 11 1024 76 10000 1 0 22:40 25.10.2019
5567 Clear 11 1024 76 10000 0.5 0 22:21 25.10.2019
5568 Clear 11 1024 76 10000 1 0 21:57 25.10.2019
5569 Clear 12 1024 76 10000 1 0 21:39 25.10.2019
5570 Clouds 12 1023 76 10000 2.1 50 21:19 25.10.2019
5571 Clouds 13 1023 72 10000 3.6 300 20:45 25.10.2019
5572 Clouds 14 1023 63 10000 1 350 20:20 25.10.2019
5573 Clouds 14 1023 63 10000 1 350 20:20 25.10.2019
5574 Clouds 14 1023 63 10000 1 350 19:59 25.10.2019
5575 Clouds 14 1023 63 10000 1.5 320 19:40 25.10.2019
5576 Clouds 15 1023 59 10000 2.1 320 19:22 25.10.2019
5577 Clouds 15 1023 59 10000 2.6 310 18:43 25.10.2019
5578 Clouds 16 1022 59 10000 2.6 320 18:21 25.10.2019
5579 Clouds 18 1022 55 10000 3.1 320 17:41 25.10.2019
5580 Clouds 19 1022 52 10000 4.1 330 17:21 25.10.2019
5581 Clouds 19 1022 52 10000 5.7 310 16:48 25.10.2019
5582 Clouds 20 1022 49 10000 6.7 310 16:24 25.10.2019
5583 Clouds 20 1022 49 10000 6.7 310 15:58 25.10.2019
5584 Clouds 20 1022 49 10000 6.7 310 15:40 25.10.2019
5585 Clouds 20 1022 49 10000 6.7 310 15:21 25.10.2019
5586 Clouds 20 1022 49 10000 4.6 320 14:57 25.10.2019
5587 Clouds 20 1022 49 10000 4.6 320 14:38 25.10.2019
5588 Clouds 20 1022 52 10000 5.7 320 14:20 25.10.2019
5589 Clouds 20 1022 52 10000 6.7 320 13:41 25.10.2019
5590 Clouds 20 1022 56 10000 7.2 300 13:22 25.10.2019
5591 Clouds 19 1022 59 10000 7.7 300 12:55 25.10.2019
5592 Clouds 19 1022 59 10000 7.7 300 12:37 25.10.2019
5593 Clear 19 1022 55 10000 7.2 310 12:18 25.10.2019
5594 Clear 17 1022 63 10000 7.7 300 11:40 25.10.2019
5595 Clear 17 1021 59 10000 6.2 300 11:22 25.10.2019
5596 Clouds 16 1021 63 10000 8.2 300 10:57 25.10.2019
5597 Clouds 16 1021 63 10000 8.2 300 10:36 25.10.2019
5598 Clouds 16 1021 63 10000 8.2 300 10:36 25.10.2019
5599 Clouds 15 1021 72 10000 5.7 300 10:18 25.10.2019
5600 Clouds 14 1021 72 10000 4.6 300 09:41 25.10.2019
5601 Clouds 13 1020 77 10000 5.7 280 09:21 25.10.2019
5602 Clear 13 1020 76 10000 4.1 270 08:57 25.10.2019
5603 Clear 13 1020 76 10000 4.1 270 08:39 25.10.2019
5604 Clear 13 1020 76 10000 4.1 270 08:39 25.10.2019
5605 Clear 12 1019 82 10000 4.1 270 08:20 25.10.2019
5606 Clouds 11 1019 81 10000 2.6 260 07:45 25.10.2019
5607 Clouds 12 1018 81 10000 3.6 260 07:26 25.10.2019
5608 Clouds 11 1018 87 10000 3.1 260 06:38 25.10.2019
5609 Clouds 11 1017 87 10000 1 0 05:49 25.10.2019
5610 Clouds 11 1017 87 10000 1 0 05:30 25.10.2019
5611 Clear 11 1017 87 10000 2.1 300 04:36 25.10.2019
5612 Clear 11 1015 87 10000 1.5 60 02:42 25.10.2019
5613 Clear 12 1015 87 10000 2.1 80 01:52 25.10.2019
5614 Clear 12 1014 76 10000 2.1 110 00:36 25.10.2019
5615 Clear 13 1013 72 10000 2.6 150 23:55 24.10.2019
5616 Clear 13 1013 72 10000 2.6 150 23:36 24.10.2019
5617 Clear 13 1013 67 10000 5.7 140 23:18 24.10.2019
5618 Clear 13 1013 67 10000 4.6 160 22:39 24.10.2019
5619 Clear 14 1013 63 10000 4.6 150 22:19 24.10.2019
5620 Clear 14 1012 63 10000 7.2 140 21:58 24.10.2019
5621 Clear 15 1012 63 10000 7.2 140 21:40 24.10.2019
5622 Clear 15 1012 63 10000 6.7 140 21:20 24.10.2019
5623 Clear 15 1012 63 10000 6.7 150 20:59 24.10.2019
5624 Clear 16 1012 63 10000 6.7 150 20:40 24.10.2019
5625 Clear 16 1012 59 10000 5.1 130 20:22 24.10.2019
5626 Clear 16 1012 52 10000 5.1 140 19:58 24.10.2019
5627 Clear 16 1012 52 10000 5.1 140 19:40 24.10.2019
5628 Clear 17 1011 43 10000 8.7 140 19:22 24.10.2019
5629 Clear 17 1011 46 10000 8.2 150 18:57 24.10.2019
5630 Clear 18 1011 46 10000 8.2 150 18:38 24.10.2019
5631 Clear 18 1011 46 10000 8.2 150 18:19 24.10.2019
5632 Clear 20 1011 43 10000 9.8 150 17:42 24.10.2019
5633 Clear 21 1011 43 10000 9.3 150 17:20 24.10.2019
5634 Clear 22 1011 43 10000 9.3 150 16:58 24.10.2019
5635 Clear 22 1011 43 10000 9.3 150 16:40 24.10.2019
5636 Clear 23 1011 41 10000 9.3 150 16:22 24.10.2019
5637 Clear 23 1011 41 10000 9.3 150 15:58 24.10.2019
5638 Clear 23 1011 41 10000 9.3 150 15:58 24.10.2019
5639 Clear 23 1011 41 10000 9.3 150 15:58 24.10.2019
5640 Clear 23 1011 41 10000 9.3 150 15:40 24.10.2019
5641 Clear 23 1011 41 10000 10.8 150 15:21 24.10.2019
5642 Clear 23 1011 41 10000 10.8 150 14:58 24.10.2019
5643 Clear 23 1011 43 10000 10.3 140 14:40 24.10.2019
5644 Clear 23 1012 43 10000 10.8 140 14:20 24.10.2019
5645 Clear 23 1012 49 10000 10.8 130 13:41 24.10.2019
5646 Clear 23 1012 49 10000 10.3 130 13:20 24.10.2019
5647 Clear 22 1012 52 10000 9.3 130 12:58 24.10.2019
5648 Clear 20 1012 52 10000 9.3 130 12:40 24.10.2019
5649 Clear 17 1013 60 10000 9.8 130 12:19 24.10.2019
5650 Clear 17 1013 60 10000 8.2 140 11:57 24.10.2019
5651 Clear 17 1013 60 10000 8.2 140 11:38 24.10.2019
5652 Clear 16 1013 63 10000 8.2 140 11:19 24.10.2019
5653 Clear 16 1013 77 10000 6.7 140 10:58 24.10.2019
5654 Clear 15 1013 77 10000 6.7 140 10:38 24.10.2019
5655 Clear 16 1013 77 10000 6.7 150 10:20 24.10.2019
5656 Clouds 14 1013 87 6000 7.7 150 09:38 24.10.2019
5657 Rain 11 1013 93 5000 7.7 140 09:19 24.10.2019
5658 Rain 11 1013 93 4800 7.2 140 08:55 24.10.2019
5659 Mist 11 1013 93 4800 7.2 140 08:37 24.10.2019
5660 Mist 10 1013 93 4300 7.7 140 08:18 24.10.2019
5661 Mist 10 1013 87 4300 5.7 130 07:45 24.10.2019
5662 Clouds 10 1013 93 6000 6.7 140 07:22 24.10.2019
5663 Clouds 11 1013 93 6000 6.7 140 06:46 24.10.2019
5664 Clouds 11 1013 93 6000 7.2 150 06:23 24.10.2019
5665 Clouds 11 1013 87 6000 8.7 150 05:49 24.10.2019
5666 Clouds 11 1013 87 6000 8.7 150 05:28 24.10.2019
5667 Clouds 12 1013 82 9000 6.2 140 03:38 24.10.2019
5668 Clouds 12 1014 82 8000 8.7 140 03:18 24.10.2019
5669 Clouds 13 1014 77 10000 8.7 140 02:26 24.10.2019
5670 Clouds 13 1014 77 10000 9.3 150 01:52 24.10.2019
5671 Clouds 13 1014 77 10000 6.7 130 01:28 24.10.2019
5672 Clouds 13 1014 77 10000 7.2 140 00:44 24.10.2019
5673 Clouds 14 1014 77 10000 6.7 140 00:23 24.10.2019
5674 Clouds 14 1015 77 10000 6.2 140 23:43 23.10.2019
5675 Clouds 13 1015 72 10000 6.7 130 23:23 23.10.2019
5676 Clouds 14 1015 68 10000 7.2 130 22:57 23.10.2019
5677 Clouds 14 1015 68 10000 7.2 130 22:38 23.10.2019
5678 Clouds 14 1015 68 10000 7.2 130 22:19 23.10.2019
5679 Clouds 14 1015 63 10000 8.2 140 21:57 23.10.2019
5680 Clouds 14 1015 63 10000 8.2 140 21:38 23.10.2019
5681 Clouds 14 1015 63 10000 8.2 140 21:38 23.10.2019
5682 Clouds 15 1015 68 10000 7.2 150 21:20 23.10.2019
5683 Clouds 15 1015 63 10000 7.7 140 20:57 23.10.2019
5684 Clouds 15 1015 63 10000 7.7 140 20:39 23.10.2019
5685 Clouds 15 1015 63 10000 5.7 130 20:20 23.10.2019
5686 Clouds 16 1015 63 10000 5.7 130 19:57 23.10.2019
5687 Clouds 15 1016 60 10000 6.7 140 19:38 23.10.2019
5688 Clouds 16 1015 60 10000 6.7 140 19:18 23.10.2019
5689 Clouds 16 1015 64 10000 7.7 150 18:55 23.10.2019
5690 Clouds 16 1015 64 10000 7.7 150 18:36 23.10.2019
5691 Clouds 17 1015 64 10000 7.2 150 18:18 23.10.2019
5692 Clouds 17 1016 60 10000 6.7 140 17:43 23.10.2019
5693 Clouds 19 1016 60 10000 6.2 140 17:20 23.10.2019
5694 Clouds 19 1016 56 10000 7.7 140 16:56 23.10.2019
5695 Clouds 19 1016 56 10000 7.7 140 16:37 23.10.2019
5696 Clouds 20 1016 60 10000 9.8 150 16:19 23.10.2019
5697 Clouds 20 1016 64 10000 9.3 140 15:41 23.10.2019
5698 Rain 20 1017 64 10000 8.7 150 15:22 23.10.2019
5699 Rain 19 1017 72 10000 7.2 150 14:58 23.10.2019
5700 Clear 19 1017 72 10000 7.2 150 14:38 23.10.2019
5701 Clouds 19 1018 77 10000 5.1 140 14:19 23.10.2019
5702 Clouds 19 1018 82 10000 5.1 130 13:57 23.10.2019
5703 Clouds 19 1018 82 10000 5.1 130 13:39 23.10.2019
5704 Clouds 19 1019 87 10000 4.6 130 13:21 23.10.2019
5705 Clouds 18 1019 93 10000 4.6 130 12:55 23.10.2019
5706 Clouds 16 1019 93 10000 4.6 130 12:36 23.10.2019
5707 Clouds 15 1020 100 9000 3.6 110 12:18 23.10.2019
5708 Mist 15 1020 100 4200 3.6 120 11:55 23.10.2019
5709 Mist 15 1020 100 4200 3.6 120 11:37 23.10.2019
5710 Fog 14 1020 93 2500 3.1 110 11:19 23.10.2019
5711 Fog 14 1020 100 600 4.1 120 10:42 23.10.2019
5712 Fog 14 1020 100 450 4.1 120 10:24 23.10.2019
5713 Fog 14 1020 100 600 2.1 100 09:42 23.10.2019
5714 Fog 13 1021 100 1600 1 0 09:23 23.10.2019
5715 Rain 13 1021 100 1200 2.1 100 08:59 23.10.2019
5716 Rain 13 1021 100 1200 2.1 100 08:41 23.10.2019
5717 Rain 13 1021 100 1200 2.1 100 08:41 23.10.2019
5718 Fog 12 1020 100 600 1.5 110 08:22 23.10.2019
5719 Fog 12 1020 100 550 1 100 07:45 23.10.2019
5720 Fog 12 1020 100 300 1 130 07:22 23.10.2019
5721 Fog 12 1021 100 400 0.5 0 06:46 23.10.2019
5722 Fog 12 1021 100 550 2.1 150 06:22 23.10.2019
5723 Fog 12 1021 100 400 0.5 0 05:41 23.10.2019
5724 Fog 12 1021 100 350 2.6 160 04:38 23.10.2019
5725 Fog 12 1021 100 250 1 150 03:34 23.10.2019
5726 Fog 12 1022 100 300 1 0 02:40 23.10.2019
5727 Fog 12 1022 100 250 1 330 01:28 23.10.2019
5728 Fog 12 1022 100 600 1 210 00:48 23.10.2019
5729 Fog 13 1022 100 300 1.5 150 00:28 23.10.2019
5730 Mist 12 1022 100 750 0.92 164 23:39 22.10.2019
5731 Mist 12 1022 93 2200 1 350 23:18 22.10.2019
5732 Mist 12 1022 93 3900 0.5 0 22:56 22.10.2019
5733 Mist 12 1022 93 3900 0.5 0 22:38 22.10.2019
5734 Mist 12 1022 93 4900 0.5 0 22:19 22.10.2019
5735 Mist 13 1022 93 5000 1 170 21:56 22.10.2019
5736 Mist 13 1022 93 5000 1 170 21:37 22.10.2019
5737 Clouds 13 1022 87 7000 1.5 0 21:18 22.10.2019
5738 Clouds 13 1022 87 7000 1.5 0 21:18 22.10.2019
5739 Clear 13 1022 93 10000 1.5 180 20:55 22.10.2019
5740 Clear 14 1022 93 10000 1.5 180 20:37 22.10.2019
5741 Clear 14 1022 82 10000 1 180 20:19 22.10.2019
5742 Clear 14 1022 93 10000 1 140 19:45 22.10.2019
5743 Clouds 14 1022 87 10000 0.5 0 19:26 22.10.2019
5744 Clouds 15 1022 82 10000 1 50 18:58 22.10.2019
5745 Clouds 15 1022 82 10000 1 50 18:40 22.10.2019
5746 Clouds 17 1022 77 10000 0.5 0 18:21 22.10.2019
5747 Clouds 17 1022 72 10000 1 0 17:57 22.10.2019
5748 Clouds 18 1022 72 10000 1 0 17:38 22.10.2019
5749 Clouds 19 1022 68 10000 1 0 17:20 22.10.2019
5750 Clouds 19 1022 68 10000 1 0 17:20 22.10.2019
5751 Clouds 19 1022 68 10000 1 0 17:20 22.10.2019
5752 Clouds 19 1022 68 10000 1 0 16:57 22.10.2019
5753 Clouds 19 1022 68 10000 1.5 100 16:37 22.10.2019
5754 Clouds 20 1022 68 10000 1.5 100 16:19 22.10.2019
5755 Clouds 20 1022 68 10000 1.5 100 16:19 22.10.2019
5756 Clouds 20 1022 68 10000 1 0 15:44 22.10.2019
5757 Clouds 20 1022 68 10000 1 0 15:21 22.10.2019
5758 Clouds 20 1022 68 10000 1 0 14:58 22.10.2019
5759 Clouds 19 1023 72 10000 1 0 14:40 22.10.2019
5760 Clouds 19 1023 72 10000 1 0 14:19 22.10.2019
5761 Clouds 20 1023 72 10000 1 0 13:42 22.10.2019
5762 Clouds 19 1023 77 10000 1 0 13:21 22.10.2019
5763 Clouds 19 1023 87 10000 0.5 0 12:58 22.10.2019
5764 Clouds 18 1023 87 10000 0.5 0 12:40 22.10.2019
5765 Clouds 17 1024 87 7000 1.5 50 12:21 22.10.2019
5766 Mist 17 1024 100 4000 1.5 40 11:54 22.10.2019
5767 Mist 17 1024 100 4000 1.5 40 11:36 22.10.2019
5768 Mist 16 1024 100 4000 1.5 60 11:18 22.10.2019
5769 Clouds 16 1023 72 10000 1.5 80 10:38 22.10.2019
5770 Mist 14 1024 100 3400 2.1 60 10:20 22.10.2019
5771 Mist 14 1024 100 3400 2.1 60 10:00 22.10.2019
5772 Clouds 14 1023 87 10000 0.5 0 10:00 22.10.2019
5773 Mist 14 1024 100 3400 2.1 60 10:00 22.10.2019
5774 Fog 13 1024 100 900 2.1 40 09:41 22.10.2019
5775 Fog 12 1023 100 300 1 0 09:22 22.10.2019
5776 Fog 12 1023 100 300 1 0 08:59 22.10.2019
5777 Fog 11 1023 100 300 1 90 08:41 22.10.2019
5778 Fog 11 1023 100 700 1 100 08:19 22.10.2019
5779 Fog 10 1022 100 600 0.5 0 07:44 22.10.2019
5780 Fog 11 1022 100 1000 1 110 07:26 22.10.2019
5781 Fog 11 1022 93 1800 1.5 330 06:46 22.10.2019
5782 Fog 11 1022 93 650 2.1 320 06:27 22.10.2019
5783 Fog 11 1022 100 5000 1.5 310 05:48 22.10.2019
5784 Fog 11 1022 100 5000 1.5 310 05:48 22.10.2019
5785 Rain 11 1021 100 1000 2.1 310 05:18 22.10.2019
5786 Mist 11 1021 93 5000 0.5 0 02:32 22.10.2019
5787 Mist 11 1021 100 5000 1.5 330 01:50 22.10.2019
5788 Mist 11 1021 93 10000 1 0 01:24 22.10.2019
5789 Mist 11 1021 93 10000 1 0 00:56 22.10.2019
5790 Fog 11 1021 100 5000 1.57 334 00:38 22.10.2019
5791 Mist 11 1021 100 5000 1.5 160 00:19 22.10.2019
5792 Clouds 11 1020 93 8000 2.1 170 23:39 21.10.2019
5793 Clouds 11 1020 93 7000 1 160 23:20 21.10.2019
5794 Mist 11 1020 93 10000 1 0 22:59 21.10.2019
5795 Mist 12 1020 93 10000 1 0 22:40 21.10.2019
5796 Clouds 12 1020 82 10000 2.6 260 22:20 21.10.2019
5797 Clouds 12 1020 82 10000 2.6 260 21:58 21.10.2019
5798 Clear 12 1020 87 10000 1 0 21:39 21.10.2019
5799 Clear 12 1020 87 10000 1 0 21:39 21.10.2019
5800 Clouds 13 1020 87 10000 1.5 140 21:21 21.10.2019
5801 Clouds 13 1020 87 10000 1.5 140 20:58 21.10.2019
5802 Clouds 13 1020 87 10000 1.5 140 20:40 21.10.2019
5803 Clouds 13 1020 82 10000 2.1 90 20:21 21.10.2019
5804 Clouds 13 1020 82 10000 2.1 90 19:57 21.10.2019
5805 Clouds 14 1020 82 10000 2.1 90 19:39 21.10.2019
5806 Clouds 14 1020 82 10000 1.5 40 19:21 21.10.2019
5807 Clouds 15 1020 77 10000 1.5 40 18:55 21.10.2019
5808 Clouds 15 1020 77 10000 1.5 40 18:37 21.10.2019
5809 Clouds 16 1019 72 10000 1.5 50 18:18 21.10.2019
5810 Clouds 17 1019 64 10000 2.1 70 17:55 21.10.2019
5811 Clouds 17 1019 64 10000 2.1 70 17:37 21.10.2019
5812 Clouds 18 1019 64 10000 1 0 17:18 21.10.2019
5813 Clouds 18 1019 64 10000 1.5 30 16:55 21.10.2019
5814 Clouds 19 1019 64 10000 1.5 30 16:37 21.10.2019
5815 Clouds 19 1019 64 10000 1.5 290 16:18 21.10.2019
5816 Clouds 18 1019 64 10000 1.5 280 15:42 21.10.2019
5817 Clouds 19 1019 64 10000 1.5 270 15:23 21.10.2019
5818 Clouds 18 1019 64 10000 1.5 270 14:56 21.10.2019
5819 Clear 18 1020 64 10000 1 0 14:37 21.10.2019
5820 Clear 19 1019 68 10000 1 0 14:18 21.10.2019
5821 Clear 20 1019 77 10000 1 0 13:55 21.10.2019
5822 Clear 20 1019 77 10000 1 0 13:37 21.10.2019
5823 Clear 20 1019 77 10000 1 0 13:18 21.10.2019
5824 Clear 18 1020 82 10000 1 0 12:41 21.10.2019
5825 Mist 15 1020 93 10000 1 0 12:21 21.10.2019
5826 Mist 14 1019 93 10000 1 0 11:55 21.10.2019
5827 Mist 14 1019 93 10000 1 0 11:37 21.10.2019
5828 Mist 13 1019 100 5000 1.5 50 11:18 21.10.2019
5829 Fog 14 1019 100 2500 1 0 10:55 21.10.2019
5830 Fog 14 1019 100 2500 1 0 10:37 21.10.2019
5831 Fog 13 1019 100 1700 0.5 0 10:18 21.10.2019
5832 Fog 12 1018 100 450 1 0 09:43 21.10.2019
5833 Fog 10 1018 100 300 1 0 09:23 21.10.2019
5834 Fog 9 1018 100 250 1.5 0 08:43 21.10.2019
5835 Fog 9 1017 100 300 1 0 08:23 21.10.2019
5836 Fog 9 1017 100 300 1 0 07:59 21.10.2019
5837 Rain 9 1017 100 350 0.5 0 07:37 21.10.2019
5838 Rain 9 1016 100 350 0.5 0 07:19 21.10.2019
5839 Rain 9 1016 100 350 0.5 0 06:53 21.10.2019
5840 Rain 9 1016 100 350 0.5 0 06:33 21.10.2019
5841 Fog 9 1016 100 300 0.5 0 05:50 21.10.2019
5842 Fog 9 1016 100 300 0.5 0 05:50 21.10.2019
5843 Fog 9 1016 93 300 0.5 0 04:43 21.10.2019
5844 Fog 10 1015 100 300 1 0 02:42 21.10.2019
5845 Fog 10 1015 100 300 1 0 02:23 21.10.2019
5846 Rain 10 1014 100 300 1 30 01:55 21.10.2019
5847 Rain 10 1014 100 300 1 330 01:23 21.10.2019
5848 Fog 11 1014 93 300 1.5 320 00:43 21.10.2019
5849 Fog 11 1014 100 300 1.5 350 00:24 21.10.2019
5850 Fog 11 1014 100 1100 2.1 360 23:42 20.10.2019
5851 Fog 11 1013 93 4500 1.5 350 23:22 20.10.2019
5852 Fog 11 1013 93 4500 1.5 350 22:56 20.10.2019
5853 Mist 12 1013 100 6000 2.1 350 22:37 20.10.2019
5854 Mist 11 1013 93 4900 1.5 20 22:18 20.10.2019
5855 Clouds 12 1013 93 8000 1.5 20 21:57 20.10.2019
5856 Clouds 12 1013 93 8000 1.5 20 21:38 20.10.2019
5857 Clouds 12 1013 87 9000 1 0 21:20 20.10.2019
5858 Clear 12 1013 82 10000 2.1 260 20:41 20.10.2019
5859 Clear 12 1013 82 10000 1.5 270 20:19 20.10.2019
5860 Clear 13 1013 82 10000 1.5 270 20:19 20.10.2019
5861 Clear 13 1013 82 10000 3.1 250 19:57 20.10.2019
5862 Clear 13 1013 82 10000 3.1 250 19:38 20.10.2019
5863 Clear 13 1012 82 10000 3.1 290 19:20 20.10.2019
5864 Clear 13 1012 82 10000 0.5 0 18:55 20.10.2019
5865 Clear 14 1012 82 10000 0.5 0 18:37 20.10.2019
5866 Clear 15 1012 77 10000 2.1 310 18:19 20.10.2019
5867 Clear 16 1012 77 10000 2.6 290 17:43 20.10.2019
5868 Clear 17 1012 68 10000 2.6 310 17:24 20.10.2019
5869 Clear 17 1013 68 10000 2.6 310 16:59 20.10.2019
5870 Clear 17 1013 68 10000 2.6 310 16:41 20.10.2019
5871 Clear 17 1013 68 10000 2.6 310 16:22 20.10.2019
5872 Clear 18 1013 64 10000 2.1 310 15:57 20.10.2019
5873 Clear 18 1013 64 10000 2.1 310 15:38 20.10.2019
5874 Clear 17 1013 68 10000 1.5 0 15:19 20.10.2019
5875 Clear 16 1013 72 10000 1.5 290 14:57 20.10.2019
5876 Clear 16 1013 72 10000 1.5 290 14:37 20.10.2019
5877 Clear 16 1014 77 10000 1.5 270 14:19 20.10.2019
5878 Clouds 17 1014 77 10000 1 0 13:55 20.10.2019
5879 Clouds 17 1014 77 10000 1 0 13:36 20.10.2019
5880 Clouds 15 1014 82 10000 1 0 13:18 20.10.2019
5881 Clouds 15 1015 87 10000 1.5 100 12:55 20.10.2019
5882 Clouds 15 1015 87 10000 1.5 100 12:37 20.10.2019
5883 Clouds 15 1015 87 10000 1.5 100 12:37 20.10.2019
5884 Clouds 13 1015 87 10000 1 0 12:19 20.10.2019
5885 Clouds 13 1015 93 10000 2.1 120 11:42 20.10.2019
5886 Clouds 12 1015 93 10000 1.5 130 11:23 20.10.2019
5887 Clouds 12 1015 93 10000 1.5 130 10:59 20.10.2019
5888 Clouds 12 1014 93 10000 1.5 110 10:40 20.10.2019
5889 Clouds 12 1014 93 10000 1 0 10:21 20.10.2019
5890 Clouds 11 1014 93 10000 1 100 09:57 20.10.2019
5891 Clouds 11 1014 93 10000 1 100 09:38 20.10.2019
5892 Rain 11 1014 93 8000 1 0 09:20 20.10.2019
5893 Mist 11 1014 93 5000 1.5 80 08:45 20.10.2019
5894 Mist 11 1013 93 6000 2.1 90 08:22 20.10.2019
5895 Mist 11 1013 93 2000 1.5 90 07:50 20.10.2019
5896 Mist 11 1013 93 2000 1.5 90 07:30 20.10.2019
5897 Mist 11 1013 93 2200 1 0 06:32 20.10.2019
5898 Fog 11 1013 100 1100 2.1 90 04:46 20.10.2019
5899 Fog 11 1013 100 1200 2.1 80 04:25 20.10.2019
5900 Rain 11 1013 100 2400 1.5 60 03:41 20.10.2019
5901 Rain 11 1013 100 900 1.5 60 03:20 20.10.2019
5902 Fog 11 1013 93 750 2.1 70 02:36 20.10.2019
5903 Mist 11 1013 93 2300 2.1 70 01:58 20.10.2019
5904 Mist 11 1013 93 2000 2.1 50 01:23 20.10.2019
5905 Mist 11 1014 93 3400 1.5 40 00:54 20.10.2019
5906 Mist 11 1014 93 4100 1.5 50 00:22 20.10.2019
5907 Mist 11 1014 93 4100 1.5 50 23:59 19.10.2019
5908 Mist 11 1014 93 5000 2.1 40 23:40 19.10.2019
5909 Mist 11 1014 100 6000 1.5 50 23:21 19.10.2019
5910 Mist 11 1014 93 6000 0.5 0 22:55 19.10.2019
5911 Mist 11 1014 93 6000 0.5 0 22:37 19.10.2019
5912 Mist 11 1014 93 7000 2.1 360 22:18 19.10.2019
5913 Mist 11 1014 93 7000 1 0 21:45 19.10.2019
5914 Drizzle 11 1014 93 6000 3.1 340 21:21 19.10.2019
5915 Drizzle 11 1014 93 6000 3.6 330 20:44 19.10.2019
5916 Drizzle 11 1014 93 6000 3.6 330 20:44 19.10.2019
5917 Mist 11 1014 93 4800 4.1 300 20:22 19.10.2019
5918 Mist 11 1013 93 4900 3.1 340 19:57 19.10.2019
5919 Mist 11 1013 93 4900 3.1 340 19:39 19.10.2019
5920 Mist 11 1013 93 5000 3.1 320 19:20 19.10.2019
5921 Mist 11 1013 93 7000 2.6 330 18:41 19.10.2019
5922 Mist 12 1013 93 8000 2.6 340 18:23 19.10.2019
5923 Mist 12 1013 87 10000 3.1 340 17:55 19.10.2019
5924 Mist 12 1013 87 10000 3.1 340 17:55 19.10.2019
5925 Mist 13 1013 87 10000 3.1 340 17:36 19.10.2019
5926 Mist 13 1013 87 10000 2.1 360 17:18 19.10.2019
5927 Clouds 13 1013 82 10000 2.6 360 16:39 19.10.2019
5928 Clouds 13 1013 87 10000 1.5 90 16:20 19.10.2019
5929 Clouds 13 1013 87 10000 1.5 90 16:20 19.10.2019
5930 Clouds 13 1013 87 10000 2.6 100 15:44 19.10.2019
5931 Clouds 13 1013 87 10000 2.6 100 15:44 19.10.2019
5932 Clouds 13 1013 93 7000 3.1 100 15:26 19.10.2019
5933 Clouds 13 1013 87 10000 2.6 100 15:26 19.10.2019
5934 Mist 13 1014 100 4900 3.1 100 14:55 19.10.2019
5935 Mist 13 1014 100 4900 3.1 100 14:37 19.10.2019
5936 Mist 12 1014 93 3500 3.6 100 14:19 19.10.2019
5937 Mist 13 1014 93 3500 3.1 110 13:54 19.10.2019
5938 Mist 13 1014 93 3500 3.1 110 13:36 19.10.2019
5939 Mist 12 1014 93 6000 4.6 130 13:18 19.10.2019
5940 Mist 12 1014 100 5000 3.1 130 12:39 19.10.2019
5941 Mist 11 1014 93 3700 4.6 110 12:21 19.10.2019
5942 Fog 11 1014 93 1800 4.6 110 11:56 19.10.2019
5943 Fog 11 1014 93 1800 4.6 110 11:36 19.10.2019
5944 Fog 11 1014 93 900 3.6 120 11:18 19.10.2019
5945 Mist 11 1015 93 2200 3.1 110 10:40 19.10.2019
5946 Mist 11 1015 93 2200 3.1 110 10:22 19.10.2019
5947 Mist 11 1015 93 3300 5.1 100 10:22 19.10.2019
5948 Mist 11 1015 93 3300 5.1 100 09:57 19.10.2019
5949 Rain 11 1015 93 4500 2.1 80 09:39 19.10.2019
5950 Rain 11 1015 93 4500 2.1 80 09:20 19.10.2019
5951 Rain 10 1015 100 1500 1 0 08:41 19.10.2019
5952 Fog 10 1015 100 750 1 0 08:21 19.10.2019
5953 Fog 10 1015 100 1500 1 0 08:21 19.10.2019
5954 Fog 10 1015 100 600 1 90 07:45 19.10.2019
5955 Fog 10 1015 100 600 1 90 07:25 19.10.2019
5956 Fog 10 1015 100 600 1 90 07:25 19.10.2019
5957 Fog 10 1015 93 500 1 0 06:48 19.10.2019
5958 Fog 10 1015 100 550 0.5 0 06:48 19.10.2019
5959 Fog 10 1015 100 550 0.5 0 06:28 19.10.2019
5960 Fog 10 1015 100 550 0.5 0 06:28 19.10.2019
5961 Fog 10 1015 100 550 0.5 0 06:28 19.10.2019
5962 Mist 10 1015 100 5000 1 50 05:34 19.10.2019
5963 Mist 10 1015 100 5000 1 140 04:26 19.10.2019
5964 Mist 10 1015 100 5000 1.5 60 02:50 19.10.2019
5965 Mist 10 1015 100 4700 1.5 60 01:55 19.10.2019
5966 Mist 10 1015 100 4700 1.5 60 01:36 19.10.2019
5967 Mist 10 1015 100 4600 2.1 360 00:49 19.10.2019
5968 Mist 11 1015 100 4600 2.1 360 00:28 19.10.2019
5969 Fog 10 1015 100 2700 1 0 23:56 18.10.2019
5970 Fog 10 1015 100 2700 1 0 23:37 18.10.2019
5971 Fog 10 1015 93 1100 1.5 30 23:19 18.10.2019
5972 Fog 10 1015 93 3000 2.1 360 22:43 18.10.2019
5973 Fog 10 1015 100 4500 2.1 20 22:21 18.10.2019
5974 Fog 10 1015 100 4500 2.1 20 21:59 18.10.2019
5975 Fog 10 1015 100 4500 2.1 20 21:59 18.10.2019
5976 Fog 10 1015 93 4500 1.5 90 21:39 18.10.2019
5977 -273 0 0 0 0 0 21:20 18.10.2019
5978 Fog 10 1014 93 7000 2.6 60 20:59 18.10.2019
5979 Fog 10 1014 87 9000 3.1 60 20:41 18.10.2019
5980 Fog 10 1014 87 10000 3.1 50 20:22 18.10.2019
5981 Fog 11 1014 87 10000 3.1 50 19:58 18.10.2019
5982 Fog 11 1015 93 10000 2.6 50 19:58 18.10.2019
5983 Fog 11 1015 93 10000 2.6 50 19:39 18.10.2019
5984 Fog 11 1015 93 10000 2.6 50 19:39 18.10.2019
5985 Fog 11 1015 87 10000 3.1 50 19:21 18.10.2019
5986 Clear 11 1015 87 10000 2.6 50 18:57 18.10.2019
5987 Clear 12 1015 87 10000 2.6 50 18:39 18.10.2019
5988 Clear 13 1014 82 10000 3.1 50 18:20 18.10.2019
5989 Clear 13 1014 82 10000 3.1 50 18:20 18.10.2019
5990 Clear 13 1015 82 10000 2.6 50 17:39 18.10.2019
5991 Clear 14 1015 82 10000 2.6 50 17:21 18.10.2019
5992 Clear 14 1015 82 10000 2.1 50 16:59 18.10.2019
5993 Clear 14 1015 82 10000 2.1 50 16:38 18.10.2019
5994 Clear 14 1015 82 10000 2.1 40 16:19 18.10.2019
5995 Clouds 15 1015 82 10000 2.6 50 15:54 18.10.2019
5996 Clouds 15 1015 82 10000 2.6 50 15:54 18.10.2019
5997 Clouds 15 1015 82 10000 2.6 50 15:36 18.10.2019
5998 Clouds 15 1015 82 10000 3.1 50 15:18 18.10.2019
5999 Clouds 15 1015 82 10000 3.1 50 15:18 18.10.2019
6000 Clouds 15 1015 82 10000 3.1 50 14:54 18.10.2019
6001 Clouds 14 1015 82 10000 3.1 50 14:36 18.10.2019
6002 Clouds 14 1015 82 10000 3.1 50 14:36 18.10.2019
6003 Clouds 14 1016 76 10000 3.1 20 14:18 18.10.2019
6004 Clouds 15 1016 76 10000 3.1 30 13:41 18.10.2019
6005 Clouds 14 1016 76 10000 2.6 20 13:23 18.10.2019
6006 Mist 14 1016 76 10000 2.1 10 12:57 18.10.2019
6007 Mist 13 1016 76 10000 2.1 10 12:39 18.10.2019
6008 Drizzle 13 1017 76 10000 3.1 350 12:20 18.10.2019
6009 Drizzle 13 1017 82 10000 2.1 360 11:56 18.10.2019
6010 Drizzle 12 1017 82 10000 2.1 360 11:38 18.10.2019
6011 Drizzle 12 1017 87 10000 2.1 360 11:19 18.10.2019
6012 Drizzle 12 1017 93 9000 1.5 350 10:55 18.10.2019
6013 Drizzle 12 1017 93 9000 1.5 350 10:55 18.10.2019
6014 Drizzle 12 1017 93 9000 1.5 350 10:37 18.10.2019
6015 Drizzle 11 1017 100 7000 2.6 10 10:18 18.10.2019
6016 -273 0 0 0 0 0 09:55 18.10.2019
6017 Drizzle 11 1017 100 7000 2.6 10 09:36 18.10.2019
6018 Drizzle 11 1016 93 7000 3.1 10 09:18 18.10.2019
6019 Mist 10 1016 93 8000 2.6 20 08:42 18.10.2019
6020 Mist 10 1016 93 8000 2.1 360 08:23 18.10.2019
6021 Mist 10 1016 93 7000 2.6 330 07:44 18.10.2019
6022 Mist 10 1016 93 5000 2.6 300 07:26 18.10.2019
6023 Mist 10 1016 93 3600 3.1 290 06:41 18.10.2019
6024 Fog 10 1016 100 800 2.6 320 06:22 18.10.2019
6025 Fog 10 1016 100 800 2.6 320 05:58 18.10.2019
6026 Fog 10 1015 100 3600 1 180 05:24 18.10.2019
6027 Fog 10 1015 100 4400 1 0 04:49 18.10.2019
6028 Mist 9 1015 100 4000 2.6 130 03:33 18.10.2019
6029 Rain 9 1015 100 4800 3.6 110 02:37 18.10.2019
6030 Rain 9 1015 93 6000 3.1 120 02:18 18.10.2019
6031 Clouds 9 1015 93 7000 4.1 120 01:31 18.10.2019
6032 Fog 9 1015 87 10000 3.6 100 00:46 18.10.2019
6033 Fog 10 1017 93 10000 1.5 20 00:21 18.10.2019
6034 Fog 10 1016 93 10000 3.6 120 23:59 17.10.2019
6035 Fog 10 1016 93 10000 3.6 120 23:38 17.10.2019
6036 Fog 10 1016 82 10000 2.6 150 23:19 17.10.2019
6037 Fog 10 1017 87 10000 1 40 22:55 17.10.2019
6038 Fog 10 1017 87 10000 1 40 22:55 17.10.2019
6039 Fog 10 1016 82 10000 4.1 140 22:55 17.10.2019
6040 Fog 10 1017 87 10000 1 40 22:37 17.10.2019
6041 Fog 10 1017 87 10000 1 40 22:37 17.10.2019
6042 Fog 10 1016 82 10000 4.6 140 22:18 17.10.2019
6043 Mist 10 1016 82 10000 3.6 140 21:56 17.10.2019
6044 Mist 10 1017 87 10000 2.6 100 21:37 17.10.2019
6045 Mist 10 1017 87 10000 2.6 100 21:37 17.10.2019
6046 Mist 11 1016 87 10000 4.1 130 21:19 17.10.2019
6047 Mist 11 1016 82 10000 3.1 130 20:56 17.10.2019
6048 Mist 11 1016 82 10000 3.1 130 20:38 17.10.2019
6049 Fog 12 1016 82 10000 3.1 130 20:18 17.10.2019
6050 Fog 11 1016 77 10000 2.6 120 19:55 17.10.2019
6051 Fog 11 1016 77 10000 2.6 120 19:37 17.10.2019
6052 Fog 12 1016 72 10000 3.1 120 19:18 17.10.2019
6053 Clear 13 1016 72 10000 3.1 130 18:39 17.10.2019
6054 Clouds 13 1016 67 10000 4.1 130 18:21 17.10.2019
6055 Clouds 14 1017 63 10000 4.6 140 17:55 17.10.2019
6056 Clouds 14 1017 63 10000 4.6 140 17:55 17.10.2019
6057 Clouds 15 1017 63 10000 4.6 140 17:37 17.10.2019
6058 Clouds 16 1017 59 10000 5.7 140 17:19 17.10.2019
6059 Clouds 17 1017 63 10000 6.7 140 16:42 17.10.2019
6060 Clouds 17 1017 63 10000 6.7 140 16:42 17.10.2019
6061 Clouds 17 1017 63 10000 5.1 110 16:19 17.10.2019
6062 Clouds 16 1017 63 10000 5.1 110 15:59 17.10.2019
6063 Clouds 16 1017 68 10000 4.6 110 15:41 17.10.2019
6064 Clouds 16 1017 63 10000 5.1 120 15:20 17.10.2019
6065 Clouds 16 1017 63 10000 5.1 120 14:58 17.10.2019
6066 Clouds 15 1017 67 10000 4.6 120 14:39 17.10.2019
6067 Clouds 15 1017 68 10000 5.7 140 14:20 17.10.2019
6068 Clouds 16 1017 67 10000 5.7 130 13:41 17.10.2019
6069 Clouds 15 1018 67 10000 4.6 140 13:21 17.10.2019
6070 Clouds 14 1018 82 10000 2.6 130 12:58 17.10.2019
6071 Clouds 13 1018 82 10000 2.6 130 12:40 17.10.2019
6072 Clouds 11 1018 87 10000 3.1 110 12:20 17.10.2019
6073 Clouds 11 1018 93 10000 5.1 150 11:57 17.10.2019
6074 Clouds 11 1018 93 10000 5.1 150 11:38 17.10.2019
6075 Clouds 10 1019 93 10000 4.6 130 11:18 17.10.2019
6076 Clouds 11 1019 100 8000 4.1 130 10:42 17.10.2019
6077 Mist 11 1019 93 4500 3.1 120 10:20 17.10.2019
6078 Fog 10 1018 100 1800 3.1 130 09:58 17.10.2019
6079 Fog 10 1018 100 1800 3.1 130 09:39 17.10.2019
6080 Rain 7 1018 100 4000 3.6 140 09:21 17.10.2019
6081 Rain 7 1018 100 2000 2.6 130 08:58 17.10.2019
6082 Rain 6 1018 100 2000 2.6 130 08:38 17.10.2019
6083 Mist 6 1018 100 2500 2.6 120 08:19 17.10.2019
6084 Mist 5 1018 100 2000 1.5 110 07:50 17.10.2019
6085 Mist 6 1017 100 5000 2.1 110 07:21 17.10.2019
6086 Mist 6 1017 100 5000 2.1 110 07:21 17.10.2019
6087 Mist 6 1017 100 9000 2.6 140 06:58 17.10.2019
6088 Mist 6 1017 100 9000 2.6 140 06:39 17.10.2019
6089 Mist 6 1017 93 10000 2.6 130 06:20 17.10.2019
6090 Fog 6 1017 100 10000 2.6 170 05:46 17.10.2019
6091 Mist 6 1017 100 10000 2.6 160 05:28 17.10.2019
6092 Rain 6 1017 100 10000 3.1 170 04:50 17.10.2019
6093 Mist 6 1018 100 10000 2.6 150 03:52 17.10.2019
6094 Clear 7 1018 87 10000 1.5 160 02:35 17.10.2019
6095 Clear 7 1018 81 10000 1 0 00:56 17.10.2019
6096 Clear 7 1018 81 10000 1 0 00:36 17.10.2019
6097 Clear 8 1018 87 10000 2.1 140 00:18 17.10.2019
6098 Clear 8 1018 87 10000 2.6 160 23:42 16.10.2019
6099 Clear 8 1018 87 10000 2.6 160 23:20 16.10.2019
6100 Clear 8 1019 87 10000 3.1 180 22:55 16.10.2019
6101 Clear 8 1019 87 10000 3.1 180 22:36 16.10.2019
6102 Clear 8 1018 87 10000 3.1 170 22:18 16.10.2019
6103 Clear 9 1018 81 10000 3.1 170 21:55 16.10.2019
6104 Clear 9 1018 81 10000 3.1 170 21:37 16.10.2019
6105 Clear 9 1018 81 10000 3.1 170 21:37 16.10.2019
6106 Clouds 9 1018 81 10000 3.6 180 21:18 16.10.2019
6107 Clouds 10 1018 81 10000 3.6 180 20:56 16.10.2019
6108 Clouds 10 1018 81 10000 3.6 180 20:56 16.10.2019
6109 Clouds 10 1018 81 10000 3.6 180 20:56 16.10.2019
6110 Clouds 10 1018 71 10000 3.6 180 20:38 16.10.2019
6111 Clouds 10 1018 66 10000 3.1 180 20:20 16.10.2019
6112 Clouds 11 1018 71 10000 2.1 160 19:56 16.10.2019
6113 Clouds 11 1018 71 10000 2.1 160 19:38 16.10.2019
6114 Clouds 12 1018 62 10000 2.1 170 19:19 16.10.2019
6115 Clouds 13 1017 62 10000 2.1 320 18:39 16.10.2019
6116 Clouds 13 1017 62 10000 2.1 320 18:39 16.10.2019
6117 Clouds 14 1017 54 10000 3.6 320 18:19 16.10.2019
6118 Clouds 15 1017 48 10000 4.6 310 17:56 16.10.2019
6119 Clouds 16 1017 48 10000 4.6 310 17:38 16.10.2019
6120 Clouds 17 1017 42 10000 5.7 290 17:20 16.10.2019
6121 Clouds 17 1017 42 10000 5.7 290 16:58 16.10.2019
6122 Clouds 17 1017 45 10000 4.6 300 16:40 16.10.2019
6123 Clouds 17 1017 48 10000 5.1 300 16:20 16.10.2019
6124 Clouds 17 1017 45 10000 7.2 290 15:56 16.10.2019
6125 Clouds 17 1017 45 10000 7.2 290 15:37 16.10.2019
6126 Clouds 17 1017 51 10000 7.2 310 15:18 16.10.2019
6127 Clouds 17 1017 51 10000 7.2 310 14:56 16.10.2019
6128 Clouds 17 1017 51 10000 7.2 310 14:38 16.10.2019
6129 Clouds 17 1017 55 10000 7.2 310 14:18 16.10.2019
6130 Clouds 17 1017 55 10000 8.2 300 13:56 16.10.2019
6131 Clouds 16 1017 55 10000 8.2 300 13:37 16.10.2019
6132 Clouds 16 1017 62 10000 6.2 300 13:18 16.10.2019
6133 Clouds 15 1017 62 10000 7.2 290 12:41 16.10.2019
6134 Clouds 15 1017 71 10000 7.2 290 12:18 16.10.2019
6135 Clouds 14 1017 71 10000 6.7 290 11:43 16.10.2019
6136 Rain 13 1017 82 10000 7.2 280 11:18 16.10.2019
6137 Rain 13 1017 82 10000 6.7 270 10:40 16.10.2019
6138 Rain 12 1016 87 10000 6.7 280 10:22 16.10.2019
6139 Rain 12 1016 87 10000 6.7 280 09:56 16.10.2019
6140 Rain 12 1016 87 10000 8.7 280 09:38 16.10.2019
6141 Rain 12 1016 76 10000 7.2 280 09:19 16.10.2019
6142 Rain 12 1015 82 10000 6.7 270 08:43 16.10.2019
6143 Rain 13 1014 71 10000 8.7 280 08:24 16.10.2019
6144 Clouds 13 1013 67 10000 8.2 280 07:55 16.10.2019
6145 Clouds 13 1013 67 10000 8.2 280 07:55 16.10.2019
6146 Clouds 13 1013 67 10000 8.2 280 07:37 16.10.2019
6147 Clouds 13 1013 72 10000 9.3 280 07:18 16.10.2019
6148 Clouds 13 1013 72 10000 8.2 290 06:40 16.10.2019
6149 Clouds 14 1012 87 10000 3.1 180 05:56 16.10.2019
6150 Clear 14 1010 82 10000 2.1 30 03:28 16.10.2019
6151 Clear 14 1009 82 10000 2.1 170 02:50 16.10.2019
6152 Clear 13 1008 77 10000 5.7 160 01:20 16.10.2019
6153 Clear 14 1008 72 10000 6.7 160 00:54 16.10.2019
6154 Clear 14 1008 72 10000 6.7 160 00:35 16.10.2019
6155 Clear 14 1008 72 10000 7.2 160 23:42 15.10.2019
6156 Clear 14 1008 72 10000 7.2 160 23:42 15.10.2019
6157 Clear 14 1008 72 10000 7.2 160 23:42 15.10.2019
6158 Clear 15 1008 72 10000 7.2 160 23:22 15.10.2019
6159 Clear 15 1008 72 10000 7.2 160 22:57 15.10.2019
6160 Clear 15 1008 72 10000 8.2 160 22:38 15.10.2019
6161 Clear 15 1008 72 10000 8.2 160 22:20 15.10.2019
6162 Clear 16 1008 72 10000 8.2 160 21:56 15.10.2019
6163 Clear 16 1008 72 10000 8.7 160 21:56 15.10.2019
6164 Clear 16 1008 72 10000 8.7 160 21:56 15.10.2019
6165 Clear 16 1008 72 10000 8.2 160 21:56 15.10.2019
6166 Clear 16 1008 72 10000 8.7 160 21:38 15.10.2019
6167 Clouds 16 1008 68 10000 9.3 160 21:20 15.10.2019
6168 Clouds 16 1008 68 10000 9.3 160 20:58 15.10.2019
6169 Clouds 17 1008 68 10000 9.8 160 20:39 15.10.2019
6170 Clouds 17 1008 68 10000 9.8 150 20:21 15.10.2019
6171 Clouds 17 1008 68 10000 9.8 150 19:59 15.10.2019
6172 Clouds 17 1008 63 10000 9.8 160 19:40 15.10.2019
6173 Clouds 18 1007 63 10000 10.8 150 19:20 15.10.2019
6174 Clouds 19 1007 60 10000 10.8 150 18:55 15.10.2019
6175 Clouds 19 1007 60 10000 10.8 150 18:36 15.10.2019
6176 Clouds 19 1007 60 10000 10.8 150 18:18 15.10.2019
6177 Clouds 20 1008 60 10000 10.8 150 17:42 15.10.2019
6178 Clouds 21 1008 56 10000 10.8 150 17:21 15.10.2019
6179 Clouds 21 1008 53 10000 12.3 150 16:59 15.10.2019
6180 Clouds 21 1008 56 10000 10.8 150 16:59 15.10.2019
6181 Clouds 21 1008 53 10000 12.3 150 16:40 15.10.2019
6182 Clouds 21 1008 53 10000 11.8 150 16:21 15.10.2019
6183 Clouds 21 1008 53 10000 11.8 150 16:21 15.10.2019
6184 Clouds 21 1009 53 10000 11.8 150 15:55 15.10.2019
6185 Clouds 21 1009 53 10000 11.8 150 15:37 15.10.2019
6186 Clouds 21 1009 53 10000 13.4 150 15:19 15.10.2019
6187 Clouds 21 1010 56 10000 11.3 150 14:54 15.10.2019
6188 Clouds 20 1010 56 10000 11.3 150 14:36 15.10.2019
6189 Clouds 20 1010 64 10000 9.3 140 14:18 15.10.2019
6190 Clouds 20 1010 63 10000 9.8 140 13:43 15.10.2019
6191 Clouds 19 1011 68 10000 9.8 140 13:20 15.10.2019
6192 Clouds 19 1011 68 10000 9.8 140 12:44 15.10.2019
6193 Clouds 18 1011 68 10000 8.7 130 12:22 15.10.2019
6194 Clouds 17 1012 77 10000 8.7 130 11:59 15.10.2019
6195 Clouds 17 1012 77 10000 8.7 130 11:40 15.10.2019
6196 Clouds 16 1012 77 10000 9.8 140 11:20 15.10.2019
6197 Clouds 16 1012 77 10000 7.7 140 10:46 15.10.2019
6198 Clouds 15 1012 82 10000 7.7 140 10:24 15.10.2019
6199 Clouds 14 1012 82 10000 7.7 140 09:59 15.10.2019
6200 Clouds 14 1012 82 10000 7.7 140 09:40 15.10.2019
6201 Clouds 13 1012 87 10000 8.2 130 09:21 15.10.2019
6202 Clouds 13 1012 87 10000 8.2 130 09:21 15.10.2019
6203 Clouds 13 1012 87 10000 7.2 130 08:57 15.10.2019
6204 Clouds 13 1012 87 10000 7.2 130 08:39 15.10.2019
6205 Clouds 12 1012 87 10000 9.3 130 08:19 15.10.2019
6206 Clouds 12 1012 87 10000 9.3 130 08:19 15.10.2019
6207 Clouds 12 1012 87 10000 8.7 140 07:43 15.10.2019
6208 Clouds 12 1012 87 10000 8.7 140 07:43 15.10.2019
6209 Clouds 12 1012 87 10000 7.7 140 07:22 15.10.2019
6210 Clear 12 1012 87 10000 7.7 140 06:56 15.10.2019
6211 Clear 12 1012 87 10000 7.7 140 06:37 15.10.2019
6212 Clear 13 1013 87 10000 6.2 140 05:56 15.10.2019
6213 Clear 13 1013 87 10000 6.2 140 05:36 15.10.2019
6214 Rain 13 1013 87 10000 7.2 140 04:48 15.10.2019
6215 Rain 14 1013 82 10000 7.7 140 04:18 15.10.2019
6216 Clear 14 1013 82 10000 8.7 130 03:35 15.10.2019
6217 Clear 15 1014 82 10000 8.2 140 01:52 15.10.2019
6218 Clear 15 1014 82 10000 8.2 140 01:52 15.10.2019
6219 Clear 15 1014 82 10000 8.2 140 01:31 15.10.2019
6220 Clear 15 1014 82 10000 9.8 140 00:59 15.10.2019
6221 Clear 15 1015 82 10000 8.2 150 00:25 15.10.2019
6222 Clear 15 1015 82 10000 8.2 150 23:58 14.10.2019
6223 Clear 16 1015 82 10000 8.2 140 23:37 14.10.2019
6224 Clear 16 1015 82 10000 8.2 140 23:37 14.10.2019
6225 Clear 15 1015 82 10000 7.2 140 23:18 14.10.2019
6226 Clear 16 1015 77 10000 7.2 140 22:39 14.10.2019
6227 Clear 16 1016 82 10000 5.7 130 22:21 14.10.2019
6228 Clear 16 1016 82 10000 6.2 130 21:58 14.10.2019
6229 Clear 15 1016 82 10000 6.2 130 21:39 14.10.2019
6230 Clear 16 1016 77 10000 6.7 130 21:21 14.10.2019
6231 Clear 16 1016 77 10000 6.7 130 21:21 14.10.2019
6232 Clear 15 1016 77 10000 5.7 130 20:58 14.10.2019
6233 Clear 15 1016 77 10000 5.7 130 20:38 14.10.2019
6234 Clear 15 1016 77 10000 5.7 130 20:38 14.10.2019
6235 Clear 15 1016 77 10000 5.7 130 20:19 14.10.2019
6236 Clouds 15 1016 77 10000 4.6 130 19:54 14.10.2019
6237 Clouds 15 1016 77 10000 4.6 130 19:36 14.10.2019
6238 Clear 15 1016 77 10000 4.6 130 19:18 14.10.2019
6239 Clear 16 1016 77 10000 5.1 140 18:54 14.10.2019
6240 Clear 16 1016 77 10000 5.1 140 18:36 14.10.2019
6241 Clear 16 1017 77 10000 4.1 130 18:18 14.10.2019
6242 -273 0 0 0 0 0 17:41 14.10.2019
6243 Clear 18 1017 68 10000 4.6 150 17:22 14.10.2019
6244 Clear 19 1017 68 10000 4.6 150 16:46 14.10.2019
6245 Clear 19 1018 68 10000 4.6 150 16:23 14.10.2019
6246 Clouds 18 1018 68 10000 4.6 150 15:59 14.10.2019
6247 Clouds 18 1018 68 10000 4.6 150 15:40 14.10.2019
6248 Clouds 18 1018 72 10000 4.1 150 15:21 14.10.2019
6249 Clouds 18 1019 72 10000 4.1 140 14:44 14.10.2019
6250 Clouds 18 1019 82 10000 4.1 140 14:25 14.10.2019
6251 Mist 19 1020 87 10000 4.1 140 13:57 14.10.2019
6252 Mist 20 1019 87 5000 4.95 109.921 13:39 14.10.2019
6253 Clear 19 1020 60 10000 4.1 130 13:20 14.10.2019
6254 Clear 20 1020 60 10000 4.1 130 13:20 14.10.2019
6255 Fog 16 1020 93 6000 4.1 140 12:41 14.10.2019
6256 Drizzle 14 1020 100 6000 4.1 130 12:21 14.10.2019
6257 -273 0 0 0 0 0 11:55 14.10.2019
6258 Mist 13 1020 93 3200 3.6 120 11:54 14.10.2019
6259 Mist 13 1020 93 3200 3.6 120 11:36 14.10.2019
6260 Fog 12 1020 93 1200 4.1 130 11:18 14.10.2019
6261 Fog 13 1020 100 600 4.1 140 10:43 14.10.2019
6262 Fog 12 1020 100 400 3.6 140 10:21 14.10.2019
6263 Fog 12 1020 100 350 3.6 140 09:57 14.10.2019
6264 Rain 12 1020 100 350 3.6 140 09:38 14.10.2019
6265 Rain 11 1020 100 400 3.1 130 09:19 14.10.2019
6266 Fog 11 1020 100 350 3.1 120 08:47 14.10.2019
6267 Fog 10 1020 93 350 3.1 140 08:23 14.10.2019
6268 Rain 10 1019 100 400 3.1 130 07:44 14.10.2019
6269 Fog 10 1019 100 400 2.1 110 07:21 14.10.2019
6270 -273 0 0 0 0 0 06:55 14.10.2019
6271 Fog 10 1019 100 400 1.5 120 06:27 14.10.2019
6272 Rain 10 1019 100 350 1 0 05:51 14.10.2019
6273 Fog 10 1019 100 450 1 0 04:51 14.10.2019
6274 Fog 10 1019 93 2000 0.5 0 03:48 14.10.2019
6275 Mist 10 1019 93 3200 1 0 03:22 14.10.2019
6276 Fog 10 1020 100 400 2.1 260 01:46 14.10.2019
6277 Rain 10 1020 100 500 0.5 0 01:18 14.10.2019
6278 Rain 10 1020 93 500 1.5 160 00:36 14.10.2019
6279 Rain 10 1020 93 500 1.5 160 00:18 14.10.2019
6280 Fog 10 1020 100 500 1.5 170 23:40 13.10.2019
6281 Fog 10 1020 100 1100 1 0 23:19 13.10.2019
6282 -273 0 0 0 0 0 22:54 13.10.2019
6283 Fog 10 1020 93 450 1.5 180 22:36 13.10.2019
6284 Fog 10 1020 100 600 1.5 190 22:18 13.10.2019
6285 Fog 10 1020 100 600 1.5 190 22:18 13.10.2019
6286 Fog 11 1020 100 450 1.5 180 21:55 13.10.2019
6287 Fog 11 1021 93 10000 2.1 40 21:36 13.10.2019
6288 Fog 11 1020 93 400 1.5 160 21:18 13.10.2019
6289 Fog 11 1020 100 500 2.6 220 20:55 13.10.2019
6290 Fog 12 1020 100 500 2.6 220 20:36 13.10.2019
6291 Mist 12 1021 93 5000 3.1 150 20:18 13.10.2019
6292 -273 0 0 0 0 0 19:54 13.10.2019
6293 Clouds 12 1020 93 6000 4.6 160 19:36 13.10.2019
6294 Clouds 13 1020 93 9000 3.6 140 19:18 13.10.2019
6295 Clear 14 1020 82 10000 4.1 130 18:39 13.10.2019
6296 Clear 15 1020 82 10000 3.1 140 18:20 13.10.2019
6297 Clear 15 1020 82 10000 3.1 140 18:20 13.10.2019
6298 Clear 15 1020 82 10000 3.1 140 17:59 13.10.2019
6299 Clear 16 1020 82 10000 3.6 140 17:41 13.10.2019
6300 Clear 16 1020 77 10000 4.1 150 17:22 13.10.2019
6301 Clear 17 1020 77 10000 3.1 140 16:43 13.10.2019
6302 Clouds 17 1021 72 10000 3.6 160 16:19 13.10.2019
6303 Clouds 17 1021 72 10000 3.6 160 16:19 13.10.2019
6304 Clouds 17 1021 77 10000 4.1 160 15:57 13.10.2019
6305 Clouds 17 1021 77 10000 4.1 160 15:57 13.10.2019
6306 Clouds 17 1021 77 10000 4.1 160 15:39 13.10.2019
6307 Clouds 17 1021 77 10000 5.1 150 15:20 13.10.2019
6308 Clouds 17 1021 77 10000 5.1 150 15:20 13.10.2019
6309 Clouds 17 1021 77 10000 3.6 160 14:57 13.10.2019
6310 Clouds 17 1021 77 10000 3.6 160 14:39 13.10.2019
6311 Clouds 17 1021 82 10000 4.1 150 14:20 13.10.2019
6312 Clouds 17 1021 82 10000 4.1 130 13:55 13.10.2019
6313 Clouds 17 1021 82 10000 4.1 130 13:37 13.10.2019
6314 Clouds 17 1021 82 10000 4.1 130 13:37 13.10.2019
6315 Clouds 16 1021 82 10000 3.6 180 13:18 13.10.2019
6316 Mist 15 1021 87 8000 2.6 170 12:55 13.10.2019
6317 Mist 14 1021 87 8000 2.6 170 12:36 13.10.2019
6318 Mist 13 1022 87 7000 2.1 200 12:18 13.10.2019
6319 Mist 13 1022 87 6000 2.1 180 11:54 13.10.2019
6320 Mist 12 1022 87 6000 2.1 180 11:36 13.10.2019
6321 Mist 12 1021 93 4500 2.1 180 11:18 13.10.2019
6322 -273 0 0 0 0 0 10:40 13.10.2019
6323 Fog 12 1021 100 1200 1 0 10:22 13.10.2019
6324 Fog 12 1021 100 1200 1 0 10:22 13.10.2019
6325 Fog 10 1021 100 350 1.5 40 09:40 13.10.2019
6326 Fog 10 1021 100 300 1 0 09:21 13.10.2019
6327 Fog 9 1021 100 1200 1 20 08:57 13.10.2019
6328 Fog 9 1021 100 1200 1 20 08:37 13.10.2019
6329 Fog 9 1020 100 2300 0.5 0 08:18 13.10.2019
6330 Fog 9 1020 93 1300 0.5 0 07:45 13.10.2019
6331 Fog 9 1020 93 1300 0.5 0 07:45 13.10.2019
6332 Fog 9 1020 100 900 1 0 06:58 13.10.2019
6333 Rain 9 1020 93 500 1 0 06:31 13.10.2019
6334 Rain 9 1020 100 600 1 0 05:34 13.10.2019
6335 Rain 9 1020 100 600 1 0 05:34 13.10.2019
6336 Rain 8 1019 100 900 1 0 04:46 13.10.2019
6337 Rain 8 1019 100 1400 2.6 170 03:39 13.10.2019
6338 Fog 8 1020 93 4500 2.6 160 02:39 13.10.2019
6339 Mist 8 1020 100 4500 2.1 130 01:53 13.10.2019
6340 Fog 8 1020 93 4500 1.5 110 01:26 13.10.2019
6341 Fog 8 1020 93 4500 2.1 100 00:46 13.10.2019
6342 Fog 9 1019 93 4500 2.1 110 00:21 13.10.2019
6343 Fog 9 1019 100 900 1.5 120 23:55 12.10.2019
6344 Fog 9 1019 100 900 1.5 120 23:36 12.10.2019
6345 Fog 9 1020 93 6000 1.5 120 23:18 12.10.2019
6346 Fog 9 1020 93 10000 1.5 160 22:56 12.10.2019
6347 Fog 9 1020 93 10000 1.5 160 22:37 12.10.2019
6348 Fog 9 1019 100 7000 2.1 140 22:19 12.10.2019
6349 Clear 10 1019 93 10000 2.1 100 21:42 12.10.2019
6350 Clear 10 1019 93 10000 2.1 110 21:24 12.10.2019
6351 Clear 10 1019 93 10000 2.1 110 20:58 12.10.2019
6352 Clear 10 1019 93 10000 2.1 110 20:58 12.10.2019
6353 Clear 10 1019 93 10000 2.1 110 20:39 12.10.2019
6354 Clear 10 1019 87 10000 2.1 120 20:21 12.10.2019
6355 Clear 11 1019 87 10000 1 110 19:37 12.10.2019
6356 Clear 12 1019 87 10000 2.1 120 19:19 12.10.2019
6357 Clear 12 1019 82 10000 3.1 130 18:56 12.10.2019
6358 Clear 13 1019 82 10000 3.1 130 18:37 12.10.2019
6359 Clear 14 1019 76 10000 2.1 120 18:19 12.10.2019
6360 Clear 14 1019 76 10000 3.6 140 17:42 12.10.2019
6361 Clear 16 1019 76 10000 3.6 150 17:19 12.10.2019
6362 Clear 16 1020 76 10000 4.6 160 16:54 12.10.2019
6363 Clear 16 1020 76 10000 4.6 160 16:54 12.10.2019
6364 Clear 16 1020 76 10000 4.6 160 16:36 12.10.2019
6365 Clouds 16 1020 82 10000 4.6 150 16:18 12.10.2019
6366 Clouds 16 1020 81 10000 4.6 150 15:40 12.10.2019
6367 Clouds 17 1020 81 10000 4.1 150 15:22 12.10.2019
6368 Clouds 17 1020 81 10000 3.6 150 14:43 12.10.2019
6369 Clouds 16 1021 87 10000 4.1 150 14:22 12.10.2019
6370 Clouds 17 1021 93 10000 4.6 140 13:57 12.10.2019
6371 Clouds 16 1021 93 10000 4.6 140 13:38 12.10.2019
6372 Clouds 16 1021 93 10000 4.6 130 13:20 12.10.2019
6373 Clouds 15 1021 93 10000 4.6 150 12:39 12.10.2019
6374 Clouds 13 1021 93 8000 4.1 140 12:21 12.10.2019
6375 Mist 12 1021 93 7000 3.6 110 11:58 12.10.2019
6376 Mist 12 1021 93 7000 3.6 110 11:39 12.10.2019
6377 Mist 12 1021 93 4500 4.1 120 11:19 12.10.2019
6378 Mist 12 1021 100 4000 3.6 120 10:43 12.10.2019
6379 Mist 11 1021 93 3000 3.6 110 10:23 12.10.2019
6380 Fog 10 1021 100 2000 2.6 120 09:58 12.10.2019
6381 Fog 10 1021 100 2000 2.6 120 09:39 12.10.2019
6382 Fog 9 1020 100 900 3.1 120 09:21 12.10.2019
6383 Fog 9 1020 100 700 3.6 140 08:57 12.10.2019
6384 Fog 9 1020 100 700 3.6 140 08:57 12.10.2019
6385 Fog 9 1020 100 700 3.6 140 08:57 12.10.2019
6386 Fog 9 1020 100 700 3.6 140 08:57 12.10.2019
6387 Fog 8 1020 100 700 3.6 140 08:37 12.10.2019
6388 Fog 8 1019 93 600 3.6 120 08:18 12.10.2019
6389 Fog 8 1019 93 600 3.1 130 07:34 12.10.2019
6390 Mist 8 1019 100 1400 2.6 120 06:51 12.10.2019
6391 Fog 8 1019 100 1400 2.1 120 05:47 12.10.2019
6392 Mist 8 1019 93 3000 3.1 120 05:22 12.10.2019
6393 Fog 8 1019 100 3400 1 0 04:24 12.10.2019
6394 Clouds 8 1019 93 9000 1 130 03:30 12.10.2019
6395 Clear 9 1019 93 10000 2.1 130 01:45 12.10.2019
6396 Clear 9 1019 93 10000 3.1 160 01:21 12.10.2019
6397 Clear 9 1019 93 10000 3.1 150 00:42 12.10.2019
6398 Clear 10 1019 93 10000 3.6 160 23:59 11.10.2019
6399 Clear 10 1019 93 10000 3.6 160 23:40 11.10.2019
6400 Clear 11 1019 87 10000 3.1 160 23:20 11.10.2019
6401 Clear 11 1019 87 10000 4.6 150 22:41 11.10.2019
6402 Clear 11 1019 87 10000 4.6 150 22:21 11.10.2019
6403 Clear 12 1019 87 10000 4.6 140 21:57 11.10.2019
6404 Clear 12 1019 87 10000 4.6 140 21:39 11.10.2019
6405 Clear 12 1019 87 10000 4.6 150 21:20 11.10.2019
6406 Clear 13 1019 82 10000 5.1 150 20:44 11.10.2019
6407 Clear 13 1019 76 10000 4.6 150 20:26 11.10.2019
6408 Clear 13 1019 76 10000 4.6 150 19:58 11.10.2019
6409 Clear 14 1019 67 10000 4.6 140 19:39 11.10.2019
6410 Clear 14 1019 62 10000 5.1 150 19:18 11.10.2019
6411 Clear 14 1019 62 10000 5.7 150 18:58 11.10.2019
6412 Clear 16 1019 62 10000 5.7 150 18:38 11.10.2019
6413 Clear 17 1019 55 10000 6.2 160 18:19 11.10.2019
6414 Clear 16 1019 55 10000 6.2 160 18:19 11.10.2019
6415 Clear 17 1020 45 10000 7.2 170 17:58 11.10.2019
6416 Clear 18 1020 45 10000 7.2 170 17:38 11.10.2019
6417 Clear 18 1020 42 10000 7.2 180 17:19 11.10.2019
6418 Clear 19 1020 42 10000 7.2 170 16:56 11.10.2019
6419 Clear 19 1020 42 10000 7.2 170 16:37 11.10.2019
6420 Clear 19 1020 40 10000 6.7 180 16:19 11.10.2019
6421 Clear 19 1020 37 10000 6.2 180 15:41 11.10.2019
6422 Clear 19 1020 37 10000 6.2 180 15:41 11.10.2019
6423 Clear 19 1021 35 10000 6.2 190 15:20 11.10.2019
6424 Clear 19 1022 37 10000 5.7 190 14:58 11.10.2019
6425 Clear 19 1022 37 10000 5.7 190 14:38 11.10.2019
6426 Clouds 19 1022 40 10000 4.6 190 14:19 11.10.2019
6427 Clear 19 1022 42 10000 5.7 170 13:44 11.10.2019
6428 Clear 19 1023 42 10000 6.2 190 13:25 11.10.2019
6429 Rain 18 1023 52 10000 2.6 170 12:57 11.10.2019
6430 Rain 18 1023 52 10000 2.6 170 12:38 11.10.2019
6431 Rain 17 1024 55 10000 1.5 140 12:20 11.10.2019
6432 Rain 17 1024 55 10000 1.5 140 11:58 11.10.2019
6433 Clear 16 1024 55 10000 2.6 150 11:38 11.10.2019
6434 Clear 16 1024 58 10000 1.5 160 11:20 11.10.2019
6435 -273 0 0 0 0 0 10:54 11.10.2019
6436 Clear 15 1024 62 10000 3.1 170 10:36 11.10.2019
6437 Clear 14 1024 66 10000 2.6 180 10:18 11.10.2019
6438 Clear 12 1024 76 10000 2.6 140 09:41 11.10.2019
6439 Clear 11 1024 81 10000 2.6 180 09:20 11.10.2019
6440 Clear 10 1024 87 10000 3.1 150 08:56 11.10.2019
6441 Clear 9 1024 87 10000 3.1 150 08:38 11.10.2019
6442 Clear 8 1024 87 10000 2.1 140 08:20 11.10.2019
6443 Fog 8 1024 81 10000 1.5 0 07:51 11.10.2019
6444 Fog 8 1024 81 10000 1.5 0 07:33 11.10.2019
6445 Clear 7 1023 87 10000 3.6 160 06:49 11.10.2019
6446 Clear 8 1023 87 10000 4.1 170 06:25 11.10.2019
6447 Clear 8 1023 87 10000 4.6 180 05:46 11.10.2019
6448 Clear 8 1023 81 10000 2.6 210 05:27 11.10.2019
6449 Clear 8 1023 81 10000 3.1 260 04:47 11.10.2019
6450 Clouds 9 1023 76 10000 2.6 230 02:59 11.10.2019
6451 Clear 10 1022 71 10000 3.1 260 00:54 11.10.2019
6452 Clear 10 1022 71 10000 3.1 260 00:30 11.10.2019
6453 Clear 10 1022 66 10000 4.1 260 23:57 10.10.2019
6454 Clear 10 1022 66 10000 4.1 260 23:38 10.10.2019
6455 Clear 10 1022 66 10000 3.6 240 23:18 10.10.2019
6456 Clear 10 1022 66 10000 3.1 230 22:54 10.10.2019
6457 Clear 10 1022 66 10000 3.1 230 22:36 10.10.2019
6458 Clear 10 1021 71 10000 2.1 220 22:18 10.10.2019
6459 Clear 10 1021 71 10000 2.1 230 21:42 10.10.2019
6460 Clear 10 1021 66 10000 4.1 240 21:22 10.10.2019
6461 Clear 10 1020 66 10000 4.6 250 20:57 10.10.2019
6462 Clear 11 1020 66 10000 4.6 250 20:39 10.10.2019
6463 Clear 11 1020 66 10000 4.6 260 20:19 10.10.2019
6464 Clear 11 1020 66 10000 4.6 260 20:19 10.10.2019
6465 Clear 11 1019 62 10000 5.7 260 19:55 10.10.2019
6466 Clear 11 1019 62 10000 5.7 260 19:37 10.10.2019
6467 Rain 12 1019 62 10000 6.7 270 19:19 10.10.2019
6468 Rain 12 1018 58 10000 7.2 270 18:42 10.10.2019
6469 Rain 13 1017 71 0 7.2 230 18:20 10.10.2019
6470 Rain 14 1017 58 10000 10.3 280 17:58 10.10.2019
6471 Rain 14 1017 58 10000 10.3 280 17:39 10.10.2019
6472 Rain 15 1017 51 10000 11.3 270 17:18 10.10.2019
6473 Rain 15 1017 51 10000 11.3 270 17:18 10.10.2019
6474 Rain 15 1017 51 10000 10.3 270 16:55 10.10.2019
6475 Rain 15 1017 51 10000 10.3 270 16:37 10.10.2019
6476 Rain 15 1017 55 10000 10.8 290 16:18 10.10.2019
6477 Rain 16 1016 42 10000 8.2 270 15:39 10.10.2019
6478 Clouds 16 1016 39 10000 9.8 260 15:21 10.10.2019
6479 Clouds 17 1016 42 10000 10.3 270 14:56 10.10.2019
6480 Clouds 17 1016 42 10000 10.3 270 14:37 10.10.2019
6481 Clouds 17 1016 42 10000 7.7 270 14:19 10.10.2019
6482 Clouds 17 1016 45 10000 5.7 240 13:55 10.10.2019
6483 Clouds 17 1016 45 10000 5.7 240 13:37 10.10.2019
6484 Clouds 17 1017 51 10000 5.1 270 13:18 10.10.2019
6485 Clouds 16 1017 51 10000 4.6 280 12:42 10.10.2019
6486 Clouds 16 1017 51 10000 5.1 300 12:20 10.10.2019
6487 Clouds 16 1017 51 10000 4.6 300 11:58 10.10.2019
6488 Clouds 15 1017 51 10000 4.6 300 11:39 10.10.2019
6489 Clouds 15 1017 51 10000 5.7 300 11:19 10.10.2019
6490 Clouds 15 1017 51 10000 5.7 270 10:46 10.10.2019
6491 Clouds 14 1016 54 10000 2.6 280 10:27 10.10.2019
6492 Clouds 14 1016 54 10000 2.6 280 09:59 10.10.2019
6493 Clouds 13 1016 66 10000 1 0 09:41 10.10.2019
6494 Clouds 12 1016 66 10000 1.5 50 09:23 10.10.2019
6495 Clouds 11 1016 71 10000 1.5 140 08:59 10.10.2019
6496 Clouds 11 1016 71 10000 1.5 140 08:39 10.10.2019
6497 Clouds 10 1015 66 10000 4.1 310 08:19 10.10.2019
6498 Clouds 10 1015 62 10000 2.1 240 07:47 10.10.2019
6499 Clouds 10 1015 76 10000 0.5 0 07:25 10.10.2019
6500 Clouds 10 1015 76 10000 1.5 70 06:55 10.10.2019
6501 Clouds 10 1015 76 10000 1.5 70 06:36 10.10.2019
6502 Clouds 10 1015 66 10000 0.5 0 05:39 10.10.2019
6503 Clear 10 1014 66 10000 2.6 240 05:18 10.10.2019
6504 Clouds 10 1014 62 10000 3.6 260 04:34 10.10.2019
6505 Clear 11 1014 62 10000 2.1 240 02:19 10.10.2019
6506 Clear 11 1014 66 10000 4.1 290 01:36 10.10.2019
6507 Clear 11 1014 66 10000 4.1 290 01:18 10.10.2019
6508 Clear 11 1014 71 10000 6.2 280 00:25 10.10.2019
6509 Clouds 11 1014 71 10000 6.7 280 23:42 09.10.2019
6510 Clouds 11 1014 76 10000 8.7 280 23:23 09.10.2019
6511 Clouds 11 1014 76 10000 8.7 280 22:59 09.10.2019
6512 Rain 11 1014 76 10000 9.3 280 22:41 09.10.2019
6513 Rain 11 1014 76 10000 10.3 280 22:22 09.10.2019
6514 Rain 11 1014 76 10000 10.3 280 22:22 09.10.2019
6515 Rain 11 1014 82 10000 5.1 300 21:56 09.10.2019
6516 Rain 11 1014 82 10000 5.1 300 21:38 09.10.2019
6517 Rain 12 1013 87 10000 5.1 310 21:18 09.10.2019
6518 Rain 12 1013 87 10000 7.2 310 20:54 09.10.2019
6519 Rain 12 1013 87 10000 7.2 310 20:36 09.10.2019
6520 Rain 12 1012 93 5000 9.8 320 20:18 09.10.2019
6521 Rain 13 1011 72 8000 7.2 280 19:43 09.10.2019
6522 Rain 13 1010 72 10000 1.5 350 19:22 09.10.2019
6523 Clouds 14 1010 72 10000 1 0 18:39 09.10.2019
6524 Rain 14 1010 67 10000 1 0 18:21 09.10.2019
6525 Clouds 15 1010 67 10000 1 0 17:58 09.10.2019
6526 Clouds 15 1010 67 10000 1 0 17:40 09.10.2019
6527 Clouds 15 1010 67 10000 3.6 150 17:22 09.10.2019
6528 Clouds 15 1011 67 10000 4.1 130 16:57 09.10.2019
6529 Clouds 15 1011 67 10000 4.1 130 16:39 09.10.2019
6530 Clouds 15 1011 67 10000 4.1 130 16:39 09.10.2019
6531 Clouds 15 1011 63 10000 3.6 120 16:20 09.10.2019
6532 Clouds 15 1011 63 10000 3.6 120 16:20 09.10.2019
6533 Clouds 16 1011 63 10000 3.6 130 15:56 09.10.2019
6534 Clouds 16 1011 63 10000 3.6 130 15:37 09.10.2019
6535 Clouds 16 1012 63 10000 3.6 130 15:19 09.10.2019
6536 Clouds 16 1012 67 10000 3.6 120 14:45 09.10.2019
6537 Clouds 16 1013 67 10000 4.1 140 14:19 09.10.2019
6538 Clouds 16 1013 63 10000 3.6 130 14:00 09.10.2019
6539 Clouds 16 1013 63 10000 3.6 130 13:38 09.10.2019
6540 Clouds 16 1013 63 10000 3.6 130 13:38 09.10.2019
6541 Clouds 16 1013 67 10000 3.1 120 13:18 09.10.2019
6542 Clouds 15 1014 67 10000 3.1 120 12:44 09.10.2019
6543 Clouds 15 1014 71 10000 3.6 110 12:23 09.10.2019
6544 Clouds 15 1014 71 10000 3.6 110 12:23 09.10.2019
6545 Clouds 14 1014 71 10000 2.6 130 11:58 09.10.2019
6546 Clouds 14 1014 71 10000 2.6 130 11:40 09.10.2019
6547 Clouds 14 1013 71 10000 2.6 90 11:20 09.10.2019
6548 Clouds 14 1014 71 10000 2.1 110 10:59 09.10.2019
6549 Clouds 13 1014 71 10000 2.1 110 10:40 09.10.2019
6550 Clouds 13 1014 76 10000 2.6 110 10:19 09.10.2019
6551 Clouds 13 1014 76 10000 2.6 110 10:19 09.10.2019
6552 Clouds 12 1014 76 10000 3.1 110 09:43 09.10.2019
6553 Clear 11 1013 76 10000 3.6 90 09:21 09.10.2019
6554 Clear 11 1013 76 10000 3.6 90 08:58 09.10.2019
6555 Clear 11 1013 76 10000 2.6 120 08:39 09.10.2019
6556 Clear 10 1013 76 10000 3.1 100 08:19 09.10.2019
6557 Clear 10 1013 76 10000 2.1 80 07:47 09.10.2019
6558 Clear 10 1012 76 10000 2.1 50 07:25 09.10.2019
6559 Clouds 10 1012 76 10000 2.1 100 06:58 09.10.2019
6560 Clear 10 1012 76 10000 4.1 140 06:35 09.10.2019
6561 Clear 10 1011 76 10000 4.1 130 05:53 09.10.2019
6562 Clear 11 1011 76 10000 4.6 140 04:56 09.10.2019
6563 Clear 11 1011 76 10000 3.1 140 03:48 09.10.2019
6564 Clear 11 1012 71 10000 3.6 130 02:27 09.10.2019
6565 Clear 11 1012 76 10000 4.1 130 01:39 09.10.2019
6566 Clear 11 1012 76 10000 2.1 140 01:18 09.10.2019
6567 Clear 11 1012 76 10000 4.1 150 00:41 09.10.2019
6568 Clear 11 1012 71 10000 3.6 150 00:23 09.10.2019
6569 Clear 11 1013 66 10000 5.1 150 23:58 08.10.2019
6570 Clear 11 1013 66 10000 5.1 150 23:38 08.10.2019
6571 Clear 12 1013 66 10000 4.1 150 23:18 08.10.2019
6572 Clear 12 1013 66 10000 5.1 150 22:55 08.10.2019
6573 Clear 12 1013 62 10000 4.6 150 22:36 08.10.2019
6574 Clear 13 1013 62 10000 4.6 150 22:18 08.10.2019
6575 Rain 12 1013 62 10000 3.6 150 21:55 08.10.2019
6576 Rain 13 1013 62 10000 3.6 150 21:36 08.10.2019
6577 Clear 13 1014 62 10000 3.6 140 21:18 08.10.2019
6578 Clear 13 1014 62 10000 4.6 150 20:55 08.10.2019
6579 Clear 13 1014 62 10000 4.6 150 20:55 08.10.2019
6580 Clear 13 1014 62 10000 4.6 150 20:36 08.10.2019
6581 Clear 13 1013 54 10000 6.7 160 20:18 08.10.2019
6582 Clear 13 1014 50 10000 8.7 160 19:54 08.10.2019
6583 Clear 13 1014 50 10000 8.7 160 19:36 08.10.2019
6584 Clear 14 1014 50 10000 8.7 160 19:36 08.10.2019
6585 Clear 14 1013 54 10000 6.7 160 19:18 08.10.2019
6586 Rain 14 1013 51 10000 9.8 170 18:41 08.10.2019
6587 Clear 14 1013 54 10000 10.3 160 18:23 08.10.2019
6588 Clear 15 1013 51 10000 9.8 160 17:57 08.10.2019
6589 Clear 15 1013 51 10000 9.8 160 17:57 08.10.2019
6590 Clear 15 1013 51 10000 9.8 160 17:39 08.10.2019
6591 Clear 15 1014 51 10000 9.8 160 17:19 08.10.2019
6592 Clear 15 1014 48 10000 10.3 160 16:56 08.10.2019
6593 Clear 15 1014 48 10000 10.3 160 16:37 08.10.2019
6594 Clear 16 1015 48 10000 9.3 160 16:18 08.10.2019
6595 Clear 16 1015 48 10000 9.8 160 15:38 08.10.2019
6596 Clear 16 1015 45 10000 8.7 160 15:20 08.10.2019
6597 Clear 16 1016 48 10000 8.7 160 14:56 08.10.2019
6598 Clear 16 1016 48 10000 8.7 160 14:37 08.10.2019
6599 Clear 16 1016 44 10000 7.7 160 14:19 08.10.2019
6600 Clear 15 1017 47 10000 7.7 150 13:55 08.10.2019
6601 Clear 15 1017 47 10000 7.7 150 13:37 08.10.2019
6602 Clear 14 1017 47 10000 7.7 150 13:18 08.10.2019
6603 Clear 14 1017 47 10000 7.7 150 13:18 08.10.2019
6604 Clear 14 1017 58 10000 7.2 150 12:41 08.10.2019
6605 Clear 13 1018 66 10000 6.2 140 12:20 08.10.2019
6606 Clear 12 1018 71 10000 7.2 140 11:57 08.10.2019
6607 Clear 12 1018 71 10000 7.2 140 11:57 08.10.2019
6608 Clear 11 1018 71 10000 7.2 140 11:38 08.10.2019
6609 Clear 10 1019 70 10000 5.7 140 11:20 08.10.2019
6610 Clouds 10 1019 81 10000 3.6 140 10:42 08.10.2019
6611 Clear 9 1019 81 10000 4.1 130 10:23 08.10.2019
6612 Mist 8 1020 86 10000 3.6 150 09:59 08.10.2019
6613 Fog 7 1020 86 10000 3.6 150 09:40 08.10.2019
6614 Clear 6 1020 93 10000 2.1 140 09:22 08.10.2019
6615 Mist 4 1020 93 10000 2.1 160 08:45 08.10.2019
6616 Fog 3 1020 93 10000 2.1 150 08:25 08.10.2019
6617 Fog 2 1020 67 10000 2.6 140 07:57 08.10.2019
6618 Fog 2 1020 67 10000 2.6 140 07:38 08.10.2019
6619 Fog 2 1020 67 10000 3.1 150 07:19 08.10.2019
6620 Fog 2 1020 67 10000 2.6 160 06:45 08.10.2019
6621 Fog 2 1020 88 10000 3.1 180 06:21 08.10.2019
6622 Clear 2 1020 88 10000 4.1 170 05:43 08.10.2019
6623 Clear 2 1020 88 10000 4.1 170 05:43 08.10.2019
6624 Clear 2 1020 86 10000 2.6 160 05:19 08.10.2019
6625 Clear 2 1021 88 10000 2.6 160 03:31 08.10.2019
6626 Clear 2 1021 88 10000 2.1 170 02:42 08.10.2019
6627 Clear 3 1021 93 10000 2.1 160 01:58 08.10.2019
6628 Clear 3 1021 93 10000 2.1 160 01:40 08.10.2019
6629 Clear 3 1021 93 10000 1.5 150 00:56 08.10.2019
6630 Clear 3 1021 93 10000 1.5 170 00:25 08.10.2019
6631 Clear 3 1021 86 10000 2.1 180 23:56 07.10.2019
6632 Clear 4 1021 86 10000 2.1 180 23:37 07.10.2019
6633 Clear 4 1021 86 10000 2.1 160 23:19 07.10.2019
6634 Clear 4 1021 80 10000 2.1 170 22:54 07.10.2019
6635 Clear 4 1021 80 10000 2.1 170 22:36 07.10.2019
6636 Clear 5 1020 75 10000 2.1 250 22:18 07.10.2019
6637 Clear 5 1020 70 10000 1.5 230 21:54 07.10.2019
6638 Clear 5 1020 70 10000 1.5 230 21:36 07.10.2019
6639 Clear 5 1020 70 10000 1 0 21:18 07.10.2019
6640 Clear 5 1020 70 10000 1 0 21:18 07.10.2019
6641 Clear 5 1020 61 10000 1 0 20:54 07.10.2019
6642 Clear 6 1020 61 10000 1 0 20:36 07.10.2019
6643 Clear 6 1020 81 0 0.5 120 20:18 07.10.2019
6644 Clear 6 1020 61 10000 1 0 19:41 07.10.2019
6645 Clear 7 1020 65 10000 1.5 360 19:20 07.10.2019
6646 Clouds 8 1020 66 10000 2.1 360 18:59 07.10.2019
6647 Clouds 8 1020 66 10000 2.1 360 18:59 07.10.2019
6648 Clouds 9 1020 66 10000 2.1 360 18:40 07.10.2019
6649 Clouds 9 1019 57 10000 2.1 10 18:19 07.10.2019
6650 Clouds 11 1019 57 10000 2.6 330 17:56 07.10.2019
6651 Clouds 11 1019 57 10000 2.6 330 17:38 07.10.2019
6652 Clouds 12 1019 53 10000 3.1 330 17:18 07.10.2019
6653 Clouds 12 1019 53 10000 2.6 330 16:44 07.10.2019
6654 Clouds 12 1019 50 10000 2.1 360 16:25 07.10.2019
6655 Clear 12 1019 50 0 1 190 15:57 07.10.2019
6656 Clouds 12 1019 57 10000 2.1 360 15:38 07.10.2019
6657 Clouds 12 1019 57 10000 2.6 20 15:20 07.10.2019
6658 Clouds 12 1019 61 10000 2.1 20 14:41 07.10.2019
6659 Clouds 11 1019 61 10000 2.1 20 14:22 07.10.2019
6660 Clouds 11 1019 61 10000 1 0 13:44 07.10.2019
6661 Clouds 11 1019 66 10000 1.5 90 13:21 07.10.2019
6662 Clouds 11 1019 66 10000 1 0 12:57 07.10.2019
6663 Clouds 11 1019 66 10000 1 0 12:57 07.10.2019
6664 Clouds 10 1019 66 10000 1 0 12:39 07.10.2019
6665 Clouds 10 1019 70 10000 1 0 12:20 07.10.2019
6666 Clouds 10 1019 70 10000 1 0 11:59 07.10.2019
6667 Clouds 9 1019 70 10000 1 0 11:39 07.10.2019
6668 Clouds 9 1019 70 10000 1 0 11:20 07.10.2019
6669 Clouds 8 1019 81 10000 0.5 0 10:43 07.10.2019
6670 Clouds 8 1019 81 10000 1.5 350 10:23 07.10.2019
6671 Clouds 7 1018 81 10000 1.5 350 09:58 07.10.2019
6672 Clouds 6 1018 81 10000 1.5 350 09:38 07.10.2019
6673 Clouds 6 1018 81 10000 1.5 360 09:20 07.10.2019
6674 Clouds 5 1018 86 10000 1.5 350 08:43 07.10.2019
6675 Clouds 5 1017 86 10000 2.6 20 08:20 07.10.2019
6676 Clouds 5 1017 86 10000 1.5 20 07:49 07.10.2019
6677 Clouds 5 1016 86 10000 2.1 20 07:28 07.10.2019
6678 Clouds 5 1016 86 10000 3.1 20 06:58 07.10.2019
6679 Clouds 5 1016 86 10000 3.1 20 06:39 07.10.2019
6680 Clouds 5 1016 86 10000 2.1 10 06:19 07.10.2019
6681 Rain 5 1015 86 10000 0.5 0 05:26 07.10.2019
6682 Rain 5 1015 86 10000 1 30 04:50 07.10.2019
6683 Rain 6 1015 81 10000 2.1 30 03:48 07.10.2019
6684 Rain 6 1015 81 10000 1.5 40 03:30 07.10.2019
6685 Rain 6 1015 81 10000 1.5 40 03:30 07.10.2019
6686 Rain 6 1015 81 10000 2.1 20 02:39 07.10.2019
6687 Clouds 6 1015 81 10000 2.1 50 02:19 07.10.2019
6688 Rain 6 1016 81 10000 2.1 50 01:24 07.10.2019
6689 Rain 6 1016 81 10000 1.5 60 00:53 07.10.2019
6690 Rain 6 1016 81 10000 1.5 60 00:26 07.10.2019
6691 Clouds 7 1016 81 10000 1.5 60 23:59 06.10.2019
6692 Clear 7 1016 87 10000 2.1 50 23:40 06.10.2019
6693 Clear 7 1016 81 10000 2.1 40 23:20 06.10.2019
6694 Clear 7 1016 81 10000 1 20 22:57 06.10.2019
6695 Clear 7 1016 81 10000 1 20 22:39 06.10.2019
6696 Clear 7 1016 75 10000 0.5 0 22:20 06.10.2019
6697 Clear 7 1016 81 10000 1.5 40 21:55 06.10.2019
6698 Clear 7 1016 81 10000 1.5 40 21:37 06.10.2019
6699 Clear 7 1016 75 10000 1 90 21:18 06.10.2019
6700 Clear 7 1016 75 10000 1 90 21:18 06.10.2019
6701 Clear 8 1016 70 10000 3.1 60 20:55 06.10.2019
6702 Clear 8 1016 70 10000 3.1 60 20:36 06.10.2019
6703 Clear 8 1017 75 10000 3.1 60 20:18 06.10.2019
6704 Clouds 8 1017 75 10000 2.6 60 19:55 06.10.2019
6705 Clouds 8 1017 75 10000 2.6 60 19:36 06.10.2019
6706 Clouds 8 1017 75 10000 2.6 60 19:18 06.10.2019
6707 Clouds 9 1017 70 10000 2.1 60 18:55 06.10.2019
6708 Clouds 9 1017 70 10000 2.1 60 18:36 06.10.2019
6709 Clouds 10 1017 66 10000 2.1 50 18:18 06.10.2019
6710 Clouds 10 1017 66 10000 2.1 50 18:18 06.10.2019
6711 Clouds 10 1017 66 10000 2.1 50 18:18 06.10.2019
6712 Clouds 10 1017 66 10000 2.1 50 18:18 06.10.2019
6713 Clouds 11 1017 66 10000 3.1 80 17:42 06.10.2019
6714 Clouds 11 1017 62 10000 4.1 60 17:20 06.10.2019
6715 Clouds 11 1017 62 10000 4.1 60 17:20 06.10.2019
6716 Clouds 11 1017 57 10000 3.6 50 16:56 06.10.2019
6717 Clouds 12 1017 57 10000 3.6 50 16:37 06.10.2019
6718 Clouds 12 1017 57 10000 3.6 50 16:37 06.10.2019
6719 Clouds 12 1018 57 10000 3.6 40 16:18 06.10.2019
6720 Clouds 12 1018 58 10000 3.6 10 15:43 06.10.2019
6721 Clouds 12 1018 62 10000 4.6 40 15:21 06.10.2019
6722 Clouds 12 1018 58 10000 4.6 20 14:56 06.10.2019
6723 Clouds 13 1018 58 10000 4.6 20 14:38 06.10.2019
6724 Clouds 12 1018 62 10000 5.1 30 14:19 06.10.2019
6725 Clouds